<?xml version="1.0" encoding="UTF-8" standalone="no"?>
<gpx xmlns="http://www.topografix.com/GPX/1/1" creator="GPS Master" version="1.1"
xmlns:xsi="http://www.w3.org/2001/XMLSchema-instance"
xsi:schemaLocation="http://www.topografix.com/GPX/1/1 http://www.topografix.com/GPX/1/1/gpx.xsd"
xmlns:gpxtpx="http://www.garmin.com/xmlschemas/TrackPointExtension/v1">
<trk>
 <name>1 (2013-07-05 09:48:28)</name>
 <number>1</number>
 <trkseg>
 <trkpt lat="50.581645000" lon="6.379630000"><ele>294</ele><time>2013-07-05T08:48:28Z</time></trkpt>
 <trkpt lat="50.581646200" lon="6.379644500"><ele>294</ele><time>2013-07-05T08:48:31Z</time></trkpt>
 <trkpt lat="50.581633300" lon="6.379726200"><ele>294</ele><time>2013-07-05T08:48:35Z</time></trkpt>
 <trkpt lat="50.581635300" lon="6.379775300"><ele>294</ele><time>2013-07-05T08:48:39Z</time></trkpt>
 <trkpt lat="50.581648700" lon="6.379767400"><ele>294</ele><time>2013-07-05T08:48:43Z</time></trkpt>
 <trkpt lat="50.581655300" lon="6.379767400"><ele>294</ele><time>2013-07-05T08:48:47Z</time></trkpt>
 <trkpt lat="50.581660300" lon="6.379759500"><ele>294</ele><time>2013-07-05T08:48:51Z</time></trkpt>
 <trkpt lat="50.581668300" lon="6.379757000"><ele>293</ele><time>2013-07-05T08:48:55Z</time></trkpt>
 <trkpt lat="50.581679500" lon="6.379740800"><ele>291</ele><time>2013-07-05T08:48:59Z</time></trkpt>
 <trkpt lat="50.581694100" lon="6.379708700"><ele>290</ele><time>2013-07-05T08:49:03Z</time></trkpt>
 <trkpt lat="50.581717800" lon="6.379699100"><ele>290</ele><time>2013-07-05T08:49:07Z</time></trkpt>
 <trkpt lat="50.581739100" lon="6.379740300"><ele>289</ele><time>2013-07-05T08:49:11Z</time></trkpt>
 <trkpt lat="50.581746600" lon="6.379792900"><ele>289</ele><time>2013-07-05T08:49:15Z</time></trkpt>
 <trkpt lat="50.581781600" lon="6.379798300"><ele>288</ele><time>2013-07-05T08:49:19Z</time></trkpt>
 <trkpt lat="50.581818300" lon="6.379824500"><ele>288</ele><time>2013-07-05T08:49:23Z</time></trkpt>
 <trkpt lat="50.581872400" lon="6.379831200"><ele>287</ele><time>2013-07-05T08:49:27Z</time></trkpt>
 <trkpt lat="50.581927900" lon="6.379839500"><ele>287</ele><time>2013-07-05T08:49:31Z</time></trkpt>
 <trkpt lat="50.581964100" lon="6.379886200"><ele>287</ele><time>2013-07-05T08:49:35Z</time></trkpt>
 <trkpt lat="50.582023200" lon="6.379892800"><ele>286</ele><time>2013-07-05T08:49:39Z</time></trkpt>
 <trkpt lat="50.582044100" lon="6.379916200"><ele>286</ele><time>2013-07-05T08:49:43Z</time></trkpt>
 <trkpt lat="50.582056600" lon="6.379912000"><ele>285</ele><time>2013-07-05T08:49:47Z</time></trkpt>
 <trkpt lat="50.582064900" lon="6.379895800"><ele>285</ele><time>2013-07-05T08:49:51Z</time></trkpt>
 <trkpt lat="50.582083700" lon="6.379869500"><ele>285</ele><time>2013-07-05T08:49:55Z</time></trkpt>
 <trkpt lat="50.582102000" lon="6.379839900"><ele>284</ele><time>2013-07-05T08:49:59Z</time></trkpt>
 <trkpt lat="50.582122400" lon="6.379813700"><ele>284</ele><time>2013-07-05T08:50:03Z</time></trkpt>
 <trkpt lat="50.582135300" lon="6.379794100"><ele>283</ele><time>2013-07-05T08:50:07Z</time></trkpt>
 <trkpt lat="50.582139100" lon="6.379805400"><ele>283</ele><time>2013-07-05T08:50:11Z</time></trkpt>
 <trkpt lat="50.582157000" lon="6.379796600"><ele>283</ele><time>2013-07-05T08:50:15Z</time></trkpt>
 <trkpt lat="50.582160800" lon="6.379788300"><ele>282</ele><time>2013-07-05T08:50:19Z</time></trkpt>
 <trkpt lat="50.582163700" lon="6.379795800"><ele>282</ele><time>2013-07-05T08:50:23Z</time></trkpt>
 <trkpt lat="50.582182800" lon="6.379802000"><ele>282</ele><time>2013-07-05T08:50:27Z</time></trkpt>
 <trkpt lat="50.582200800" lon="6.379850300"><ele>281</ele><time>2013-07-05T08:50:31Z</time></trkpt>
 <trkpt lat="50.582214900" lon="6.379898700"><ele>281</ele><time>2013-07-05T08:50:35Z</time></trkpt>
 <trkpt lat="50.582240300" lon="6.379954900"><ele>280</ele><time>2013-07-05T08:50:39Z</time></trkpt>
 <trkpt lat="50.582297800" lon="6.379982400"><ele>280</ele><time>2013-07-05T08:50:43Z</time></trkpt>
 <trkpt lat="50.582354100" lon="6.380015800"><ele>280</ele><time>2013-07-05T08:50:47Z</time></trkpt>
 <trkpt lat="50.582393700" lon="6.380042900"><ele>280</ele><time>2013-07-05T08:50:51Z</time></trkpt>
 <trkpt lat="50.582434500" lon="6.380072000"><ele>280</ele><time>2013-07-05T08:50:55Z</time></trkpt>
 <trkpt lat="50.582480400" lon="6.380082900"><ele>279</ele><time>2013-07-05T08:50:59Z</time></trkpt>
 <trkpt lat="50.582502800" lon="6.380137400"><ele>279</ele><time>2013-07-05T08:51:03Z</time></trkpt>
 <trkpt lat="50.582544500" lon="6.380168700"><ele>279</ele><time>2013-07-05T08:51:07Z</time></trkpt>
 <trkpt lat="50.582532800" lon="6.380235000"><ele>279</ele><time>2013-07-05T08:51:11Z</time></trkpt>
 <trkpt lat="50.582524500" lon="6.380277400"><ele>279</ele><time>2013-07-05T08:51:15Z</time></trkpt>
 <trkpt lat="50.582512400" lon="6.380303700"><ele>279</ele><time>2013-07-05T08:51:19Z</time></trkpt>
 <trkpt lat="50.582513700" lon="6.380339900"><ele>278</ele><time>2013-07-05T08:51:23Z</time></trkpt>
 <trkpt lat="50.582512800" lon="6.380392400"><ele>278</ele><time>2013-07-05T08:51:27Z</time></trkpt>
 <trkpt lat="50.582513300" lon="6.380442000"><ele>278</ele><time>2013-07-05T08:51:31Z</time></trkpt>
 <trkpt lat="50.582501600" lon="6.380494900"><ele>278</ele><time>2013-07-05T08:51:35Z</time></trkpt>
 <trkpt lat="50.582482800" lon="6.380568300"><ele>278</ele><time>2013-07-05T08:51:39Z</time></trkpt>
 <trkpt lat="50.582457400" lon="6.380640800"><ele>278</ele><time>2013-07-05T08:51:43Z</time></trkpt>
 <trkpt lat="50.582462400" lon="6.380682800"><ele>278</ele><time>2013-07-05T08:51:47Z</time></trkpt>
 <trkpt lat="50.582482400" lon="6.380734500"><ele>278</ele><time>2013-07-05T08:51:51Z</time></trkpt>
 <trkpt lat="50.582474100" lon="6.380824100"><ele>278</ele><time>2013-07-05T08:51:55Z</time></trkpt>
 <trkpt lat="50.582472800" lon="6.380888300"><ele>278</ele><time>2013-07-05T08:51:59Z</time></trkpt>
 <trkpt lat="50.582471600" lon="6.380942400"><ele>278</ele><time>2013-07-05T08:52:03Z</time></trkpt>
 <trkpt lat="50.582467400" lon="6.380995300"><ele>278</ele><time>2013-07-05T08:52:07Z</time></trkpt>
 <trkpt lat="50.582477400" lon="6.381027400"><ele>279</ele><time>2013-07-05T08:52:11Z</time></trkpt>
 <trkpt lat="50.582486200" lon="6.381064900"><ele>279</ele><time>2013-07-05T08:52:15Z</time></trkpt>
 <trkpt lat="50.582508300" lon="6.381084500"><ele>279</ele><time>2013-07-05T08:52:19Z</time></trkpt>
 <trkpt lat="50.582554100" lon="6.381114900"><ele>280</ele><time>2013-07-05T08:52:23Z</time></trkpt>
 <trkpt lat="50.582540400" lon="6.381204900"><ele>280</ele><time>2013-07-05T08:52:27Z</time></trkpt>
 <trkpt lat="50.582523700" lon="6.381269500"><ele>281</ele><time>2013-07-05T08:52:31Z</time></trkpt>
 <trkpt lat="50.582484900" lon="6.381351600"><ele>282</ele><time>2013-07-05T08:52:35Z</time></trkpt>
 <trkpt lat="50.582469900" lon="6.381422400"><ele>283</ele><time>2013-07-05T08:52:39Z</time></trkpt>
 <trkpt lat="50.582485800" lon="6.381444100"><ele>284</ele><time>2013-07-05T08:52:43Z</time></trkpt>
 <trkpt lat="50.582494500" lon="6.381434900"><ele>285</ele><time>2013-07-05T08:52:47Z</time></trkpt>
 <trkpt lat="50.582502400" lon="6.381434100"><ele>286</ele><time>2013-07-05T08:52:51Z</time></trkpt>
 <trkpt lat="50.582512400" lon="6.381427400"><ele>287</ele><time>2013-07-05T08:52:55Z</time></trkpt>
 <trkpt lat="50.582539100" lon="6.381454100"><ele>289</ele><time>2013-07-05T08:52:59Z</time></trkpt>
 <trkpt lat="50.582658300" lon="6.381434900"><ele>290</ele><time>2013-07-05T08:53:03Z</time></trkpt>
 <trkpt lat="50.582646200" lon="6.381497400"><ele>292</ele><time>2013-07-05T08:53:07Z</time></trkpt>
 <trkpt lat="50.582611600" lon="6.381569500"><ele>293</ele><time>2013-07-05T08:53:11Z</time></trkpt>
 <trkpt lat="50.582579100" lon="6.381613300"><ele>295</ele><time>2013-07-05T08:53:15Z</time></trkpt>
 <trkpt lat="50.582536600" lon="6.381683700"><ele>296</ele><time>2013-07-05T08:53:19Z</time></trkpt>
 <trkpt lat="50.582490800" lon="6.381764100"><ele>298</ele><time>2013-07-05T08:53:23Z</time></trkpt>
 <trkpt lat="50.582433700" lon="6.381863300"><ele>299</ele><time>2013-07-05T08:53:27Z</time></trkpt>
 <trkpt lat="50.582388700" lon="6.381945300"><ele>301</ele><time>2013-07-05T08:53:31Z</time></trkpt>
 <trkpt lat="50.582348700" lon="6.382013700"><ele>302</ele><time>2013-07-05T08:53:35Z</time></trkpt>
 <trkpt lat="50.582363200" lon="6.381977800"><ele>304</ele><time>2013-07-05T08:53:39Z</time></trkpt>
 <trkpt lat="50.582388300" lon="6.381931600"><ele>306</ele><time>2013-07-05T08:53:43Z</time></trkpt>
 <trkpt lat="50.582366600" lon="6.381957400"><ele>307</ele><time>2013-07-05T08:53:47Z</time></trkpt>
 <trkpt lat="50.582334500" lon="6.381979900"><ele>309</ele><time>2013-07-05T08:53:51Z</time></trkpt>
 <trkpt lat="50.582284900" lon="6.381995300"><ele>310</ele><time>2013-07-05T08:53:55Z</time></trkpt>
 <trkpt lat="50.582243700" lon="6.382000400"><ele>312</ele><time>2013-07-05T08:53:59Z</time></trkpt>
 <trkpt lat="50.582207800" lon="6.381988700"><ele>313</ele><time>2013-07-05T08:54:03Z</time></trkpt>
 <trkpt lat="50.582167800" lon="6.381989100"><ele>315</ele><time>2013-07-05T08:54:07Z</time></trkpt>
 <trkpt lat="50.582123300" lon="6.382006600"><ele>316</ele><time>2013-07-05T08:54:11Z</time></trkpt>
 <trkpt lat="50.582081600" lon="6.382040700"><ele>317</ele><time>2013-07-05T08:54:15Z</time></trkpt>
 <trkpt lat="50.582031200" lon="6.382058700"><ele>319</ele><time>2013-07-05T08:54:19Z</time></trkpt>
 <trkpt lat="50.581988300" lon="6.382081600"><ele>320</ele><time>2013-07-05T08:54:23Z</time></trkpt>
 <trkpt lat="50.581952000" lon="6.382099900"><ele>321</ele><time>2013-07-05T08:54:27Z</time></trkpt>
 <trkpt lat="50.581938700" lon="6.382115800"><ele>322</ele><time>2013-07-05T08:54:31Z</time></trkpt>
 <trkpt lat="50.581932000" lon="6.382161200"><ele>324</ele><time>2013-07-05T08:54:35Z</time></trkpt>
 <trkpt lat="50.581924100" lon="6.382213700"><ele>325</ele><time>2013-07-05T08:54:39Z</time></trkpt>
 <trkpt lat="50.581916200" lon="6.382257800"><ele>326</ele><time>2013-07-05T08:54:43Z</time></trkpt>
 <trkpt lat="50.581907000" lon="6.382295800"><ele>327</ele><time>2013-07-05T08:54:47Z</time></trkpt>
 <trkpt lat="50.581897800" lon="6.382317400"><ele>328</ele><time>2013-07-05T08:54:51Z</time></trkpt>
 <trkpt lat="50.581887000" lon="6.382346200"><ele>329</ele><time>2013-07-05T08:54:55Z</time></trkpt>
 <trkpt lat="50.581884100" lon="6.382381200"><ele>329</ele><time>2013-07-05T08:54:59Z</time></trkpt>
 <trkpt lat="50.581878700" lon="6.382426200"><ele>330</ele><time>2013-07-05T08:55:03Z</time></trkpt>
 <trkpt lat="50.581868700" lon="6.382474500"><ele>331</ele><time>2013-07-05T08:55:07Z</time></trkpt>
 <trkpt lat="50.581850800" lon="6.382511200"><ele>332</ele><time>2013-07-05T08:55:11Z</time></trkpt>
 <trkpt lat="50.581843300" lon="6.382526200"><ele>332</ele><time>2013-07-05T08:55:15Z</time></trkpt>
 <trkpt lat="50.581842800" lon="6.382535300"><ele>333</ele><time>2013-07-05T08:55:19Z</time></trkpt>
 <trkpt lat="50.581844100" lon="6.382544500"><ele>333</ele><time>2013-07-05T08:55:23Z</time></trkpt>
 <trkpt lat="50.581850300" lon="6.382559500"><ele>334</ele><time>2013-07-05T08:55:27Z</time></trkpt>
 <trkpt lat="50.581853300" lon="6.382552400"><ele>334</ele><time>2013-07-05T08:55:31Z</time></trkpt>
 <trkpt lat="50.581858700" lon="6.382549100"><ele>334</ele><time>2013-07-05T08:55:35Z</time></trkpt>
 <trkpt lat="50.581856600" lon="6.382561600"><ele>334</ele><time>2013-07-05T08:55:39Z</time></trkpt>
 <trkpt lat="50.581856600" lon="6.382561600"><ele>335</ele><time>2013-07-05T08:55:43Z</time></trkpt>
 <trkpt lat="50.581856600" lon="6.382561600"><ele>335</ele><time>2013-07-05T08:55:47Z</time></trkpt>
 <trkpt lat="50.581855800" lon="6.382550800"><ele>335</ele><time>2013-07-05T08:55:51Z</time></trkpt>
 <trkpt lat="50.581858300" lon="6.382542000"><ele>335</ele><time>2013-07-05T08:55:55Z</time></trkpt>
 <trkpt lat="50.581862000" lon="6.382567400"><ele>335</ele><time>2013-07-05T08:55:59Z</time></trkpt>
 <trkpt lat="50.581864100" lon="6.382606200"><ele>335</ele><time>2013-07-05T08:56:03Z</time></trkpt>
 <trkpt lat="50.581849500" lon="6.382649100"><ele>335</ele><time>2013-07-05T08:56:07Z</time></trkpt>
 <trkpt lat="50.581827800" lon="6.382684100"><ele>335</ele><time>2013-07-05T08:56:11Z</time></trkpt>
 <trkpt lat="50.581812900" lon="6.382718300"><ele>335</ele><time>2013-07-05T08:56:15Z</time></trkpt>
 <trkpt lat="50.581789500" lon="6.382758700"><ele>335</ele><time>2013-07-05T08:56:19Z</time></trkpt>
 <trkpt lat="50.581764100" lon="6.382807000"><ele>335</ele><time>2013-07-05T08:56:23Z</time></trkpt>
 <trkpt lat="50.581738700" lon="6.382855300"><ele>335</ele><time>2013-07-05T08:56:27Z</time></trkpt>
 <trkpt lat="50.581722000" lon="6.382893700"><ele>335</ele><time>2013-07-05T08:56:31Z</time></trkpt>
 <trkpt lat="50.581714500" lon="6.382924500"><ele>335</ele><time>2013-07-05T08:56:35Z</time></trkpt>
 <trkpt lat="50.581708700" lon="6.382964900"><ele>335</ele><time>2013-07-05T08:56:39Z</time></trkpt>
 <trkpt lat="50.581705400" lon="6.382976200"><ele>335</ele><time>2013-07-05T08:56:43Z</time></trkpt>
 <trkpt lat="50.581692800" lon="6.382991600"><ele>335</ele><time>2013-07-05T08:56:47Z</time></trkpt>
 <trkpt lat="50.581692800" lon="6.382991600"><ele>335</ele><time>2013-07-05T08:56:51Z</time></trkpt>
 <trkpt lat="50.581691600" lon="6.382982000"><ele>335</ele><time>2013-07-05T08:56:55Z</time></trkpt>
 <trkpt lat="50.581685300" lon="6.382978300"><ele>335</ele><time>2013-07-05T08:56:59Z</time></trkpt>
 <trkpt lat="50.581679900" lon="6.382976600"><ele>334</ele><time>2013-07-05T08:57:03Z</time></trkpt>
 <trkpt lat="50.581674500" lon="6.382975000"><ele>334</ele><time>2013-07-05T08:57:07Z</time></trkpt>
 <trkpt lat="50.581669100" lon="6.382975000"><ele>334</ele><time>2013-07-05T08:57:11Z</time></trkpt>
 <trkpt lat="50.581669100" lon="6.382975000"><ele>334</ele><time>2013-07-05T08:57:15Z</time></trkpt>
 <trkpt lat="50.581672800" lon="6.382982900"><ele>334</ele><time>2013-07-05T08:57:19Z</time></trkpt>
 <trkpt lat="50.581674100" lon="6.383014900"><ele>334</ele><time>2013-07-05T08:57:23Z</time></trkpt>
 <trkpt lat="50.581669500" lon="6.383060300"><ele>334</ele><time>2013-07-05T08:57:27Z</time></trkpt>
 <trkpt lat="50.581660300" lon="6.383100300"><ele>334</ele><time>2013-07-05T08:57:31Z</time></trkpt>
 <trkpt lat="50.581644500" lon="6.383147900"><ele>334</ele><time>2013-07-05T08:57:35Z</time></trkpt>
 <trkpt lat="50.581626200" lon="6.383198700"><ele>334</ele><time>2013-07-05T08:57:39Z</time></trkpt>
 <trkpt lat="50.581608700" lon="6.383245800"><ele>335</ele><time>2013-07-05T08:57:43Z</time></trkpt>
 <trkpt lat="50.581588700" lon="6.383289100"><ele>335</ele><time>2013-07-05T08:57:47Z</time></trkpt>
 <trkpt lat="50.581575800" lon="6.383343700"><ele>335</ele><time>2013-07-05T08:57:51Z</time></trkpt>
 <trkpt lat="50.581564900" lon="6.383392800"><ele>335</ele><time>2013-07-05T08:57:55Z</time></trkpt>
 <trkpt lat="50.581564900" lon="6.383392800"><ele>335</ele><time>2013-07-05T08:57:59Z</time></trkpt>
 <trkpt lat="50.581575300" lon="6.383393200"><ele>335</ele><time>2013-07-05T08:58:03Z</time></trkpt>
 <trkpt lat="50.581595300" lon="6.383454100"><ele>336</ele><time>2013-07-05T08:58:07Z</time></trkpt>
 <trkpt lat="50.581612900" lon="6.383526200"><ele>336</ele><time>2013-07-05T08:58:11Z</time></trkpt>
 <trkpt lat="50.581629500" lon="6.383580800"><ele>337</ele><time>2013-07-05T08:58:15Z</time></trkpt>
 <trkpt lat="50.581649100" lon="6.383629100"><ele>337</ele><time>2013-07-05T08:58:19Z</time></trkpt>
 <trkpt lat="50.581673700" lon="6.383688700"><ele>337</ele><time>2013-07-05T08:58:23Z</time></trkpt>
 <trkpt lat="50.581700300" lon="6.383744500"><ele>338</ele><time>2013-07-05T08:58:27Z</time></trkpt>
 <trkpt lat="50.581741200" lon="6.383789500"><ele>338</ele><time>2013-07-05T08:58:31Z</time></trkpt>
 <trkpt lat="50.581771600" lon="6.383840400"><ele>338</ele><time>2013-07-05T08:58:35Z</time></trkpt>
 <trkpt lat="50.581804100" lon="6.383894500"><ele>339</ele><time>2013-07-05T08:58:39Z</time></trkpt>
 <trkpt lat="50.581819900" lon="6.383899500"><ele>339</ele><time>2013-07-05T08:58:43Z</time></trkpt>
 <trkpt lat="50.581816200" lon="6.383891600"><ele>339</ele><time>2013-07-05T08:58:47Z</time></trkpt>
 <trkpt lat="50.581816200" lon="6.383891600"><ele>340</ele><time>2013-07-05T08:58:51Z</time></trkpt>
 <trkpt lat="50.581824100" lon="6.383926600"><ele>340</ele><time>2013-07-05T08:58:55Z</time></trkpt>
 <trkpt lat="50.581836200" lon="6.383952400"><ele>340</ele><time>2013-07-05T08:58:59Z</time></trkpt>
 <trkpt lat="50.581842400" lon="6.383958700"><ele>340</ele><time>2013-07-05T08:59:03Z</time></trkpt>
 <trkpt lat="50.581848300" lon="6.383962400"><ele>341</ele><time>2013-07-05T08:59:07Z</time></trkpt>
 <trkpt lat="50.581852400" lon="6.383968700"><ele>341</ele><time>2013-07-05T08:59:11Z</time></trkpt>
 <trkpt lat="50.581852400" lon="6.383968700"><ele>341</ele><time>2013-07-05T08:59:15Z</time></trkpt>
 <trkpt lat="50.581852400" lon="6.383968700"><ele>341</ele><time>2013-07-05T08:59:19Z</time></trkpt>
 <trkpt lat="50.581852400" lon="6.383968700"><ele>341</ele><time>2013-07-05T08:59:23Z</time></trkpt>
 <trkpt lat="50.581866200" lon="6.384001200"><ele>341</ele><time>2013-07-05T08:59:27Z</time></trkpt>
 <trkpt lat="50.581882900" lon="6.384047000"><ele>340</ele><time>2013-07-05T08:59:31Z</time></trkpt>
 <trkpt lat="50.581888300" lon="6.384102000"><ele>340</ele><time>2013-07-05T08:59:35Z</time></trkpt>
 <trkpt lat="50.581907000" lon="6.384159100"><ele>340</ele><time>2013-07-05T08:59:39Z</time></trkpt>
 <trkpt lat="50.581934100" lon="6.384209900"><ele>340</ele><time>2013-07-05T08:59:43Z</time></trkpt>
 <trkpt lat="50.581958300" lon="6.384257400"><ele>340</ele><time>2013-07-05T08:59:47Z</time></trkpt>
 <trkpt lat="50.581983300" lon="6.384302000"><ele>340</ele><time>2013-07-05T08:59:51Z</time></trkpt>
 <trkpt lat="50.582012400" lon="6.384357400"><ele>340</ele><time>2013-07-05T08:59:55Z</time></trkpt>
 <trkpt lat="50.582042800" lon="6.384415300"><ele>340</ele><time>2013-07-05T08:59:59Z</time></trkpt>
 <trkpt lat="50.582062900" lon="6.384469100"><ele>340</ele><time>2013-07-05T09:00:03Z</time></trkpt>
 <trkpt lat="50.582088300" lon="6.384526600"><ele>340</ele><time>2013-07-05T09:00:07Z</time></trkpt>
 <trkpt lat="50.582116200" lon="6.384593700"><ele>340</ele><time>2013-07-05T09:00:11Z</time></trkpt>
 <trkpt lat="50.582149500" lon="6.384641600"><ele>340</ele><time>2013-07-05T09:00:15Z</time></trkpt>
 <trkpt lat="50.582180300" lon="6.384672400"><ele>340</ele><time>2013-07-05T09:00:19Z</time></trkpt>
 <trkpt lat="50.582205800" lon="6.384746200"><ele>341</ele><time>2013-07-05T09:00:23Z</time></trkpt>
 <trkpt lat="50.582229500" lon="6.384809500"><ele>341</ele><time>2013-07-05T09:00:27Z</time></trkpt>
 <trkpt lat="50.582262900" lon="6.384859900"><ele>341</ele><time>2013-07-05T09:00:31Z</time></trkpt>
 <trkpt lat="50.582295300" lon="6.384913700"><ele>342</ele><time>2013-07-05T09:00:35Z</time></trkpt>
 <trkpt lat="50.582327000" lon="6.384962800"><ele>342</ele><time>2013-07-05T09:00:39Z</time></trkpt>
 <trkpt lat="50.582360800" lon="6.385016600"><ele>343</ele><time>2013-07-05T09:00:43Z</time></trkpt>
 <trkpt lat="50.582382900" lon="6.385083700"><ele>343</ele><time>2013-07-05T09:00:47Z</time></trkpt>
 <trkpt lat="50.582407800" lon="6.385162400"><ele>343</ele><time>2013-07-05T09:00:51Z</time></trkpt>
 <trkpt lat="50.582441600" lon="6.385234500"><ele>344</ele><time>2013-07-05T09:00:55Z</time></trkpt>
 <trkpt lat="50.582469500" lon="6.385289900"><ele>344</ele><time>2013-07-05T09:00:59Z</time></trkpt>
 <trkpt lat="50.582431200" lon="6.385344100"><ele>344</ele><time>2013-07-05T09:01:03Z</time></trkpt>
 <trkpt lat="50.582445800" lon="6.385395300"><ele>345</ele><time>2013-07-05T09:01:07Z</time></trkpt>
 <trkpt lat="50.582462800" lon="6.385454500"><ele>345</ele><time>2013-07-05T09:01:11Z</time></trkpt>
 <trkpt lat="50.582500800" lon="6.385504100"><ele>345</ele><time>2013-07-05T09:01:15Z</time></trkpt>
 <trkpt lat="50.582513700" lon="6.385563300"><ele>345</ele><time>2013-07-05T09:01:19Z</time></trkpt>
 <trkpt lat="50.582532800" lon="6.385622400"><ele>345</ele><time>2013-07-05T09:01:23Z</time></trkpt>
 <trkpt lat="50.582551200" lon="6.385679100"><ele>346</ele><time>2013-07-05T09:01:27Z</time></trkpt>
 <trkpt lat="50.582537800" lon="6.385732000"><ele>346</ele><time>2013-07-05T09:01:31Z</time></trkpt>
 <trkpt lat="50.582513300" lon="6.385770400"><ele>346</ele><time>2013-07-05T09:01:35Z</time></trkpt>
 <trkpt lat="50.582486200" lon="6.385793300"><ele>346</ele><time>2013-07-05T09:01:39Z</time></trkpt>
 <trkpt lat="50.582452800" lon="6.385819100"><ele>346</ele><time>2013-07-05T09:01:43Z</time></trkpt>
 <trkpt lat="50.582419900" lon="6.385826600"><ele>346</ele><time>2013-07-05T09:01:47Z</time></trkpt>
 <trkpt lat="50.582386600" lon="6.385851200"><ele>347</ele><time>2013-07-05T09:01:51Z</time></trkpt>
 <trkpt lat="50.582360800" lon="6.385888700"><ele>347</ele><time>2013-07-05T09:01:55Z</time></trkpt>
 <trkpt lat="50.582334900" lon="6.385924500"><ele>347</ele><time>2013-07-05T09:01:59Z</time></trkpt>
 <trkpt lat="50.582311200" lon="6.385953300"><ele>348</ele><time>2013-07-05T09:02:03Z</time></trkpt>
 <trkpt lat="50.582290800" lon="6.385981600"><ele>348</ele><time>2013-07-05T09:02:07Z</time></trkpt>
 <trkpt lat="50.582264500" lon="6.386007400"><ele>349</ele><time>2013-07-05T09:02:11Z</time></trkpt>
 <trkpt lat="50.582249500" lon="6.386022000"><ele>349</ele><time>2013-07-05T09:02:15Z</time></trkpt>
 <trkpt lat="50.582231200" lon="6.386037000"><ele>350</ele><time>2013-07-05T09:02:19Z</time></trkpt>
 <trkpt lat="50.582221200" lon="6.386054900"><ele>350</ele><time>2013-07-05T09:02:23Z</time></trkpt>
 <trkpt lat="50.582215800" lon="6.386059500"><ele>351</ele><time>2013-07-05T09:02:27Z</time></trkpt>
 <trkpt lat="50.582211200" lon="6.386064100"><ele>351</ele><time>2013-07-05T09:02:31Z</time></trkpt>
 <trkpt lat="50.582211200" lon="6.386064100"><ele>351</ele><time>2013-07-05T09:02:35Z</time></trkpt>
 <trkpt lat="50.582211200" lon="6.386064100"><ele>352</ele><time>2013-07-05T09:02:39Z</time></trkpt>
 <trkpt lat="50.582211200" lon="6.386064100"><ele>352</ele><time>2013-07-05T09:02:43Z</time></trkpt>
 <trkpt lat="50.582211600" lon="6.386073700"><ele>352</ele><time>2013-07-05T09:02:47Z</time></trkpt>
 <trkpt lat="50.582211600" lon="6.386073700"><ele>352</ele><time>2013-07-05T09:02:51Z</time></trkpt>
 <trkpt lat="50.582210800" lon="6.386082800"><ele>352</ele><time>2013-07-05T09:02:55Z</time></trkpt>
 <trkpt lat="50.582209100" lon="6.386092000"><ele>352</ele><time>2013-07-05T09:02:59Z</time></trkpt>
 <trkpt lat="50.582204100" lon="6.386101200"><ele>352</ele><time>2013-07-05T09:03:03Z</time></trkpt>
 <trkpt lat="50.582179500" lon="6.386116200"><ele>352</ele><time>2013-07-05T09:03:07Z</time></trkpt>
 <trkpt lat="50.582150700" lon="6.386129500"><ele>351</ele><time>2013-07-05T09:03:11Z</time></trkpt>
 <trkpt lat="50.582119900" lon="6.386145400"><ele>351</ele><time>2013-07-05T09:03:15Z</time></trkpt>
 <trkpt lat="50.582096200" lon="6.386171600"><ele>351</ele><time>2013-07-05T09:03:19Z</time></trkpt>
 <trkpt lat="50.582087000" lon="6.386213700"><ele>351</ele><time>2013-07-05T09:03:23Z</time></trkpt>
 <trkpt lat="50.582094500" lon="6.386247900"><ele>351</ele><time>2013-07-05T09:03:27Z</time></trkpt>
 <trkpt lat="50.582097400" lon="6.386285300"><ele>350</ele><time>2013-07-05T09:03:31Z</time></trkpt>
 <trkpt lat="50.582107800" lon="6.386345400"><ele>350</ele><time>2013-07-05T09:03:35Z</time></trkpt>
 <trkpt lat="50.582117900" lon="6.386419100"><ele>350</ele><time>2013-07-05T09:03:39Z</time></trkpt>
 <trkpt lat="50.582137000" lon="6.386491200"><ele>350</ele><time>2013-07-05T09:03:43Z</time></trkpt>
 <trkpt lat="50.582147000" lon="6.386567400"><ele>350</ele><time>2013-07-05T09:03:47Z</time></trkpt>
 <trkpt lat="50.582164500" lon="6.386639100"><ele>350</ele><time>2013-07-05T09:03:51Z</time></trkpt>
 <trkpt lat="50.582192800" lon="6.386675300"><ele>350</ele><time>2013-07-05T09:03:55Z</time></trkpt>
 <trkpt lat="50.582199500" lon="6.386732000"><ele>350</ele><time>2013-07-05T09:03:59Z</time></trkpt>
 <trkpt lat="50.582216600" lon="6.386797400"><ele>350</ele><time>2013-07-05T09:04:03Z</time></trkpt>
 <trkpt lat="50.582253300" lon="6.386859900"><ele>350</ele><time>2013-07-05T09:04:07Z</time></trkpt>
 <trkpt lat="50.582284100" lon="6.386913700"><ele>350</ele><time>2013-07-05T09:04:11Z</time></trkpt>
 <trkpt lat="50.582316200" lon="6.386972000"><ele>351</ele><time>2013-07-05T09:04:15Z</time></trkpt>
 <trkpt lat="50.582344500" lon="6.387026200"><ele>352</ele><time>2013-07-05T09:04:19Z</time></trkpt>
 <trkpt lat="50.582375700" lon="6.387085800"><ele>352</ele><time>2013-07-05T09:04:23Z</time></trkpt>
 <trkpt lat="50.582394100" lon="6.387129500"><ele>353</ele><time>2013-07-05T09:04:27Z</time></trkpt>
 <trkpt lat="50.582403700" lon="6.387188700"><ele>354</ele><time>2013-07-05T09:04:31Z</time></trkpt>
 <trkpt lat="50.582429100" lon="6.387237400"><ele>356</ele><time>2013-07-05T09:04:35Z</time></trkpt>
 <trkpt lat="50.582468300" lon="6.387283700"><ele>357</ele><time>2013-07-05T09:04:39Z</time></trkpt>
 <trkpt lat="50.582492000" lon="6.387318700"><ele>358</ele><time>2013-07-05T09:04:43Z</time></trkpt>
 <trkpt lat="50.582540800" lon="6.387346200"><ele>360</ele><time>2013-07-05T09:04:47Z</time></trkpt>
 <trkpt lat="50.582585800" lon="6.387378700"><ele>361</ele><time>2013-07-05T09:04:51Z</time></trkpt>
 <trkpt lat="50.582637000" lon="6.387424100"><ele>363</ele><time>2013-07-05T09:04:55Z</time></trkpt>
 <trkpt lat="50.582687400" lon="6.387463700"><ele>365</ele><time>2013-07-05T09:04:59Z</time></trkpt>
 <trkpt lat="50.582749100" lon="6.387529100"><ele>367</ele><time>2013-07-05T09:05:03Z</time></trkpt>
 <trkpt lat="50.582797000" lon="6.387614500"><ele>368</ele><time>2013-07-05T09:05:07Z</time></trkpt>
 <trkpt lat="50.582844500" lon="6.387693700"><ele>369</ele><time>2013-07-05T09:05:11Z</time></trkpt>
 <trkpt lat="50.582895800" lon="6.387739900"><ele>371</ele><time>2013-07-05T09:05:15Z</time></trkpt>
 <trkpt lat="50.582924900" lon="6.387792900"><ele>372</ele><time>2013-07-05T09:05:19Z</time></trkpt>
 <trkpt lat="50.582860700" lon="6.387812000"><ele>373</ele><time>2013-07-05T09:05:23Z</time></trkpt>
 <trkpt lat="50.582855800" lon="6.387857800"><ele>374</ele><time>2013-07-05T09:05:27Z</time></trkpt>
 <trkpt lat="50.582857800" lon="6.387917000"><ele>375</ele><time>2013-07-05T09:05:31Z</time></trkpt>
 <trkpt lat="50.582857900" lon="6.387966600"><ele>376</ele><time>2013-07-05T09:05:35Z</time></trkpt>
 <trkpt lat="50.582857000" lon="6.387996200"><ele>377</ele><time>2013-07-05T09:05:39Z</time></trkpt>
 <trkpt lat="50.582858300" lon="6.388034900"><ele>378</ele><time>2013-07-05T09:05:43Z</time></trkpt>
 <trkpt lat="50.582849500" lon="6.388069100"><ele>379</ele><time>2013-07-05T09:05:47Z</time></trkpt>
 <trkpt lat="50.582844900" lon="6.388100400"><ele>379</ele><time>2013-07-05T09:05:51Z</time></trkpt>
 <trkpt lat="50.582837800" lon="6.388129500"><ele>380</ele><time>2013-07-05T09:05:55Z</time></trkpt>
 <trkpt lat="50.582846600" lon="6.388158700"><ele>380</ele><time>2013-07-05T09:05:59Z</time></trkpt>
 <trkpt lat="50.582829500" lon="6.388212400"><ele>381</ele><time>2013-07-05T09:06:03Z</time></trkpt>
 <trkpt lat="50.582812800" lon="6.388261200"><ele>381</ele><time>2013-07-05T09:06:07Z</time></trkpt>
 <trkpt lat="50.582801600" lon="6.388318700"><ele>382</ele><time>2013-07-05T09:06:11Z</time></trkpt>
 <trkpt lat="50.582802400" lon="6.388380800"><ele>383</ele><time>2013-07-05T09:06:15Z</time></trkpt>
 <trkpt lat="50.582804100" lon="6.388425000"><ele>383</ele><time>2013-07-05T09:06:19Z</time></trkpt>
 <trkpt lat="50.582807400" lon="6.388467400"><ele>384</ele><time>2013-07-05T09:06:23Z</time></trkpt>
 <trkpt lat="50.582809500" lon="6.388507400"><ele>385</ele><time>2013-07-05T09:06:27Z</time></trkpt>
 <trkpt lat="50.582806200" lon="6.388551200"><ele>386</ele><time>2013-07-05T09:06:31Z</time></trkpt>
 <trkpt lat="50.582787900" lon="6.388601200"><ele>386</ele><time>2013-07-05T09:06:35Z</time></trkpt>
 <trkpt lat="50.582774500" lon="6.388648300"><ele>387</ele><time>2013-07-05T09:06:39Z</time></trkpt>
 <trkpt lat="50.582766600" lon="6.388701200"><ele>388</ele><time>2013-07-05T09:06:43Z</time></trkpt>
 <trkpt lat="50.582760800" lon="6.388767400"><ele>388</ele><time>2013-07-05T09:06:47Z</time></trkpt>
 <trkpt lat="50.582757000" lon="6.388815800"><ele>389</ele><time>2013-07-05T09:06:51Z</time></trkpt>
 <trkpt lat="50.582751200" lon="6.388849500"><ele>390</ele><time>2013-07-05T09:06:55Z</time></trkpt>
 <trkpt lat="50.582752900" lon="6.388896600"><ele>391</ele><time>2013-07-05T09:06:59Z</time></trkpt>
 <trkpt lat="50.582763200" lon="6.388952400"><ele>391</ele><time>2013-07-05T09:07:03Z</time></trkpt>
 <trkpt lat="50.582780800" lon="6.389017400"><ele>392</ele><time>2013-07-05T09:07:07Z</time></trkpt>
 <trkpt lat="50.582797800" lon="6.389064900"><ele>393</ele><time>2013-07-05T09:07:11Z</time></trkpt>
 <trkpt lat="50.582793200" lon="6.389113300"><ele>394</ele><time>2013-07-05T09:07:15Z</time></trkpt>
 <trkpt lat="50.582789100" lon="6.389160800"><ele>394</ele><time>2013-07-05T09:07:19Z</time></trkpt>
 <trkpt lat="50.582773300" lon="6.389199100"><ele>395</ele><time>2013-07-05T09:07:23Z</time></trkpt>
 <trkpt lat="50.582767800" lon="6.389259500"><ele>396</ele><time>2013-07-05T09:07:27Z</time></trkpt>
 <trkpt lat="50.582777400" lon="6.389312400"><ele>396</ele><time>2013-07-05T09:07:31Z</time></trkpt>
 <trkpt lat="50.582796200" lon="6.389339100"><ele>397</ele><time>2013-07-05T09:07:35Z</time></trkpt>
 <trkpt lat="50.582829100" lon="6.389357000"><ele>398</ele><time>2013-07-05T09:07:39Z</time></trkpt>
 <trkpt lat="50.582857800" lon="6.389387800"><ele>399</ele><time>2013-07-05T09:07:43Z</time></trkpt>
 <trkpt lat="50.582889500" lon="6.389433200"><ele>399</ele><time>2013-07-05T09:07:47Z</time></trkpt>
 <trkpt lat="50.582908700" lon="6.389459500"><ele>400</ele><time>2013-07-05T09:07:51Z</time></trkpt>
 <trkpt lat="50.582936200" lon="6.389473300"><ele>401</ele><time>2013-07-05T09:07:55Z</time></trkpt>
 <trkpt lat="50.582945800" lon="6.389477900"><ele>401</ele><time>2013-07-05T09:07:59Z</time></trkpt>
 <trkpt lat="50.582940300" lon="6.389430300"><ele>402</ele><time>2013-07-05T09:08:03Z</time></trkpt>
 <trkpt lat="50.582937800" lon="6.389385800"><ele>402</ele><time>2013-07-05T09:08:07Z</time></trkpt>
 <trkpt lat="50.582929500" lon="6.389362000"><ele>403</ele><time>2013-07-05T09:08:11Z</time></trkpt>
 <trkpt lat="50.582922000" lon="6.389352000"><ele>403</ele><time>2013-07-05T09:08:15Z</time></trkpt>
 <trkpt lat="50.582918700" lon="6.389344100"><ele>404</ele><time>2013-07-05T09:08:19Z</time></trkpt>
 <trkpt lat="50.582915800" lon="6.389335400"><ele>404</ele><time>2013-07-05T09:08:23Z</time></trkpt>
 <trkpt lat="50.582882800" lon="6.389319900"><ele>404</ele><time>2013-07-05T09:08:27Z</time></trkpt>
 <trkpt lat="50.582837400" lon="6.389302800"><ele>405</ele><time>2013-07-05T09:08:31Z</time></trkpt>
 <trkpt lat="50.582812000" lon="6.389289100"><ele>405</ele><time>2013-07-05T09:08:35Z</time></trkpt>
 <trkpt lat="50.582796600" lon="6.389273700"><ele>405</ele><time>2013-07-05T09:08:39Z</time></trkpt>
 <trkpt lat="50.582791200" lon="6.389270300"><ele>405</ele><time>2013-07-05T09:08:43Z</time></trkpt>
 <trkpt lat="50.582784500" lon="6.389271200"><ele>404</ele><time>2013-07-05T09:08:47Z</time></trkpt>
 <trkpt lat="50.582780000" lon="6.389263300"><ele>404</ele><time>2013-07-05T09:08:51Z</time></trkpt>
 <trkpt lat="50.582775800" lon="6.389243300"><ele>404</ele><time>2013-07-05T09:08:55Z</time></trkpt>
 <trkpt lat="50.582750000" lon="6.389199100"><ele>403</ele><time>2013-07-05T09:08:59Z</time></trkpt>
 <trkpt lat="50.582692400" lon="6.389178300"><ele>403</ele><time>2013-07-05T09:09:03Z</time></trkpt>
 <trkpt lat="50.582680800" lon="6.389141200"><ele>402</ele><time>2013-07-05T09:09:07Z</time></trkpt>
 <trkpt lat="50.582685300" lon="6.389112000"><ele>402</ele><time>2013-07-05T09:09:11Z</time></trkpt>
 <trkpt lat="50.582690300" lon="6.389117000"><ele>401</ele><time>2013-07-05T09:09:15Z</time></trkpt>
 <trkpt lat="50.582685800" lon="6.389122800"><ele>400</ele><time>2013-07-05T09:09:19Z</time></trkpt>
 <trkpt lat="50.582658700" lon="6.389113300"><ele>400</ele><time>2013-07-05T09:09:23Z</time></trkpt>
 <trkpt lat="50.582652900" lon="6.389110800"><ele>399</ele><time>2013-07-05T09:09:27Z</time></trkpt>
 <trkpt lat="50.582665300" lon="6.389138300"><ele>398</ele><time>2013-07-05T09:09:31Z</time></trkpt>
 <trkpt lat="50.582672800" lon="6.389099100"><ele>397</ele><time>2013-07-05T09:09:35Z</time></trkpt>
 <trkpt lat="50.582683300" lon="6.389087000"><ele>397</ele><time>2013-07-05T09:09:39Z</time></trkpt>
 <trkpt lat="50.582713300" lon="6.389113300"><ele>396</ele><time>2013-07-05T09:09:43Z</time></trkpt>
 <trkpt lat="50.582718700" lon="6.389170800"><ele>395</ele><time>2013-07-05T09:09:47Z</time></trkpt>
 <trkpt lat="50.582724900" lon="6.389207000"><ele>395</ele><time>2013-07-05T09:09:51Z</time></trkpt>
 <trkpt lat="50.582727000" lon="6.389228300"><ele>394</ele><time>2013-07-05T09:09:55Z</time></trkpt>
 <trkpt lat="50.582727000" lon="6.389228300"><ele>394</ele><time>2013-07-05T09:09:59Z</time></trkpt>
 <trkpt lat="50.582727000" lon="6.389228300"><ele>393</ele><time>2013-07-05T09:10:03Z</time></trkpt>
 <trkpt lat="50.582732000" lon="6.389245800"><ele>393</ele><time>2013-07-05T09:10:07Z</time></trkpt>
 <trkpt lat="50.582745800" lon="6.389245800"><ele>393</ele><time>2013-07-05T09:10:11Z</time></trkpt>
 <trkpt lat="50.582750400" lon="6.389252000"><ele>392</ele><time>2013-07-05T09:10:15Z</time></trkpt>
 <trkpt lat="50.582750400" lon="6.389252000"><ele>392</ele><time>2013-07-05T09:10:19Z</time></trkpt>
 <trkpt lat="50.582751600" lon="6.389283700"><ele>392</ele><time>2013-07-05T09:10:23Z</time></trkpt>
 <trkpt lat="50.582720300" lon="6.389323700"><ele>391</ele><time>2013-07-05T09:10:27Z</time></trkpt>
 <trkpt lat="50.582691200" lon="6.389309100"><ele>391</ele><time>2013-07-05T09:10:31Z</time></trkpt>
 <trkpt lat="50.582692000" lon="6.389301600"><ele>391</ele><time>2013-07-05T09:10:35Z</time></trkpt>
 <trkpt lat="50.582717000" lon="6.389292000"><ele>391</ele><time>2013-07-05T09:10:39Z</time></trkpt>
 <trkpt lat="50.582731600" lon="6.389257400"><ele>391</ele><time>2013-07-05T09:10:43Z</time></trkpt>
 <trkpt lat="50.582735400" lon="6.389235400"><ele>391</ele><time>2013-07-05T09:10:47Z</time></trkpt>
 <trkpt lat="50.582736600" lon="6.389244100"><ele>391</ele><time>2013-07-05T09:10:51Z</time></trkpt>
 <trkpt lat="50.582728200" lon="6.389244900"><ele>391</ele><time>2013-07-05T09:10:55Z</time></trkpt>
 <trkpt lat="50.582707900" lon="6.389254900"><ele>391</ele><time>2013-07-05T09:10:59Z</time></trkpt>
 <trkpt lat="50.582695300" lon="6.389264900"><ele>390</ele><time>2013-07-05T09:11:03Z</time></trkpt>
 <trkpt lat="50.582695800" lon="6.389315800"><ele>390</ele><time>2013-07-05T09:11:07Z</time></trkpt>
 <trkpt lat="50.582714100" lon="6.389366200"><ele>390</ele><time>2013-07-05T09:11:11Z</time></trkpt>
 <trkpt lat="50.582742800" lon="6.389401200"><ele>390</ele><time>2013-07-05T09:11:15Z</time></trkpt>
 <trkpt lat="50.582746200" lon="6.389426200"><ele>390</ele><time>2013-07-05T09:11:19Z</time></trkpt>
 <trkpt lat="50.582767500" lon="6.389455800"><ele>390</ele><time>2013-07-05T09:11:23Z</time></trkpt>
 <trkpt lat="50.582788300" lon="6.389481600"><ele>389</ele><time>2013-07-05T09:11:27Z</time></trkpt>
 <trkpt lat="50.582811200" lon="6.389520800"><ele>389</ele><time>2013-07-05T09:11:31Z</time></trkpt>
 <trkpt lat="50.582868700" lon="6.389553300"><ele>389</ele><time>2013-07-05T09:11:35Z</time></trkpt>
 <trkpt lat="50.582902800" lon="6.389598700"><ele>388</ele><time>2013-07-05T09:11:39Z</time></trkpt>
 <trkpt lat="50.582936600" lon="6.389648300"><ele>388</ele><time>2013-07-05T09:11:43Z</time></trkpt>
 <trkpt lat="50.582946200" lon="6.389689900"><ele>388</ele><time>2013-07-05T09:11:47Z</time></trkpt>
 <trkpt lat="50.582983700" lon="6.389724900"><ele>387</ele><time>2013-07-05T09:11:51Z</time></trkpt>
 <trkpt lat="50.583047000" lon="6.389750800"><ele>387</ele><time>2013-07-05T09:11:55Z</time></trkpt>
 <trkpt lat="50.583091200" lon="6.389784500"><ele>387</ele><time>2013-07-05T09:11:59Z</time></trkpt>
 <trkpt lat="50.583126600" lon="6.389810300"><ele>386</ele><time>2013-07-05T09:12:03Z</time></trkpt>
 <trkpt lat="50.583172000" lon="6.389851600"><ele>386</ele><time>2013-07-05T09:12:07Z</time></trkpt>
 <trkpt lat="50.583205700" lon="6.389881200"><ele>386</ele><time>2013-07-05T09:12:11Z</time></trkpt>
 <trkpt lat="50.583225800" lon="6.389908300"><ele>386</ele><time>2013-07-05T09:12:15Z</time></trkpt>
 <trkpt lat="50.583254900" lon="6.389947900"><ele>386</ele><time>2013-07-05T09:12:19Z</time></trkpt>
 <trkpt lat="50.583279900" lon="6.389984500"><ele>386</ele><time>2013-07-05T09:12:23Z</time></trkpt>
 <trkpt lat="50.583287400" lon="6.390024100"><ele>386</ele><time>2013-07-05T09:12:27Z</time></trkpt>
 <trkpt lat="50.583312800" lon="6.390051600"><ele>386</ele><time>2013-07-05T09:12:31Z</time></trkpt>
 <trkpt lat="50.583348300" lon="6.390087400"><ele>386</ele><time>2013-07-05T09:12:35Z</time></trkpt>
 <trkpt lat="50.583387900" lon="6.390153700"><ele>387</ele><time>2013-07-05T09:12:39Z</time></trkpt>
 <trkpt lat="50.583456200" lon="6.390216600"><ele>388</ele><time>2013-07-05T09:12:43Z</time></trkpt>
 <trkpt lat="50.583486200" lon="6.390233300"><ele>388</ele><time>2013-07-05T09:12:47Z</time></trkpt>
 <trkpt lat="50.583535400" lon="6.390267900"><ele>389</ele><time>2013-07-05T09:12:51Z</time></trkpt>
 <trkpt lat="50.583591200" lon="6.390305400"><ele>390</ele><time>2013-07-05T09:12:55Z</time></trkpt>
 <trkpt lat="50.583624500" lon="6.390341200"><ele>391</ele><time>2013-07-05T09:12:59Z</time></trkpt>
 <trkpt lat="50.583653700" lon="6.390362400"><ele>392</ele><time>2013-07-05T09:13:03Z</time></trkpt>
 <trkpt lat="50.583687800" lon="6.390382400"><ele>393</ele><time>2013-07-05T09:13:07Z</time></trkpt>
 <trkpt lat="50.583723300" lon="6.390400400"><ele>394</ele><time>2013-07-05T09:13:11Z</time></trkpt>
 <trkpt lat="50.583754500" lon="6.390436600"><ele>395</ele><time>2013-07-05T09:13:15Z</time></trkpt>
 <trkpt lat="50.583773200" lon="6.390472900"><ele>396</ele><time>2013-07-05T09:13:19Z</time></trkpt>
 <trkpt lat="50.583822400" lon="6.390536600"><ele>397</ele><time>2013-07-05T09:13:23Z</time></trkpt>
 <trkpt lat="50.583889100" lon="6.390580300"><ele>398</ele><time>2013-07-05T09:13:27Z</time></trkpt>
 <trkpt lat="50.583925400" lon="6.390617800"><ele>399</ele><time>2013-07-05T09:13:31Z</time></trkpt>
 <trkpt lat="50.583942000" lon="6.390660400"><ele>399</ele><time>2013-07-05T09:13:35Z</time></trkpt>
 <trkpt lat="50.583972800" lon="6.390708700"><ele>400</ele><time>2013-07-05T09:13:39Z</time></trkpt>
 <trkpt lat="50.583999900" lon="6.390746600"><ele>401</ele><time>2013-07-05T09:13:43Z</time></trkpt>
 <trkpt lat="50.584054500" lon="6.390817000"><ele>402</ele><time>2013-07-05T09:13:47Z</time></trkpt>
 <trkpt lat="50.584097400" lon="6.390893700"><ele>402</ele><time>2013-07-05T09:13:51Z</time></trkpt>
 <trkpt lat="50.584171600" lon="6.390967900"><ele>402</ele><time>2013-07-05T09:13:55Z</time></trkpt>
 <trkpt lat="50.584224900" lon="6.391015300"><ele>402</ele><time>2013-07-05T09:13:59Z</time></trkpt>
 <trkpt lat="50.584264900" lon="6.391066600"><ele>402</ele><time>2013-07-05T09:14:03Z</time></trkpt>
 <trkpt lat="50.584300300" lon="6.391117000"><ele>402</ele><time>2013-07-05T09:14:07Z</time></trkpt>
 <trkpt lat="50.584344500" lon="6.391159500"><ele>402</ele><time>2013-07-05T09:14:11Z</time></trkpt>
 <trkpt lat="50.584322400" lon="6.391130300"><ele>402</ele><time>2013-07-05T09:14:15Z</time></trkpt>
 <trkpt lat="50.584265300" lon="6.391089900"><ele>401</ele><time>2013-07-05T09:14:19Z</time></trkpt>
 <trkpt lat="50.584253300" lon="6.391087400"><ele>401</ele><time>2013-07-05T09:14:23Z</time></trkpt>
 <trkpt lat="50.584246200" lon="6.391091600"><ele>400</ele><time>2013-07-05T09:14:27Z</time></trkpt>
 <trkpt lat="50.584252400" lon="6.391096200"><ele>399</ele><time>2013-07-05T09:14:31Z</time></trkpt>
 <trkpt lat="50.584262000" lon="6.391121600"><ele>398</ele><time>2013-07-05T09:14:35Z</time></trkpt>
 <trkpt lat="50.584249500" lon="6.391132000"><ele>397</ele><time>2013-07-05T09:14:39Z</time></trkpt>
 <trkpt lat="50.584235700" lon="6.391134500"><ele>396</ele><time>2013-07-05T09:14:43Z</time></trkpt>
 <trkpt lat="50.584222000" lon="6.391141600"><ele>395</ele><time>2013-07-05T09:14:47Z</time></trkpt>
 <trkpt lat="50.584216600" lon="6.391144100"><ele>393</ele><time>2013-07-05T09:14:51Z</time></trkpt>
 <trkpt lat="50.584222000" lon="6.391147400"><ele>392</ele><time>2013-07-05T09:14:55Z</time></trkpt>
 <trkpt lat="50.584222000" lon="6.391147400"><ele>391</ele><time>2013-07-05T09:14:59Z</time></trkpt>
 <trkpt lat="50.584217400" lon="6.391140400"><ele>389</ele><time>2013-07-05T09:15:03Z</time></trkpt>
 <trkpt lat="50.584220300" lon="6.391152800"><ele>388</ele><time>2013-07-05T09:15:07Z</time></trkpt>
 <trkpt lat="50.584220300" lon="6.391152800"><ele>386</ele><time>2013-07-05T09:15:11Z</time></trkpt>
 <trkpt lat="50.584227000" lon="6.391172000"><ele>385</ele><time>2013-07-05T09:15:15Z</time></trkpt>
 <trkpt lat="50.584240800" lon="6.391180400"><ele>383</ele><time>2013-07-05T09:15:19Z</time></trkpt>
 <trkpt lat="50.584266600" lon="6.391169500"><ele>382</ele><time>2013-07-05T09:15:23Z</time></trkpt>
 <trkpt lat="50.584303700" lon="6.391152400"><ele>380</ele><time>2013-07-05T09:15:27Z</time></trkpt>
 <trkpt lat="50.584337900" lon="6.391131200"><ele>378</ele><time>2013-07-05T09:15:31Z</time></trkpt>
 <trkpt lat="50.584352800" lon="6.391087000"><ele>377</ele><time>2013-07-05T09:15:35Z</time></trkpt>
 <trkpt lat="50.584369500" lon="6.391039900"><ele>375</ele><time>2013-07-05T09:15:39Z</time></trkpt>
 <trkpt lat="50.584377800" lon="6.390992000"><ele>374</ele><time>2013-07-05T09:15:43Z</time></trkpt>
 <trkpt lat="50.584409500" lon="6.390932000"><ele>372</ele><time>2013-07-05T09:15:47Z</time></trkpt>
 <trkpt lat="50.584441600" lon="6.390879100"><ele>371</ele><time>2013-07-05T09:15:51Z</time></trkpt>
 <trkpt lat="50.584467000" lon="6.390821600"><ele>369</ele><time>2013-07-05T09:15:55Z</time></trkpt>
 <trkpt lat="50.584500800" lon="6.390780800"><ele>368</ele><time>2013-07-05T09:15:59Z</time></trkpt>
 <trkpt lat="50.584539100" lon="6.390725400"><ele>367</ele><time>2013-07-05T09:16:03Z</time></trkpt>
 <trkpt lat="50.584564100" lon="6.390676600"><ele>366</ele><time>2013-07-05T09:16:07Z</time></trkpt>
 <trkpt lat="50.584594500" lon="6.390616600"><ele>364</ele><time>2013-07-05T09:16:11Z</time></trkpt>
 <trkpt lat="50.584636200" lon="6.390566200"><ele>364</ele><time>2013-07-05T09:16:15Z</time></trkpt>
 <trkpt lat="50.584660800" lon="6.390521200"><ele>363</ele><time>2013-07-05T09:16:19Z</time></trkpt>
 <trkpt lat="50.584674100" lon="6.390461600"><ele>362</ele><time>2013-07-05T09:16:23Z</time></trkpt>
 <trkpt lat="50.584697800" lon="6.390400300"><ele>361</ele><time>2013-07-05T09:16:27Z</time></trkpt>
 <trkpt lat="50.584727900" lon="6.390355400"><ele>361</ele><time>2013-07-05T09:16:31Z</time></trkpt>
 <trkpt lat="50.584759900" lon="6.390316600"><ele>360</ele><time>2013-07-05T09:16:35Z</time></trkpt>
 <trkpt lat="50.584808200" lon="6.390269900"><ele>360</ele><time>2013-07-05T09:16:39Z</time></trkpt>
 <trkpt lat="50.584824100" lon="6.390252000"><ele>360</ele><time>2013-07-05T09:16:43Z</time></trkpt>
 <trkpt lat="50.584818300" lon="6.390252400"><ele>360</ele><time>2013-07-05T09:16:47Z</time></trkpt>
 <trkpt lat="50.584828300" lon="6.390243300"><ele>359</ele><time>2013-07-05T09:16:51Z</time></trkpt>
 <trkpt lat="50.584867000" lon="6.390202400"><ele>359</ele><time>2013-07-05T09:16:55Z</time></trkpt>
 <trkpt lat="50.584903300" lon="6.390170400"><ele>359</ele><time>2013-07-05T09:16:59Z</time></trkpt>
 <trkpt lat="50.584948300" lon="6.390130800"><ele>359</ele><time>2013-07-05T09:17:03Z</time></trkpt>
 <trkpt lat="50.584988700" lon="6.390076600"><ele>359</ele><time>2013-07-05T09:17:07Z</time></trkpt>
 <trkpt lat="50.585019900" lon="6.390024900"><ele>359</ele><time>2013-07-05T09:17:11Z</time></trkpt>
 <trkpt lat="50.585058700" lon="6.389972900"><ele>359</ele><time>2013-07-05T09:17:15Z</time></trkpt>
 <trkpt lat="50.585102800" lon="6.389917400"><ele>359</ele><time>2013-07-05T09:17:19Z</time></trkpt>
 <trkpt lat="50.585132800" lon="6.389878300"><ele>359</ele><time>2013-07-05T09:17:23Z</time></trkpt>
 <trkpt lat="50.585168700" lon="6.389846200"><ele>359</ele><time>2013-07-05T09:17:27Z</time></trkpt>
 <trkpt lat="50.585202400" lon="6.389804500"><ele>359</ele><time>2013-07-05T09:17:31Z</time></trkpt>
 <trkpt lat="50.585253300" lon="6.389772000"><ele>359</ele><time>2013-07-05T09:17:35Z</time></trkpt>
 <trkpt lat="50.585301200" lon="6.389728700"><ele>359</ele><time>2013-07-05T09:17:39Z</time></trkpt>
 <trkpt lat="50.585340300" lon="6.389688300"><ele>360</ele><time>2013-07-05T09:17:43Z</time></trkpt>
 <trkpt lat="50.585391600" lon="6.389643700"><ele>360</ele><time>2013-07-05T09:17:47Z</time></trkpt>
 <trkpt lat="50.585429100" lon="6.389586200"><ele>360</ele><time>2013-07-05T09:17:51Z</time></trkpt>
 <trkpt lat="50.585464900" lon="6.389525400"><ele>361</ele><time>2013-07-05T09:17:55Z</time></trkpt>
 <trkpt lat="50.585494100" lon="6.389488700"><ele>361</ele><time>2013-07-05T09:17:59Z</time></trkpt>
 <trkpt lat="50.585500800" lon="6.389484500"><ele>361</ele><time>2013-07-05T09:18:03Z</time></trkpt>
 <trkpt lat="50.585489500" lon="6.389469100"><ele>362</ele><time>2013-07-05T09:18:07Z</time></trkpt>
 <trkpt lat="50.585489100" lon="6.389456600"><ele>362</ele><time>2013-07-05T09:18:11Z</time></trkpt>
 <trkpt lat="50.585488700" lon="6.389432000"><ele>362</ele><time>2013-07-05T09:18:15Z</time></trkpt>
 <trkpt lat="50.585488700" lon="6.389432000"><ele>363</ele><time>2013-07-05T09:18:19Z</time></trkpt>
 <trkpt lat="50.585488700" lon="6.389432000"><ele>363</ele><time>2013-07-05T09:18:23Z</time></trkpt>
 <trkpt lat="50.585485000" lon="6.389424900"><ele>363</ele><time>2013-07-05T09:18:27Z</time></trkpt>
 <trkpt lat="50.585485000" lon="6.389424900"><ele>363</ele><time>2013-07-05T09:18:31Z</time></trkpt>
 <trkpt lat="50.585497800" lon="6.389432000"><ele>363</ele><time>2013-07-05T09:18:35Z</time></trkpt>
 <trkpt lat="50.585506600" lon="6.389435700"><ele>363</ele><time>2013-07-05T09:18:39Z</time></trkpt>
 <trkpt lat="50.585492000" lon="6.389443700"><ele>363</ele><time>2013-07-05T09:18:43Z</time></trkpt>
 <trkpt lat="50.585473700" lon="6.389452000"><ele>363</ele><time>2013-07-05T09:18:47Z</time></trkpt>
 <trkpt lat="50.585448700" lon="6.389437000"><ele>363</ele><time>2013-07-05T09:18:51Z</time></trkpt>
 <trkpt lat="50.585439100" lon="6.389413300"><ele>362</ele><time>2013-07-05T09:18:55Z</time></trkpt>
 <trkpt lat="50.585462400" lon="6.389423700"><ele>362</ele><time>2013-07-05T09:18:59Z</time></trkpt>
 <trkpt lat="50.585489900" lon="6.389443700"><ele>362</ele><time>2013-07-05T09:19:03Z</time></trkpt>
 <trkpt lat="50.585521600" lon="6.389417400"><ele>361</ele><time>2013-07-05T09:19:07Z</time></trkpt>
 <trkpt lat="50.585553200" lon="6.389385300"><ele>361</ele><time>2013-07-05T09:19:11Z</time></trkpt>
 <trkpt lat="50.585568300" lon="6.389366600"><ele>361</ele><time>2013-07-05T09:19:15Z</time></trkpt>
 <trkpt lat="50.585588700" lon="6.389374500"><ele>360</ele><time>2013-07-05T09:19:19Z</time></trkpt>
 <trkpt lat="50.585607500" lon="6.389385300"><ele>360</ele><time>2013-07-05T09:19:23Z</time></trkpt>
 <trkpt lat="50.585638300" lon="6.389407800"><ele>360</ele><time>2013-07-05T09:19:27Z</time></trkpt>
 <trkpt lat="50.585644900" lon="6.389385800"><ele>359</ele><time>2013-07-05T09:19:31Z</time></trkpt>
 <trkpt lat="50.585635800" lon="6.389373700"><ele>359</ele><time>2013-07-05T09:19:35Z</time></trkpt>
 <trkpt lat="50.585656600" lon="6.389340300"><ele>359</ele><time>2013-07-05T09:19:39Z</time></trkpt>
 <trkpt lat="50.585674100" lon="6.389303300"><ele>358</ele><time>2013-07-05T09:19:43Z</time></trkpt>
 <trkpt lat="50.585701200" lon="6.389254500"><ele>358</ele><time>2013-07-05T09:19:47Z</time></trkpt>
 <trkpt lat="50.585729500" lon="6.389222400"><ele>358</ele><time>2013-07-05T09:19:51Z</time></trkpt>
 <trkpt lat="50.585747800" lon="6.389175300"><ele>358</ele><time>2013-07-05T09:19:55Z</time></trkpt>
 <trkpt lat="50.585774100" lon="6.389122800"><ele>358</ele><time>2013-07-05T09:19:59Z</time></trkpt>
 <trkpt lat="50.585808700" lon="6.389082400"><ele>357</ele><time>2013-07-05T09:20:03Z</time></trkpt>
 <trkpt lat="50.585842800" lon="6.389049900"><ele>357</ele><time>2013-07-05T09:20:07Z</time></trkpt>
 <trkpt lat="50.585881600" lon="6.389016200"><ele>357</ele><time>2013-07-05T09:20:11Z</time></trkpt>
 <trkpt lat="50.585925400" lon="6.388984500"><ele>357</ele><time>2013-07-05T09:20:15Z</time></trkpt>
 <trkpt lat="50.585965700" lon="6.388951600"><ele>357</ele><time>2013-07-05T09:20:19Z</time></trkpt>
 <trkpt lat="50.585992400" lon="6.388915300"><ele>357</ele><time>2013-07-05T09:20:23Z</time></trkpt>
 <trkpt lat="50.586024900" lon="6.388882800"><ele>357</ele><time>2013-07-05T09:20:27Z</time></trkpt>
 <trkpt lat="50.586055300" lon="6.388834500"><ele>357</ele><time>2013-07-05T09:20:31Z</time></trkpt>
 <trkpt lat="50.586104900" lon="6.388801600"><ele>357</ele><time>2013-07-05T09:20:35Z</time></trkpt>
 <trkpt lat="50.586154100" lon="6.388776200"><ele>357</ele><time>2013-07-05T09:20:39Z</time></trkpt>
 <trkpt lat="50.586193700" lon="6.388744500"><ele>357</ele><time>2013-07-05T09:20:43Z</time></trkpt>
 <trkpt lat="50.586234500" lon="6.388708300"><ele>357</ele><time>2013-07-05T09:20:47Z</time></trkpt>
 <trkpt lat="50.586273300" lon="6.388679100"><ele>357</ele><time>2013-07-05T09:20:51Z</time></trkpt>
 <trkpt lat="50.586293700" lon="6.388642500"><ele>357</ele><time>2013-07-05T09:20:55Z</time></trkpt>
 <trkpt lat="50.586302000" lon="6.388576200"><ele>357</ele><time>2013-07-05T09:20:59Z</time></trkpt>
 <trkpt lat="50.586302800" lon="6.388516200"><ele>357</ele><time>2013-07-05T09:21:03Z</time></trkpt>
 <trkpt lat="50.586309900" lon="6.388467000"><ele>357</ele><time>2013-07-05T09:21:07Z</time></trkpt>
 <trkpt lat="50.586320300" lon="6.388412400"><ele>357</ele><time>2013-07-05T09:21:11Z</time></trkpt>
 <trkpt lat="50.586352000" lon="6.388360800"><ele>357</ele><time>2013-07-05T09:21:15Z</time></trkpt>
 <trkpt lat="50.586391200" lon="6.388324500"><ele>357</ele><time>2013-07-05T09:21:19Z</time></trkpt>
 <trkpt lat="50.586444100" lon="6.388289500"><ele>357</ele><time>2013-07-05T09:21:23Z</time></trkpt>
 <trkpt lat="50.586491200" lon="6.388259900"><ele>357</ele><time>2013-07-05T09:21:27Z</time></trkpt>
 <trkpt lat="50.586544900" lon="6.388220800"><ele>357</ele><time>2013-07-05T09:21:31Z</time></trkpt>
 <trkpt lat="50.586605400" lon="6.388191600"><ele>357</ele><time>2013-07-05T09:21:35Z</time></trkpt>
 <trkpt lat="50.586635300" lon="6.388159500"><ele>357</ele><time>2013-07-05T09:21:39Z</time></trkpt>
 <trkpt lat="50.586664900" lon="6.388092000"><ele>358</ele><time>2013-07-05T09:21:43Z</time></trkpt>
 <trkpt lat="50.586698700" lon="6.388002400"><ele>358</ele><time>2013-07-05T09:21:47Z</time></trkpt>
 <trkpt lat="50.586743300" lon="6.387939900"><ele>358</ele><time>2013-07-05T09:21:51Z</time></trkpt>
 <trkpt lat="50.586779100" lon="6.387880300"><ele>359</ele><time>2013-07-05T09:21:55Z</time></trkpt>
 <trkpt lat="50.586802800" lon="6.387841600"><ele>359</ele><time>2013-07-05T09:21:59Z</time></trkpt>
 <trkpt lat="50.586840300" lon="6.387796600"><ele>359</ele><time>2013-07-05T09:22:03Z</time></trkpt>
 <trkpt lat="50.586892000" lon="6.387741200"><ele>360</ele><time>2013-07-05T09:22:07Z</time></trkpt>
 <trkpt lat="50.586929900" lon="6.387679100"><ele>360</ele><time>2013-07-05T09:22:11Z</time></trkpt>
 <trkpt lat="50.586947800" lon="6.387611600"><ele>361</ele><time>2013-07-05T09:22:15Z</time></trkpt>
 <trkpt lat="50.586952400" lon="6.387549900"><ele>361</ele><time>2013-07-05T09:22:19Z</time></trkpt>
 <trkpt lat="50.586958300" lon="6.387484500"><ele>362</ele><time>2013-07-05T09:22:23Z</time></trkpt>
 <trkpt lat="50.586977000" lon="6.387427000"><ele>362</ele><time>2013-07-05T09:22:27Z</time></trkpt>
 <trkpt lat="50.587003300" lon="6.387386200"><ele>363</ele><time>2013-07-05T09:22:31Z</time></trkpt>
 <trkpt lat="50.587024500" lon="6.387353300"><ele>363</ele><time>2013-07-05T09:22:35Z</time></trkpt>
 <trkpt lat="50.587048700" lon="6.387324900"><ele>364</ele><time>2013-07-05T09:22:39Z</time></trkpt>
 <trkpt lat="50.587064900" lon="6.387285800"><ele>364</ele><time>2013-07-05T09:22:43Z</time></trkpt>
 <trkpt lat="50.587076200" lon="6.387269900"><ele>365</ele><time>2013-07-05T09:22:47Z</time></trkpt>
 <trkpt lat="50.587071200" lon="6.387262000"><ele>365</ele><time>2013-07-05T09:22:51Z</time></trkpt>
 <trkpt lat="50.587071200" lon="6.387262000"><ele>366</ele><time>2013-07-05T09:22:55Z</time></trkpt>
 <trkpt lat="50.587071200" lon="6.387262000"><ele>366</ele><time>2013-07-05T09:22:59Z</time></trkpt>
 <trkpt lat="50.587068200" lon="6.387269100"><ele>366</ele><time>2013-07-05T09:23:03Z</time></trkpt>
 <trkpt lat="50.587068200" lon="6.387269100"><ele>366</ele><time>2013-07-05T09:23:07Z</time></trkpt>
 <trkpt lat="50.587068200" lon="6.387269100"><ele>367</ele><time>2013-07-05T09:23:11Z</time></trkpt>
 <trkpt lat="50.587064500" lon="6.387284100"><ele>367</ele><time>2013-07-05T09:23:15Z</time></trkpt>
 <trkpt lat="50.587044100" lon="6.387357800"><ele>367</ele><time>2013-07-05T09:23:19Z</time></trkpt>
 <trkpt lat="50.587029500" lon="6.387427400"><ele>367</ele><time>2013-07-05T09:23:23Z</time></trkpt>
 <trkpt lat="50.587023700" lon="6.387524500"><ele>367</ele><time>2013-07-05T09:23:27Z</time></trkpt>
 <trkpt lat="50.587034500" lon="6.387563700"><ele>367</ele><time>2013-07-05T09:23:31Z</time></trkpt>
 <trkpt lat="50.587064500" lon="6.387538300"><ele>368</ele><time>2013-07-05T09:23:35Z</time></trkpt>
 <trkpt lat="50.587087400" lon="6.387486200"><ele>368</ele><time>2013-07-05T09:23:39Z</time></trkpt>
 <trkpt lat="50.587117800" lon="6.387425300"><ele>368</ele><time>2013-07-05T09:23:43Z</time></trkpt>
 <trkpt lat="50.587153700" lon="6.387376600"><ele>369</ele><time>2013-07-05T09:23:47Z</time></trkpt>
 <trkpt lat="50.587185800" lon="6.387320300"><ele>370</ele><time>2013-07-05T09:23:51Z</time></trkpt>
 <trkpt lat="50.587225800" lon="6.387264100"><ele>370</ele><time>2013-07-05T09:23:55Z</time></trkpt>
 <trkpt lat="50.587250800" lon="6.387220000"><ele>371</ele><time>2013-07-05T09:23:59Z</time></trkpt>
 <trkpt lat="50.587280300" lon="6.387166600"><ele>372</ele><time>2013-07-05T09:24:03Z</time></trkpt>
 <trkpt lat="50.587302000" lon="6.387121600"><ele>373</ele><time>2013-07-05T09:24:07Z</time></trkpt>
 <trkpt lat="50.587325300" lon="6.387087800"><ele>374</ele><time>2013-07-05T09:24:11Z</time></trkpt>
 <trkpt lat="50.587366200" lon="6.387061200"><ele>375</ele><time>2013-07-05T09:24:15Z</time></trkpt>
 <trkpt lat="50.587416200" lon="6.387042400"><ele>376</ele><time>2013-07-05T09:24:19Z</time></trkpt>
 <trkpt lat="50.587457400" lon="6.387014900"><ele>378</ele><time>2013-07-05T09:24:23Z</time></trkpt>
 <trkpt lat="50.587506600" lon="6.387004900"><ele>379</ele><time>2013-07-05T09:24:27Z</time></trkpt>
 <trkpt lat="50.587564500" lon="6.386989100"><ele>380</ele><time>2013-07-05T09:24:31Z</time></trkpt>
 <trkpt lat="50.587603700" lon="6.386980300"><ele>381</ele><time>2013-07-05T09:24:35Z</time></trkpt>
 <trkpt lat="50.587644100" lon="6.386970400"><ele>383</ele><time>2013-07-05T09:24:39Z</time></trkpt>
 <trkpt lat="50.587687900" lon="6.386972800"><ele>384</ele><time>2013-07-05T09:24:43Z</time></trkpt>
 <trkpt lat="50.587735300" lon="6.386990800"><ele>385</ele><time>2013-07-05T09:24:47Z</time></trkpt>
 <trkpt lat="50.587786600" lon="6.386977800"><ele>386</ele><time>2013-07-05T09:24:51Z</time></trkpt>
 <trkpt lat="50.587826600" lon="6.386969500"><ele>388</ele><time>2013-07-05T09:24:55Z</time></trkpt>
 <trkpt lat="50.587872800" lon="6.386966200"><ele>389</ele><time>2013-07-05T09:24:59Z</time></trkpt>
 <trkpt lat="50.587916200" lon="6.386947000"><ele>390</ele><time>2013-07-05T09:25:03Z</time></trkpt>
 <trkpt lat="50.587991600" lon="6.386962400"><ele>391</ele><time>2013-07-05T09:25:07Z</time></trkpt>
 <trkpt lat="50.588048700" lon="6.386970800"><ele>392</ele><time>2013-07-05T09:25:11Z</time></trkpt>
 <trkpt lat="50.588091200" lon="6.386952900"><ele>392</ele><time>2013-07-05T09:25:15Z</time></trkpt>
 <trkpt lat="50.588121600" lon="6.386951200"><ele>393</ele><time>2013-07-05T09:25:19Z</time></trkpt>
 <trkpt lat="50.588172400" lon="6.386947000"><ele>393</ele><time>2013-07-05T09:25:23Z</time></trkpt>
 <trkpt lat="50.588214500" lon="6.386964900"><ele>394</ele><time>2013-07-05T09:25:27Z</time></trkpt>
 <trkpt lat="50.588252400" lon="6.386958300"><ele>394</ele><time>2013-07-05T09:25:31Z</time></trkpt>
 <trkpt lat="50.588297000" lon="6.386960800"><ele>394</ele><time>2013-07-05T09:25:35Z</time></trkpt>
 <trkpt lat="50.588362400" lon="6.386977400"><ele>394</ele><time>2013-07-05T09:25:39Z</time></trkpt>
 <trkpt lat="50.588416600" lon="6.386997400"><ele>394</ele><time>2013-07-05T09:25:43Z</time></trkpt>
 <trkpt lat="50.588484500" lon="6.387026200"><ele>394</ele><time>2013-07-05T09:25:47Z</time></trkpt>
 <trkpt lat="50.588546600" lon="6.387046200"><ele>394</ele><time>2013-07-05T09:25:51Z</time></trkpt>
 <trkpt lat="50.588559500" lon="6.387051200"><ele>393</ele><time>2013-07-05T09:25:55Z</time></trkpt>
 <trkpt lat="50.588557000" lon="6.387060800"><ele>393</ele><time>2013-07-05T09:25:59Z</time></trkpt>
 <trkpt lat="50.588587000" lon="6.387072000"><ele>392</ele><time>2013-07-05T09:26:03Z</time></trkpt>
 <trkpt lat="50.588629100" lon="6.387070800"><ele>392</ele><time>2013-07-05T09:26:07Z</time></trkpt>
 <trkpt lat="50.588667400" lon="6.387089500"><ele>391</ele><time>2013-07-05T09:26:11Z</time></trkpt>
 <trkpt lat="50.588711200" lon="6.387106600"><ele>391</ele><time>2013-07-05T09:26:15Z</time></trkpt>
 <trkpt lat="50.588749500" lon="6.387130800"><ele>390</ele><time>2013-07-05T09:26:19Z</time></trkpt>
 <trkpt lat="50.588787400" lon="6.387154900"><ele>390</ele><time>2013-07-05T09:26:23Z</time></trkpt>
 <trkpt lat="50.588830300" lon="6.387178300"><ele>389</ele><time>2013-07-05T09:26:27Z</time></trkpt>
 <trkpt lat="50.588869900" lon="6.387194100"><ele>389</ele><time>2013-07-05T09:26:31Z</time></trkpt>
 <trkpt lat="50.588904100" lon="6.387215800"><ele>388</ele><time>2013-07-05T09:26:35Z</time></trkpt>
 <trkpt lat="50.588941600" lon="6.387233300"><ele>388</ele><time>2013-07-05T09:26:39Z</time></trkpt>
 <trkpt lat="50.588965800" lon="6.387253700"><ele>387</ele><time>2013-07-05T09:26:43Z</time></trkpt>
 <trkpt lat="50.589009100" lon="6.387248700"><ele>387</ele><time>2013-07-05T09:26:47Z</time></trkpt>
 <trkpt lat="50.589055800" lon="6.387215800"><ele>387</ele><time>2013-07-05T09:26:51Z</time></trkpt>
 <trkpt lat="50.589110300" lon="6.387179500"><ele>386</ele><time>2013-07-05T09:26:55Z</time></trkpt>
 <trkpt lat="50.589178700" lon="6.387160800"><ele>386</ele><time>2013-07-05T09:26:59Z</time></trkpt>
 <trkpt lat="50.589224500" lon="6.387127800"><ele>386</ele><time>2013-07-05T09:27:03Z</time></trkpt>
 <trkpt lat="50.589269900" lon="6.387100800"><ele>385</ele><time>2013-07-05T09:27:07Z</time></trkpt>
 <trkpt lat="50.589317800" lon="6.387098700"><ele>385</ele><time>2013-07-05T09:27:11Z</time></trkpt>
 <trkpt lat="50.589373300" lon="6.387094100"><ele>385</ele><time>2013-07-05T09:27:15Z</time></trkpt>
 <trkpt lat="50.589404100" lon="6.387069100"><ele>385</ele><time>2013-07-05T09:27:19Z</time></trkpt>
 <trkpt lat="50.589422400" lon="6.387047000"><ele>385</ele><time>2013-07-05T09:27:23Z</time></trkpt>
 <trkpt lat="50.589480300" lon="6.387019900"><ele>385</ele><time>2013-07-05T09:27:27Z</time></trkpt>
 <trkpt lat="50.589514500" lon="6.387003300"><ele>385</ele><time>2013-07-05T09:27:31Z</time></trkpt>
 <trkpt lat="50.589560400" lon="6.386992400"><ele>385</ele><time>2013-07-05T09:27:35Z</time></trkpt>
 <trkpt lat="50.589607400" lon="6.386984500"><ele>386</ele><time>2013-07-05T09:27:39Z</time></trkpt>
 <trkpt lat="50.589669500" lon="6.387001600"><ele>386</ele><time>2013-07-05T09:27:43Z</time></trkpt>
 <trkpt lat="50.589730400" lon="6.386996200"><ele>387</ele><time>2013-07-05T09:27:47Z</time></trkpt>
 <trkpt lat="50.589789900" lon="6.386995800"><ele>387</ele><time>2013-07-05T09:27:51Z</time></trkpt>
 <trkpt lat="50.589832400" lon="6.387002000"><ele>388</ele><time>2013-07-05T09:27:55Z</time></trkpt>
 <trkpt lat="50.589892800" lon="6.387009900"><ele>388</ele><time>2013-07-05T09:27:59Z</time></trkpt>
 <trkpt lat="50.589939500" lon="6.387027800"><ele>389</ele><time>2013-07-05T09:28:03Z</time></trkpt>
 <trkpt lat="50.589989100" lon="6.387050300"><ele>390</ele><time>2013-07-05T09:28:07Z</time></trkpt>
 <trkpt lat="50.590036600" lon="6.387049900"><ele>391</ele><time>2013-07-05T09:28:11Z</time></trkpt>
 <trkpt lat="50.590077400" lon="6.387037800"><ele>391</ele><time>2013-07-05T09:28:15Z</time></trkpt>
 <trkpt lat="50.590117000" lon="6.387021600"><ele>392</ele><time>2013-07-05T09:28:19Z</time></trkpt>
 <trkpt lat="50.590174900" lon="6.387019900"><ele>393</ele><time>2013-07-05T09:28:23Z</time></trkpt>
 <trkpt lat="50.590231600" lon="6.387027400"><ele>394</ele><time>2013-07-05T09:28:27Z</time></trkpt>
 <trkpt lat="50.590287800" lon="6.387034500"><ele>395</ele><time>2013-07-05T09:28:31Z</time></trkpt>
 <trkpt lat="50.590339500" lon="6.387044500"><ele>396</ele><time>2013-07-05T09:28:35Z</time></trkpt>
 <trkpt lat="50.590372000" lon="6.387050800"><ele>396</ele><time>2013-07-05T09:28:39Z</time></trkpt>
 <trkpt lat="50.590405700" lon="6.387057900"><ele>397</ele><time>2013-07-05T09:28:43Z</time></trkpt>
 <trkpt lat="50.590446600" lon="6.387076200"><ele>398</ele><time>2013-07-05T09:28:47Z</time></trkpt>
 <trkpt lat="50.590478700" lon="6.387100800"><ele>398</ele><time>2013-07-05T09:28:51Z</time></trkpt>
 <trkpt lat="50.590525800" lon="6.387134900"><ele>399</ele><time>2013-07-05T09:28:55Z</time></trkpt>
 <trkpt lat="50.590548700" lon="6.387144100"><ele>399</ele><time>2013-07-05T09:28:59Z</time></trkpt>
 <trkpt lat="50.590582900" lon="6.387149900"><ele>400</ele><time>2013-07-05T09:29:03Z</time></trkpt>
 <trkpt lat="50.590623700" lon="6.387161200"><ele>401</ele><time>2013-07-05T09:29:07Z</time></trkpt>
 <trkpt lat="50.590672900" lon="6.387192800"><ele>401</ele><time>2013-07-05T09:29:11Z</time></trkpt>
 <trkpt lat="50.590745400" lon="6.387231200"><ele>402</ele><time>2013-07-05T09:29:15Z</time></trkpt>
 <trkpt lat="50.590790300" lon="6.387267400"><ele>403</ele><time>2013-07-05T09:29:19Z</time></trkpt>
 <trkpt lat="50.590834900" lon="6.387297800"><ele>404</ele><time>2013-07-05T09:29:23Z</time></trkpt>
 <trkpt lat="50.590895300" lon="6.387338700"><ele>405</ele><time>2013-07-05T09:29:27Z</time></trkpt>
 <trkpt lat="50.590938700" lon="6.387363700"><ele>405</ele><time>2013-07-05T09:29:31Z</time></trkpt>
 <trkpt lat="50.590988700" lon="6.387384500"><ele>406</ele><time>2013-07-05T09:29:35Z</time></trkpt>
 <trkpt lat="50.591049500" lon="6.387399500"><ele>407</ele><time>2013-07-05T09:29:39Z</time></trkpt>
 <trkpt lat="50.591101200" lon="6.387404900"><ele>408</ele><time>2013-07-05T09:29:43Z</time></trkpt>
 <trkpt lat="50.591152500" lon="6.387411600"><ele>409</ele><time>2013-07-05T09:29:47Z</time></trkpt>
 <trkpt lat="50.591214100" lon="6.387420300"><ele>410</ele><time>2013-07-05T09:29:51Z</time></trkpt>
 <trkpt lat="50.591257400" lon="6.387439100"><ele>411</ele><time>2013-07-05T09:29:55Z</time></trkpt>
 <trkpt lat="50.591283300" lon="6.387445300"><ele>412</ele><time>2013-07-05T09:29:59Z</time></trkpt>
 <trkpt lat="50.591323200" lon="6.387451600"><ele>413</ele><time>2013-07-05T09:30:03Z</time></trkpt>
 <trkpt lat="50.591376600" lon="6.387471600"><ele>415</ele><time>2013-07-05T09:30:07Z</time></trkpt>
 <trkpt lat="50.591419100" lon="6.387492000"><ele>416</ele><time>2013-07-05T09:30:11Z</time></trkpt>
 <trkpt lat="50.591457000" lon="6.387509900"><ele>417</ele><time>2013-07-05T09:30:15Z</time></trkpt>
 <trkpt lat="50.591496200" lon="6.387526600"><ele>418</ele><time>2013-07-05T09:30:19Z</time></trkpt>
 <trkpt lat="50.591559500" lon="6.387534100"><ele>419</ele><time>2013-07-05T09:30:23Z</time></trkpt>
 <trkpt lat="50.591611600" lon="6.387542800"><ele>420</ele><time>2013-07-05T09:30:27Z</time></trkpt>
 <trkpt lat="50.591664500" lon="6.387555800"><ele>421</ele><time>2013-07-05T09:30:31Z</time></trkpt>
 <trkpt lat="50.591718300" lon="6.387590300"><ele>422</ele><time>2013-07-05T09:30:35Z</time></trkpt>
 <trkpt lat="50.591757400" lon="6.387614900"><ele>423</ele><time>2013-07-05T09:30:39Z</time></trkpt>
 <trkpt lat="50.591794900" lon="6.387605400"><ele>423</ele><time>2013-07-05T09:30:43Z</time></trkpt>
 <trkpt lat="50.591829100" lon="6.387624900"><ele>424</ele><time>2013-07-05T09:30:47Z</time></trkpt>
 <trkpt lat="50.591869900" lon="6.387648700"><ele>425</ele><time>2013-07-05T09:30:51Z</time></trkpt>
 <trkpt lat="50.591907900" lon="6.387675800"><ele>426</ele><time>2013-07-05T09:30:55Z</time></trkpt>
 <trkpt lat="50.591942000" lon="6.387689900"><ele>426</ele><time>2013-07-05T09:30:59Z</time></trkpt>
 <trkpt lat="50.591987800" lon="6.387697400"><ele>426</ele><time>2013-07-05T09:31:03Z</time></trkpt>
 <trkpt lat="50.592030800" lon="6.387699900"><ele>426</ele><time>2013-07-05T09:31:07Z</time></trkpt>
 <trkpt lat="50.592086200" lon="6.387706600"><ele>426</ele><time>2013-07-05T09:31:11Z</time></trkpt>
 <trkpt lat="50.592147900" lon="6.387707900"><ele>425</ele><time>2013-07-05T09:31:15Z</time></trkpt>
 <trkpt lat="50.592209500" lon="6.387718300"><ele>425</ele><time>2013-07-05T09:31:19Z</time></trkpt>
 <trkpt lat="50.592266600" lon="6.387728200"><ele>425</ele><time>2013-07-05T09:31:23Z</time></trkpt>
 <trkpt lat="50.592315800" lon="6.387755700"><ele>424</ele><time>2013-07-05T09:31:27Z</time></trkpt>
 <trkpt lat="50.592355800" lon="6.387785300"><ele>424</ele><time>2013-07-05T09:31:31Z</time></trkpt>
 <trkpt lat="50.592390300" lon="6.387787800"><ele>423</ele><time>2013-07-05T09:31:35Z</time></trkpt>
 <trkpt lat="50.592424500" lon="6.387798700"><ele>423</ele><time>2013-07-05T09:31:39Z</time></trkpt>
 <trkpt lat="50.592450800" lon="6.387800800"><ele>422</ele><time>2013-07-05T09:31:43Z</time></trkpt>
 <trkpt lat="50.592482800" lon="6.387801600"><ele>421</ele><time>2013-07-05T09:31:47Z</time></trkpt>
 <trkpt lat="50.592534900" lon="6.387803200"><ele>420</ele><time>2013-07-05T09:31:51Z</time></trkpt>
 <trkpt lat="50.592572800" lon="6.387815800"><ele>418</ele><time>2013-07-05T09:31:55Z</time></trkpt>
 <trkpt lat="50.592615400" lon="6.387835400"><ele>417</ele><time>2013-07-05T09:31:59Z</time></trkpt>
 <trkpt lat="50.592629100" lon="6.387842000"><ele>416</ele><time>2013-07-05T09:32:03Z</time></trkpt>
 <trkpt lat="50.592663700" lon="6.387844100"><ele>415</ele><time>2013-07-05T09:32:07Z</time></trkpt>
 <trkpt lat="50.592703300" lon="6.387836600"><ele>414</ele><time>2013-07-05T09:32:11Z</time></trkpt>
 <trkpt lat="50.592728700" lon="6.387838300"><ele>413</ele><time>2013-07-05T09:32:15Z</time></trkpt>
 <trkpt lat="50.592768300" lon="6.387845300"><ele>412</ele><time>2013-07-05T09:32:19Z</time></trkpt>
 <trkpt lat="50.592812400" lon="6.387852400"><ele>412</ele><time>2013-07-05T09:32:23Z</time></trkpt>
 <trkpt lat="50.592879100" lon="6.387876200"><ele>411</ele><time>2013-07-05T09:32:27Z</time></trkpt>
 <trkpt lat="50.592935800" lon="6.387888700"><ele>410</ele><time>2013-07-05T09:32:31Z</time></trkpt>
 <trkpt lat="50.592975400" lon="6.387901200"><ele>409</ele><time>2013-07-05T09:32:35Z</time></trkpt>
 <trkpt lat="50.593012900" lon="6.387912800"><ele>408</ele><time>2013-07-05T09:32:39Z</time></trkpt>
 <trkpt lat="50.593031200" lon="6.387913700"><ele>408</ele><time>2013-07-05T09:32:43Z</time></trkpt>
 <trkpt lat="50.593046600" lon="6.387908700"><ele>407</ele><time>2013-07-05T09:32:47Z</time></trkpt>
 <trkpt lat="50.593074900" lon="6.387914100"><ele>406</ele><time>2013-07-05T09:32:51Z</time></trkpt>
 <trkpt lat="50.593103300" lon="6.387918300"><ele>406</ele><time>2013-07-05T09:32:55Z</time></trkpt>
 <trkpt lat="50.593165300" lon="6.387927000"><ele>406</ele><time>2013-07-05T09:32:59Z</time></trkpt>
 <trkpt lat="50.593232400" lon="6.387924900"><ele>405</ele><time>2013-07-05T09:33:03Z</time></trkpt>
 <trkpt lat="50.593292400" lon="6.387912000"><ele>405</ele><time>2013-07-05T09:33:07Z</time></trkpt>
 <trkpt lat="50.593320800" lon="6.387880800"><ele>405</ele><time>2013-07-05T09:33:11Z</time></trkpt>
 <trkpt lat="50.593353300" lon="6.387850800"><ele>405</ele><time>2013-07-05T09:33:15Z</time></trkpt>
 <trkpt lat="50.593399500" lon="6.387829900"><ele>404</ele><time>2013-07-05T09:33:19Z</time></trkpt>
 <trkpt lat="50.593444100" lon="6.387808300"><ele>404</ele><time>2013-07-05T09:33:23Z</time></trkpt>
 <trkpt lat="50.593480400" lon="6.387795800"><ele>403</ele><time>2013-07-05T09:33:27Z</time></trkpt>
 <trkpt lat="50.593514900" lon="6.387779900"><ele>403</ele><time>2013-07-05T09:33:31Z</time></trkpt>
 <trkpt lat="50.593544100" lon="6.387757000"><ele>402</ele><time>2013-07-05T09:33:35Z</time></trkpt>
 <trkpt lat="50.593569100" lon="6.387728200"><ele>402</ele><time>2013-07-05T09:33:39Z</time></trkpt>
 <trkpt lat="50.593587000" lon="6.387708300"><ele>402</ele><time>2013-07-05T09:33:43Z</time></trkpt>
 <trkpt lat="50.593611600" lon="6.387676200"><ele>401</ele><time>2013-07-05T09:33:47Z</time></trkpt>
 <trkpt lat="50.593669100" lon="6.387647000"><ele>401</ele><time>2013-07-05T09:33:51Z</time></trkpt>
 <trkpt lat="50.593721200" lon="6.387617800"><ele>400</ele><time>2013-07-05T09:33:55Z</time></trkpt>
 <trkpt lat="50.593765700" lon="6.387588300"><ele>400</ele><time>2013-07-05T09:33:59Z</time></trkpt>
 <trkpt lat="50.593802000" lon="6.387547000"><ele>400</ele><time>2013-07-05T09:34:03Z</time></trkpt>
 <trkpt lat="50.593840300" lon="6.387516200"><ele>400</ele><time>2013-07-05T09:34:07Z</time></trkpt>
 <trkpt lat="50.593883300" lon="6.387486200"><ele>399</ele><time>2013-07-05T09:34:11Z</time></trkpt>
 <trkpt lat="50.593930300" lon="6.387447000"><ele>399</ele><time>2013-07-05T09:34:15Z</time></trkpt>
 <trkpt lat="50.593985400" lon="6.387414100"><ele>399</ele><time>2013-07-05T09:34:19Z</time></trkpt>
 <trkpt lat="50.594014100" lon="6.387367400"><ele>399</ele><time>2013-07-05T09:34:23Z</time></trkpt>
 <trkpt lat="50.594052400" lon="6.387317000"><ele>399</ele><time>2013-07-05T09:34:27Z</time></trkpt>
 <trkpt lat="50.594093700" lon="6.387285800"><ele>399</ele><time>2013-07-05T09:34:31Z</time></trkpt>
 <trkpt lat="50.594134900" lon="6.387244100"><ele>399</ele><time>2013-07-05T09:34:35Z</time></trkpt>
 <trkpt lat="50.594173700" lon="6.387204100"><ele>399</ele><time>2013-07-05T09:34:39Z</time></trkpt>
 <trkpt lat="50.594206600" lon="6.387158700"><ele>399</ele><time>2013-07-05T09:34:43Z</time></trkpt>
 <trkpt lat="50.594250300" lon="6.387125800"><ele>399</ele><time>2013-07-05T09:34:47Z</time></trkpt>
 <trkpt lat="50.594284500" lon="6.387090400"><ele>399</ele><time>2013-07-05T09:34:51Z</time></trkpt>
 <trkpt lat="50.594319100" lon="6.387047400"><ele>398</ele><time>2013-07-05T09:34:55Z</time></trkpt>
 <trkpt lat="50.594347000" lon="6.387007800"><ele>398</ele><time>2013-07-05T09:34:59Z</time></trkpt>
 <trkpt lat="50.594365700" lon="6.386959900"><ele>398</ele><time>2013-07-05T09:35:03Z</time></trkpt>
 <trkpt lat="50.594394500" lon="6.386927800"><ele>398</ele><time>2013-07-05T09:35:07Z</time></trkpt>
 <trkpt lat="50.594411200" lon="6.386884100"><ele>398</ele><time>2013-07-05T09:35:11Z</time></trkpt>
 <trkpt lat="50.594430300" lon="6.386829100"><ele>398</ele><time>2013-07-05T09:35:15Z</time></trkpt>
 <trkpt lat="50.594459100" lon="6.386774500"><ele>398</ele><time>2013-07-05T09:35:19Z</time></trkpt>
 <trkpt lat="50.594494900" lon="6.386736600"><ele>398</ele><time>2013-07-05T09:35:23Z</time></trkpt>
 <trkpt lat="50.594565000" lon="6.386692000"><ele>397</ele><time>2013-07-05T09:35:27Z</time></trkpt>
 <trkpt lat="50.594627000" lon="6.386646200"><ele>397</ele><time>2013-07-05T09:35:31Z</time></trkpt>
 <trkpt lat="50.594658300" lon="6.386594900"><ele>397</ele><time>2013-07-05T09:35:35Z</time></trkpt>
 <trkpt lat="50.594687000" lon="6.386534500"><ele>397</ele><time>2013-07-05T09:35:39Z</time></trkpt>
 <trkpt lat="50.594710300" lon="6.386474100"><ele>397</ele><time>2013-07-05T09:35:43Z</time></trkpt>
 <trkpt lat="50.594726600" lon="6.386422000"><ele>396</ele><time>2013-07-05T09:35:47Z</time></trkpt>
 <trkpt lat="50.594759900" lon="6.386372800"><ele>396</ele><time>2013-07-05T09:35:51Z</time></trkpt>
 <trkpt lat="50.594779100" lon="6.386317800"><ele>396</ele><time>2013-07-05T09:35:55Z</time></trkpt>
 <trkpt lat="50.594811200" lon="6.386280300"><ele>396</ele><time>2013-07-05T09:35:59Z</time></trkpt>
 <trkpt lat="50.594839100" lon="6.386221200"><ele>395</ele><time>2013-07-05T09:36:03Z</time></trkpt>
 <trkpt lat="50.594877400" lon="6.386162000"><ele>395</ele><time>2013-07-05T09:36:07Z</time></trkpt>
 <trkpt lat="50.594912400" lon="6.386110800"><ele>395</ele><time>2013-07-05T09:36:11Z</time></trkpt>
 <trkpt lat="50.594959100" lon="6.386066600"><ele>395</ele><time>2013-07-05T09:36:15Z</time></trkpt>
 <trkpt lat="50.595004100" lon="6.386034100"><ele>395</ele><time>2013-07-05T09:36:19Z</time></trkpt>
 <trkpt lat="50.595045800" lon="6.386007900"><ele>394</ele><time>2013-07-05T09:36:23Z</time></trkpt>
 <trkpt lat="50.595087800" lon="6.385952000"><ele>394</ele><time>2013-07-05T09:36:27Z</time></trkpt>
 <trkpt lat="50.595123300" lon="6.385878300"><ele>394</ele><time>2013-07-05T09:36:31Z</time></trkpt>
 <trkpt lat="50.595147800" lon="6.385801600"><ele>394</ele><time>2013-07-05T09:36:35Z</time></trkpt>
 <trkpt lat="50.595160800" lon="6.385725300"><ele>394</ele><time>2013-07-05T09:36:39Z</time></trkpt>
 <trkpt lat="50.595181600" lon="6.385660800"><ele>393</ele><time>2013-07-05T09:36:43Z</time></trkpt>
 <trkpt lat="50.595200800" lon="6.385589900"><ele>393</ele><time>2013-07-05T09:36:47Z</time></trkpt>
 <trkpt lat="50.595220800" lon="6.385533700"><ele>393</ele><time>2013-07-05T09:36:51Z</time></trkpt>
 <trkpt lat="50.595247800" lon="6.385470300"><ele>392</ele><time>2013-07-05T09:36:55Z</time></trkpt>
 <trkpt lat="50.595273300" lon="6.385427000"><ele>392</ele><time>2013-07-05T09:36:59Z</time></trkpt>
 <trkpt lat="50.595306600" lon="6.385398300"><ele>391</ele><time>2013-07-05T09:37:03Z</time></trkpt>
 <trkpt lat="50.595337000" lon="6.385383700"><ele>391</ele><time>2013-07-05T09:37:07Z</time></trkpt>
 <trkpt lat="50.595376600" lon="6.385401200"><ele>390</ele><time>2013-07-05T09:37:11Z</time></trkpt>
 <trkpt lat="50.595397800" lon="6.385416200"><ele>390</ele><time>2013-07-05T09:37:15Z</time></trkpt>
 <trkpt lat="50.595422400" lon="6.385435800"><ele>389</ele><time>2013-07-05T09:37:19Z</time></trkpt>
 <trkpt lat="50.595448300" lon="6.385470300"><ele>388</ele><time>2013-07-05T09:37:23Z</time></trkpt>
 <trkpt lat="50.595484500" lon="6.385495400"><ele>388</ele><time>2013-07-05T09:37:27Z</time></trkpt>
 <trkpt lat="50.595517800" lon="6.385543200"><ele>387</ele><time>2013-07-05T09:37:31Z</time></trkpt>
 <trkpt lat="50.595532000" lon="6.385562900"><ele>387</ele><time>2013-07-05T09:37:35Z</time></trkpt>
 <trkpt lat="50.595558300" lon="6.385583700"><ele>386</ele><time>2013-07-05T09:37:39Z</time></trkpt>
 <trkpt lat="50.595600800" lon="6.385605800"><ele>385</ele><time>2013-07-05T09:37:43Z</time></trkpt>
 <trkpt lat="50.595649900" lon="6.385634100"><ele>385</ele><time>2013-07-05T09:37:47Z</time></trkpt>
 <trkpt lat="50.595706600" lon="6.385661200"><ele>384</ele><time>2013-07-05T09:37:51Z</time></trkpt>
 <trkpt lat="50.595737400" lon="6.385683200"><ele>384</ele><time>2013-07-05T09:37:55Z</time></trkpt>
 <trkpt lat="50.595755800" lon="6.385698300"><ele>383</ele><time>2013-07-05T09:37:59Z</time></trkpt>
 <trkpt lat="50.595791200" lon="6.385712800"><ele>383</ele><time>2013-07-05T09:38:03Z</time></trkpt>
 <trkpt lat="50.595829500" lon="6.385738700"><ele>383</ele><time>2013-07-05T09:38:07Z</time></trkpt>
 <trkpt lat="50.595860300" lon="6.385767800"><ele>382</ele><time>2013-07-05T09:38:11Z</time></trkpt>
 <trkpt lat="50.595880800" lon="6.385804900"><ele>382</ele><time>2013-07-05T09:38:15Z</time></trkpt>
 <trkpt lat="50.595925800" lon="6.385850700"><ele>382</ele><time>2013-07-05T09:38:19Z</time></trkpt>
 <trkpt lat="50.595957800" lon="6.385869500"><ele>381</ele><time>2013-07-05T09:38:23Z</time></trkpt>
 <trkpt lat="50.595992400" lon="6.385883700"><ele>381</ele><time>2013-07-05T09:38:27Z</time></trkpt>
 <trkpt lat="50.596029100" lon="6.385902000"><ele>381</ele><time>2013-07-05T09:38:31Z</time></trkpt>
 <trkpt lat="50.596075300" lon="6.385930800"><ele>381</ele><time>2013-07-05T09:38:35Z</time></trkpt>
 <trkpt lat="50.596124500" lon="6.385971200"><ele>381</ele><time>2013-07-05T09:38:39Z</time></trkpt>
 <trkpt lat="50.596165400" lon="6.386008300"><ele>381</ele><time>2013-07-05T09:38:43Z</time></trkpt>
 <trkpt lat="50.596219100" lon="6.386046200"><ele>381</ele><time>2013-07-05T09:38:47Z</time></trkpt>
 <trkpt lat="50.596267000" lon="6.386096600"><ele>381</ele><time>2013-07-05T09:38:51Z</time></trkpt>
 <trkpt lat="50.596312800" lon="6.386162800"><ele>380</ele><time>2013-07-05T09:38:55Z</time></trkpt>
 <trkpt lat="50.596376200" lon="6.386222400"><ele>380</ele><time>2013-07-05T09:38:59Z</time></trkpt>
 <trkpt lat="50.596433700" lon="6.386262400"><ele>380</ele><time>2013-07-05T09:39:03Z</time></trkpt>
 <trkpt lat="50.596460800" lon="6.386290800"><ele>380</ele><time>2013-07-05T09:39:07Z</time></trkpt>
 <trkpt lat="50.596468300" lon="6.386309100"><ele>379</ele><time>2013-07-05T09:39:11Z</time></trkpt>
 <trkpt lat="50.596479500" lon="6.386355800"><ele>379</ele><time>2013-07-05T09:39:15Z</time></trkpt>
 <trkpt lat="50.596507800" lon="6.386402000"><ele>379</ele><time>2013-07-05T09:39:19Z</time></trkpt>
 <trkpt lat="50.596535400" lon="6.386457000"><ele>378</ele><time>2013-07-05T09:39:23Z</time></trkpt>
 <trkpt lat="50.596573700" lon="6.386521600"><ele>378</ele><time>2013-07-05T09:39:27Z</time></trkpt>
 <trkpt lat="50.596619100" lon="6.386581200"><ele>377</ele><time>2013-07-05T09:39:31Z</time></trkpt>
 <trkpt lat="50.596639900" lon="6.386611600"><ele>377</ele><time>2013-07-05T09:39:35Z</time></trkpt>
 <trkpt lat="50.596659500" lon="6.386652000"><ele>376</ele><time>2013-07-05T09:39:39Z</time></trkpt>
 <trkpt lat="50.596682800" lon="6.386705800"><ele>376</ele><time>2013-07-05T09:39:43Z</time></trkpt>
 <trkpt lat="50.596709100" lon="6.386750800"><ele>375</ele><time>2013-07-05T09:39:47Z</time></trkpt>
 <trkpt lat="50.596763700" lon="6.386798700"><ele>375</ele><time>2013-07-05T09:39:51Z</time></trkpt>
 <trkpt lat="50.596784100" lon="6.386853300"><ele>374</ele><time>2013-07-05T09:39:55Z</time></trkpt>
 <trkpt lat="50.596805800" lon="6.386899500"><ele>373</ele><time>2013-07-05T09:39:59Z</time></trkpt>
 <trkpt lat="50.596795400" lon="6.386945400"><ele>372</ele><time>2013-07-05T09:40:03Z</time></trkpt>
 <trkpt lat="50.596811600" lon="6.386979500"><ele>372</ele><time>2013-07-05T09:40:07Z</time></trkpt>
 <trkpt lat="50.596877400" lon="6.387041600"><ele>371</ele><time>2013-07-05T09:40:11Z</time></trkpt>
 <trkpt lat="50.596932000" lon="6.387095800"><ele>370</ele><time>2013-07-05T09:40:15Z</time></trkpt>
 <trkpt lat="50.596962800" lon="6.387139500"><ele>369</ele><time>2013-07-05T09:40:19Z</time></trkpt>
 <trkpt lat="50.596978300" lon="6.387191600"><ele>369</ele><time>2013-07-05T09:40:23Z</time></trkpt>
 <trkpt lat="50.596987900" lon="6.387234500"><ele>368</ele><time>2013-07-05T09:40:27Z</time></trkpt>
 <trkpt lat="50.597011200" lon="6.387276600"><ele>367</ele><time>2013-07-05T09:40:31Z</time></trkpt>
 <trkpt lat="50.597019900" lon="6.387324100"><ele>366</ele><time>2013-07-05T09:40:35Z</time></trkpt>
 <trkpt lat="50.597034500" lon="6.387377400"><ele>365</ele><time>2013-07-05T09:40:39Z</time></trkpt>
 <trkpt lat="50.597062800" lon="6.387417400"><ele>364</ele><time>2013-07-05T09:40:43Z</time></trkpt>
 <trkpt lat="50.597090800" lon="6.387455800"><ele>363</ele><time>2013-07-05T09:40:47Z</time></trkpt>
 <trkpt lat="50.597116600" lon="6.387511600"><ele>362</ele><time>2013-07-05T09:40:51Z</time></trkpt>
 <trkpt lat="50.597122400" lon="6.387582800"><ele>361</ele><time>2013-07-05T09:40:55Z</time></trkpt>
 <trkpt lat="50.597145700" lon="6.387655800"><ele>359</ele><time>2013-07-05T09:40:59Z</time></trkpt>
 <trkpt lat="50.597157000" lon="6.387710800"><ele>358</ele><time>2013-07-05T09:41:03Z</time></trkpt>
 <trkpt lat="50.597167800" lon="6.387774100"><ele>357</ele><time>2013-07-05T09:41:07Z</time></trkpt>
 <trkpt lat="50.597174900" lon="6.387848700"><ele>356</ele><time>2013-07-05T09:41:11Z</time></trkpt>
 <trkpt lat="50.597191200" lon="6.387901600"><ele>355</ele><time>2013-07-05T09:41:15Z</time></trkpt>
 <trkpt lat="50.597204500" lon="6.387937900"><ele>354</ele><time>2013-07-05T09:41:19Z</time></trkpt>
 <trkpt lat="50.597216600" lon="6.387984900"><ele>353</ele><time>2013-07-05T09:41:23Z</time></trkpt>
 <trkpt lat="50.597229900" lon="6.388045300"><ele>352</ele><time>2013-07-05T09:41:27Z</time></trkpt>
 <trkpt lat="50.597244900" lon="6.388110400"><ele>351</ele><time>2013-07-05T09:41:31Z</time></trkpt>
 <trkpt lat="50.597252900" lon="6.388178200"><ele>350</ele><time>2013-07-05T09:41:35Z</time></trkpt>
 <trkpt lat="50.597242800" lon="6.388244500"><ele>349</ele><time>2013-07-05T09:41:39Z</time></trkpt>
 <trkpt lat="50.597244500" lon="6.388299100"><ele>348</ele><time>2013-07-05T09:41:43Z</time></trkpt>
 <trkpt lat="50.597230400" lon="6.388351200"><ele>347</ele><time>2013-07-05T09:41:47Z</time></trkpt>
 <trkpt lat="50.597221200" lon="6.388404100"><ele>346</ele><time>2013-07-05T09:41:51Z</time></trkpt>
 <trkpt lat="50.597208300" lon="6.388478300"><ele>345</ele><time>2013-07-05T09:41:55Z</time></trkpt>
 <trkpt lat="50.597177900" lon="6.388541600"><ele>344</ele><time>2013-07-05T09:41:59Z</time></trkpt>
 <trkpt lat="50.597160300" lon="6.388598300"><ele>343</ele><time>2013-07-05T09:42:03Z</time></trkpt>
 <trkpt lat="50.597144500" lon="6.388663700"><ele>342</ele><time>2013-07-05T09:42:07Z</time></trkpt>
 <trkpt lat="50.597107400" lon="6.388730800"><ele>341</ele><time>2013-07-05T09:42:11Z</time></trkpt>
 <trkpt lat="50.597073300" lon="6.388788300"><ele>340</ele><time>2013-07-05T09:42:15Z</time></trkpt>
 <trkpt lat="50.597051200" lon="6.388843200"><ele>339</ele><time>2013-07-05T09:42:19Z</time></trkpt>
 <trkpt lat="50.597034100" lon="6.388889100"><ele>338</ele><time>2013-07-05T09:42:23Z</time></trkpt>
 <trkpt lat="50.597017800" lon="6.388958300"><ele>337</ele><time>2013-07-05T09:42:27Z</time></trkpt>
 <trkpt lat="50.597019500" lon="6.389015800"><ele>337</ele><time>2013-07-05T09:42:31Z</time></trkpt>
 <trkpt lat="50.597011600" lon="6.389079900"><ele>336</ele><time>2013-07-05T09:42:35Z</time></trkpt>
 <trkpt lat="50.596985400" lon="6.389137900"><ele>335</ele><time>2013-07-05T09:42:39Z</time></trkpt>
 <trkpt lat="50.596967000" lon="6.389205000"><ele>334</ele><time>2013-07-05T09:42:43Z</time></trkpt>
 <trkpt lat="50.596963700" lon="6.389265800"><ele>333</ele><time>2013-07-05T09:42:47Z</time></trkpt>
 <trkpt lat="50.596947400" lon="6.389334500"><ele>333</ele><time>2013-07-05T09:42:51Z</time></trkpt>
 <trkpt lat="50.596928700" lon="6.389389900"><ele>332</ele><time>2013-07-05T09:42:55Z</time></trkpt>
 <trkpt lat="50.596903700" lon="6.389445800"><ele>331</ele><time>2013-07-05T09:42:59Z</time></trkpt>
 <trkpt lat="50.596903300" lon="6.389498700"><ele>330</ele><time>2013-07-05T09:43:03Z</time></trkpt>
 <trkpt lat="50.596879900" lon="6.389557000"><ele>330</ele><time>2013-07-05T09:43:07Z</time></trkpt>
 <trkpt lat="50.596864900" lon="6.389619500"><ele>329</ele><time>2013-07-05T09:43:11Z</time></trkpt>
 <trkpt lat="50.596850300" lon="6.389669500"><ele>328</ele><time>2013-07-05T09:43:15Z</time></trkpt>
 <trkpt lat="50.596831600" lon="6.389707400"><ele>327</ele><time>2013-07-05T09:43:19Z</time></trkpt>
 <trkpt lat="50.596823200" lon="6.389729900"><ele>327</ele><time>2013-07-05T09:43:23Z</time></trkpt>
 <trkpt lat="50.596829100" lon="6.389804500"><ele>326</ele><time>2013-07-05T09:43:27Z</time></trkpt>
 <trkpt lat="50.596825400" lon="6.389872400"><ele>325</ele><time>2013-07-05T09:43:31Z</time></trkpt>
 <trkpt lat="50.596804100" lon="6.389934100"><ele>325</ele><time>2013-07-05T09:43:35Z</time></trkpt>
 <trkpt lat="50.596795300" lon="6.390002000"><ele>324</ele><time>2013-07-05T09:43:39Z</time></trkpt>
 <trkpt lat="50.596828700" lon="6.390094100"><ele>323</ele><time>2013-07-05T09:43:43Z</time></trkpt>
 <trkpt lat="50.596875700" lon="6.390169900"><ele>323</ele><time>2013-07-05T09:43:47Z</time></trkpt>
 <trkpt lat="50.596882400" lon="6.390231200"><ele>322</ele><time>2013-07-05T09:43:51Z</time></trkpt>
 <trkpt lat="50.596884900" lon="6.390288700"><ele>321</ele><time>2013-07-05T09:43:55Z</time></trkpt>
 <trkpt lat="50.596896200" lon="6.390350800"><ele>321</ele><time>2013-07-05T09:43:59Z</time></trkpt>
 <trkpt lat="50.596928700" lon="6.390382400"><ele>320</ele><time>2013-07-05T09:44:03Z</time></trkpt>
 <trkpt lat="50.596961200" lon="6.390369500"><ele>319</ele><time>2013-07-05T09:44:07Z</time></trkpt>
 <trkpt lat="50.596994100" lon="6.390353300"><ele>318</ele><time>2013-07-05T09:44:11Z</time></trkpt>
 <trkpt lat="50.597035700" lon="6.390346600"><ele>318</ele><time>2013-07-05T09:44:15Z</time></trkpt>
 <trkpt lat="50.597077000" lon="6.390334100"><ele>317</ele><time>2013-07-05T09:44:19Z</time></trkpt>
 <trkpt lat="50.597074900" lon="6.390288700"><ele>316</ele><time>2013-07-05T09:44:23Z</time></trkpt>
 <trkpt lat="50.597084500" lon="6.390254500"><ele>316</ele><time>2013-07-05T09:44:27Z</time></trkpt>
 <trkpt lat="50.597112800" lon="6.390221600"><ele>315</ele><time>2013-07-05T09:44:31Z</time></trkpt>
 <trkpt lat="50.597138700" lon="6.390187400"><ele>314</ele><time>2013-07-05T09:44:35Z</time></trkpt>
 <trkpt lat="50.597173700" lon="6.390140300"><ele>313</ele><time>2013-07-05T09:44:39Z</time></trkpt>
 <trkpt lat="50.597197900" lon="6.390094900"><ele>313</ele><time>2013-07-05T09:44:43Z</time></trkpt>
 <trkpt lat="50.597220800" lon="6.390049500"><ele>312</ele><time>2013-07-05T09:44:47Z</time></trkpt>
 <trkpt lat="50.597266200" lon="6.390014900"><ele>311</ele><time>2013-07-05T09:44:51Z</time></trkpt>
 <trkpt lat="50.597310700" lon="6.389988300"><ele>311</ele><time>2013-07-05T09:44:55Z</time></trkpt>
 <trkpt lat="50.597360800" lon="6.389953700"><ele>310</ele><time>2013-07-05T09:44:59Z</time></trkpt>
 <trkpt lat="50.597370700" lon="6.389917400"><ele>309</ele><time>2013-07-05T09:45:03Z</time></trkpt>
 <trkpt lat="50.597401200" lon="6.389884900"><ele>308</ele><time>2013-07-05T09:45:07Z</time></trkpt>
 <trkpt lat="50.597446200" lon="6.389844900"><ele>308</ele><time>2013-07-05T09:45:11Z</time></trkpt>
 <trkpt lat="50.597498300" lon="6.389805800"><ele>307</ele><time>2013-07-05T09:45:15Z</time></trkpt>
 <trkpt lat="50.597532800" lon="6.389763700"><ele>306</ele><time>2013-07-05T09:45:19Z</time></trkpt>
 <trkpt lat="50.597565800" lon="6.389707000"><ele>306</ele><time>2013-07-05T09:45:23Z</time></trkpt>
 <trkpt lat="50.597599900" lon="6.389659100"><ele>305</ele><time>2013-07-05T09:45:27Z</time></trkpt>
 <trkpt lat="50.597632000" lon="6.389596200"><ele>304</ele><time>2013-07-05T09:45:31Z</time></trkpt>
 <trkpt lat="50.597657400" lon="6.389547000"><ele>304</ele><time>2013-07-05T09:45:35Z</time></trkpt>
 <trkpt lat="50.597692900" lon="6.389477800"><ele>303</ele><time>2013-07-05T09:45:39Z</time></trkpt>
 <trkpt lat="50.597723300" lon="6.389404100"><ele>303</ele><time>2013-07-05T09:45:43Z</time></trkpt>
 <trkpt lat="50.597758300" lon="6.389344900"><ele>302</ele><time>2013-07-05T09:45:47Z</time></trkpt>
 <trkpt lat="50.597795800" lon="6.389282800"><ele>302</ele><time>2013-07-05T09:45:51Z</time></trkpt>
 <trkpt lat="50.597829500" lon="6.389221600"><ele>301</ele><time>2013-07-05T09:45:55Z</time></trkpt>
 <trkpt lat="50.597856200" lon="6.389151600"><ele>301</ele><time>2013-07-05T09:45:59Z</time></trkpt>
 <trkpt lat="50.597879100" lon="6.389083300"><ele>300</ele><time>2013-07-05T09:46:03Z</time></trkpt>
 <trkpt lat="50.597904100" lon="6.389014900"><ele>300</ele><time>2013-07-05T09:46:07Z</time></trkpt>
 <trkpt lat="50.597925400" lon="6.388940800"><ele>299</ele><time>2013-07-05T09:46:11Z</time></trkpt>
 <trkpt lat="50.597935800" lon="6.388862000"><ele>298</ele><time>2013-07-05T09:46:15Z</time></trkpt>
 <trkpt lat="50.597947000" lon="6.388788700"><ele>298</ele><time>2013-07-05T09:46:19Z</time></trkpt>
 <trkpt lat="50.597952000" lon="6.388727400"><ele>297</ele><time>2013-07-05T09:46:23Z</time></trkpt>
 <trkpt lat="50.597975300" lon="6.388654900"><ele>296</ele><time>2013-07-05T09:46:27Z</time></trkpt>
 <trkpt lat="50.597999100" lon="6.388580400"><ele>296</ele><time>2013-07-05T09:46:31Z</time></trkpt>
 <trkpt lat="50.598024500" lon="6.388493300"><ele>295</ele><time>2013-07-05T09:46:35Z</time></trkpt>
 <trkpt lat="50.598040800" lon="6.388425800"><ele>294</ele><time>2013-07-05T09:46:39Z</time></trkpt>
 <trkpt lat="50.598049500" lon="6.388372800"><ele>293</ele><time>2013-07-05T09:46:43Z</time></trkpt>
 <trkpt lat="50.598049500" lon="6.388314100"><ele>292</ele><time>2013-07-05T09:46:47Z</time></trkpt>
 <trkpt lat="50.598052000" lon="6.388244900"><ele>291</ele><time>2013-07-05T09:46:51Z</time></trkpt>
 <trkpt lat="50.598059900" lon="6.388167800"><ele>290</ele><time>2013-07-05T09:46:55Z</time></trkpt>
 <trkpt lat="50.598071200" lon="6.388103700"><ele>289</ele><time>2013-07-05T09:46:59Z</time></trkpt>
 <trkpt lat="50.598082000" lon="6.388039900"><ele>288</ele><time>2013-07-05T09:47:03Z</time></trkpt>
 <trkpt lat="50.598090400" lon="6.387977000"><ele>287</ele><time>2013-07-05T09:47:07Z</time></trkpt>
 <trkpt lat="50.598093300" lon="6.387897000"><ele>286</ele><time>2013-07-05T09:47:11Z</time></trkpt>
 <trkpt lat="50.598124900" lon="6.387829900"><ele>284</ele><time>2013-07-05T09:47:15Z</time></trkpt>
 <trkpt lat="50.598135800" lon="6.387751200"><ele>283</ele><time>2013-07-05T09:47:19Z</time></trkpt>
 <trkpt lat="50.598120800" lon="6.387659500"><ele>282</ele><time>2013-07-05T09:47:23Z</time></trkpt>
 <trkpt lat="50.598117400" lon="6.387569500"><ele>281</ele><time>2013-07-05T09:47:27Z</time></trkpt>
 <trkpt lat="50.598124900" lon="6.387499900"><ele>280</ele><time>2013-07-05T09:47:31Z</time></trkpt>
 <trkpt lat="50.598134900" lon="6.387432900"><ele>279</ele><time>2013-07-05T09:47:35Z</time></trkpt>
 <trkpt lat="50.598124100" lon="6.387366600"><ele>278</ele><time>2013-07-05T09:47:39Z</time></trkpt>
 <trkpt lat="50.598108700" lon="6.387289100"><ele>277</ele><time>2013-07-05T09:47:43Z</time></trkpt>
 <trkpt lat="50.598115300" lon="6.387184900"><ele>276</ele><time>2013-07-05T09:47:47Z</time></trkpt>
 <trkpt lat="50.598143700" lon="6.387133700"><ele>275</ele><time>2013-07-05T09:47:51Z</time></trkpt>
 <trkpt lat="50.598193300" lon="6.387160800"><ele>274</ele><time>2013-07-05T09:47:55Z</time></trkpt>
 <trkpt lat="50.598220800" lon="6.387202800"><ele>274</ele><time>2013-07-05T09:47:59Z</time></trkpt>
 <trkpt lat="50.598238300" lon="6.387256200"><ele>273</ele><time>2013-07-05T09:48:03Z</time></trkpt>
 <trkpt lat="50.598243300" lon="6.387321600"><ele>272</ele><time>2013-07-05T09:48:07Z</time></trkpt>
 <trkpt lat="50.598252800" lon="6.387399100"><ele>272</ele><time>2013-07-05T09:48:11Z</time></trkpt>
 <trkpt lat="50.598247000" lon="6.387470800"><ele>271</ele><time>2013-07-05T09:48:15Z</time></trkpt>
 <trkpt lat="50.598221200" lon="6.387558300"><ele>271</ele><time>2013-07-05T09:48:19Z</time></trkpt>
 <trkpt lat="50.598228700" lon="6.387648700"><ele>270</ele><time>2013-07-05T09:48:23Z</time></trkpt>
 <trkpt lat="50.598239500" lon="6.387728700"><ele>270</ele><time>2013-07-05T09:48:27Z</time></trkpt>
 <trkpt lat="50.598259100" lon="6.387793300"><ele>270</ele><time>2013-07-05T09:48:31Z</time></trkpt>
 <trkpt lat="50.598274900" lon="6.387858300"><ele>269</ele><time>2013-07-05T09:48:35Z</time></trkpt>
 <trkpt lat="50.598277000" lon="6.387932000"><ele>269</ele><time>2013-07-05T09:48:39Z</time></trkpt>
 <trkpt lat="50.598267000" lon="6.388018700"><ele>268</ele><time>2013-07-05T09:48:43Z</time></trkpt>
 <trkpt lat="50.598269500" lon="6.388112400"><ele>268</ele><time>2013-07-05T09:48:47Z</time></trkpt>
 <trkpt lat="50.598243300" lon="6.388189900"><ele>267</ele><time>2013-07-05T09:48:51Z</time></trkpt>
 <trkpt lat="50.598223300" lon="6.388265700"><ele>267</ele><time>2013-07-05T09:48:55Z</time></trkpt>
 <trkpt lat="50.598221200" lon="6.388330300"><ele>267</ele><time>2013-07-05T09:48:59Z</time></trkpt>
 <trkpt lat="50.598217400" lon="6.388406600"><ele>266</ele><time>2013-07-05T09:49:03Z</time></trkpt>
 <trkpt lat="50.598213300" lon="6.388477000"><ele>266</ele><time>2013-07-05T09:49:07Z</time></trkpt>
 <trkpt lat="50.598214500" lon="6.388560800"><ele>266</ele><time>2013-07-05T09:49:11Z</time></trkpt>
 <trkpt lat="50.598217000" lon="6.388641200"><ele>265</ele><time>2013-07-05T09:49:15Z</time></trkpt>
 <trkpt lat="50.598223300" lon="6.388721600"><ele>265</ele><time>2013-07-05T09:49:19Z</time></trkpt>
 <trkpt lat="50.598224500" lon="6.388803700"><ele>265</ele><time>2013-07-05T09:49:23Z</time></trkpt>
 <trkpt lat="50.598218300" lon="6.388874900"><ele>264</ele><time>2013-07-05T09:49:27Z</time></trkpt>
 <trkpt lat="50.598211600" lon="6.388948300"><ele>264</ele><time>2013-07-05T09:49:31Z</time></trkpt>
 <trkpt lat="50.598203700" lon="6.389022500"><ele>263</ele><time>2013-07-05T09:49:35Z</time></trkpt>
 <trkpt lat="50.598197900" lon="6.389116600"><ele>263</ele><time>2013-07-05T09:49:39Z</time></trkpt>
 <trkpt lat="50.598197800" lon="6.389175800"><ele>263</ele><time>2013-07-05T09:49:43Z</time></trkpt>
 <trkpt lat="50.598208700" lon="6.389246600"><ele>262</ele><time>2013-07-05T09:49:47Z</time></trkpt>
 <trkpt lat="50.598211600" lon="6.389341200"><ele>262</ele><time>2013-07-05T09:49:51Z</time></trkpt>
 <trkpt lat="50.598197900" lon="6.389432000"><ele>261</ele><time>2013-07-05T09:49:55Z</time></trkpt>
 <trkpt lat="50.598192800" lon="6.389541600"><ele>261</ele><time>2013-07-05T09:49:59Z</time></trkpt>
 <trkpt lat="50.598186200" lon="6.389656200"><ele>261</ele><time>2013-07-05T09:50:03Z</time></trkpt>
 <trkpt lat="50.598178300" lon="6.389743200"><ele>260</ele><time>2013-07-05T09:50:07Z</time></trkpt>
 <trkpt lat="50.598168200" lon="6.389829100"><ele>260</ele><time>2013-07-05T09:50:11Z</time></trkpt>
 <trkpt lat="50.598163300" lon="6.389900800"><ele>260</ele><time>2013-07-05T09:50:15Z</time></trkpt>
 <trkpt lat="50.598160300" lon="6.389986600"><ele>259</ele><time>2013-07-05T09:50:19Z</time></trkpt>
 <trkpt lat="50.598145400" lon="6.390068700"><ele>259</ele><time>2013-07-05T09:50:23Z</time></trkpt>
 <trkpt lat="50.598131200" lon="6.390162000"><ele>259</ele><time>2013-07-05T09:50:27Z</time></trkpt>
 <trkpt lat="50.598127800" lon="6.390242400"><ele>259</ele><time>2013-07-05T09:50:31Z</time></trkpt>
 <trkpt lat="50.598125300" lon="6.390297900"><ele>259</ele><time>2013-07-05T09:50:35Z</time></trkpt>
 <trkpt lat="50.598118300" lon="6.390346600"><ele>259</ele><time>2013-07-05T09:50:39Z</time></trkpt>
 <trkpt lat="50.598119100" lon="6.390422400"><ele>258</ele><time>2013-07-05T09:50:43Z</time></trkpt>
 <trkpt lat="50.598127800" lon="6.390493300"><ele>258</ele><time>2013-07-05T09:50:47Z</time></trkpt>
 <trkpt lat="50.598136600" lon="6.390586200"><ele>258</ele><time>2013-07-05T09:50:51Z</time></trkpt>
 <trkpt lat="50.598137400" lon="6.390656200"><ele>258</ele><time>2013-07-05T09:50:55Z</time></trkpt>
 <trkpt lat="50.598121200" lon="6.390752000"><ele>258</ele><time>2013-07-05T09:50:59Z</time></trkpt>
 <trkpt lat="50.598122800" lon="6.390813700"><ele>258</ele><time>2013-07-05T09:51:03Z</time></trkpt>
 <trkpt lat="50.598128300" lon="6.390887400"><ele>257</ele><time>2013-07-05T09:51:07Z</time></trkpt>
 <trkpt lat="50.598130400" lon="6.390944100"><ele>257</ele><time>2013-07-05T09:51:11Z</time></trkpt>
 <trkpt lat="50.598136600" lon="6.391024900"><ele>257</ele><time>2013-07-05T09:51:15Z</time></trkpt>
 <trkpt lat="50.598142400" lon="6.391103200"><ele>256</ele><time>2013-07-05T09:51:19Z</time></trkpt>
 <trkpt lat="50.598136600" lon="6.391170300"><ele>256</ele><time>2013-07-05T09:51:23Z</time></trkpt>
 <trkpt lat="50.598127000" lon="6.391235300"><ele>255</ele><time>2013-07-05T09:51:27Z</time></trkpt>
 <trkpt lat="50.598125300" lon="6.391293700"><ele>255</ele><time>2013-07-05T09:51:31Z</time></trkpt>
 <trkpt lat="50.598121600" lon="6.391375800"><ele>254</ele><time>2013-07-05T09:51:35Z</time></trkpt>
 <trkpt lat="50.598119100" lon="6.391457800"><ele>254</ele><time>2013-07-05T09:51:39Z</time></trkpt>
 <trkpt lat="50.598129500" lon="6.391548300"><ele>253</ele><time>2013-07-05T09:51:43Z</time></trkpt>
 <trkpt lat="50.598137900" lon="6.391632000"><ele>252</ele><time>2013-07-05T09:51:47Z</time></trkpt>
 <trkpt lat="50.598127000" lon="6.391708700"><ele>252</ele><time>2013-07-05T09:51:51Z</time></trkpt>
 <trkpt lat="50.598114100" lon="6.391787400"><ele>251</ele><time>2013-07-05T09:51:55Z</time></trkpt>
 <trkpt lat="50.598100400" lon="6.391872400"><ele>250</ele><time>2013-07-05T09:51:59Z</time></trkpt>
 <trkpt lat="50.598106200" lon="6.391948700"><ele>250</ele><time>2013-07-05T09:52:03Z</time></trkpt>
 <trkpt lat="50.598105400" lon="6.392013700"><ele>249</ele><time>2013-07-05T09:52:07Z</time></trkpt>
 <trkpt lat="50.598102400" lon="6.392082500"><ele>249</ele><time>2013-07-05T09:52:11Z</time></trkpt>
 <trkpt lat="50.598114500" lon="6.392136600"><ele>249</ele><time>2013-07-05T09:52:15Z</time></trkpt>
 <trkpt lat="50.598113700" lon="6.392206200"><ele>248</ele><time>2013-07-05T09:52:19Z</time></trkpt>
 <trkpt lat="50.598107400" lon="6.392251200"><ele>248</ele><time>2013-07-05T09:52:23Z</time></trkpt>
 <trkpt lat="50.598091600" lon="6.392327000"><ele>248</ele><time>2013-07-05T09:52:27Z</time></trkpt>
 <trkpt lat="50.598074900" lon="6.392412800"><ele>248</ele><time>2013-07-05T09:52:31Z</time></trkpt>
 <trkpt lat="50.598058300" lon="6.392483700"><ele>248</ele><time>2013-07-05T09:52:35Z</time></trkpt>
 <trkpt lat="50.598042000" lon="6.392547900"><ele>248</ele><time>2013-07-05T09:52:39Z</time></trkpt>
 <trkpt lat="50.598018700" lon="6.392632400"><ele>248</ele><time>2013-07-05T09:52:43Z</time></trkpt>
 <trkpt lat="50.597996200" lon="6.392703700"><ele>248</ele><time>2013-07-05T09:52:47Z</time></trkpt>
 <trkpt lat="50.597976200" lon="6.392779100"><ele>249</ele><time>2013-07-05T09:52:51Z</time></trkpt>
 <trkpt lat="50.597961600" lon="6.392845400"><ele>249</ele><time>2013-07-05T09:52:55Z</time></trkpt>
 <trkpt lat="50.597954100" lon="6.392928300"><ele>249</ele><time>2013-07-05T09:52:59Z</time></trkpt>
 <trkpt lat="50.597950400" lon="6.392995300"><ele>249</ele><time>2013-07-05T09:53:03Z</time></trkpt>
 <trkpt lat="50.597939900" lon="6.393041600"><ele>249</ele><time>2013-07-05T09:53:07Z</time></trkpt>
 <trkpt lat="50.597933700" lon="6.393099500"><ele>249</ele><time>2013-07-05T09:53:11Z</time></trkpt>
 <trkpt lat="50.597942900" lon="6.393157000"><ele>249</ele><time>2013-07-05T09:53:15Z</time></trkpt>
 <trkpt lat="50.597947400" lon="6.393224100"><ele>249</ele><time>2013-07-05T09:53:19Z</time></trkpt>
 <trkpt lat="50.597948700" lon="6.393303700"><ele>250</ele><time>2013-07-05T09:53:23Z</time></trkpt>
 <trkpt lat="50.597948300" lon="6.393390800"><ele>250</ele><time>2013-07-05T09:53:27Z</time></trkpt>
 <trkpt lat="50.597945300" lon="6.393453700"><ele>250</ele><time>2013-07-05T09:53:31Z</time></trkpt>
 <trkpt lat="50.597934500" lon="6.393502400"><ele>250</ele><time>2013-07-05T09:53:35Z</time></trkpt>
 <trkpt lat="50.597931600" lon="6.393571600"><ele>250</ele><time>2013-07-05T09:53:39Z</time></trkpt>
 <trkpt lat="50.597939100" lon="6.393674500"><ele>250</ele><time>2013-07-05T09:53:43Z</time></trkpt>
 <trkpt lat="50.597959900" lon="6.393763700"><ele>250</ele><time>2013-07-05T09:53:47Z</time></trkpt>
 <trkpt lat="50.597959900" lon="6.393773300"><ele>251</ele><time>2013-07-05T09:53:51Z</time></trkpt>
 <trkpt lat="50.597947800" lon="6.393795300"><ele>251</ele><time>2013-07-05T09:53:55Z</time></trkpt>
 <trkpt lat="50.597933700" lon="6.393833700"><ele>251</ele><time>2013-07-05T09:53:59Z</time></trkpt>
 <trkpt lat="50.597932900" lon="6.393865300"><ele>252</ele><time>2013-07-05T09:54:03Z</time></trkpt>
 <trkpt lat="50.597935300" lon="6.393857400"><ele>252</ele><time>2013-07-05T09:54:07Z</time></trkpt>
 <trkpt lat="50.597932000" lon="6.393846200"><ele>253</ele><time>2013-07-05T09:54:11Z</time></trkpt>
 <trkpt lat="50.597926600" lon="6.393848300"><ele>253</ele><time>2013-07-05T09:54:15Z</time></trkpt>
 <trkpt lat="50.597929100" lon="6.393861200"><ele>254</ele><time>2013-07-05T09:54:19Z</time></trkpt>
 <trkpt lat="50.597949100" lon="6.393907900"><ele>255</ele><time>2013-07-05T09:54:23Z</time></trkpt>
 <trkpt lat="50.597979900" lon="6.393963700"><ele>255</ele><time>2013-07-05T09:54:27Z</time></trkpt>
 <trkpt lat="50.598000300" lon="6.394017800"><ele>256</ele><time>2013-07-05T09:54:31Z</time></trkpt>
 <trkpt lat="50.598017400" lon="6.394113300"><ele>257</ele><time>2013-07-05T09:54:35Z</time></trkpt>
 <trkpt lat="50.598034100" lon="6.394203700"><ele>258</ele><time>2013-07-05T09:54:39Z</time></trkpt>
 <trkpt lat="50.598054500" lon="6.394278700"><ele>258</ele><time>2013-07-05T09:54:43Z</time></trkpt>
 <trkpt lat="50.598074900" lon="6.394337000"><ele>259</ele><time>2013-07-05T09:54:47Z</time></trkpt>
 <trkpt lat="50.598095800" lon="6.394407400"><ele>259</ele><time>2013-07-05T09:54:51Z</time></trkpt>
 <trkpt lat="50.598112900" lon="6.394455800"><ele>260</ele><time>2013-07-05T09:54:55Z</time></trkpt>
 <trkpt lat="50.598134100" lon="6.394512400"><ele>261</ele><time>2013-07-05T09:54:59Z</time></trkpt>
 <trkpt lat="50.598180800" lon="6.394564500"><ele>261</ele><time>2013-07-05T09:55:03Z</time></trkpt>
 <trkpt lat="50.598236200" lon="6.394617900"><ele>262</ele><time>2013-07-05T09:55:07Z</time></trkpt>
 <trkpt lat="50.598275800" lon="6.394654900"><ele>262</ele><time>2013-07-05T09:55:11Z</time></trkpt>
 <trkpt lat="50.598291600" lon="6.394713700"><ele>263</ele><time>2013-07-05T09:55:15Z</time></trkpt>
 <trkpt lat="50.598296600" lon="6.394801600"><ele>264</ele><time>2013-07-05T09:55:19Z</time></trkpt>
 <trkpt lat="50.598322400" lon="6.394874900"><ele>265</ele><time>2013-07-05T09:55:23Z</time></trkpt>
 <trkpt lat="50.598339100" lon="6.394936200"><ele>266</ele><time>2013-07-05T09:55:27Z</time></trkpt>
 <trkpt lat="50.598347400" lon="6.395004900"><ele>267</ele><time>2013-07-05T09:55:31Z</time></trkpt>
 <trkpt lat="50.598343300" lon="6.395084100"><ele>268</ele><time>2013-07-05T09:55:35Z</time></trkpt>
 <trkpt lat="50.598348300" lon="6.395173300"><ele>269</ele><time>2013-07-05T09:55:39Z</time></trkpt>
 <trkpt lat="50.598362400" lon="6.395244900"><ele>271</ele><time>2013-07-05T09:55:43Z</time></trkpt>
 <trkpt lat="50.598362400" lon="6.395324900"><ele>272</ele><time>2013-07-05T09:55:47Z</time></trkpt>
 <trkpt lat="50.598363200" lon="6.395399900"><ele>273</ele><time>2013-07-05T09:55:51Z</time></trkpt>
 <trkpt lat="50.598373700" lon="6.395467000"><ele>275</ele><time>2013-07-05T09:55:55Z</time></trkpt>
 <trkpt lat="50.598392800" lon="6.395534900"><ele>276</ele><time>2013-07-05T09:55:59Z</time></trkpt>
 <trkpt lat="50.598417900" lon="6.395622900"><ele>278</ele><time>2013-07-05T09:56:03Z</time></trkpt>
 <trkpt lat="50.598436200" lon="6.395731600"><ele>280</ele><time>2013-07-05T09:56:07Z</time></trkpt>
 <trkpt lat="50.598446200" lon="6.395814900"><ele>281</ele><time>2013-07-05T09:56:11Z</time></trkpt>
 <trkpt lat="50.598444500" lon="6.395889900"><ele>283</ele><time>2013-07-05T09:56:15Z</time></trkpt>
 <trkpt lat="50.598452900" lon="6.395976600"><ele>285</ele><time>2013-07-05T09:56:19Z</time></trkpt>
 <trkpt lat="50.598468700" lon="6.396059900"><ele>286</ele><time>2013-07-05T09:56:23Z</time></trkpt>
 <trkpt lat="50.598477000" lon="6.396152800"><ele>288</ele><time>2013-07-05T09:56:27Z</time></trkpt>
 <trkpt lat="50.598496200" lon="6.396232000"><ele>290</ele><time>2013-07-05T09:56:31Z</time></trkpt>
 <trkpt lat="50.598544100" lon="6.396331600"><ele>292</ele><time>2013-07-05T09:56:35Z</time></trkpt>
 <trkpt lat="50.598568700" lon="6.396420800"><ele>294</ele><time>2013-07-05T09:56:39Z</time></trkpt>
 <trkpt lat="50.598586600" lon="6.396507000"><ele>295</ele><time>2013-07-05T09:56:43Z</time></trkpt>
 <trkpt lat="50.598604500" lon="6.396580300"><ele>297</ele><time>2013-07-05T09:56:47Z</time></trkpt>
 <trkpt lat="50.598621200" lon="6.396647000"><ele>299</ele><time>2013-07-05T09:56:51Z</time></trkpt>
 <trkpt lat="50.598648700" lon="6.396732400"><ele>301</ele><time>2013-07-05T09:56:55Z</time></trkpt>
 <trkpt lat="50.598662900" lon="6.396818700"><ele>304</ele><time>2013-07-05T09:56:59Z</time></trkpt>
 <trkpt lat="50.598677800" lon="6.396910300"><ele>306</ele><time>2013-07-05T09:57:03Z</time></trkpt>
 <trkpt lat="50.598700400" lon="6.396997800"><ele>308</ele><time>2013-07-05T09:57:07Z</time></trkpt>
 <trkpt lat="50.598726200" lon="6.397067000"><ele>310</ele><time>2013-07-05T09:57:11Z</time></trkpt>
 <trkpt lat="50.598750400" lon="6.397149900"><ele>313</ele><time>2013-07-05T09:57:15Z</time></trkpt>
 <trkpt lat="50.598760300" lon="6.397210800"><ele>315</ele><time>2013-07-05T09:57:19Z</time></trkpt>
 <trkpt lat="50.598786600" lon="6.397278700"><ele>317</ele><time>2013-07-05T09:57:23Z</time></trkpt>
 <trkpt lat="50.598813300" lon="6.397363200"><ele>319</ele><time>2013-07-05T09:57:27Z</time></trkpt>
 <trkpt lat="50.598832400" lon="6.397422900"><ele>320</ele><time>2013-07-05T09:57:31Z</time></trkpt>
 <trkpt lat="50.598842800" lon="6.397507400"><ele>322</ele><time>2013-07-05T09:57:35Z</time></trkpt>
 <trkpt lat="50.598846600" lon="6.397545800"><ele>324</ele><time>2013-07-05T09:57:39Z</time></trkpt>
 <trkpt lat="50.598833700" lon="6.397542000"><ele>325</ele><time>2013-07-05T09:57:43Z</time></trkpt>
 <trkpt lat="50.598822400" lon="6.397532000"><ele>326</ele><time>2013-07-05T09:57:47Z</time></trkpt>
 <trkpt lat="50.598817000" lon="6.397531600"><ele>327</ele><time>2013-07-05T09:57:51Z</time></trkpt>
 <trkpt lat="50.598823300" lon="6.397570400"><ele>328</ele><time>2013-07-05T09:57:55Z</time></trkpt>
 <trkpt lat="50.598825300" lon="6.397657400"><ele>329</ele><time>2013-07-05T09:57:59Z</time></trkpt>
 <trkpt lat="50.598829900" lon="6.397732000"><ele>329</ele><time>2013-07-05T09:58:03Z</time></trkpt>
 <trkpt lat="50.598834100" lon="6.397819900"><ele>329</ele><time>2013-07-05T09:58:07Z</time></trkpt>
 <trkpt lat="50.598834100" lon="6.397894500"><ele>329</ele><time>2013-07-05T09:58:11Z</time></trkpt>
 <trkpt lat="50.598834100" lon="6.397969100"><ele>328</ele><time>2013-07-05T09:58:15Z</time></trkpt>
 <trkpt lat="50.598850300" lon="6.398047400"><ele>328</ele><time>2013-07-05T09:58:19Z</time></trkpt>
 <trkpt lat="50.598863700" lon="6.398117400"><ele>327</ele><time>2013-07-05T09:58:23Z</time></trkpt>
 <trkpt lat="50.598874500" lon="6.398194100"><ele>327</ele><time>2013-07-05T09:58:27Z</time></trkpt>
 <trkpt lat="50.598888300" lon="6.398257800"><ele>326</ele><time>2013-07-05T09:58:31Z</time></trkpt>
 <trkpt lat="50.598919500" lon="6.398310800"><ele>325</ele><time>2013-07-05T09:58:35Z</time></trkpt>
 <trkpt lat="50.598953700" lon="6.398376600"><ele>324</ele><time>2013-07-05T09:58:39Z</time></trkpt>
 <trkpt lat="50.598974500" lon="6.398440300"><ele>323</ele><time>2013-07-05T09:58:43Z</time></trkpt>
 <trkpt lat="50.598986600" lon="6.398503700"><ele>322</ele><time>2013-07-05T09:58:47Z</time></trkpt>
 <trkpt lat="50.599008300" lon="6.398571600"><ele>321</ele><time>2013-07-05T09:58:51Z</time></trkpt>
 <trkpt lat="50.599020800" lon="6.398645800"><ele>320</ele><time>2013-07-05T09:58:55Z</time></trkpt>
 <trkpt lat="50.599030800" lon="6.398711200"><ele>319</ele><time>2013-07-05T09:58:59Z</time></trkpt>
 <trkpt lat="50.599039100" lon="6.398785300"><ele>318</ele><time>2013-07-05T09:59:03Z</time></trkpt>
 <trkpt lat="50.599046600" lon="6.398856600"><ele>317</ele><time>2013-07-05T09:59:07Z</time></trkpt>
 <trkpt lat="50.599064100" lon="6.398941600"><ele>316</ele><time>2013-07-05T09:59:11Z</time></trkpt>
 <trkpt lat="50.599072400" lon="6.399009100"><ele>315</ele><time>2013-07-05T09:59:15Z</time></trkpt>
 <trkpt lat="50.599078200" lon="6.399073700"><ele>314</ele><time>2013-07-05T09:59:19Z</time></trkpt>
 <trkpt lat="50.599092000" lon="6.399135800"><ele>313</ele><time>2013-07-05T09:59:23Z</time></trkpt>
 <trkpt lat="50.599102900" lon="6.399193700"><ele>312</ele><time>2013-07-05T09:59:27Z</time></trkpt>
 <trkpt lat="50.599119100" lon="6.399265400"><ele>311</ele><time>2013-07-05T09:59:31Z</time></trkpt>
 <trkpt lat="50.599139100" lon="6.399318700"><ele>310</ele><time>2013-07-05T09:59:35Z</time></trkpt>
 <trkpt lat="50.599140800" lon="6.399366200"><ele>309</ele><time>2013-07-05T09:59:39Z</time></trkpt>
 <trkpt lat="50.599154500" lon="6.399423700"><ele>308</ele><time>2013-07-05T09:59:43Z</time></trkpt>
 <trkpt lat="50.599177000" lon="6.399466200"><ele>307</ele><time>2013-07-05T09:59:47Z</time></trkpt>
 <trkpt lat="50.599199500" lon="6.399503300"><ele>306</ele><time>2013-07-05T09:59:51Z</time></trkpt>
 <trkpt lat="50.599222000" lon="6.399561200"><ele>305</ele><time>2013-07-05T09:59:55Z</time></trkpt>
 <trkpt lat="50.599266200" lon="6.399609100"><ele>304</ele><time>2013-07-05T09:59:59Z</time></trkpt>
 <trkpt lat="50.599305800" lon="6.399644500"><ele>303</ele><time>2013-07-05T10:00:03Z</time></trkpt>
 <trkpt lat="50.599343300" lon="6.399677400"><ele>302</ele><time>2013-07-05T10:00:07Z</time></trkpt>
 <trkpt lat="50.599380000" lon="6.399709100"><ele>301</ele><time>2013-07-05T10:00:11Z</time></trkpt>
 <trkpt lat="50.599415300" lon="6.399739100"><ele>300</ele><time>2013-07-05T10:00:15Z</time></trkpt>
 <trkpt lat="50.599454900" lon="6.399781600"><ele>299</ele><time>2013-07-05T10:00:19Z</time></trkpt>
 <trkpt lat="50.599485300" lon="6.399821200"><ele>299</ele><time>2013-07-05T10:00:23Z</time></trkpt>
 <trkpt lat="50.599500800" lon="6.399854500"><ele>298</ele><time>2013-07-05T10:00:27Z</time></trkpt>
 <trkpt lat="50.599529900" lon="6.399892000"><ele>298</ele><time>2013-07-05T10:00:31Z</time></trkpt>
 <trkpt lat="50.599569100" lon="6.399935300"><ele>297</ele><time>2013-07-05T10:00:35Z</time></trkpt>
 <trkpt lat="50.599602400" lon="6.399979100"><ele>297</ele><time>2013-07-05T10:00:39Z</time></trkpt>
 <trkpt lat="50.599634900" lon="6.400023700"><ele>297</ele><time>2013-07-05T10:00:43Z</time></trkpt>
 <trkpt lat="50.599667800" lon="6.400060300"><ele>296</ele><time>2013-07-05T10:00:47Z</time></trkpt>
 <trkpt lat="50.599696600" lon="6.400105800"><ele>296</ele><time>2013-07-05T10:00:51Z</time></trkpt>
 <trkpt lat="50.599729100" lon="6.400144900"><ele>296</ele><time>2013-07-05T10:00:55Z</time></trkpt>
 <trkpt lat="50.599770800" lon="6.400194500"><ele>296</ele><time>2013-07-05T10:00:59Z</time></trkpt>
 <trkpt lat="50.599800800" lon="6.400244100"><ele>296</ele><time>2013-07-05T10:01:03Z</time></trkpt>
 <trkpt lat="50.599830800" lon="6.400310300"><ele>296</ele><time>2013-07-05T10:01:07Z</time></trkpt>
 <trkpt lat="50.599861200" lon="6.400380400"><ele>296</ele><time>2013-07-05T10:01:11Z</time></trkpt>
 <trkpt lat="50.599892400" lon="6.400429500"><ele>295</ele><time>2013-07-05T10:01:15Z</time></trkpt>
 <trkpt lat="50.599923300" lon="6.400482500"><ele>295</ele><time>2013-07-05T10:01:19Z</time></trkpt>
 <trkpt lat="50.599949100" lon="6.400535300"><ele>295</ele><time>2013-07-05T10:01:23Z</time></trkpt>
 <trkpt lat="50.599974500" lon="6.400594100"><ele>294</ele><time>2013-07-05T10:01:27Z</time></trkpt>
 <trkpt lat="50.599995800" lon="6.400649500"><ele>294</ele><time>2013-07-05T10:01:31Z</time></trkpt>
 <trkpt lat="50.600017000" lon="6.400724500"><ele>294</ele><time>2013-07-05T10:01:35Z</time></trkpt>
 <trkpt lat="50.600040800" lon="6.400796600"><ele>293</ele><time>2013-07-05T10:01:39Z</time></trkpt>
 <trkpt lat="50.600049500" lon="6.400855700"><ele>293</ele><time>2013-07-05T10:01:43Z</time></trkpt>
 <trkpt lat="50.600067000" lon="6.400929100"><ele>292</ele><time>2013-07-05T10:01:47Z</time></trkpt>
 <trkpt lat="50.600087900" lon="6.400993300"><ele>291</ele><time>2013-07-05T10:01:51Z</time></trkpt>
 <trkpt lat="50.600107400" lon="6.401062400"><ele>291</ele><time>2013-07-05T10:01:55Z</time></trkpt>
 <trkpt lat="50.600118300" lon="6.401124900"><ele>290</ele><time>2013-07-05T10:01:59Z</time></trkpt>
 <trkpt lat="50.600132800" lon="6.401200800"><ele>290</ele><time>2013-07-05T10:02:03Z</time></trkpt>
 <trkpt lat="50.600150400" lon="6.401267400"><ele>289</ele><time>2013-07-05T10:02:07Z</time></trkpt>
 <trkpt lat="50.600161600" lon="6.401374500"><ele>288</ele><time>2013-07-05T10:02:11Z</time></trkpt>
 <trkpt lat="50.600183300" lon="6.401447000"><ele>287</ele><time>2013-07-05T10:02:15Z</time></trkpt>
 <trkpt lat="50.600221200" lon="6.401494100"><ele>287</ele><time>2013-07-05T10:02:19Z</time></trkpt>
 <trkpt lat="50.600255300" lon="6.401541200"><ele>286</ele><time>2013-07-05T10:02:23Z</time></trkpt>
 <trkpt lat="50.600278300" lon="6.401595800"><ele>285</ele><time>2013-07-05T10:02:27Z</time></trkpt>
 <trkpt lat="50.600302400" lon="6.401647400"><ele>284</ele><time>2013-07-05T10:02:31Z</time></trkpt>
 <trkpt lat="50.600320800" lon="6.401703700"><ele>284</ele><time>2013-07-05T10:02:35Z</time></trkpt>
 <trkpt lat="50.600334100" lon="6.401761200"><ele>284</ele><time>2013-07-05T10:02:39Z</time></trkpt>
 <trkpt lat="50.600330800" lon="6.401786200"><ele>283</ele><time>2013-07-05T10:02:43Z</time></trkpt>
 <trkpt lat="50.600335300" lon="6.401777800"><ele>283</ele><time>2013-07-05T10:02:47Z</time></trkpt>
 <trkpt lat="50.600344500" lon="6.401804100"><ele>283</ele><time>2013-07-05T10:02:51Z</time></trkpt>
 <trkpt lat="50.600373300" lon="6.401859500"><ele>283</ele><time>2013-07-05T10:02:55Z</time></trkpt>
 <trkpt lat="50.600417400" lon="6.401913300"><ele>283</ele><time>2013-07-05T10:02:59Z</time></trkpt>
 <trkpt lat="50.600459500" lon="6.401959100"><ele>283</ele><time>2013-07-05T10:03:03Z</time></trkpt>
 <trkpt lat="50.600512000" lon="6.402004500"><ele>283</ele><time>2013-07-05T10:03:07Z</time></trkpt>
 <trkpt lat="50.600557000" lon="6.402039900"><ele>282</ele><time>2013-07-05T10:03:11Z</time></trkpt>
 <trkpt lat="50.600641200" lon="6.402098300"><ele>282</ele><time>2013-07-05T10:03:15Z</time></trkpt>
 <trkpt lat="50.600693200" lon="6.402126200"><ele>282</ele><time>2013-07-05T10:03:19Z</time></trkpt>
 <trkpt lat="50.600734500" lon="6.402148700"><ele>283</ele><time>2013-07-05T10:03:23Z</time></trkpt>
 <trkpt lat="50.600777900" lon="6.402166600"><ele>283</ele><time>2013-07-05T10:03:27Z</time></trkpt>
 <trkpt lat="50.600834100" lon="6.402187000"><ele>283</ele><time>2013-07-05T10:03:31Z</time></trkpt>
 <trkpt lat="50.600870800" lon="6.402224100"><ele>283</ele><time>2013-07-05T10:03:35Z</time></trkpt>
 <trkpt lat="50.600908200" lon="6.402281200"><ele>283</ele><time>2013-07-05T10:03:39Z</time></trkpt>
 <trkpt lat="50.600949900" lon="6.402331600"><ele>283</ele><time>2013-07-05T10:03:43Z</time></trkpt>
 <trkpt lat="50.600988300" lon="6.402395300"><ele>283</ele><time>2013-07-05T10:03:47Z</time></trkpt>
 <trkpt lat="50.601032800" lon="6.402412900"><ele>283</ele><time>2013-07-05T10:03:51Z</time></trkpt>
 <trkpt lat="50.601076600" lon="6.402439900"><ele>283</ele><time>2013-07-05T10:03:55Z</time></trkpt>
 <trkpt lat="50.601089100" lon="6.402448700"><ele>283</ele><time>2013-07-05T10:03:59Z</time></trkpt>
 <trkpt lat="50.601114500" lon="6.402462800"><ele>283</ele><time>2013-07-05T10:04:03Z</time></trkpt>
 <trkpt lat="50.601160300" lon="6.402481200"><ele>284</ele><time>2013-07-05T10:04:07Z</time></trkpt>
 <trkpt lat="50.601205400" lon="6.402509100"><ele>284</ele><time>2013-07-05T10:04:11Z</time></trkpt>
 <trkpt lat="50.601261600" lon="6.402536200"><ele>284</ele><time>2013-07-05T10:04:15Z</time></trkpt>
 <trkpt lat="50.601300300" lon="6.402553300"><ele>285</ele><time>2013-07-05T10:04:19Z</time></trkpt>
 <trkpt lat="50.601342000" lon="6.402595300"><ele>286</ele><time>2013-07-05T10:04:23Z</time></trkpt>
 <trkpt lat="50.601372000" lon="6.402624100"><ele>286</ele><time>2013-07-05T10:04:27Z</time></trkpt>
 <trkpt lat="50.601418700" lon="6.402639900"><ele>287</ele><time>2013-07-05T10:04:31Z</time></trkpt>
 <trkpt lat="50.601471600" lon="6.402665000"><ele>288</ele><time>2013-07-05T10:04:35Z</time></trkpt>
 <trkpt lat="50.601513300" lon="6.402692800"><ele>289</ele><time>2013-07-05T10:04:39Z</time></trkpt>
 <trkpt lat="50.601570400" lon="6.402736200"><ele>289</ele><time>2013-07-05T10:04:43Z</time></trkpt>
 <trkpt lat="50.601631200" lon="6.402784500"><ele>291</ele><time>2013-07-05T10:04:47Z</time></trkpt>
 <trkpt lat="50.601675300" lon="6.402828300"><ele>292</ele><time>2013-07-05T10:04:51Z</time></trkpt>
 <trkpt lat="50.601714900" lon="6.402863300"><ele>293</ele><time>2013-07-05T10:04:55Z</time></trkpt>
 <trkpt lat="50.601759900" lon="6.402892000"><ele>294</ele><time>2013-07-05T10:04:59Z</time></trkpt>
 <trkpt lat="50.601834100" lon="6.402924500"><ele>296</ele><time>2013-07-05T10:05:03Z</time></trkpt>
 <trkpt lat="50.601883700" lon="6.402942900"><ele>297</ele><time>2013-07-05T10:05:07Z</time></trkpt>
 <trkpt lat="50.601951200" lon="6.402956200"><ele>298</ele><time>2013-07-05T10:05:11Z</time></trkpt>
 <trkpt lat="50.602011200" lon="6.402959900"><ele>300</ele><time>2013-07-05T10:05:15Z</time></trkpt>
 <trkpt lat="50.602076600" lon="6.402947400"><ele>301</ele><time>2013-07-05T10:05:19Z</time></trkpt>
 <trkpt lat="50.602119900" lon="6.402939900"><ele>303</ele><time>2013-07-05T10:05:23Z</time></trkpt>
 <trkpt lat="50.602161600" lon="6.402931600"><ele>304</ele><time>2013-07-05T10:05:27Z</time></trkpt>
 <trkpt lat="50.602192400" lon="6.402934100"><ele>306</ele><time>2013-07-05T10:05:31Z</time></trkpt>
 <trkpt lat="50.602220800" lon="6.402932000"><ele>308</ele><time>2013-07-05T10:05:35Z</time></trkpt>
 <trkpt lat="50.602251600" lon="6.402908300"><ele>309</ele><time>2013-07-05T10:05:39Z</time></trkpt>
 <trkpt lat="50.602304100" lon="6.402885800"><ele>311</ele><time>2013-07-05T10:05:43Z</time></trkpt>
 <trkpt lat="50.602363700" lon="6.402857400"><ele>313</ele><time>2013-07-05T10:05:47Z</time></trkpt>
 <trkpt lat="50.602419500" lon="6.402818200"><ele>314</ele><time>2013-07-05T10:05:51Z</time></trkpt>
 <trkpt lat="50.602491600" lon="6.402789100"><ele>316</ele><time>2013-07-05T10:05:55Z</time></trkpt>
 <trkpt lat="50.602567800" lon="6.402769500"><ele>317</ele><time>2013-07-05T10:05:59Z</time></trkpt>
 <trkpt lat="50.602619100" lon="6.402744500"><ele>319</ele><time>2013-07-05T10:06:03Z</time></trkpt>
 <trkpt lat="50.602650300" lon="6.402712800"><ele>321</ele><time>2013-07-05T10:06:07Z</time></trkpt>
 <trkpt lat="50.602689100" lon="6.402679500"><ele>322</ele><time>2013-07-05T10:06:11Z</time></trkpt>
 <trkpt lat="50.602736600" lon="6.402649100"><ele>324</ele><time>2013-07-05T10:06:15Z</time></trkpt>
 <trkpt lat="50.602800800" lon="6.402602900"><ele>325</ele><time>2013-07-05T10:06:19Z</time></trkpt>
 <trkpt lat="50.602850700" lon="6.402549100"><ele>327</ele><time>2013-07-05T10:06:23Z</time></trkpt>
 <trkpt lat="50.602911600" lon="6.402476200"><ele>328</ele><time>2013-07-05T10:06:27Z</time></trkpt>
 <trkpt lat="50.602980400" lon="6.402445800"><ele>330</ele><time>2013-07-05T10:06:31Z</time></trkpt>
 <trkpt lat="50.603064900" lon="6.402406600"><ele>331</ele><time>2013-07-05T10:06:35Z</time></trkpt>
 <trkpt lat="50.603136200" lon="6.402352800"><ele>333</ele><time>2013-07-05T10:06:39Z</time></trkpt>
 <trkpt lat="50.603204900" lon="6.402309100"><ele>335</ele><time>2013-07-05T10:06:43Z</time></trkpt>
 <trkpt lat="50.603229500" lon="6.402279900"><ele>337</ele><time>2013-07-05T10:06:47Z</time></trkpt>
 <trkpt lat="50.603239900" lon="6.402213700"><ele>339</ele><time>2013-07-05T10:06:51Z</time></trkpt>
 <trkpt lat="50.603317400" lon="6.402188300"><ele>341</ele><time>2013-07-05T10:06:55Z</time></trkpt>
 <trkpt lat="50.603371600" lon="6.402153700"><ele>343</ele><time>2013-07-05T10:06:59Z</time></trkpt>
 <trkpt lat="50.603431600" lon="6.402130700"><ele>345</ele><time>2013-07-05T10:07:03Z</time></trkpt>
 <trkpt lat="50.603507000" lon="6.402092000"><ele>346</ele><time>2013-07-05T10:07:07Z</time></trkpt>
 <trkpt lat="50.603601200" lon="6.402059900"><ele>348</ele><time>2013-07-05T10:07:11Z</time></trkpt>
 <trkpt lat="50.603687000" lon="6.402012000"><ele>350</ele><time>2013-07-05T10:07:15Z</time></trkpt>
 <trkpt lat="50.603749500" lon="6.401961600"><ele>352</ele><time>2013-07-05T10:07:19Z</time></trkpt>
 <trkpt lat="50.603791600" lon="6.401909900"><ele>354</ele><time>2013-07-05T10:07:23Z</time></trkpt>
 <trkpt lat="50.603829100" lon="6.401874500"><ele>356</ele><time>2013-07-05T10:07:27Z</time></trkpt>
 <trkpt lat="50.603877000" lon="6.401822800"><ele>358</ele><time>2013-07-05T10:07:31Z</time></trkpt>
 <trkpt lat="50.603935800" lon="6.401784500"><ele>360</ele><time>2013-07-05T10:07:35Z</time></trkpt>
 <trkpt lat="50.603995700" lon="6.401741200"><ele>362</ele><time>2013-07-05T10:07:39Z</time></trkpt>
 <trkpt lat="50.604040300" lon="6.401705300"><ele>364</ele><time>2013-07-05T10:07:43Z</time></trkpt>
 <trkpt lat="50.604086200" lon="6.401660700"><ele>366</ele><time>2013-07-05T10:07:47Z</time></trkpt>
 <trkpt lat="50.604116200" lon="6.401613300"><ele>368</ele><time>2013-07-05T10:07:51Z</time></trkpt>
 <trkpt lat="50.604161200" lon="6.401576200"><ele>370</ele><time>2013-07-05T10:07:55Z</time></trkpt>
 <trkpt lat="50.604251600" lon="6.401556600"><ele>372</ele><time>2013-07-05T10:07:59Z</time></trkpt>
 <trkpt lat="50.604331600" lon="6.401548300"><ele>373</ele><time>2013-07-05T10:08:03Z</time></trkpt>
 <trkpt lat="50.604432400" lon="6.401546600"><ele>375</ele><time>2013-07-05T10:08:07Z</time></trkpt>
 <trkpt lat="50.604493700" lon="6.401534500"><ele>376</ele><time>2013-07-05T10:08:11Z</time></trkpt>
 <trkpt lat="50.604572000" lon="6.401508300"><ele>378</ele><time>2013-07-05T10:08:15Z</time></trkpt>
 <trkpt lat="50.604548300" lon="6.401492800"><ele>379</ele><time>2013-07-05T10:08:19Z</time></trkpt>
 <trkpt lat="50.604575800" lon="6.401492800"><ele>380</ele><time>2013-07-05T10:08:23Z</time></trkpt>
 <trkpt lat="50.604670400" lon="6.401534900"><ele>382</ele><time>2013-07-05T10:08:27Z</time></trkpt>
 <trkpt lat="50.604774100" lon="6.401587000"><ele>383</ele><time>2013-07-05T10:08:31Z</time></trkpt>
 <trkpt lat="50.604784900" lon="6.401560800"><ele>384</ele><time>2013-07-05T10:08:35Z</time></trkpt>
 <trkpt lat="50.604743700" lon="6.401478200"><ele>385</ele><time>2013-07-05T10:08:39Z</time></trkpt>
 <trkpt lat="50.604720800" lon="6.401426200"><ele>385</ele><time>2013-07-05T10:08:43Z</time></trkpt>
 <trkpt lat="50.604732800" lon="6.401396600"><ele>386</ele><time>2013-07-05T10:08:47Z</time></trkpt>
 <trkpt lat="50.604766600" lon="6.401362400"><ele>386</ele><time>2013-07-05T10:08:51Z</time></trkpt>
 <trkpt lat="50.604808300" lon="6.401337800"><ele>386</ele><time>2013-07-05T10:08:55Z</time></trkpt>
 <trkpt lat="50.604810800" lon="6.401314100"><ele>386</ele><time>2013-07-05T10:08:59Z</time></trkpt>
 <trkpt lat="50.604840300" lon="6.401303300"><ele>385</ele><time>2013-07-05T10:09:03Z</time></trkpt>
 <trkpt lat="50.604905700" lon="6.401281200"><ele>385</ele><time>2013-07-05T10:09:07Z</time></trkpt>
 <trkpt lat="50.604920300" lon="6.401256600"><ele>385</ele><time>2013-07-05T10:09:11Z</time></trkpt>
 <trkpt lat="50.604976200" lon="6.401248300"><ele>384</ele><time>2013-07-05T10:09:15Z</time></trkpt>
 <trkpt lat="50.604986200" lon="6.401214100"><ele>384</ele><time>2013-07-05T10:09:19Z</time></trkpt>
 <trkpt lat="50.604946600" lon="6.401159500"><ele>383</ele><time>2013-07-05T10:09:23Z</time></trkpt>
 <trkpt lat="50.604951600" lon="6.401112400"><ele>382</ele><time>2013-07-05T10:09:27Z</time></trkpt>
 <trkpt lat="50.604982000" lon="6.401082800"><ele>382</ele><time>2013-07-05T10:09:31Z</time></trkpt>
 <trkpt lat="50.605007900" lon="6.401044900"><ele>381</ele><time>2013-07-05T10:09:35Z</time></trkpt>
 <trkpt lat="50.605034100" lon="6.401023700"><ele>379</ele><time>2013-07-05T10:09:39Z</time></trkpt>
 <trkpt lat="50.605060300" lon="6.400978300"><ele>378</ele><time>2013-07-05T10:09:43Z</time></trkpt>
 <trkpt lat="50.605008300" lon="6.400859900"><ele>377</ele><time>2013-07-05T10:09:47Z</time></trkpt>
 <trkpt lat="50.604957400" lon="6.400774500"><ele>375</ele><time>2013-07-05T10:09:51Z</time></trkpt>
 <trkpt lat="50.605004500" lon="6.400753200"><ele>374</ele><time>2013-07-05T10:09:55Z</time></trkpt>
 <trkpt lat="50.605025800" lon="6.400686600"><ele>372</ele><time>2013-07-05T10:09:59Z</time></trkpt>
 <trkpt lat="50.605065800" lon="6.400625800"><ele>370</ele><time>2013-07-05T10:10:03Z</time></trkpt>
 <trkpt lat="50.605089100" lon="6.400603700"><ele>369</ele><time>2013-07-05T10:10:07Z</time></trkpt>
 <trkpt lat="50.605131600" lon="6.400563700"><ele>367</ele><time>2013-07-05T10:10:11Z</time></trkpt>
 <trkpt lat="50.605174900" lon="6.400535300"><ele>365</ele><time>2013-07-05T10:10:15Z</time></trkpt>
 <trkpt lat="50.605222800" lon="6.400511200"><ele>363</ele><time>2013-07-05T10:10:19Z</time></trkpt>
 <trkpt lat="50.605268700" lon="6.400474900"><ele>361</ele><time>2013-07-05T10:10:23Z</time></trkpt>
 <trkpt lat="50.605338700" lon="6.400433300"><ele>359</ele><time>2013-07-05T10:10:27Z</time></trkpt>
 <trkpt lat="50.605381600" lon="6.400375300"><ele>357</ele><time>2013-07-05T10:10:31Z</time></trkpt>
 <trkpt lat="50.605391200" lon="6.400293300"><ele>355</ele><time>2013-07-05T10:10:35Z</time></trkpt>
 <trkpt lat="50.605392800" lon="6.400200800"><ele>353</ele><time>2013-07-05T10:10:39Z</time></trkpt>
 <trkpt lat="50.605382000" lon="6.400137000"><ele>351</ele><time>2013-07-05T10:10:43Z</time></trkpt>
 <trkpt lat="50.605435700" lon="6.400083700"><ele>349</ele><time>2013-07-05T10:10:47Z</time></trkpt>
 <trkpt lat="50.605437000" lon="6.400008300"><ele>348</ele><time>2013-07-05T10:10:51Z</time></trkpt>
 <trkpt lat="50.605474100" lon="6.399962000"><ele>346</ele><time>2013-07-05T10:10:55Z</time></trkpt>
 <trkpt lat="50.605523700" lon="6.399923700"><ele>345</ele><time>2013-07-05T10:10:59Z</time></trkpt>
 <trkpt lat="50.605594100" lon="6.399881200"><ele>343</ele><time>2013-07-05T10:11:03Z</time></trkpt>
 <trkpt lat="50.605637800" lon="6.399838700"><ele>342</ele><time>2013-07-05T10:11:07Z</time></trkpt>
 <trkpt lat="50.605672000" lon="6.399812400"><ele>341</ele><time>2013-07-05T10:11:11Z</time></trkpt>
 <trkpt lat="50.605701200" lon="6.399753300"><ele>339</ele><time>2013-07-05T10:11:15Z</time></trkpt>
 <trkpt lat="50.605735300" lon="6.399696200"><ele>338</ele><time>2013-07-05T10:11:19Z</time></trkpt>
 <trkpt lat="50.605754100" lon="6.399628300"><ele>337</ele><time>2013-07-05T10:11:23Z</time></trkpt>
 <trkpt lat="50.605799500" lon="6.399577000"><ele>336</ele><time>2013-07-05T10:11:27Z</time></trkpt>
 <trkpt lat="50.605856200" lon="6.399524900"><ele>336</ele><time>2013-07-05T10:11:31Z</time></trkpt>
 <trkpt lat="50.605896600" lon="6.399455800"><ele>335</ele><time>2013-07-05T10:11:35Z</time></trkpt>
 <trkpt lat="50.605932800" lon="6.399403700"><ele>335</ele><time>2013-07-05T10:11:39Z</time></trkpt>
 <trkpt lat="50.605969900" lon="6.399335400"><ele>334</ele><time>2013-07-05T10:11:43Z</time></trkpt>
 <trkpt lat="50.606010800" lon="6.399261600"><ele>334</ele><time>2013-07-05T10:11:47Z</time></trkpt>
 <trkpt lat="50.606038300" lon="6.399184100"><ele>334</ele><time>2013-07-05T10:11:51Z</time></trkpt>
 <trkpt lat="50.606074500" lon="6.399119900"><ele>333</ele><time>2013-07-05T10:11:55Z</time></trkpt>
 <trkpt lat="50.606106600" lon="6.399068300"><ele>333</ele><time>2013-07-05T10:11:59Z</time></trkpt>
 <trkpt lat="50.606133700" lon="6.398994100"><ele>333</ele><time>2013-07-05T10:12:03Z</time></trkpt>
 <trkpt lat="50.606154500" lon="6.398931600"><ele>333</ele><time>2013-07-05T10:12:07Z</time></trkpt>
 <trkpt lat="50.606167400" lon="6.398858700"><ele>334</ele><time>2013-07-05T10:12:11Z</time></trkpt>
 <trkpt lat="50.606175300" lon="6.398799900"><ele>334</ele><time>2013-07-05T10:12:15Z</time></trkpt>
 <trkpt lat="50.606169500" lon="6.398729100"><ele>334</ele><time>2013-07-05T10:12:19Z</time></trkpt>
 <trkpt lat="50.606179900" lon="6.398660400"><ele>334</ele><time>2013-07-05T10:12:23Z</time></trkpt>
 <trkpt lat="50.606207000" lon="6.398589900"><ele>334</ele><time>2013-07-05T10:12:27Z</time></trkpt>
 <trkpt lat="50.606209500" lon="6.398514100"><ele>334</ele><time>2013-07-05T10:12:31Z</time></trkpt>
 <trkpt lat="50.606244100" lon="6.398445400"><ele>334</ele><time>2013-07-05T10:12:35Z</time></trkpt>
 <trkpt lat="50.606292800" lon="6.398374900"><ele>334</ele><time>2013-07-05T10:12:39Z</time></trkpt>
 <trkpt lat="50.606282800" lon="6.398295400"><ele>334</ele><time>2013-07-05T10:12:43Z</time></trkpt>
 <trkpt lat="50.606281200" lon="6.398207000"><ele>334</ele><time>2013-07-05T10:12:47Z</time></trkpt>
 <trkpt lat="50.606279900" lon="6.398132400"><ele>334</ele><time>2013-07-05T10:12:51Z</time></trkpt>
 <trkpt lat="50.606287800" lon="6.398062400"><ele>334</ele><time>2013-07-05T10:12:55Z</time></trkpt>
 <trkpt lat="50.606328700" lon="6.397996600"><ele>334</ele><time>2013-07-05T10:12:59Z</time></trkpt>
 <trkpt lat="50.606364900" lon="6.397937900"><ele>334</ele><time>2013-07-05T10:13:03Z</time></trkpt>
 <trkpt lat="50.606398300" lon="6.397878200"><ele>333</ele><time>2013-07-05T10:13:07Z</time></trkpt>
 <trkpt lat="50.606428700" lon="6.397814500"><ele>333</ele><time>2013-07-05T10:13:11Z</time></trkpt>
 <trkpt lat="50.606434500" lon="6.397735400"><ele>333</ele><time>2013-07-05T10:13:15Z</time></trkpt>
 <trkpt lat="50.606460800" lon="6.397677000"><ele>333</ele><time>2013-07-05T10:13:19Z</time></trkpt>
 <trkpt lat="50.606478300" lon="6.397610800"><ele>333</ele><time>2013-07-05T10:13:23Z</time></trkpt>
 <trkpt lat="50.606518300" lon="6.397549900"><ele>333</ele><time>2013-07-05T10:13:27Z</time></trkpt>
 <trkpt lat="50.606528300" lon="6.397479100"><ele>332</ele><time>2013-07-05T10:13:31Z</time></trkpt>
 <trkpt lat="50.606505400" lon="6.397382000"><ele>332</ele><time>2013-07-05T10:13:35Z</time></trkpt>
 <trkpt lat="50.606498700" lon="6.397287000"><ele>332</ele><time>2013-07-05T10:13:39Z</time></trkpt>
 <trkpt lat="50.606497000" lon="6.397190300"><ele>332</ele><time>2013-07-05T10:13:43Z</time></trkpt>
 <trkpt lat="50.606524500" lon="6.397141600"><ele>332</ele><time>2013-07-05T10:13:47Z</time></trkpt>
 <trkpt lat="50.606564500" lon="6.397106200"><ele>332</ele><time>2013-07-05T10:13:51Z</time></trkpt>
 <trkpt lat="50.606589500" lon="6.397056200"><ele>331</ele><time>2013-07-05T10:13:55Z</time></trkpt>
 <trkpt lat="50.606595400" lon="6.396981600"><ele>331</ele><time>2013-07-05T10:13:59Z</time></trkpt>
 <trkpt lat="50.606612000" lon="6.396926600"><ele>331</ele><time>2013-07-05T10:14:03Z</time></trkpt>
 <trkpt lat="50.606620800" lon="6.396873200"><ele>330</ele><time>2013-07-05T10:14:07Z</time></trkpt>
 <trkpt lat="50.606649100" lon="6.396851200"><ele>329</ele><time>2013-07-05T10:14:11Z</time></trkpt>
 <trkpt lat="50.606686600" lon="6.396804100"><ele>329</ele><time>2013-07-05T10:14:15Z</time></trkpt>
 <trkpt lat="50.606710800" lon="6.396747000"><ele>328</ele><time>2013-07-05T10:14:19Z</time></trkpt>
 <trkpt lat="50.606679500" lon="6.396652400"><ele>327</ele><time>2013-07-05T10:14:23Z</time></trkpt>
 <trkpt lat="50.606667400" lon="6.396573300"><ele>326</ele><time>2013-07-05T10:14:27Z</time></trkpt>
 <trkpt lat="50.606637000" lon="6.396484100"><ele>325</ele><time>2013-07-05T10:14:31Z</time></trkpt>
 <trkpt lat="50.606523300" lon="6.396328700"><ele>324</ele><time>2013-07-05T10:14:35Z</time></trkpt>
 <trkpt lat="50.606442000" lon="6.396250800"><ele>323</ele><time>2013-07-05T10:14:39Z</time></trkpt>
 <trkpt lat="50.606396200" lon="6.396231200"><ele>322</ele><time>2013-07-05T10:14:43Z</time></trkpt>
 <trkpt lat="50.606375300" lon="6.396226600"><ele>321</ele><time>2013-07-05T10:14:47Z</time></trkpt>
 <trkpt lat="50.606362900" lon="6.396228300"><ele>320</ele><time>2013-07-05T10:14:51Z</time></trkpt>
 <trkpt lat="50.606348300" lon="6.396241600"><ele>318</ele><time>2013-07-05T10:14:55Z</time></trkpt>
 <trkpt lat="50.606342000" lon="6.396245000"><ele>317</ele><time>2013-07-05T10:14:59Z</time></trkpt>
 <trkpt lat="50.606342000" lon="6.396245000"><ele>316</ele><time>2013-07-05T10:15:03Z</time></trkpt>
 <trkpt lat="50.606318700" lon="6.396239500"><ele>314</ele><time>2013-07-05T10:15:07Z</time></trkpt>
 <trkpt lat="50.606292900" lon="6.396229100"><ele>313</ele><time>2013-07-05T10:15:11Z</time></trkpt>
 <trkpt lat="50.606292900" lon="6.396229100"><ele>311</ele><time>2013-07-05T10:15:15Z</time></trkpt>
 <trkpt lat="50.606294900" lon="6.396240300"><ele>310</ele><time>2013-07-05T10:15:19Z</time></trkpt>
 <trkpt lat="50.606298700" lon="6.396247800"><ele>308</ele><time>2013-07-05T10:15:23Z</time></trkpt>
 <trkpt lat="50.606259900" lon="6.396229500"><ele>307</ele><time>2013-07-05T10:15:27Z</time></trkpt>
 <trkpt lat="50.606235400" lon="6.396220700"><ele>305</ele><time>2013-07-05T10:15:31Z</time></trkpt>
 <trkpt lat="50.606210400" lon="6.396207900"><ele>304</ele><time>2013-07-05T10:15:35Z</time></trkpt>
 <trkpt lat="50.606194100" lon="6.396210800"><ele>303</ele><time>2013-07-05T10:15:39Z</time></trkpt>
 <trkpt lat="50.606182400" lon="6.396195800"><ele>302</ele><time>2013-07-05T10:15:43Z</time></trkpt>
 <trkpt lat="50.606169500" lon="6.396180800"><ele>300</ele><time>2013-07-05T10:15:47Z</time></trkpt>
 <trkpt lat="50.606164100" lon="6.396177800"><ele>299</ele><time>2013-07-05T10:15:51Z</time></trkpt>
 <trkpt lat="50.606157000" lon="6.396192400"><ele>299</ele><time>2013-07-05T10:15:55Z</time></trkpt>
 <trkpt lat="50.606157000" lon="6.396192400"><ele>298</ele><time>2013-07-05T10:15:59Z</time></trkpt>
 <trkpt lat="50.606162400" lon="6.396193300"><ele>297</ele><time>2013-07-05T10:16:03Z</time></trkpt>
 <trkpt lat="50.606160800" lon="6.396184100"><ele>296</ele><time>2013-07-05T10:16:07Z</time></trkpt>
 <trkpt lat="50.606157800" lon="6.396174900"><ele>295</ele><time>2013-07-05T10:16:11Z</time></trkpt>
 <trkpt lat="50.606157800" lon="6.396174900"><ele>295</ele><time>2013-07-05T10:16:15Z</time></trkpt>
 <trkpt lat="50.606155400" lon="6.396183700"><ele>295</ele><time>2013-07-05T10:16:19Z</time></trkpt>
 <trkpt lat="50.606155400" lon="6.396183700"><ele>294</ele><time>2013-07-05T10:16:23Z</time></trkpt>
 <trkpt lat="50.606155400" lon="6.396183700"><ele>294</ele><time>2013-07-05T10:16:27Z</time></trkpt>
 <trkpt lat="50.606160400" lon="6.396187000"><ele>293</ele><time>2013-07-05T10:16:31Z</time></trkpt>
 <trkpt lat="50.606167900" lon="6.396189100"><ele>293</ele><time>2013-07-05T10:16:35Z</time></trkpt>
 <trkpt lat="50.606163200" lon="6.396181200"><ele>293</ele><time>2013-07-05T10:16:39Z</time></trkpt>
 <trkpt lat="50.606163200" lon="6.396181200"><ele>292</ele><time>2013-07-05T10:16:43Z</time></trkpt>
 <trkpt lat="50.606163200" lon="6.396181200"><ele>292</ele><time>2013-07-05T10:16:47Z</time></trkpt>
 <trkpt lat="50.606163200" lon="6.396181200"><ele>292</ele><time>2013-07-05T10:16:51Z</time></trkpt>
 <trkpt lat="50.606157000" lon="6.396178700"><ele>292</ele><time>2013-07-05T10:16:55Z</time></trkpt>
 <trkpt lat="50.606151200" lon="6.396184900"><ele>291</ele><time>2013-07-05T10:16:59Z</time></trkpt>
 <trkpt lat="50.606157900" lon="6.396183200"><ele>291</ele><time>2013-07-05T10:17:03Z</time></trkpt>
 <trkpt lat="50.606163300" lon="6.396185800"><ele>291</ele><time>2013-07-05T10:17:07Z</time></trkpt>
 <trkpt lat="50.606167000" lon="6.396196600"><ele>291</ele><time>2013-07-05T10:17:11Z</time></trkpt>
 <trkpt lat="50.606167800" lon="6.396209100"><ele>291</ele><time>2013-07-05T10:17:15Z</time></trkpt>
 <trkpt lat="50.606167800" lon="6.396209100"><ele>291</ele><time>2013-07-05T10:17:19Z</time></trkpt>
 <trkpt lat="50.606174500" lon="6.396204500"><ele>291</ele><time>2013-07-05T10:17:23Z</time></trkpt>
 <trkpt lat="50.606169100" lon="6.396193300"><ele>291</ele><time>2013-07-05T10:17:27Z</time></trkpt>
 <trkpt lat="50.606169100" lon="6.396193300"><ele>291</ele><time>2013-07-05T10:17:31Z</time></trkpt>
 <trkpt lat="50.606163300" lon="6.396171600"><ele>291</ele><time>2013-07-05T10:17:35Z</time></trkpt>
 <trkpt lat="50.606157400" lon="6.396171200"><ele>291</ele><time>2013-07-05T10:17:39Z</time></trkpt>
 <trkpt lat="50.606152800" lon="6.396162800"><ele>291</ele><time>2013-07-05T10:17:43Z</time></trkpt>
 <trkpt lat="50.606148300" lon="6.396156600"><ele>291</ele><time>2013-07-05T10:17:47Z</time></trkpt>
 <trkpt lat="50.606148300" lon="6.396156600"><ele>291</ele><time>2013-07-05T10:17:51Z</time></trkpt>
 <trkpt lat="50.606154100" lon="6.396157000"><ele>291</ele><time>2013-07-05T10:17:55Z</time></trkpt>
 <trkpt lat="50.606159500" lon="6.396155300"><ele>291</ele><time>2013-07-05T10:17:59Z</time></trkpt>
 <trkpt lat="50.606155400" lon="6.396148300"><ele>291</ele><time>2013-07-05T10:18:03Z</time></trkpt>
 <trkpt lat="50.606158300" lon="6.396157000"><ele>291</ele><time>2013-07-05T10:18:07Z</time></trkpt>
 <trkpt lat="50.606158300" lon="6.396157000"><ele>291</ele><time>2013-07-05T10:18:11Z</time></trkpt>
 <trkpt lat="50.606170400" lon="6.396163300"><ele>291</ele><time>2013-07-05T10:18:15Z</time></trkpt>
 <trkpt lat="50.606192800" lon="6.396148700"><ele>291</ele><time>2013-07-05T10:18:19Z</time></trkpt>
 <trkpt lat="50.606184900" lon="6.396147400"><ele>291</ele><time>2013-07-05T10:18:23Z</time></trkpt>
 <trkpt lat="50.606184900" lon="6.396147400"><ele>291</ele><time>2013-07-05T10:18:27Z</time></trkpt>
 <trkpt lat="50.606190800" lon="6.396163300"><ele>291</ele><time>2013-07-05T10:18:31Z</time></trkpt>
 <trkpt lat="50.606194100" lon="6.396172800"><ele>291</ele><time>2013-07-05T10:18:35Z</time></trkpt>
 <trkpt lat="50.606194100" lon="6.396172800"><ele>291</ele><time>2013-07-05T10:18:39Z</time></trkpt>
 <trkpt lat="50.606194100" lon="6.396172800"><ele>291</ele><time>2013-07-05T10:18:43Z</time></trkpt>
 <trkpt lat="50.606194100" lon="6.396172800"><ele>291</ele><time>2013-07-05T10:18:47Z</time></trkpt>
 <trkpt lat="50.606188300" lon="6.396170000"><ele>290</ele><time>2013-07-05T10:18:51Z</time></trkpt>
 <trkpt lat="50.606171200" lon="6.396156600"><ele>290</ele><time>2013-07-05T10:18:55Z</time></trkpt>
 <trkpt lat="50.606160400" lon="6.396148300"><ele>290</ele><time>2013-07-05T10:18:59Z</time></trkpt>
 <trkpt lat="50.606160400" lon="6.396148300"><ele>290</ele><time>2013-07-05T10:19:03Z</time></trkpt>
 <trkpt lat="50.606160400" lon="6.396148300"><ele>290</ele><time>2013-07-05T10:19:07Z</time></trkpt>
 <trkpt lat="50.606162800" lon="6.396156600"><ele>290</ele><time>2013-07-05T10:19:11Z</time></trkpt>
 <trkpt lat="50.606166600" lon="6.396163700"><ele>290</ele><time>2013-07-05T10:19:15Z</time></trkpt>
 <trkpt lat="50.606172400" lon="6.396167800"><ele>290</ele><time>2013-07-05T10:19:19Z</time></trkpt>
 <trkpt lat="50.606172400" lon="6.396167800"><ele>290</ele><time>2013-07-05T10:19:23Z</time></trkpt>
 <trkpt lat="50.606172400" lon="6.396167800"><ele>290</ele><time>2013-07-05T10:19:27Z</time></trkpt>
 <trkpt lat="50.606172400" lon="6.396167800"><ele>290</ele><time>2013-07-05T10:19:31Z</time></trkpt>
 <trkpt lat="50.606172400" lon="6.396167800"><ele>290</ele><time>2013-07-05T10:19:35Z</time></trkpt>
 <trkpt lat="50.606175000" lon="6.396176600"><ele>290</ele><time>2013-07-05T10:19:39Z</time></trkpt>
 <trkpt lat="50.606175000" lon="6.396176600"><ele>290</ele><time>2013-07-05T10:19:43Z</time></trkpt>
 <trkpt lat="50.606175000" lon="6.396176600"><ele>290</ele><time>2013-07-05T10:19:47Z</time></trkpt>
 <trkpt lat="50.606175000" lon="6.396176600"><ele>290</ele><time>2013-07-05T10:19:51Z</time></trkpt>
 <trkpt lat="50.606175000" lon="6.396176600"><ele>290</ele><time>2013-07-05T10:19:55Z</time></trkpt>
 <trkpt lat="50.606170400" lon="6.396171600"><ele>290</ele><time>2013-07-05T10:19:59Z</time></trkpt>
 <trkpt lat="50.606170400" lon="6.396171600"><ele>290</ele><time>2013-07-05T10:20:03Z</time></trkpt>
 <trkpt lat="50.606170400" lon="6.396171600"><ele>290</ele><time>2013-07-05T10:20:07Z</time></trkpt>
 <trkpt lat="50.606167400" lon="6.396162800"><ele>290</ele><time>2013-07-05T10:20:11Z</time></trkpt>
 <trkpt lat="50.606154500" lon="6.396131200"><ele>290</ele><time>2013-07-05T10:20:15Z</time></trkpt>
 <trkpt lat="50.606153700" lon="6.396122400"><ele>290</ele><time>2013-07-05T10:20:19Z</time></trkpt>
 <trkpt lat="50.606153700" lon="6.396122400"><ele>291</ele><time>2013-07-05T10:20:23Z</time></trkpt>
 <trkpt lat="50.606153300" lon="6.396122400"><ele>291</ele><time>2013-07-05T10:20:27Z</time></trkpt>
 <trkpt lat="50.606154900" lon="6.396110800"><ele>291</ele><time>2013-07-05T10:20:31Z</time></trkpt>
 <trkpt lat="50.606155400" lon="6.396102000"><ele>291</ele><time>2013-07-05T10:20:35Z</time></trkpt>
 <trkpt lat="50.606155400" lon="6.396102000"><ele>291</ele><time>2013-07-05T10:20:39Z</time></trkpt>
 <trkpt lat="50.606134100" lon="6.396092400"><ele>291</ele><time>2013-07-05T10:20:43Z</time></trkpt>
 <trkpt lat="50.606125700" lon="6.396090800"><ele>291</ele><time>2013-07-05T10:20:47Z</time></trkpt>
 <trkpt lat="50.606127400" lon="6.396102400"><ele>291</ele><time>2013-07-05T10:20:51Z</time></trkpt>
 <trkpt lat="50.606132000" lon="6.396108200"><ele>291</ele><time>2013-07-05T10:20:55Z</time></trkpt>
 <trkpt lat="50.606135400" lon="6.396115800"><ele>291</ele><time>2013-07-05T10:20:59Z</time></trkpt>
 <trkpt lat="50.606135400" lon="6.396115800"><ele>291</ele><time>2013-07-05T10:21:03Z</time></trkpt>
 <trkpt lat="50.606141600" lon="6.396122000"><ele>291</ele><time>2013-07-05T10:21:07Z</time></trkpt>
 <trkpt lat="50.606147400" lon="6.396128700"><ele>291</ele><time>2013-07-05T10:21:11Z</time></trkpt>
 <trkpt lat="50.606147400" lon="6.396128700"><ele>291</ele><time>2013-07-05T10:21:15Z</time></trkpt>
 <trkpt lat="50.606147400" lon="6.396128700"><ele>291</ele><time>2013-07-05T10:21:19Z</time></trkpt>
 <trkpt lat="50.606150800" lon="6.396137000"><ele>291</ele><time>2013-07-05T10:21:23Z</time></trkpt>
 <trkpt lat="50.606150800" lon="6.396137000"><ele>291</ele><time>2013-07-05T10:21:27Z</time></trkpt>
 <trkpt lat="50.606150800" lon="6.396137000"><ele>291</ele><time>2013-07-05T10:21:31Z</time></trkpt>
 <trkpt lat="50.606150400" lon="6.396147400"><ele>291</ele><time>2013-07-05T10:21:35Z</time></trkpt>
 <trkpt lat="50.606150400" lon="6.396147400"><ele>291</ele><time>2013-07-05T10:21:39Z</time></trkpt>
 <trkpt lat="50.606156200" lon="6.396141200"><ele>291</ele><time>2013-07-05T10:21:43Z</time></trkpt>
 <trkpt lat="50.606156200" lon="6.396141200"><ele>291</ele><time>2013-07-05T10:21:47Z</time></trkpt>
 <trkpt lat="50.606150800" lon="6.396134900"><ele>291</ele><time>2013-07-05T10:21:51Z</time></trkpt>
 <trkpt lat="50.606152900" lon="6.396126600"><ele>291</ele><time>2013-07-05T10:21:55Z</time></trkpt>
 <trkpt lat="50.606155000" lon="6.396116600"><ele>291</ele><time>2013-07-05T10:21:59Z</time></trkpt>
 <trkpt lat="50.606155700" lon="6.396127000"><ele>291</ele><time>2013-07-05T10:22:03Z</time></trkpt>
 <trkpt lat="50.606155700" lon="6.396127000"><ele>291</ele><time>2013-07-05T10:22:07Z</time></trkpt>
 <trkpt lat="50.606160400" lon="6.396132400"><ele>291</ele><time>2013-07-05T10:22:11Z</time></trkpt>
 <trkpt lat="50.606149500" lon="6.396117800"><ele>291</ele><time>2013-07-05T10:22:15Z</time></trkpt>
 <trkpt lat="50.606149500" lon="6.396117800"><ele>291</ele><time>2013-07-05T10:22:19Z</time></trkpt>
 <trkpt lat="50.606149500" lon="6.396117800"><ele>291</ele><time>2013-07-05T10:22:23Z</time></trkpt>
 <trkpt lat="50.606138300" lon="6.396126600"><ele>291</ele><time>2013-07-05T10:22:27Z</time></trkpt>
 <trkpt lat="50.606132800" lon="6.396129500"><ele>291</ele><time>2013-07-05T10:22:31Z</time></trkpt>
 <trkpt lat="50.606132800" lon="6.396129500"><ele>291</ele><time>2013-07-05T10:22:35Z</time></trkpt>
 <trkpt lat="50.606138300" lon="6.396124500"><ele>291</ele><time>2013-07-05T10:22:39Z</time></trkpt>
 <trkpt lat="50.606143700" lon="6.396121200"><ele>291</ele><time>2013-07-05T10:22:43Z</time></trkpt>
 <trkpt lat="50.606143700" lon="6.396121200"><ele>292</ele><time>2013-07-05T10:22:47Z</time></trkpt>
 <trkpt lat="50.606148700" lon="6.396117000"><ele>292</ele><time>2013-07-05T10:22:51Z</time></trkpt>
 <trkpt lat="50.606154100" lon="6.396112800"><ele>292</ele><time>2013-07-05T10:22:55Z</time></trkpt>
 <trkpt lat="50.606154100" lon="6.396112800"><ele>292</ele><time>2013-07-05T10:22:59Z</time></trkpt>
 <trkpt lat="50.606159500" lon="6.396113700"><ele>292</ele><time>2013-07-05T10:23:03Z</time></trkpt>
 <trkpt lat="50.606159500" lon="6.396113700"><ele>292</ele><time>2013-07-05T10:23:07Z</time></trkpt>
 <trkpt lat="50.606165400" lon="6.396111600"><ele>292</ele><time>2013-07-05T10:23:11Z</time></trkpt>
 <trkpt lat="50.606165400" lon="6.396111600"><ele>292</ele><time>2013-07-05T10:23:15Z</time></trkpt>
 <trkpt lat="50.606170300" lon="6.396115800"><ele>292</ele><time>2013-07-05T10:23:19Z</time></trkpt>
 <trkpt lat="50.606174900" lon="6.396120300"><ele>292</ele><time>2013-07-05T10:23:23Z</time></trkpt>
 <trkpt lat="50.606178700" lon="6.396127400"><ele>292</ele><time>2013-07-05T10:23:27Z</time></trkpt>
 <trkpt lat="50.606178700" lon="6.396127400"><ele>292</ele><time>2013-07-05T10:23:31Z</time></trkpt>
 <trkpt lat="50.606178700" lon="6.396127400"><ele>292</ele><time>2013-07-05T10:23:35Z</time></trkpt>
 <trkpt lat="50.606177000" lon="6.396136200"><ele>292</ele><time>2013-07-05T10:23:39Z</time></trkpt>
 <trkpt lat="50.606177000" lon="6.396136200"><ele>292</ele><time>2013-07-05T10:23:43Z</time></trkpt>
 <trkpt lat="50.606175300" lon="6.396127800"><ele>292</ele><time>2013-07-05T10:23:47Z</time></trkpt>
 <trkpt lat="50.606169900" lon="6.396124100"><ele>292</ele><time>2013-07-05T10:23:51Z</time></trkpt>
 <trkpt lat="50.606164500" lon="6.396125000"><ele>292</ele><time>2013-07-05T10:23:55Z</time></trkpt>
 <trkpt lat="50.606164500" lon="6.396125000"><ele>292</ele><time>2013-07-05T10:23:59Z</time></trkpt>
 <trkpt lat="50.606170300" lon="6.396129100"><ele>292</ele><time>2013-07-05T10:24:03Z</time></trkpt>
 <trkpt lat="50.606177400" lon="6.396130400"><ele>292</ele><time>2013-07-05T10:24:07Z</time></trkpt>
 <trkpt lat="50.606177400" lon="6.396130400"><ele>292</ele><time>2013-07-05T10:24:11Z</time></trkpt>
 <trkpt lat="50.606177400" lon="6.396130400"><ele>292</ele><time>2013-07-05T10:24:15Z</time></trkpt>
 <trkpt lat="50.606177400" lon="6.396130400"><ele>292</ele><time>2013-07-05T10:24:19Z</time></trkpt>
 <trkpt lat="50.606176600" lon="6.396122000"><ele>291</ele><time>2013-07-05T10:24:23Z</time></trkpt>
 <trkpt lat="50.606175400" lon="6.396112800"><ele>291</ele><time>2013-07-05T10:24:27Z</time></trkpt>
 <trkpt lat="50.606175400" lon="6.396112800"><ele>291</ele><time>2013-07-05T10:24:31Z</time></trkpt>
 <trkpt lat="50.606175400" lon="6.396112800"><ele>291</ele><time>2013-07-05T10:24:35Z</time></trkpt>
 <trkpt lat="50.606175400" lon="6.396112800"><ele>291</ele><time>2013-07-05T10:24:39Z</time></trkpt>
 <trkpt lat="50.606175400" lon="6.396112800"><ele>291</ele><time>2013-07-05T10:24:43Z</time></trkpt>
 <trkpt lat="50.606175400" lon="6.396112800"><ele>291</ele><time>2013-07-05T10:24:47Z</time></trkpt>
 <trkpt lat="50.606181200" lon="6.396130300"><ele>291</ele><time>2013-07-05T10:24:51Z</time></trkpt>
 <trkpt lat="50.606181200" lon="6.396130300"><ele>291</ele><time>2013-07-05T10:24:55Z</time></trkpt>
 <trkpt lat="50.606181200" lon="6.396130300"><ele>290</ele><time>2013-07-05T10:24:59Z</time></trkpt>
 <trkpt lat="50.606187000" lon="6.396132800"><ele>290</ele><time>2013-07-05T10:25:03Z</time></trkpt>
 <trkpt lat="50.606187000" lon="6.396132800"><ele>290</ele><time>2013-07-05T10:25:07Z</time></trkpt>
 <trkpt lat="50.606187000" lon="6.396132800"><ele>290</ele><time>2013-07-05T10:25:11Z</time></trkpt>
 <trkpt lat="50.606187000" lon="6.396132800"><ele>290</ele><time>2013-07-05T10:25:15Z</time></trkpt>
 <trkpt lat="50.606187000" lon="6.396132800"><ele>290</ele><time>2013-07-05T10:25:19Z</time></trkpt>
 <trkpt lat="50.606187000" lon="6.396132800"><ele>290</ele><time>2013-07-05T10:25:23Z</time></trkpt>
 <trkpt lat="50.606187000" lon="6.396132800"><ele>290</ele><time>2013-07-05T10:25:27Z</time></trkpt>
 <trkpt lat="50.606187000" lon="6.396132800"><ele>290</ele><time>2013-07-05T10:25:31Z</time></trkpt>
 <trkpt lat="50.606187000" lon="6.396132800"><ele>290</ele><time>2013-07-05T10:25:35Z</time></trkpt>
 <trkpt lat="50.606187000" lon="6.396132800"><ele>290</ele><time>2013-07-05T10:25:39Z</time></trkpt>
 <trkpt lat="50.606187000" lon="6.396132800"><ele>289</ele><time>2013-07-05T10:25:43Z</time></trkpt>
 <trkpt lat="50.606187000" lon="6.396132800"><ele>289</ele><time>2013-07-05T10:25:47Z</time></trkpt>
 <trkpt lat="50.606187000" lon="6.396132800"><ele>289</ele><time>2013-07-05T10:25:51Z</time></trkpt>
 <trkpt lat="50.606187000" lon="6.396132800"><ele>289</ele><time>2013-07-05T10:25:55Z</time></trkpt>
 <trkpt lat="50.606187000" lon="6.396132800"><ele>289</ele><time>2013-07-05T10:25:59Z</time></trkpt>
 <trkpt lat="50.606187000" lon="6.396132800"><ele>289</ele><time>2013-07-05T10:26:03Z</time></trkpt>
 <trkpt lat="50.606187000" lon="6.396132800"><ele>289</ele><time>2013-07-05T10:26:07Z</time></trkpt>
 <trkpt lat="50.606181200" lon="6.396132400"><ele>289</ele><time>2013-07-05T10:26:11Z</time></trkpt>
 <trkpt lat="50.606175800" lon="6.396135800"><ele>289</ele><time>2013-07-05T10:26:15Z</time></trkpt>
 <trkpt lat="50.606169500" lon="6.396139900"><ele>289</ele><time>2013-07-05T10:26:19Z</time></trkpt>
 <trkpt lat="50.606164100" lon="6.396144100"><ele>289</ele><time>2013-07-05T10:26:23Z</time></trkpt>
 <trkpt lat="50.606164100" lon="6.396144100"><ele>289</ele><time>2013-07-05T10:26:27Z</time></trkpt>
 <trkpt lat="50.606159100" lon="6.396148300"><ele>289</ele><time>2013-07-05T10:26:31Z</time></trkpt>
 <trkpt lat="50.606159100" lon="6.396148300"><ele>289</ele><time>2013-07-05T10:26:35Z</time></trkpt>
 <trkpt lat="50.606159100" lon="6.396148300"><ele>289</ele><time>2013-07-05T10:26:39Z</time></trkpt>
 <trkpt lat="50.606159100" lon="6.396148300"><ele>289</ele><time>2013-07-05T10:26:43Z</time></trkpt>
 <trkpt lat="50.606159100" lon="6.396148300"><ele>289</ele><time>2013-07-05T10:26:47Z</time></trkpt>
 <trkpt lat="50.606159100" lon="6.396148300"><ele>289</ele><time>2013-07-05T10:26:51Z</time></trkpt>
 <trkpt lat="50.606159100" lon="6.396148300"><ele>289</ele><time>2013-07-05T10:26:55Z</time></trkpt>
 <trkpt lat="50.606159100" lon="6.396148300"><ele>289</ele><time>2013-07-05T10:26:59Z</time></trkpt>
 <trkpt lat="50.606159100" lon="6.396148300"><ele>289</ele><time>2013-07-05T10:27:03Z</time></trkpt>
 <trkpt lat="50.606159100" lon="6.396148300"><ele>289</ele><time>2013-07-05T10:27:07Z</time></trkpt>
 <trkpt lat="50.606159100" lon="6.396148300"><ele>289</ele><time>2013-07-05T10:27:11Z</time></trkpt>
 <trkpt lat="50.606159100" lon="6.396148300"><ele>289</ele><time>2013-07-05T10:27:15Z</time></trkpt>
 <trkpt lat="50.606153300" lon="6.396145800"><ele>289</ele><time>2013-07-05T10:27:19Z</time></trkpt>
 <trkpt lat="50.606153300" lon="6.396145800"><ele>289</ele><time>2013-07-05T10:27:23Z</time></trkpt>
 <trkpt lat="50.606153300" lon="6.396145800"><ele>289</ele><time>2013-07-05T10:27:27Z</time></trkpt>
 <trkpt lat="50.606153300" lon="6.396145800"><ele>289</ele><time>2013-07-05T10:27:31Z</time></trkpt>
 <trkpt lat="50.606153300" lon="6.396145800"><ele>289</ele><time>2013-07-05T10:27:35Z</time></trkpt>
 <trkpt lat="50.606153300" lon="6.396145800"><ele>289</ele><time>2013-07-05T10:27:39Z</time></trkpt>
 <trkpt lat="50.606153300" lon="6.396145800"><ele>289</ele><time>2013-07-05T10:27:43Z</time></trkpt>
 <trkpt lat="50.606153300" lon="6.396145800"><ele>289</ele><time>2013-07-05T10:27:47Z</time></trkpt>
 <trkpt lat="50.606153300" lon="6.396145800"><ele>289</ele><time>2013-07-05T10:27:51Z</time></trkpt>
 <trkpt lat="50.606153300" lon="6.396145800"><ele>289</ele><time>2013-07-05T10:27:55Z</time></trkpt>
 <trkpt lat="50.606153300" lon="6.396145800"><ele>289</ele><time>2013-07-05T10:27:59Z</time></trkpt>
 <trkpt lat="50.606153300" lon="6.396145800"><ele>289</ele><time>2013-07-05T10:28:03Z</time></trkpt>
 <trkpt lat="50.606153300" lon="6.396145800"><ele>289</ele><time>2013-07-05T10:28:07Z</time></trkpt>
 <trkpt lat="50.606153300" lon="6.396145800"><ele>289</ele><time>2013-07-05T10:28:11Z</time></trkpt>
 <trkpt lat="50.606153300" lon="6.396145800"><ele>289</ele><time>2013-07-05T10:28:15Z</time></trkpt>
 <trkpt lat="50.606153300" lon="6.396145800"><ele>289</ele><time>2013-07-05T10:28:19Z</time></trkpt>
 <trkpt lat="50.606153300" lon="6.396145800"><ele>289</ele><time>2013-07-05T10:28:23Z</time></trkpt>
 <trkpt lat="50.606151200" lon="6.396136600"><ele>289</ele><time>2013-07-05T10:28:27Z</time></trkpt>
 <trkpt lat="50.606151600" lon="6.396127800"><ele>289</ele><time>2013-07-05T10:28:31Z</time></trkpt>
 <trkpt lat="50.606151600" lon="6.396127800"><ele>289</ele><time>2013-07-05T10:28:35Z</time></trkpt>
 <trkpt lat="50.606152400" lon="6.396117800"><ele>289</ele><time>2013-07-05T10:28:39Z</time></trkpt>
 <trkpt lat="50.606152400" lon="6.396117800"><ele>289</ele><time>2013-07-05T10:28:43Z</time></trkpt>
 <trkpt lat="50.606152400" lon="6.396117800"><ele>289</ele><time>2013-07-05T10:28:47Z</time></trkpt>
 <trkpt lat="50.606152400" lon="6.396117800"><ele>289</ele><time>2013-07-05T10:28:51Z</time></trkpt>
 <trkpt lat="50.606152400" lon="6.396117800"><ele>289</ele><time>2013-07-05T10:28:55Z</time></trkpt>
 <trkpt lat="50.606152400" lon="6.396117800"><ele>290</ele><time>2013-07-05T10:28:59Z</time></trkpt>
 <trkpt lat="50.606152400" lon="6.396117800"><ele>290</ele><time>2013-07-05T10:29:03Z</time></trkpt>
 <trkpt lat="50.606152400" lon="6.396117800"><ele>290</ele><time>2013-07-05T10:29:07Z</time></trkpt>
 <trkpt lat="50.606152400" lon="6.396117800"><ele>290</ele><time>2013-07-05T10:29:11Z</time></trkpt>
 <trkpt lat="50.606152400" lon="6.396117800"><ele>290</ele><time>2013-07-05T10:29:15Z</time></trkpt>
 <trkpt lat="50.606152400" lon="6.396117800"><ele>290</ele><time>2013-07-05T10:29:19Z</time></trkpt>
 <trkpt lat="50.606147800" lon="6.396113300"><ele>290</ele><time>2013-07-05T10:29:23Z</time></trkpt>
 <trkpt lat="50.606147800" lon="6.396113300"><ele>290</ele><time>2013-07-05T10:29:27Z</time></trkpt>
 <trkpt lat="50.606142400" lon="6.396112000"><ele>290</ele><time>2013-07-05T10:29:31Z</time></trkpt>
 <trkpt lat="50.606142400" lon="6.396112000"><ele>290</ele><time>2013-07-05T10:29:35Z</time></trkpt>
 <trkpt lat="50.606142400" lon="6.396112000"><ele>290</ele><time>2013-07-05T10:29:39Z</time></trkpt>
 <trkpt lat="50.606142400" lon="6.396112000"><ele>290</ele><time>2013-07-05T10:29:43Z</time></trkpt>
 <trkpt lat="50.606142400" lon="6.396112000"><ele>290</ele><time>2013-07-05T10:29:47Z</time></trkpt>
 <trkpt lat="50.606142400" lon="6.396112000"><ele>290</ele><time>2013-07-05T10:29:51Z</time></trkpt>
 <trkpt lat="50.606142400" lon="6.396112000"><ele>290</ele><time>2013-07-05T10:29:55Z</time></trkpt>
 <trkpt lat="50.606142400" lon="6.396112000"><ele>290</ele><time>2013-07-05T10:29:59Z</time></trkpt>
 <trkpt lat="50.606142400" lon="6.396112000"><ele>290</ele><time>2013-07-05T10:30:03Z</time></trkpt>
 <trkpt lat="50.606142400" lon="6.396112000"><ele>290</ele><time>2013-07-05T10:30:07Z</time></trkpt>
 <trkpt lat="50.606142400" lon="6.396112000"><ele>290</ele><time>2013-07-05T10:30:11Z</time></trkpt>
 <trkpt lat="50.606142400" lon="6.396112000"><ele>290</ele><time>2013-07-05T10:30:15Z</time></trkpt>
 <trkpt lat="50.606142400" lon="6.396112000"><ele>290</ele><time>2013-07-05T10:30:19Z</time></trkpt>
 <trkpt lat="50.606142400" lon="6.396112000"><ele>290</ele><time>2013-07-05T10:30:23Z</time></trkpt>
 <trkpt lat="50.606142400" lon="6.396112000"><ele>290</ele><time>2013-07-05T10:30:27Z</time></trkpt>
 <trkpt lat="50.606142400" lon="6.396112000"><ele>290</ele><time>2013-07-05T10:30:31Z</time></trkpt>
 <trkpt lat="50.606142400" lon="6.396112000"><ele>290</ele><time>2013-07-05T10:30:35Z</time></trkpt>
 <trkpt lat="50.606142400" lon="6.396112000"><ele>290</ele><time>2013-07-05T10:30:39Z</time></trkpt>
 <trkpt lat="50.606142400" lon="6.396112000"><ele>290</ele><time>2013-07-05T10:30:43Z</time></trkpt>
 <trkpt lat="50.606142400" lon="6.396112000"><ele>290</ele><time>2013-07-05T10:30:47Z</time></trkpt>
 <trkpt lat="50.606142400" lon="6.396112000"><ele>290</ele><time>2013-07-05T10:30:51Z</time></trkpt>
 <trkpt lat="50.606142400" lon="6.396112000"><ele>289</ele><time>2013-07-05T10:30:55Z</time></trkpt>
 <trkpt lat="50.606142400" lon="6.396112000"><ele>289</ele><time>2013-07-05T10:30:59Z</time></trkpt>
 <trkpt lat="50.606142400" lon="6.396112000"><ele>289</ele><time>2013-07-05T10:31:03Z</time></trkpt>
 <trkpt lat="50.606149100" lon="6.396104900"><ele>289</ele><time>2013-07-05T10:31:07Z</time></trkpt>
 <trkpt lat="50.606187900" lon="6.396107900"><ele>289</ele><time>2013-07-05T10:31:11Z</time></trkpt>
 <trkpt lat="50.606227800" lon="6.396125800"><ele>289</ele><time>2013-07-05T10:31:15Z</time></trkpt>
 <trkpt lat="50.606287400" lon="6.396189500"><ele>289</ele><time>2013-07-05T10:31:19Z</time></trkpt>
 <trkpt lat="50.606364500" lon="6.396263700"><ele>289</ele><time>2013-07-05T10:31:23Z</time></trkpt>
 <trkpt lat="50.606422400" lon="6.396341200"><ele>289</ele><time>2013-07-05T10:31:27Z</time></trkpt>
 <trkpt lat="50.606463700" lon="6.396404500"><ele>290</ele><time>2013-07-05T10:31:31Z</time></trkpt>
 <trkpt lat="50.606496200" lon="6.396460800"><ele>290</ele><time>2013-07-05T10:31:35Z</time></trkpt>
 <trkpt lat="50.606532000" lon="6.396518300"><ele>290</ele><time>2013-07-05T10:31:39Z</time></trkpt>
 <trkpt lat="50.606564500" lon="6.396567000"><ele>291</ele><time>2013-07-05T10:31:43Z</time></trkpt>
 <trkpt lat="50.606597400" lon="6.396611200"><ele>291</ele><time>2013-07-05T10:31:47Z</time></trkpt>
 <trkpt lat="50.606642000" lon="6.396662400"><ele>292</ele><time>2013-07-05T10:31:51Z</time></trkpt>
 <trkpt lat="50.606691200" lon="6.396733700"><ele>293</ele><time>2013-07-05T10:31:55Z</time></trkpt>
 <trkpt lat="50.606727800" lon="6.396798700"><ele>294</ele><time>2013-07-05T10:31:59Z</time></trkpt>
 <trkpt lat="50.606769500" lon="6.396874100"><ele>295</ele><time>2013-07-05T10:32:03Z</time></trkpt>
 <trkpt lat="50.606797800" lon="6.396947000"><ele>296</ele><time>2013-07-05T10:32:07Z</time></trkpt>
 <trkpt lat="50.606815300" lon="6.397019100"><ele>297</ele><time>2013-07-05T10:32:11Z</time></trkpt>
 <trkpt lat="50.606835700" lon="6.397117900"><ele>298</ele><time>2013-07-05T10:32:15Z</time></trkpt>
 <trkpt lat="50.606844500" lon="6.397201200"><ele>299</ele><time>2013-07-05T10:32:19Z</time></trkpt>
 <trkpt lat="50.606839500" lon="6.397231600"><ele>300</ele><time>2013-07-05T10:32:23Z</time></trkpt>
 <trkpt lat="50.606839500" lon="6.397231600"><ele>301</ele><time>2013-07-05T10:32:27Z</time></trkpt>
 <trkpt lat="50.606818700" lon="6.397234100"><ele>302</ele><time>2013-07-05T10:32:31Z</time></trkpt>
 <trkpt lat="50.606786600" lon="6.397241600"><ele>302</ele><time>2013-07-05T10:32:35Z</time></trkpt>
 <trkpt lat="50.606791600" lon="6.397298700"><ele>303</ele><time>2013-07-05T10:32:39Z</time></trkpt>
 <trkpt lat="50.606786200" lon="6.397404900"><ele>304</ele><time>2013-07-05T10:32:43Z</time></trkpt>
 <trkpt lat="50.606770300" lon="6.397482800"><ele>304</ele><time>2013-07-05T10:32:47Z</time></trkpt>
 <trkpt lat="50.606775400" lon="6.397537000"><ele>305</ele><time>2013-07-05T10:32:51Z</time></trkpt>
 <trkpt lat="50.606767800" lon="6.397596600"><ele>305</ele><time>2013-07-05T10:32:55Z</time></trkpt>
 <trkpt lat="50.606759500" lon="6.397659100"><ele>306</ele><time>2013-07-05T10:32:59Z</time></trkpt>
 <trkpt lat="50.606750800" lon="6.397744900"><ele>306</ele><time>2013-07-05T10:33:03Z</time></trkpt>
 <trkpt lat="50.606729500" lon="6.397809900"><ele>307</ele><time>2013-07-05T10:33:07Z</time></trkpt>
 <trkpt lat="50.606701200" lon="6.397867000"><ele>307</ele><time>2013-07-05T10:33:11Z</time></trkpt>
 <trkpt lat="50.606669100" lon="6.397898300"><ele>308</ele><time>2013-07-05T10:33:15Z</time></trkpt>
 <trkpt lat="50.606638200" lon="6.397953700"><ele>308</ele><time>2013-07-05T10:33:19Z</time></trkpt>
 <trkpt lat="50.606609500" lon="6.398008700"><ele>309</ele><time>2013-07-05T10:33:23Z</time></trkpt>
 <trkpt lat="50.606574100" lon="6.398083700"><ele>310</ele><time>2013-07-05T10:33:27Z</time></trkpt>
 <trkpt lat="50.606539500" lon="6.398125800"><ele>310</ele><time>2013-07-05T10:33:31Z</time></trkpt>
 <trkpt lat="50.606490700" lon="6.398183700"><ele>311</ele><time>2013-07-05T10:33:35Z</time></trkpt>
 <trkpt lat="50.606464100" lon="6.398235800"><ele>312</ele><time>2013-07-05T10:33:39Z</time></trkpt>
 <trkpt lat="50.606438300" lon="6.398289900"><ele>313</ele><time>2013-07-05T10:33:43Z</time></trkpt>
 <trkpt lat="50.606419100" lon="6.398377400"><ele>314</ele><time>2013-07-05T10:33:47Z</time></trkpt>
 <trkpt lat="50.606372800" lon="6.398469900"><ele>316</ele><time>2013-07-05T10:33:51Z</time></trkpt>
 <trkpt lat="50.606338700" lon="6.398546600"><ele>317</ele><time>2013-07-05T10:33:55Z</time></trkpt>
 <trkpt lat="50.606292400" lon="6.398632000"><ele>318</ele><time>2013-07-05T10:33:59Z</time></trkpt>
 <trkpt lat="50.606259100" lon="6.398720300"><ele>320</ele><time>2013-07-05T10:34:03Z</time></trkpt>
 <trkpt lat="50.606239500" lon="6.398808700"><ele>321</ele><time>2013-07-05T10:34:07Z</time></trkpt>
 <trkpt lat="50.606227000" lon="6.398906600"><ele>323</ele><time>2013-07-05T10:34:11Z</time></trkpt>
 <trkpt lat="50.606219500" lon="6.398998700"><ele>324</ele><time>2013-07-05T10:34:15Z</time></trkpt>
 <trkpt lat="50.606181600" lon="6.399103700"><ele>326</ele><time>2013-07-05T10:34:19Z</time></trkpt>
 <trkpt lat="50.606160300" lon="6.399190800"><ele>328</ele><time>2013-07-05T10:34:23Z</time></trkpt>
 <trkpt lat="50.606157400" lon="6.399270800"><ele>330</ele><time>2013-07-05T10:34:27Z</time></trkpt>
 <trkpt lat="50.606148300" lon="6.399374500"><ele>332</ele><time>2013-07-05T10:34:31Z</time></trkpt>
 <trkpt lat="50.606142400" lon="6.399459500"><ele>334</ele><time>2013-07-05T10:34:35Z</time></trkpt>
 <trkpt lat="50.606123700" lon="6.399552800"><ele>336</ele><time>2013-07-05T10:34:39Z</time></trkpt>
 <trkpt lat="50.606126200" lon="6.399626200"><ele>338</ele><time>2013-07-05T10:34:43Z</time></trkpt>
 <trkpt lat="50.606138200" lon="6.399641200"><ele>340</ele><time>2013-07-05T10:34:47Z</time></trkpt>
 <trkpt lat="50.606159500" lon="6.399719100"><ele>342</ele><time>2013-07-05T10:34:51Z</time></trkpt>
 <trkpt lat="50.606171600" lon="6.399837400"><ele>345</ele><time>2013-07-05T10:34:55Z</time></trkpt>
 <trkpt lat="50.606147900" lon="6.399960400"><ele>347</ele><time>2013-07-05T10:34:59Z</time></trkpt>
 <trkpt lat="50.606114500" lon="6.400071200"><ele>349</ele><time>2013-07-05T10:35:03Z</time></trkpt>
 <trkpt lat="50.606113300" lon="6.400168700"><ele>351</ele><time>2013-07-05T10:35:07Z</time></trkpt>
 <trkpt lat="50.606102800" lon="6.400275800"><ele>353</ele><time>2013-07-05T10:35:11Z</time></trkpt>
 <trkpt lat="50.606099500" lon="6.400353300"><ele>355</ele><time>2013-07-05T10:35:15Z</time></trkpt>
 <trkpt lat="50.606111600" lon="6.400385800"><ele>356</ele><time>2013-07-05T10:35:19Z</time></trkpt>
 <trkpt lat="50.606119100" lon="6.400397400"><ele>358</ele><time>2013-07-05T10:35:23Z</time></trkpt>
 <trkpt lat="50.606140300" lon="6.400458300"><ele>359</ele><time>2013-07-05T10:35:27Z</time></trkpt>
 <trkpt lat="50.606129900" lon="6.400572900"><ele>360</ele><time>2013-07-05T10:35:31Z</time></trkpt>
 <trkpt lat="50.606110300" lon="6.400639900"><ele>361</ele><time>2013-07-05T10:35:35Z</time></trkpt>
 <trkpt lat="50.606092400" lon="6.400683700"><ele>362</ele><time>2013-07-05T10:35:39Z</time></trkpt>
 <trkpt lat="50.606049500" lon="6.400759900"><ele>362</ele><time>2013-07-05T10:35:43Z</time></trkpt>
 <trkpt lat="50.606029900" lon="6.400862400"><ele>363</ele><time>2013-07-05T10:35:47Z</time></trkpt>
 <trkpt lat="50.605994500" lon="6.400953300"><ele>363</ele><time>2013-07-05T10:35:51Z</time></trkpt>
 <trkpt lat="50.605957800" lon="6.401093700"><ele>363</ele><time>2013-07-05T10:35:55Z</time></trkpt>
 <trkpt lat="50.605933700" lon="6.401139100"><ele>363</ele><time>2013-07-05T10:35:59Z</time></trkpt>
 <trkpt lat="50.605889500" lon="6.401166600"><ele>363</ele><time>2013-07-05T10:36:03Z</time></trkpt>
 <trkpt lat="50.605882400" lon="6.401170800"><ele>363</ele><time>2013-07-05T10:36:07Z</time></trkpt>
 <trkpt lat="50.605867400" lon="6.401195800"><ele>363</ele><time>2013-07-05T10:36:11Z</time></trkpt>
 <trkpt lat="50.605844500" lon="6.401257400"><ele>363</ele><time>2013-07-05T10:36:15Z</time></trkpt>
 <trkpt lat="50.605826200" lon="6.401292000"><ele>363</ele><time>2013-07-05T10:36:19Z</time></trkpt>
 <trkpt lat="50.605809500" lon="6.401343300"><ele>363</ele><time>2013-07-05T10:36:23Z</time></trkpt>
 <trkpt lat="50.605775400" lon="6.401398300"><ele>364</ele><time>2013-07-05T10:36:27Z</time></trkpt>
 <trkpt lat="50.605743700" lon="6.401454100"><ele>364</ele><time>2013-07-05T10:36:31Z</time></trkpt>
 <trkpt lat="50.605692800" lon="6.401510700"><ele>365</ele><time>2013-07-05T10:36:35Z</time></trkpt>
 <trkpt lat="50.605683300" lon="6.401569900"><ele>365</ele><time>2013-07-05T10:36:39Z</time></trkpt>
 <trkpt lat="50.605665300" lon="6.401643300"><ele>365</ele><time>2013-07-05T10:36:43Z</time></trkpt>
 <trkpt lat="50.605660300" lon="6.401694900"><ele>365</ele><time>2013-07-05T10:36:47Z</time></trkpt>
 <trkpt lat="50.605659900" lon="6.401735300"><ele>366</ele><time>2013-07-05T10:36:51Z</time></trkpt>
 <trkpt lat="50.605644100" lon="6.401791200"><ele>366</ele><time>2013-07-05T10:36:55Z</time></trkpt>
 <trkpt lat="50.605635800" lon="6.401859900"><ele>365</ele><time>2013-07-05T10:36:59Z</time></trkpt>
 <trkpt lat="50.605629500" lon="6.401892000"><ele>365</ele><time>2013-07-05T10:37:03Z</time></trkpt>
 <trkpt lat="50.605582900" lon="6.401986200"><ele>365</ele><time>2013-07-05T10:37:07Z</time></trkpt>
 <trkpt lat="50.605568300" lon="6.402076200"><ele>364</ele><time>2013-07-05T10:37:11Z</time></trkpt>
 <trkpt lat="50.605562000" lon="6.402165300"><ele>364</ele><time>2013-07-05T10:37:15Z</time></trkpt>
 <trkpt lat="50.605545400" lon="6.402250400"><ele>363</ele><time>2013-07-05T10:37:19Z</time></trkpt>
 <trkpt lat="50.605527000" lon="6.402318300"><ele>362</ele><time>2013-07-05T10:37:23Z</time></trkpt>
 <trkpt lat="50.605484500" lon="6.402416200"><ele>361</ele><time>2013-07-05T10:37:27Z</time></trkpt>
 <trkpt lat="50.605463700" lon="6.402512000"><ele>359</ele><time>2013-07-05T10:37:31Z</time></trkpt>
 <trkpt lat="50.605431200" lon="6.402615400"><ele>358</ele><time>2013-07-05T10:37:35Z</time></trkpt>
 <trkpt lat="50.605404500" lon="6.402702000"><ele>357</ele><time>2013-07-05T10:37:39Z</time></trkpt>
 <trkpt lat="50.605402900" lon="6.402786200"><ele>355</ele><time>2013-07-05T10:37:43Z</time></trkpt>
 <trkpt lat="50.605395800" lon="6.402860300"><ele>354</ele><time>2013-07-05T10:37:47Z</time></trkpt>
 <trkpt lat="50.605396200" lon="6.402937400"><ele>353</ele><time>2013-07-05T10:37:51Z</time></trkpt>
 <trkpt lat="50.605391600" lon="6.403012400"><ele>352</ele><time>2013-07-05T10:37:55Z</time></trkpt>
 <trkpt lat="50.605403700" lon="6.403069500"><ele>351</ele><time>2013-07-05T10:37:59Z</time></trkpt>
 <trkpt lat="50.605417400" lon="6.403113700"><ele>350</ele><time>2013-07-05T10:38:03Z</time></trkpt>
 <trkpt lat="50.605432400" lon="6.403157000"><ele>350</ele><time>2013-07-05T10:38:07Z</time></trkpt>
 <trkpt lat="50.605434900" lon="6.403196600"><ele>350</ele><time>2013-07-05T10:38:11Z</time></trkpt>
 <trkpt lat="50.605440300" lon="6.403237800"><ele>350</ele><time>2013-07-05T10:38:15Z</time></trkpt>
 <trkpt lat="50.605449500" lon="6.403305800"><ele>350</ele><time>2013-07-05T10:38:19Z</time></trkpt>
 <trkpt lat="50.605457800" lon="6.403340800"><ele>350</ele><time>2013-07-05T10:38:23Z</time></trkpt>
 <trkpt lat="50.605461200" lon="6.403385800"><ele>350</ele><time>2013-07-05T10:38:27Z</time></trkpt>
 <trkpt lat="50.605474900" lon="6.403459100"><ele>351</ele><time>2013-07-05T10:38:31Z</time></trkpt>
 <trkpt lat="50.605471600" lon="6.403524500"><ele>352</ele><time>2013-07-05T10:38:35Z</time></trkpt>
 <trkpt lat="50.605470400" lon="6.403584900"><ele>353</ele><time>2013-07-05T10:38:39Z</time></trkpt>
 <trkpt lat="50.605487800" lon="6.403635300"><ele>354</ele><time>2013-07-05T10:38:43Z</time></trkpt>
 <trkpt lat="50.605492000" lon="6.403688300"><ele>356</ele><time>2013-07-05T10:38:47Z</time></trkpt>
 <trkpt lat="50.605481200" lon="6.403734500"><ele>357</ele><time>2013-07-05T10:38:51Z</time></trkpt>
 <trkpt lat="50.605462000" lon="6.403788700"><ele>358</ele><time>2013-07-05T10:38:55Z</time></trkpt>
 <trkpt lat="50.605454100" lon="6.403845400"><ele>360</ele><time>2013-07-05T10:38:59Z</time></trkpt>
 <trkpt lat="50.605428300" lon="6.403928300"><ele>362</ele><time>2013-07-05T10:39:03Z</time></trkpt>
 <trkpt lat="50.605405700" lon="6.403992900"><ele>363</ele><time>2013-07-05T10:39:07Z</time></trkpt>
 <trkpt lat="50.605393300" lon="6.404057000"><ele>365</ele><time>2013-07-05T10:39:11Z</time></trkpt>
 <trkpt lat="50.605368700" lon="6.404117400"><ele>367</ele><time>2013-07-05T10:39:15Z</time></trkpt>
 <trkpt lat="50.605374900" lon="6.404197400"><ele>368</ele><time>2013-07-05T10:39:19Z</time></trkpt>
 <trkpt lat="50.605384100" lon="6.404289500"><ele>370</ele><time>2013-07-05T10:39:23Z</time></trkpt>
 <trkpt lat="50.605379900" lon="6.404354500"><ele>372</ele><time>2013-07-05T10:39:27Z</time></trkpt>
 <trkpt lat="50.605399900" lon="6.404429500"><ele>373</ele><time>2013-07-05T10:39:31Z</time></trkpt>
 <trkpt lat="50.605417900" lon="6.404511600"><ele>375</ele><time>2013-07-05T10:39:35Z</time></trkpt>
 <trkpt lat="50.605402900" lon="6.404589500"><ele>376</ele><time>2013-07-05T10:39:39Z</time></trkpt>
 <trkpt lat="50.605392800" lon="6.404660300"><ele>378</ele><time>2013-07-05T10:39:43Z</time></trkpt>
 <trkpt lat="50.605408700" lon="6.404732800"><ele>380</ele><time>2013-07-05T10:39:47Z</time></trkpt>
 <trkpt lat="50.605435300" lon="6.404809100"><ele>381</ele><time>2013-07-05T10:39:51Z</time></trkpt>
 <trkpt lat="50.605445800" lon="6.404884500"><ele>383</ele><time>2013-07-05T10:39:55Z</time></trkpt>
 <trkpt lat="50.605443300" lon="6.404954900"><ele>385</ele><time>2013-07-05T10:39:59Z</time></trkpt>
 <trkpt lat="50.605438700" lon="6.405027800"><ele>387</ele><time>2013-07-05T10:40:03Z</time></trkpt>
 <trkpt lat="50.605435000" lon="6.405102800"><ele>389</ele><time>2013-07-05T10:40:07Z</time></trkpt>
 <trkpt lat="50.605455800" lon="6.405180300"><ele>391</ele><time>2013-07-05T10:40:11Z</time></trkpt>
 <trkpt lat="50.605489500" lon="6.405252000"><ele>393</ele><time>2013-07-05T10:40:15Z</time></trkpt>
 <trkpt lat="50.605524100" lon="6.405329900"><ele>395</ele><time>2013-07-05T10:40:19Z</time></trkpt>
 <trkpt lat="50.605539900" lon="6.405389500"><ele>397</ele><time>2013-07-05T10:40:23Z</time></trkpt>
 <trkpt lat="50.605564100" lon="6.405447400"><ele>399</ele><time>2013-07-05T10:40:27Z</time></trkpt>
 <trkpt lat="50.605603300" lon="6.405522400"><ele>402</ele><time>2013-07-05T10:40:31Z</time></trkpt>
 <trkpt lat="50.605639500" lon="6.405622900"><ele>404</ele><time>2013-07-05T10:40:35Z</time></trkpt>
 <trkpt lat="50.605661600" lon="6.405719500"><ele>407</ele><time>2013-07-05T10:40:39Z</time></trkpt>
 <trkpt lat="50.605680800" lon="6.405781600"><ele>409</ele><time>2013-07-05T10:40:43Z</time></trkpt>
 <trkpt lat="50.605678300" lon="6.405847800"><ele>412</ele><time>2013-07-05T10:40:47Z</time></trkpt>
 <trkpt lat="50.605665800" lon="6.405920400"><ele>414</ele><time>2013-07-05T10:40:51Z</time></trkpt>
 <trkpt lat="50.605669900" lon="6.405993700"><ele>417</ele><time>2013-07-05T10:40:55Z</time></trkpt>
 <trkpt lat="50.605679900" lon="6.406083700"><ele>420</ele><time>2013-07-05T10:40:59Z</time></trkpt>
 <trkpt lat="50.605713300" lon="6.406167000"><ele>422</ele><time>2013-07-05T10:41:03Z</time></trkpt>
 <trkpt lat="50.605752000" lon="6.406260400"><ele>425</ele><time>2013-07-05T10:41:07Z</time></trkpt>
 <trkpt lat="50.605762400" lon="6.406331200"><ele>428</ele><time>2013-07-05T10:41:11Z</time></trkpt>
 <trkpt lat="50.605766200" lon="6.406398700"><ele>431</ele><time>2013-07-05T10:41:15Z</time></trkpt>
 <trkpt lat="50.605776200" lon="6.406466200"><ele>434</ele><time>2013-07-05T10:41:19Z</time></trkpt>
 <trkpt lat="50.605821600" lon="6.406554500"><ele>437</ele><time>2013-07-05T10:41:23Z</time></trkpt>
 <trkpt lat="50.605847900" lon="6.406623700"><ele>440</ele><time>2013-07-05T10:41:27Z</time></trkpt>
 <trkpt lat="50.605877400" lon="6.406687900"><ele>443</ele><time>2013-07-05T10:41:31Z</time></trkpt>
 <trkpt lat="50.605915300" lon="6.406755700"><ele>445</ele><time>2013-07-05T10:41:35Z</time></trkpt>
 <trkpt lat="50.605937400" lon="6.406828700"><ele>448</ele><time>2013-07-05T10:41:39Z</time></trkpt>
 <trkpt lat="50.605930800" lon="6.406914500"><ele>451</ele><time>2013-07-05T10:41:43Z</time></trkpt>
 <trkpt lat="50.605935300" lon="6.406983700"><ele>453</ele><time>2013-07-05T10:41:47Z</time></trkpt>
 <trkpt lat="50.605942800" lon="6.407048700"><ele>455</ele><time>2013-07-05T10:41:51Z</time></trkpt>
 <trkpt lat="50.605932400" lon="6.407114500"><ele>457</ele><time>2013-07-05T10:41:55Z</time></trkpt>
 <trkpt lat="50.605899100" lon="6.407177000"><ele>459</ele><time>2013-07-05T10:41:59Z</time></trkpt>
 <trkpt lat="50.605863300" lon="6.407232400"><ele>461</ele><time>2013-07-05T10:42:03Z</time></trkpt>
 <trkpt lat="50.605818700" lon="6.407281200"><ele>463</ele><time>2013-07-05T10:42:07Z</time></trkpt>
 <trkpt lat="50.605787400" lon="6.407335800"><ele>464</ele><time>2013-07-05T10:42:11Z</time></trkpt>
 <trkpt lat="50.605725800" lon="6.407367500"><ele>465</ele><time>2013-07-05T10:42:15Z</time></trkpt>
 <trkpt lat="50.605683700" lon="6.407389900"><ele>466</ele><time>2013-07-05T10:42:19Z</time></trkpt>
 <trkpt lat="50.605682800" lon="6.407443700"><ele>467</ele><time>2013-07-05T10:42:23Z</time></trkpt>
 <trkpt lat="50.605637800" lon="6.407477900"><ele>468</ele><time>2013-07-05T10:42:27Z</time></trkpt>
 <trkpt lat="50.605601600" lon="6.407541600"><ele>469</ele><time>2013-07-05T10:42:31Z</time></trkpt>
 <trkpt lat="50.605574500" lon="6.407609100"><ele>470</ele><time>2013-07-05T10:42:35Z</time></trkpt>
 <trkpt lat="50.605532400" lon="6.407664100"><ele>470</ele><time>2013-07-05T10:42:39Z</time></trkpt>
 <trkpt lat="50.605497000" lon="6.407704100"><ele>471</ele><time>2013-07-05T10:42:43Z</time></trkpt>
 <trkpt lat="50.605450800" lon="6.407750700"><ele>472</ele><time>2013-07-05T10:42:47Z</time></trkpt>
 <trkpt lat="50.605401200" lon="6.407807000"><ele>473</ele><time>2013-07-05T10:42:51Z</time></trkpt>
 <trkpt lat="50.605366200" lon="6.407854900"><ele>474</ele><time>2013-07-05T10:42:55Z</time></trkpt>
 <trkpt lat="50.605322800" lon="6.407888700"><ele>474</ele><time>2013-07-05T10:42:59Z</time></trkpt>
 <trkpt lat="50.605298300" lon="6.407964900"><ele>474</ele><time>2013-07-05T10:43:03Z</time></trkpt>
 <trkpt lat="50.605264500" lon="6.408014100"><ele>474</ele><time>2013-07-05T10:43:07Z</time></trkpt>
 <trkpt lat="50.605214100" lon="6.408079100"><ele>474</ele><time>2013-07-05T10:43:11Z</time></trkpt>
 <trkpt lat="50.605153700" lon="6.408151200"><ele>474</ele><time>2013-07-05T10:43:15Z</time></trkpt>
 <trkpt lat="50.605052800" lon="6.408218300"><ele>474</ele><time>2013-07-05T10:43:19Z</time></trkpt>
 <trkpt lat="50.604904900" lon="6.408288700"><ele>474</ele><time>2013-07-05T10:43:23Z</time></trkpt>
 <trkpt lat="50.604867400" lon="6.408324500"><ele>473</ele><time>2013-07-05T10:43:27Z</time></trkpt>
 <trkpt lat="50.604819100" lon="6.408382900"><ele>473</ele><time>2013-07-05T10:43:31Z</time></trkpt>
 <trkpt lat="50.604761600" lon="6.408419100"><ele>472</ele><time>2013-07-05T10:43:35Z</time></trkpt>
 <trkpt lat="50.604733300" lon="6.408469900"><ele>471</ele><time>2013-07-05T10:43:39Z</time></trkpt>
 <trkpt lat="50.604712800" lon="6.408517400"><ele>469</ele><time>2013-07-05T10:43:43Z</time></trkpt>
 <trkpt lat="50.604689500" lon="6.408569100"><ele>468</ele><time>2013-07-05T10:43:47Z</time></trkpt>
 <trkpt lat="50.604672400" lon="6.408636600"><ele>466</ele><time>2013-07-05T10:43:51Z</time></trkpt>
 <trkpt lat="50.604587000" lon="6.408685400"><ele>464</ele><time>2013-07-05T10:43:55Z</time></trkpt>
 <trkpt lat="50.604444100" lon="6.408734500"><ele>463</ele><time>2013-07-05T10:43:59Z</time></trkpt>
 <trkpt lat="50.604424500" lon="6.408782800"><ele>462</ele><time>2013-07-05T10:44:03Z</time></trkpt>
 <trkpt lat="50.604393700" lon="6.408799900"><ele>461</ele><time>2013-07-05T10:44:07Z</time></trkpt>
 <trkpt lat="50.604365300" lon="6.408836600"><ele>460</ele><time>2013-07-05T10:44:11Z</time></trkpt>
 <trkpt lat="50.604327000" lon="6.408887400"><ele>460</ele><time>2013-07-05T10:44:15Z</time></trkpt>
 <trkpt lat="50.604311200" lon="6.408891600"><ele>459</ele><time>2013-07-05T10:44:19Z</time></trkpt>
 <trkpt lat="50.604287800" lon="6.408917000"><ele>459</ele><time>2013-07-05T10:44:23Z</time></trkpt>
 <trkpt lat="50.604265800" lon="6.408966600"><ele>458</ele><time>2013-07-05T10:44:27Z</time></trkpt>
 <trkpt lat="50.604244100" lon="6.409013300"><ele>458</ele><time>2013-07-05T10:44:31Z</time></trkpt>
 <trkpt lat="50.604211200" lon="6.409037800"><ele>458</ele><time>2013-07-05T10:44:35Z</time></trkpt>
 <trkpt lat="50.604157000" lon="6.409066200"><ele>458</ele><time>2013-07-05T10:44:39Z</time></trkpt>
 <trkpt lat="50.604107800" lon="6.409093300"><ele>458</ele><time>2013-07-05T10:44:43Z</time></trkpt>
 <trkpt lat="50.604074500" lon="6.409149900"><ele>459</ele><time>2013-07-05T10:44:47Z</time></trkpt>
 <trkpt lat="50.604045300" lon="6.409183700"><ele>459</ele><time>2013-07-05T10:44:51Z</time></trkpt>
 <trkpt lat="50.604001200" lon="6.409206600"><ele>458</ele><time>2013-07-05T10:44:55Z</time></trkpt>
 <trkpt lat="50.603959100" lon="6.409229900"><ele>457</ele><time>2013-07-05T10:44:59Z</time></trkpt>
 <trkpt lat="50.603910300" lon="6.409263300"><ele>455</ele><time>2013-07-05T10:45:03Z</time></trkpt>
 <trkpt lat="50.603865800" lon="6.409327000"><ele>453</ele><time>2013-07-05T10:45:07Z</time></trkpt>
 <trkpt lat="50.603793200" lon="6.409394100"><ele>450</ele><time>2013-07-05T10:45:11Z</time></trkpt>
 <trkpt lat="50.603713300" lon="6.409419100"><ele>447</ele><time>2013-07-05T10:45:15Z</time></trkpt>
 <trkpt lat="50.603574500" lon="6.409466600"><ele>443</ele><time>2013-07-05T10:45:19Z</time></trkpt>
 <trkpt lat="50.603409100" lon="6.409524100"><ele>439</ele><time>2013-07-05T10:45:23Z</time></trkpt>
 <trkpt lat="50.603241600" lon="6.409649500"><ele>435</ele><time>2013-07-05T10:45:27Z</time></trkpt>
 <trkpt lat="50.603156200" lon="6.409747800"><ele>430</ele><time>2013-07-05T10:45:31Z</time></trkpt>
 <trkpt lat="50.602932000" lon="6.409917000"><ele>425</ele><time>2013-07-05T10:45:35Z</time></trkpt>
 <trkpt lat="50.602836200" lon="6.409975800"><ele>421</ele><time>2013-07-05T10:45:39Z</time></trkpt>
 <trkpt lat="50.602780400" lon="6.409982800"><ele>416</ele><time>2013-07-05T10:45:43Z</time></trkpt>
 <trkpt lat="50.602732900" lon="6.409993700"><ele>410</ele><time>2013-07-05T10:45:47Z</time></trkpt>
 <trkpt lat="50.602675400" lon="6.410025800"><ele>405</ele><time>2013-07-05T10:45:51Z</time></trkpt>
 <trkpt lat="50.602610800" lon="6.410071200"><ele>400</ele><time>2013-07-05T10:45:55Z</time></trkpt>
 <trkpt lat="50.602550400" lon="6.410124100"><ele>395</ele><time>2013-07-05T10:45:59Z</time></trkpt>
 <trkpt lat="50.602519100" lon="6.410145800"><ele>390</ele><time>2013-07-05T10:46:03Z</time></trkpt>
 <trkpt lat="50.602492000" lon="6.410230800"><ele>386</ele><time>2013-07-05T10:46:07Z</time></trkpt>
 <trkpt lat="50.602492400" lon="6.410226600"><ele>382</ele><time>2013-07-05T10:46:11Z</time></trkpt>
 <trkpt lat="50.602449100" lon="6.410208300"><ele>378</ele><time>2013-07-05T10:46:15Z</time></trkpt>
 <trkpt lat="50.602401200" lon="6.410208700"><ele>375</ele><time>2013-07-05T10:46:19Z</time></trkpt>
 <trkpt lat="50.602360700" lon="6.410221600"><ele>372</ele><time>2013-07-05T10:46:23Z</time></trkpt>
 <trkpt lat="50.602319500" lon="6.410233700"><ele>369</ele><time>2013-07-05T10:46:27Z</time></trkpt>
 <trkpt lat="50.602257800" lon="6.410265800"><ele>367</ele><time>2013-07-05T10:46:31Z</time></trkpt>
 <trkpt lat="50.602210300" lon="6.410303300"><ele>364</ele><time>2013-07-05T10:46:35Z</time></trkpt>
 <trkpt lat="50.602165800" lon="6.410340300"><ele>362</ele><time>2013-07-05T10:46:39Z</time></trkpt>
 <trkpt lat="50.602119100" lon="6.410400300"><ele>359</ele><time>2013-07-05T10:46:43Z</time></trkpt>
 <trkpt lat="50.602077800" lon="6.410462400"><ele>357</ele><time>2013-07-05T10:46:47Z</time></trkpt>
 <trkpt lat="50.602042000" lon="6.410512000"><ele>354</ele><time>2013-07-05T10:46:51Z</time></trkpt>
 <trkpt lat="50.601989900" lon="6.410501200"><ele>352</ele><time>2013-07-05T10:46:55Z</time></trkpt>
 <trkpt lat="50.601978300" lon="6.410504500"><ele>350</ele><time>2013-07-05T10:46:59Z</time></trkpt>
 <trkpt lat="50.601972800" lon="6.410496600"><ele>349</ele><time>2013-07-05T10:47:03Z</time></trkpt>
 <trkpt lat="50.601971200" lon="6.410488300"><ele>347</ele><time>2013-07-05T10:47:07Z</time></trkpt>
 <trkpt lat="50.601968300" lon="6.410480800"><ele>346</ele><time>2013-07-05T10:47:11Z</time></trkpt>
 <trkpt lat="50.601969900" lon="6.410469500"><ele>345</ele><time>2013-07-05T10:47:15Z</time></trkpt>
 <trkpt lat="50.601974100" lon="6.410474900"><ele>344</ele><time>2013-07-05T10:47:19Z</time></trkpt>
 <trkpt lat="50.601974100" lon="6.410474900"><ele>343</ele><time>2013-07-05T10:47:23Z</time></trkpt>
 <trkpt lat="50.601978300" lon="6.410481600"><ele>342</ele><time>2013-07-05T10:47:27Z</time></trkpt>
 <trkpt lat="50.601979500" lon="6.410490300"><ele>341</ele><time>2013-07-05T10:47:31Z</time></trkpt>
 <trkpt lat="50.601979500" lon="6.410490300"><ele>340</ele><time>2013-07-05T10:47:35Z</time></trkpt>
 <trkpt lat="50.601947400" lon="6.410482900"><ele>339</ele><time>2013-07-05T10:47:39Z</time></trkpt>
 <trkpt lat="50.601904900" lon="6.410477900"><ele>339</ele><time>2013-07-05T10:47:43Z</time></trkpt>
 <trkpt lat="50.601856200" lon="6.410491600"><ele>338</ele><time>2013-07-05T10:47:47Z</time></trkpt>
 <trkpt lat="50.601800300" lon="6.410512900"><ele>338</ele><time>2013-07-05T10:47:51Z</time></trkpt>
 <trkpt lat="50.601761600" lon="6.410530800"><ele>337</ele><time>2013-07-05T10:47:55Z</time></trkpt>
 <trkpt lat="50.601720800" lon="6.410523700"><ele>337</ele><time>2013-07-05T10:47:59Z</time></trkpt>
 <trkpt lat="50.601698700" lon="6.410509100"><ele>336</ele><time>2013-07-05T10:48:03Z</time></trkpt>
 <trkpt lat="50.601665300" lon="6.410530400"><ele>336</ele><time>2013-07-05T10:48:07Z</time></trkpt>
 <trkpt lat="50.601615400" lon="6.410554500"><ele>335</ele><time>2013-07-05T10:48:11Z</time></trkpt>
 <trkpt lat="50.601569100" lon="6.410568300"><ele>335</ele><time>2013-07-05T10:48:15Z</time></trkpt>
 <trkpt lat="50.601519100" lon="6.410572400"><ele>334</ele><time>2013-07-05T10:48:19Z</time></trkpt>
 <trkpt lat="50.601480300" lon="6.410596200"><ele>334</ele><time>2013-07-05T10:48:23Z</time></trkpt>
 <trkpt lat="50.601433200" lon="6.410615800"><ele>333</ele><time>2013-07-05T10:48:27Z</time></trkpt>
 <trkpt lat="50.601394500" lon="6.410657400"><ele>333</ele><time>2013-07-05T10:48:31Z</time></trkpt>
 <trkpt lat="50.601365800" lon="6.410722400"><ele>332</ele><time>2013-07-05T10:48:35Z</time></trkpt>
 <trkpt lat="50.601338700" lon="6.410775300"><ele>332</ele><time>2013-07-05T10:48:39Z</time></trkpt>
 <trkpt lat="50.601299500" lon="6.410829100"><ele>332</ele><time>2013-07-05T10:48:43Z</time></trkpt>
 <trkpt lat="50.601246600" lon="6.410877800"><ele>331</ele><time>2013-07-05T10:48:47Z</time></trkpt>
 <trkpt lat="50.601188300" lon="6.410911200"><ele>331</ele><time>2013-07-05T10:48:51Z</time></trkpt>
 <trkpt lat="50.601153300" lon="6.410970300"><ele>331</ele><time>2013-07-05T10:48:55Z</time></trkpt>
 <trkpt lat="50.601127000" lon="6.410999900"><ele>331</ele><time>2013-07-05T10:48:59Z</time></trkpt>
 <trkpt lat="50.601089100" lon="6.411057900"><ele>331</ele><time>2013-07-05T10:49:03Z</time></trkpt>
 <trkpt lat="50.601056600" lon="6.411078300"><ele>331</ele><time>2013-07-05T10:49:07Z</time></trkpt>
 <trkpt lat="50.601039500" lon="6.411061600"><ele>331</ele><time>2013-07-05T10:49:11Z</time></trkpt>
 <trkpt lat="50.601029900" lon="6.411090300"><ele>331</ele><time>2013-07-05T10:49:15Z</time></trkpt>
 <trkpt lat="50.601024900" lon="6.411138200"><ele>332</ele><time>2013-07-05T10:49:19Z</time></trkpt>
 <trkpt lat="50.601001600" lon="6.411175000"><ele>332</ele><time>2013-07-05T10:49:23Z</time></trkpt>
 <trkpt lat="50.600975300" lon="6.411214100"><ele>332</ele><time>2013-07-05T10:49:27Z</time></trkpt>
 <trkpt lat="50.600967000" lon="6.411259900"><ele>333</ele><time>2013-07-05T10:49:31Z</time></trkpt>
 <trkpt lat="50.600966600" lon="6.411304100"><ele>333</ele><time>2013-07-05T10:49:35Z</time></trkpt>
 <trkpt lat="50.600955300" lon="6.411362000"><ele>333</ele><time>2013-07-05T10:49:39Z</time></trkpt>
 <trkpt lat="50.600942400" lon="6.411414100"><ele>334</ele><time>2013-07-05T10:49:43Z</time></trkpt>
 <trkpt lat="50.600924900" lon="6.411488300"><ele>334</ele><time>2013-07-05T10:49:47Z</time></trkpt>
 <trkpt lat="50.600915400" lon="6.411505400"><ele>334</ele><time>2013-07-05T10:49:51Z</time></trkpt>
 <trkpt lat="50.600933300" lon="6.411477800"><ele>334</ele><time>2013-07-05T10:49:55Z</time></trkpt>
 <trkpt lat="50.600946200" lon="6.411472000"><ele>335</ele><time>2013-07-05T10:49:59Z</time></trkpt>
 <trkpt lat="50.600959500" lon="6.411492000"><ele>335</ele><time>2013-07-05T10:50:03Z</time></trkpt>
 <trkpt lat="50.600975700" lon="6.411493300"><ele>335</ele><time>2013-07-05T10:50:07Z</time></trkpt>
 <trkpt lat="50.600982000" lon="6.411485300"><ele>335</ele><time>2013-07-05T10:50:11Z</time></trkpt>
 <trkpt lat="50.600988300" lon="6.411480400"><ele>335</ele><time>2013-07-05T10:50:15Z</time></trkpt>
 <trkpt lat="50.600982400" lon="6.411474100"><ele>335</ele><time>2013-07-05T10:50:19Z</time></trkpt>
 <trkpt lat="50.600965300" lon="6.411444900"><ele>335</ele><time>2013-07-05T10:50:23Z</time></trkpt>
 <trkpt lat="50.600926200" lon="6.411431200"><ele>335</ele><time>2013-07-05T10:50:27Z</time></trkpt>
 <trkpt lat="50.600884100" lon="6.411489900"><ele>335</ele><time>2013-07-05T10:50:31Z</time></trkpt>
 <trkpt lat="50.600873300" lon="6.411529500"><ele>335</ele><time>2013-07-05T10:50:35Z</time></trkpt>
 <trkpt lat="50.600829900" lon="6.411590800"><ele>334</ele><time>2013-07-05T10:50:39Z</time></trkpt>
 <trkpt lat="50.600773300" lon="6.411677400"><ele>334</ele><time>2013-07-05T10:50:43Z</time></trkpt>
 <trkpt lat="50.600750300" lon="6.411740300"><ele>334</ele><time>2013-07-05T10:50:47Z</time></trkpt>
 <trkpt lat="50.600733300" lon="6.411794500"><ele>334</ele><time>2013-07-05T10:50:51Z</time></trkpt>
 <trkpt lat="50.600708700" lon="6.411846200"><ele>333</ele><time>2013-07-05T10:50:55Z</time></trkpt>
 <trkpt lat="50.600669500" lon="6.411910800"><ele>333</ele><time>2013-07-05T10:50:59Z</time></trkpt>
 <trkpt lat="50.600630800" lon="6.411952900"><ele>333</ele><time>2013-07-05T10:51:03Z</time></trkpt>
 <trkpt lat="50.600589500" lon="6.412002800"><ele>333</ele><time>2013-07-05T10:51:07Z</time></trkpt>
 <trkpt lat="50.600550300" lon="6.412059500"><ele>332</ele><time>2013-07-05T10:51:11Z</time></trkpt>
 <trkpt lat="50.600511200" lon="6.412094900"><ele>332</ele><time>2013-07-05T10:51:15Z</time></trkpt>
 <trkpt lat="50.600507800" lon="6.412132000"><ele>331</ele><time>2013-07-05T10:51:19Z</time></trkpt>
 <trkpt lat="50.600506200" lon="6.412189100"><ele>330</ele><time>2013-07-05T10:51:23Z</time></trkpt>
 <trkpt lat="50.600494500" lon="6.412238300"><ele>330</ele><time>2013-07-05T10:51:27Z</time></trkpt>
 <trkpt lat="50.600457400" lon="6.412320300"><ele>329</ele><time>2013-07-05T10:51:31Z</time></trkpt>
 <trkpt lat="50.600423200" lon="6.412392000"><ele>329</ele><time>2013-07-05T10:51:35Z</time></trkpt>
 <trkpt lat="50.600402000" lon="6.412459900"><ele>328</ele><time>2013-07-05T10:51:39Z</time></trkpt>
 <trkpt lat="50.600385800" lon="6.412515300"><ele>327</ele><time>2013-07-05T10:51:43Z</time></trkpt>
 <trkpt lat="50.600374500" lon="6.412576200"><ele>326</ele><time>2013-07-05T10:51:47Z</time></trkpt>
 <trkpt lat="50.600350800" lon="6.412648700"><ele>326</ele><time>2013-07-05T10:51:51Z</time></trkpt>
 <trkpt lat="50.600327400" lon="6.412745400"><ele>325</ele><time>2013-07-05T10:51:55Z</time></trkpt>
 <trkpt lat="50.600296200" lon="6.412817800"><ele>324</ele><time>2013-07-05T10:51:59Z</time></trkpt>
 <trkpt lat="50.600277000" lon="6.412890800"><ele>323</ele><time>2013-07-05T10:52:03Z</time></trkpt>
 <trkpt lat="50.600258700" lon="6.412990300"><ele>323</ele><time>2013-07-05T10:52:07Z</time></trkpt>
 <trkpt lat="50.600261200" lon="6.413066600"><ele>322</ele><time>2013-07-05T10:52:11Z</time></trkpt>
 <trkpt lat="50.600258200" lon="6.413142000"><ele>322</ele><time>2013-07-05T10:52:15Z</time></trkpt>
 <trkpt lat="50.600272000" lon="6.413209100"><ele>321</ele><time>2013-07-05T10:52:19Z</time></trkpt>
 <trkpt lat="50.600272400" lon="6.413279500"><ele>321</ele><time>2013-07-05T10:52:23Z</time></trkpt>
 <trkpt lat="50.600289500" lon="6.413330800"><ele>320</ele><time>2013-07-05T10:52:27Z</time></trkpt>
 <trkpt lat="50.600302000" lon="6.413370800"><ele>320</ele><time>2013-07-05T10:52:31Z</time></trkpt>
 <trkpt lat="50.600319900" lon="6.413412000"><ele>319</ele><time>2013-07-05T10:52:35Z</time></trkpt>
 <trkpt lat="50.600339500" lon="6.413467900"><ele>319</ele><time>2013-07-05T10:52:39Z</time></trkpt>
 <trkpt lat="50.600332900" lon="6.413514900"><ele>318</ele><time>2013-07-05T10:52:43Z</time></trkpt>
 <trkpt lat="50.600360800" lon="6.413585700"><ele>318</ele><time>2013-07-05T10:52:47Z</time></trkpt>
 <trkpt lat="50.600373700" lon="6.413677000"><ele>317</ele><time>2013-07-05T10:52:51Z</time></trkpt>
 <trkpt lat="50.600396200" lon="6.413751200"><ele>317</ele><time>2013-07-05T10:52:55Z</time></trkpt>
 <trkpt lat="50.600422000" lon="6.413820400"><ele>316</ele><time>2013-07-05T10:52:59Z</time></trkpt>
 <trkpt lat="50.600460800" lon="6.413865400"><ele>315</ele><time>2013-07-05T10:53:03Z</time></trkpt>
 <trkpt lat="50.600508700" lon="6.413924900"><ele>314</ele><time>2013-07-05T10:53:07Z</time></trkpt>
 <trkpt lat="50.600524500" lon="6.413983300"><ele>313</ele><time>2013-07-05T10:53:11Z</time></trkpt>
 <trkpt lat="50.600542000" lon="6.414029100"><ele>312</ele><time>2013-07-05T10:53:15Z</time></trkpt>
 <trkpt lat="50.600553700" lon="6.414094500"><ele>311</ele><time>2013-07-05T10:53:19Z</time></trkpt>
 <trkpt lat="50.600567400" lon="6.414147400"><ele>310</ele><time>2013-07-05T10:53:23Z</time></trkpt>
 <trkpt lat="50.600574900" lon="6.414199100"><ele>309</ele><time>2013-07-05T10:53:27Z</time></trkpt>
 <trkpt lat="50.600579100" lon="6.414247800"><ele>308</ele><time>2013-07-05T10:53:31Z</time></trkpt>
 <trkpt lat="50.600579500" lon="6.414304900"><ele>307</ele><time>2013-07-05T10:53:35Z</time></trkpt>
 <trkpt lat="50.600557400" lon="6.414370300"><ele>306</ele><time>2013-07-05T10:53:39Z</time></trkpt>
 <trkpt lat="50.600572400" lon="6.414429900"><ele>305</ele><time>2013-07-05T10:53:43Z</time></trkpt>
 <trkpt lat="50.600584900" lon="6.414512900"><ele>304</ele><time>2013-07-05T10:53:47Z</time></trkpt>
 <trkpt lat="50.600597000" lon="6.414589500"><ele>303</ele><time>2013-07-05T10:53:51Z</time></trkpt>
 <trkpt lat="50.600620800" lon="6.414672900"><ele>302</ele><time>2013-07-05T10:53:55Z</time></trkpt>
 <trkpt lat="50.600631200" lon="6.414755300"><ele>301</ele><time>2013-07-05T10:53:59Z</time></trkpt>
 <trkpt lat="50.600641200" lon="6.414810700"><ele>300</ele><time>2013-07-05T10:54:03Z</time></trkpt>
 <trkpt lat="50.600633300" lon="6.414886600"><ele>299</ele><time>2013-07-05T10:54:07Z</time></trkpt>
 <trkpt lat="50.600589500" lon="6.414977000"><ele>298</ele><time>2013-07-05T10:54:11Z</time></trkpt>
 <trkpt lat="50.600554100" lon="6.415038300"><ele>297</ele><time>2013-07-05T10:54:15Z</time></trkpt>
 <trkpt lat="50.600520800" lon="6.415104100"><ele>296</ele><time>2013-07-05T10:54:19Z</time></trkpt>
 <trkpt lat="50.600502400" lon="6.415138700"><ele>296</ele><time>2013-07-05T10:54:23Z</time></trkpt>
 <trkpt lat="50.600491200" lon="6.415203700"><ele>295</ele><time>2013-07-05T10:54:27Z</time></trkpt>
 <trkpt lat="50.600449100" lon="6.415264900"><ele>294</ele><time>2013-07-05T10:54:31Z</time></trkpt>
 <trkpt lat="50.600385800" lon="6.415334500"><ele>293</ele><time>2013-07-05T10:54:35Z</time></trkpt>
 <trkpt lat="50.600359500" lon="6.415374100"><ele>293</ele><time>2013-07-05T10:54:39Z</time></trkpt>
 <trkpt lat="50.600354900" lon="6.415394100"><ele>292</ele><time>2013-07-05T10:54:43Z</time></trkpt>
 <trkpt lat="50.600337800" lon="6.415440700"><ele>292</ele><time>2013-07-05T10:54:47Z</time></trkpt>
 <trkpt lat="50.600329900" lon="6.415462800"><ele>291</ele><time>2013-07-05T10:54:51Z</time></trkpt>
 <trkpt lat="50.600323700" lon="6.415505800"><ele>290</ele><time>2013-07-05T10:54:55Z</time></trkpt>
 <trkpt lat="50.600336600" lon="6.415526200"><ele>290</ele><time>2013-07-05T10:54:59Z</time></trkpt>
 <trkpt lat="50.600371200" lon="6.415505800"><ele>290</ele><time>2013-07-05T10:55:03Z</time></trkpt>
 <trkpt lat="50.600401200" lon="6.415493700"><ele>289</ele><time>2013-07-05T10:55:07Z</time></trkpt>
 <trkpt lat="50.600444900" lon="6.415482000"><ele>289</ele><time>2013-07-05T10:55:11Z</time></trkpt>
 <trkpt lat="50.600488700" lon="6.415479500"><ele>289</ele><time>2013-07-05T10:55:15Z</time></trkpt>
 <trkpt lat="50.600537800" lon="6.415471200"><ele>289</ele><time>2013-07-05T10:55:19Z</time></trkpt>
 <trkpt lat="50.600589900" lon="6.415465300"><ele>289</ele><time>2013-07-05T10:55:23Z</time></trkpt>
 <trkpt lat="50.600642000" lon="6.415475800"><ele>289</ele><time>2013-07-05T10:55:27Z</time></trkpt>
 <trkpt lat="50.600701200" lon="6.415499900"><ele>289</ele><time>2013-07-05T10:55:31Z</time></trkpt>
 <trkpt lat="50.600749100" lon="6.415503700"><ele>289</ele><time>2013-07-05T10:55:35Z</time></trkpt>
 <trkpt lat="50.600791600" lon="6.415487400"><ele>289</ele><time>2013-07-05T10:55:39Z</time></trkpt>
 <trkpt lat="50.600842400" lon="6.415484100"><ele>289</ele><time>2013-07-05T10:55:43Z</time></trkpt>
 <trkpt lat="50.600906200" lon="6.415525400"><ele>290</ele><time>2013-07-05T10:55:47Z</time></trkpt>
 <trkpt lat="50.600998200" lon="6.415605800"><ele>290</ele><time>2013-07-05T10:55:51Z</time></trkpt>
 <trkpt lat="50.601067800" lon="6.415598700"><ele>290</ele><time>2013-07-05T10:55:55Z</time></trkpt>
 <trkpt lat="50.601113700" lon="6.415605800"><ele>291</ele><time>2013-07-05T10:55:59Z</time></trkpt>
 <trkpt lat="50.601153700" lon="6.415621600"><ele>291</ele><time>2013-07-05T10:56:03Z</time></trkpt>
 <trkpt lat="50.601199100" lon="6.415622000"><ele>292</ele><time>2013-07-05T10:56:07Z</time></trkpt>
 <trkpt lat="50.601247400" lon="6.415637800"><ele>292</ele><time>2013-07-05T10:56:11Z</time></trkpt>
 <trkpt lat="50.601283700" lon="6.415657900"><ele>292</ele><time>2013-07-05T10:56:15Z</time></trkpt>
 <trkpt lat="50.601325700" lon="6.415667000"><ele>293</ele><time>2013-07-05T10:56:19Z</time></trkpt>
 <trkpt lat="50.601383700" lon="6.415678700"><ele>293</ele><time>2013-07-05T10:56:23Z</time></trkpt>
 <trkpt lat="50.601475800" lon="6.415715400"><ele>293</ele><time>2013-07-05T10:56:27Z</time></trkpt>
 <trkpt lat="50.601543300" lon="6.415748700"><ele>294</ele><time>2013-07-05T10:56:31Z</time></trkpt>
 <trkpt lat="50.601597400" lon="6.415781600"><ele>294</ele><time>2013-07-05T10:56:35Z</time></trkpt>
 <trkpt lat="50.601638700" lon="6.415804500"><ele>295</ele><time>2013-07-05T10:56:39Z</time></trkpt>
 <trkpt lat="50.601674100" lon="6.415812400"><ele>295</ele><time>2013-07-05T10:56:43Z</time></trkpt>
 <trkpt lat="50.601691200" lon="6.415806600"><ele>295</ele><time>2013-07-05T10:56:47Z</time></trkpt>
 <trkpt lat="50.601721200" lon="6.415829900"><ele>295</ele><time>2013-07-05T10:56:51Z</time></trkpt>
 <trkpt lat="50.601781200" lon="6.415853700"><ele>296</ele><time>2013-07-05T10:56:55Z</time></trkpt>
 <trkpt lat="50.601846600" lon="6.415877000"><ele>296</ele><time>2013-07-05T10:56:59Z</time></trkpt>
 <trkpt lat="50.601905800" lon="6.415881600"><ele>296</ele><time>2013-07-05T10:57:03Z</time></trkpt>
 <trkpt lat="50.601990800" lon="6.415929900"><ele>296</ele><time>2013-07-05T10:57:07Z</time></trkpt>
 <trkpt lat="50.602054500" lon="6.415976600"><ele>296</ele><time>2013-07-05T10:57:11Z</time></trkpt>
 <trkpt lat="50.602106200" lon="6.416007900"><ele>296</ele><time>2013-07-05T10:57:15Z</time></trkpt>
 <trkpt lat="50.602147000" lon="6.416015800"><ele>296</ele><time>2013-07-05T10:57:19Z</time></trkpt>
 <trkpt lat="50.602184100" lon="6.416031200"><ele>296</ele><time>2013-07-05T10:57:23Z</time></trkpt>
 <trkpt lat="50.602211200" lon="6.416052500"><ele>295</ele><time>2013-07-05T10:57:27Z</time></trkpt>
 <trkpt lat="50.602245800" lon="6.416058700"><ele>295</ele><time>2013-07-05T10:57:31Z</time></trkpt>
 <trkpt lat="50.602279500" lon="6.416076200"><ele>295</ele><time>2013-07-05T10:57:35Z</time></trkpt>
 <trkpt lat="50.602309100" lon="6.416113700"><ele>294</ele><time>2013-07-05T10:57:39Z</time></trkpt>
 <trkpt lat="50.602390700" lon="6.416162400"><ele>294</ele><time>2013-07-05T10:57:43Z</time></trkpt>
 <trkpt lat="50.602459100" lon="6.416196200"><ele>294</ele><time>2013-07-05T10:57:47Z</time></trkpt>
 <trkpt lat="50.602483300" lon="6.416234100"><ele>294</ele><time>2013-07-05T10:57:51Z</time></trkpt>
 <trkpt lat="50.602484500" lon="6.416265300"><ele>293</ele><time>2013-07-05T10:57:55Z</time></trkpt>
 <trkpt lat="50.602487000" lon="6.416277400"><ele>293</ele><time>2013-07-05T10:57:59Z</time></trkpt>
 <trkpt lat="50.602487000" lon="6.416277400"><ele>293</ele><time>2013-07-05T10:58:03Z</time></trkpt>
 <trkpt lat="50.602492400" lon="6.416277000"><ele>292</ele><time>2013-07-05T10:58:07Z</time></trkpt>
 <trkpt lat="50.602498700" lon="6.416277400"><ele>292</ele><time>2013-07-05T10:58:11Z</time></trkpt>
 <trkpt lat="50.602503300" lon="6.416282000"><ele>292</ele><time>2013-07-05T10:58:15Z</time></trkpt>
 <trkpt lat="50.602511200" lon="6.416296200"><ele>291</ele><time>2013-07-05T10:58:19Z</time></trkpt>
 <trkpt lat="50.602514100" lon="6.416305300"><ele>291</ele><time>2013-07-05T10:58:23Z</time></trkpt>
 <trkpt lat="50.602504500" lon="6.416309900"><ele>291</ele><time>2013-07-05T10:58:27Z</time></trkpt>
 <trkpt lat="50.602479100" lon="6.416282000"><ele>291</ele><time>2013-07-05T10:58:31Z</time></trkpt>
 <trkpt lat="50.602474500" lon="6.416263300"><ele>291</ele><time>2013-07-05T10:58:35Z</time></trkpt>
 <trkpt lat="50.602481600" lon="6.416263700"><ele>291</ele><time>2013-07-05T10:58:39Z</time></trkpt>
 <trkpt lat="50.602505800" lon="6.416311600"><ele>291</ele><time>2013-07-05T10:58:43Z</time></trkpt>
 <trkpt lat="50.602510300" lon="6.416391200"><ele>291</ele><time>2013-07-05T10:58:47Z</time></trkpt>
 <trkpt lat="50.602515800" lon="6.416413300"><ele>291</ele><time>2013-07-05T10:58:51Z</time></trkpt>
 <trkpt lat="50.602534100" lon="6.416439900"><ele>291</ele><time>2013-07-05T10:58:55Z</time></trkpt>
 <trkpt lat="50.602555800" lon="6.416482400"><ele>291</ele><time>2013-07-05T10:58:59Z</time></trkpt>
 <trkpt lat="50.602570800" lon="6.416525800"><ele>291</ele><time>2013-07-05T10:59:03Z</time></trkpt>
 <trkpt lat="50.602578300" lon="6.416569500"><ele>291</ele><time>2013-07-05T10:59:07Z</time></trkpt>
 <trkpt lat="50.602572400" lon="6.416644500"><ele>291</ele><time>2013-07-05T10:59:11Z</time></trkpt>
 <trkpt lat="50.602558300" lon="6.416674500"><ele>291</ele><time>2013-07-05T10:59:15Z</time></trkpt>
 <trkpt lat="50.602495800" lon="6.416593300"><ele>291</ele><time>2013-07-05T10:59:19Z</time></trkpt>
 <trkpt lat="50.602418300" lon="6.416506200"><ele>291</ele><time>2013-07-05T10:59:23Z</time></trkpt>
 <trkpt lat="50.602421200" lon="6.416475800"><ele>291</ele><time>2013-07-05T10:59:27Z</time></trkpt>
 <trkpt lat="50.602419500" lon="6.416430400"><ele>291</ele><time>2013-07-05T10:59:31Z</time></trkpt>
 <trkpt lat="50.602419500" lon="6.416430400"><ele>290</ele><time>2013-07-05T10:59:35Z</time></trkpt>
 <trkpt lat="50.602430300" lon="6.416405700"><ele>290</ele><time>2013-07-05T10:59:39Z</time></trkpt>
 <trkpt lat="50.602427400" lon="6.416394500"><ele>290</ele><time>2013-07-05T10:59:43Z</time></trkpt>
 <trkpt lat="50.602437800" lon="6.416402400"><ele>290</ele><time>2013-07-05T10:59:47Z</time></trkpt>
 <trkpt lat="50.602455400" lon="6.416417400"><ele>290</ele><time>2013-07-05T10:59:51Z</time></trkpt>
 <trkpt lat="50.602473300" lon="6.416409900"><ele>290</ele><time>2013-07-05T10:59:55Z</time></trkpt>
 <trkpt lat="50.602494500" lon="6.416402400"><ele>289</ele><time>2013-07-05T10:59:59Z</time></trkpt>
 <trkpt lat="50.602523700" lon="6.416402900"><ele>289</ele><time>2013-07-05T11:00:03Z</time></trkpt>
 <trkpt lat="50.602530800" lon="6.416392000"><ele>289</ele><time>2013-07-05T11:00:07Z</time></trkpt>
 <trkpt lat="50.602521600" lon="6.416378300"><ele>288</ele><time>2013-07-05T11:00:11Z</time></trkpt>
 <trkpt lat="50.602535700" lon="6.416362000"><ele>288</ele><time>2013-07-05T11:00:15Z</time></trkpt>
 <trkpt lat="50.602522400" lon="6.416312400"><ele>288</ele><time>2013-07-05T11:00:19Z</time></trkpt>
 <trkpt lat="50.602516600" lon="6.416302000"><ele>287</ele><time>2013-07-05T11:00:23Z</time></trkpt>
 <trkpt lat="50.602505800" lon="6.416323700"><ele>287</ele><time>2013-07-05T11:00:27Z</time></trkpt>
 <trkpt lat="50.602510300" lon="6.416387000"><ele>286</ele><time>2013-07-05T11:00:31Z</time></trkpt>
 <trkpt lat="50.602516600" lon="6.416440800"><ele>286</ele><time>2013-07-05T11:00:35Z</time></trkpt>
 <trkpt lat="50.602514900" lon="6.416474500"><ele>286</ele><time>2013-07-05T11:00:39Z</time></trkpt>
 <trkpt lat="50.602496600" lon="6.416522400"><ele>285</ele><time>2013-07-05T11:00:43Z</time></trkpt>
 <trkpt lat="50.602481200" lon="6.416549100"><ele>285</ele><time>2013-07-05T11:00:47Z</time></trkpt>
 <trkpt lat="50.602457800" lon="6.416614500"><ele>285</ele><time>2013-07-05T11:00:51Z</time></trkpt>
 <trkpt lat="50.602444100" lon="6.416643700"><ele>285</ele><time>2013-07-05T11:00:55Z</time></trkpt>
 <trkpt lat="50.602425800" lon="6.416673300"><ele>285</ele><time>2013-07-05T11:00:59Z</time></trkpt>
 <trkpt lat="50.602399900" lon="6.416717000"><ele>284</ele><time>2013-07-05T11:01:03Z</time></trkpt>
 <trkpt lat="50.602367400" lon="6.416761600"><ele>284</ele><time>2013-07-05T11:01:07Z</time></trkpt>
 <trkpt lat="50.602332400" lon="6.416802800"><ele>284</ele><time>2013-07-05T11:01:11Z</time></trkpt>
 <trkpt lat="50.602298700" lon="6.416841600"><ele>284</ele><time>2013-07-05T11:01:15Z</time></trkpt>
 <trkpt lat="50.602262000" lon="6.416887800"><ele>284</ele><time>2013-07-05T11:01:19Z</time></trkpt>
 <trkpt lat="50.602217000" lon="6.416913300"><ele>284</ele><time>2013-07-05T11:01:23Z</time></trkpt>
 <trkpt lat="50.602184900" lon="6.416931200"><ele>284</ele><time>2013-07-05T11:01:27Z</time></trkpt>
 <trkpt lat="50.602157000" lon="6.416960300"><ele>284</ele><time>2013-07-05T11:01:31Z</time></trkpt>
 <trkpt lat="50.602131600" lon="6.416992800"><ele>284</ele><time>2013-07-05T11:01:35Z</time></trkpt>
 <trkpt lat="50.602105300" lon="6.417007800"><ele>284</ele><time>2013-07-05T11:01:39Z</time></trkpt>
 <trkpt lat="50.602071200" lon="6.417009500"><ele>285</ele><time>2013-07-05T11:01:43Z</time></trkpt>
 <trkpt lat="50.602039900" lon="6.417004100"><ele>285</ele><time>2013-07-05T11:01:47Z</time></trkpt>
 <trkpt lat="50.602016200" lon="6.416994900"><ele>285</ele><time>2013-07-05T11:01:51Z</time></trkpt>
 <trkpt lat="50.601985800" lon="6.416989100"><ele>285</ele><time>2013-07-05T11:01:55Z</time></trkpt>
 <trkpt lat="50.601952400" lon="6.416990800"><ele>286</ele><time>2013-07-05T11:01:59Z</time></trkpt>
 <trkpt lat="50.601911600" lon="6.416997900"><ele>286</ele><time>2013-07-05T11:02:03Z</time></trkpt>
 <trkpt lat="50.601887900" lon="6.416999100"><ele>286</ele><time>2013-07-05T11:02:07Z</time></trkpt>
 <trkpt lat="50.601848300" lon="6.417015800"><ele>286</ele><time>2013-07-05T11:02:11Z</time></trkpt>
 <trkpt lat="50.601796600" lon="6.417040800"><ele>287</ele><time>2013-07-05T11:02:15Z</time></trkpt>
 <trkpt lat="50.601762000" lon="6.417049100"><ele>287</ele><time>2013-07-05T11:02:19Z</time></trkpt>
 <trkpt lat="50.601737000" lon="6.417040800"><ele>287</ele><time>2013-07-05T11:02:23Z</time></trkpt>
 <trkpt lat="50.601709100" lon="6.417039100"><ele>288</ele><time>2013-07-05T11:02:27Z</time></trkpt>
 <trkpt lat="50.601681600" lon="6.417044500"><ele>288</ele><time>2013-07-05T11:02:31Z</time></trkpt>
 <trkpt lat="50.601663700" lon="6.417071600"><ele>289</ele><time>2013-07-05T11:02:35Z</time></trkpt>
 <trkpt lat="50.601658300" lon="6.417078300"><ele>289</ele><time>2013-07-05T11:02:39Z</time></trkpt>
 <trkpt lat="50.601658300" lon="6.417078300"><ele>289</ele><time>2013-07-05T11:02:43Z</time></trkpt>
 <trkpt lat="50.601662400" lon="6.417085800"><ele>290</ele><time>2013-07-05T11:02:47Z</time></trkpt>
 <trkpt lat="50.601662400" lon="6.417085800"><ele>290</ele><time>2013-07-05T11:02:51Z</time></trkpt>
 <trkpt lat="50.601623300" lon="6.417074900"><ele>291</ele><time>2013-07-05T11:02:55Z</time></trkpt>
 <trkpt lat="50.601585800" lon="6.417070400"><ele>291</ele><time>2013-07-05T11:02:59Z</time></trkpt>
 <trkpt lat="50.601546200" lon="6.417057000"><ele>292</ele><time>2013-07-05T11:03:03Z</time></trkpt>
 <trkpt lat="50.601518700" lon="6.417064900"><ele>292</ele><time>2013-07-05T11:03:07Z</time></trkpt>
 <trkpt lat="50.601494100" lon="6.417053700"><ele>292</ele><time>2013-07-05T11:03:11Z</time></trkpt>
 <trkpt lat="50.601488700" lon="6.417047900"><ele>293</ele><time>2013-07-05T11:03:15Z</time></trkpt>
 <trkpt lat="50.601494100" lon="6.417079100"><ele>293</ele><time>2013-07-05T11:03:19Z</time></trkpt>
 <trkpt lat="50.601497000" lon="6.417088700"><ele>294</ele><time>2013-07-05T11:03:23Z</time></trkpt>
 <trkpt lat="50.601499100" lon="6.417080800"><ele>294</ele><time>2013-07-05T11:03:27Z</time></trkpt>
 <trkpt lat="50.601500300" lon="6.417072400"><ele>294</ele><time>2013-07-05T11:03:31Z</time></trkpt>
 <trkpt lat="50.601494900" lon="6.417070000"><ele>295</ele><time>2013-07-05T11:03:35Z</time></trkpt>
 <trkpt lat="50.601494900" lon="6.417070000"><ele>295</ele><time>2013-07-05T11:03:39Z</time></trkpt>
 <trkpt lat="50.601469100" lon="6.417053700"><ele>296</ele><time>2013-07-05T11:03:43Z</time></trkpt>
 <trkpt lat="50.601435800" lon="6.417039100"><ele>296</ele><time>2013-07-05T11:03:47Z</time></trkpt>
 <trkpt lat="50.601404900" lon="6.417037800"><ele>297</ele><time>2013-07-05T11:03:51Z</time></trkpt>
 <trkpt lat="50.601368700" lon="6.417050800"><ele>297</ele><time>2013-07-05T11:03:55Z</time></trkpt>
 <trkpt lat="50.601326200" lon="6.417059900"><ele>297</ele><time>2013-07-05T11:03:59Z</time></trkpt>
 <trkpt lat="50.601294900" lon="6.417062800"><ele>298</ele><time>2013-07-05T11:04:03Z</time></trkpt>
 <trkpt lat="50.601267500" lon="6.417062000"><ele>298</ele><time>2013-07-05T11:04:07Z</time></trkpt>
 <trkpt lat="50.601243700" lon="6.417071600"><ele>299</ele><time>2013-07-05T11:04:11Z</time></trkpt>
 <trkpt lat="50.601217400" lon="6.417078700"><ele>299</ele><time>2013-07-05T11:04:15Z</time></trkpt>
 <trkpt lat="50.601182400" lon="6.417081600"><ele>299</ele><time>2013-07-05T11:04:19Z</time></trkpt>
 <trkpt lat="50.601150300" lon="6.417096200"><ele>300</ele><time>2013-07-05T11:04:23Z</time></trkpt>
 <trkpt lat="50.601124900" lon="6.417098300"><ele>300</ele><time>2013-07-05T11:04:27Z</time></trkpt>
 <trkpt lat="50.601125300" lon="6.417104500"><ele>301</ele><time>2013-07-05T11:04:31Z</time></trkpt>
 <trkpt lat="50.601137800" lon="6.417094100"><ele>301</ele><time>2013-07-05T11:04:35Z</time></trkpt>
 <trkpt lat="50.601149100" lon="6.417077800"><ele>301</ele><time>2013-07-05T11:04:39Z</time></trkpt>
 <trkpt lat="50.601155800" lon="6.417078300"><ele>301</ele><time>2013-07-05T11:04:43Z</time></trkpt>
 <trkpt lat="50.601162400" lon="6.417077800"><ele>302</ele><time>2013-07-05T11:04:47Z</time></trkpt>
 <trkpt lat="50.601162400" lon="6.417077800"><ele>302</ele><time>2013-07-05T11:04:51Z</time></trkpt>
 <trkpt lat="50.601167400" lon="6.417074100"><ele>302</ele><time>2013-07-05T11:04:55Z</time></trkpt>
 <trkpt lat="50.601167400" lon="6.417074100"><ele>302</ele><time>2013-07-05T11:04:59Z</time></trkpt>
 <trkpt lat="50.601159100" lon="6.417071200"><ele>303</ele><time>2013-07-05T11:05:03Z</time></trkpt>
 <trkpt lat="50.601130800" lon="6.417077000"><ele>303</ele><time>2013-07-05T11:05:07Z</time></trkpt>
 <trkpt lat="50.601097000" lon="6.417082400"><ele>303</ele><time>2013-07-05T11:05:11Z</time></trkpt>
 <trkpt lat="50.601059900" lon="6.417074500"><ele>304</ele><time>2013-07-05T11:05:15Z</time></trkpt>
 <trkpt lat="50.601023700" lon="6.417065800"><ele>304</ele><time>2013-07-05T11:05:19Z</time></trkpt>
 <trkpt lat="50.600992400" lon="6.417061600"><ele>304</ele><time>2013-07-05T11:05:23Z</time></trkpt>
 <trkpt lat="50.600974100" lon="6.417053700"><ele>305</ele><time>2013-07-05T11:05:27Z</time></trkpt>
 <trkpt lat="50.600949500" lon="6.417054900"><ele>305</ele><time>2013-07-05T11:05:31Z</time></trkpt>
 <trkpt lat="50.600918700" lon="6.417056200"><ele>305</ele><time>2013-07-05T11:05:35Z</time></trkpt>
 <trkpt lat="50.600889100" lon="6.417051200"><ele>306</ele><time>2013-07-05T11:05:39Z</time></trkpt>
 <trkpt lat="50.600862900" lon="6.417064500"><ele>306</ele><time>2013-07-05T11:05:43Z</time></trkpt>
 <trkpt lat="50.600829900" lon="6.417065400"><ele>307</ele><time>2013-07-05T11:05:47Z</time></trkpt>
 <trkpt lat="50.600808700" lon="6.417057000"><ele>307</ele><time>2013-07-05T11:05:51Z</time></trkpt>
 <trkpt lat="50.600808700" lon="6.417057000"><ele>308</ele><time>2013-07-05T11:05:55Z</time></trkpt>
 <trkpt lat="50.600808700" lon="6.417057000"><ele>308</ele><time>2013-07-05T11:05:59Z</time></trkpt>
 <trkpt lat="50.600808700" lon="6.417057000"><ele>308</ele><time>2013-07-05T11:06:03Z</time></trkpt>
 <trkpt lat="50.600808700" lon="6.417057000"><ele>309</ele><time>2013-07-05T11:06:07Z</time></trkpt>
 <trkpt lat="50.600808700" lon="6.417057000"><ele>309</ele><time>2013-07-05T11:06:11Z</time></trkpt>
 <trkpt lat="50.600804100" lon="6.417062800"><ele>309</ele><time>2013-07-05T11:06:15Z</time></trkpt>
 <trkpt lat="50.600803300" lon="6.417071600"><ele>309</ele><time>2013-07-05T11:06:19Z</time></trkpt>
 <trkpt lat="50.600799100" lon="6.417092000"><ele>310</ele><time>2013-07-05T11:06:23Z</time></trkpt>
 <trkpt lat="50.600771600" lon="6.417087400"><ele>310</ele><time>2013-07-05T11:06:27Z</time></trkpt>
 <trkpt lat="50.600721600" lon="6.417098700"><ele>310</ele><time>2013-07-05T11:06:31Z</time></trkpt>
 <trkpt lat="50.600691600" lon="6.417101600"><ele>310</ele><time>2013-07-05T11:06:35Z</time></trkpt>
 <trkpt lat="50.600667800" lon="6.417099100"><ele>311</ele><time>2013-07-05T11:06:39Z</time></trkpt>
 <trkpt lat="50.600642000" lon="6.417074900"><ele>311</ele><time>2013-07-05T11:06:43Z</time></trkpt>
 <trkpt lat="50.600612900" lon="6.417032000"><ele>311</ele><time>2013-07-05T11:06:47Z</time></trkpt>
 <trkpt lat="50.600570800" lon="6.416974100"><ele>312</ele><time>2013-07-05T11:06:51Z</time></trkpt>
 <trkpt lat="50.600520400" lon="6.416915800"><ele>312</ele><time>2013-07-05T11:06:55Z</time></trkpt>
 <trkpt lat="50.600497800" lon="6.416877800"><ele>312</ele><time>2013-07-05T11:06:59Z</time></trkpt>
 <trkpt lat="50.600483300" lon="6.416824100"><ele>313</ele><time>2013-07-05T11:07:03Z</time></trkpt>
 <trkpt lat="50.600459500" lon="6.416766600"><ele>313</ele><time>2013-07-05T11:07:07Z</time></trkpt>
 <trkpt lat="50.600437400" lon="6.416714500"><ele>314</ele><time>2013-07-05T11:07:11Z</time></trkpt>
 <trkpt lat="50.600418700" lon="6.416647000"><ele>314</ele><time>2013-07-05T11:07:15Z</time></trkpt>
 <trkpt lat="50.600409100" lon="6.416632000"><ele>315</ele><time>2013-07-05T11:07:19Z</time></trkpt>
 <trkpt lat="50.600404100" lon="6.416637800"><ele>315</ele><time>2013-07-05T11:07:23Z</time></trkpt>
 <trkpt lat="50.600398700" lon="6.416631600"><ele>315</ele><time>2013-07-05T11:07:27Z</time></trkpt>
 <trkpt lat="50.600403700" lon="6.416652400"><ele>316</ele><time>2013-07-05T11:07:31Z</time></trkpt>
 <trkpt lat="50.600398300" lon="6.416692800"><ele>316</ele><time>2013-07-05T11:07:35Z</time></trkpt>
 <trkpt lat="50.600388300" lon="6.416726600"><ele>317</ele><time>2013-07-05T11:07:39Z</time></trkpt>
 <trkpt lat="50.600393700" lon="6.416758700"><ele>317</ele><time>2013-07-05T11:07:43Z</time></trkpt>
 <trkpt lat="50.600406200" lon="6.416791200"><ele>318</ele><time>2013-07-05T11:07:47Z</time></trkpt>
 <trkpt lat="50.600419500" lon="6.416830300"><ele>318</ele><time>2013-07-05T11:07:51Z</time></trkpt>
 <trkpt lat="50.600433300" lon="6.416870300"><ele>319</ele><time>2013-07-05T11:07:55Z</time></trkpt>
 <trkpt lat="50.600444100" lon="6.416929900"><ele>319</ele><time>2013-07-05T11:07:59Z</time></trkpt>
 <trkpt lat="50.600464500" lon="6.416974500"><ele>320</ele><time>2013-07-05T11:08:03Z</time></trkpt>
 <trkpt lat="50.600484900" lon="6.417025300"><ele>320</ele><time>2013-07-05T11:08:07Z</time></trkpt>
 <trkpt lat="50.600504500" lon="6.417082400"><ele>321</ele><time>2013-07-05T11:08:11Z</time></trkpt>
 <trkpt lat="50.600529100" lon="6.417134100"><ele>321</ele><time>2013-07-05T11:08:15Z</time></trkpt>
 <trkpt lat="50.600567900" lon="6.417174900"><ele>322</ele><time>2013-07-05T11:08:19Z</time></trkpt>
 <trkpt lat="50.600607000" lon="6.417252400"><ele>322</ele><time>2013-07-05T11:08:23Z</time></trkpt>
 <trkpt lat="50.600621200" lon="6.417322800"><ele>323</ele><time>2013-07-05T11:08:27Z</time></trkpt>
 <trkpt lat="50.600651200" lon="6.417351600"><ele>323</ele><time>2013-07-05T11:08:31Z</time></trkpt>
 <trkpt lat="50.600677800" lon="6.417366600"><ele>324</ele><time>2013-07-05T11:08:35Z</time></trkpt>
 <trkpt lat="50.600710800" lon="6.417381600"><ele>324</ele><time>2013-07-05T11:08:39Z</time></trkpt>
 <trkpt lat="50.600742800" lon="6.417400300"><ele>325</ele><time>2013-07-05T11:08:43Z</time></trkpt>
 <trkpt lat="50.600769900" lon="6.417427400"><ele>326</ele><time>2013-07-05T11:08:47Z</time></trkpt>
 <trkpt lat="50.600794500" lon="6.417460700"><ele>326</ele><time>2013-07-05T11:08:51Z</time></trkpt>
 <trkpt lat="50.600803300" lon="6.417479500"><ele>327</ele><time>2013-07-05T11:08:55Z</time></trkpt>
 <trkpt lat="50.600808700" lon="6.417501600"><ele>328</ele><time>2013-07-05T11:08:59Z</time></trkpt>
 <trkpt lat="50.600833700" lon="6.417527800"><ele>329</ele><time>2013-07-05T11:09:03Z</time></trkpt>
 <trkpt lat="50.600859100" lon="6.417549500"><ele>329</ele><time>2013-07-05T11:09:07Z</time></trkpt>
 <trkpt lat="50.600896600" lon="6.417574500"><ele>330</ele><time>2013-07-05T11:09:11Z</time></trkpt>
 <trkpt lat="50.600923300" lon="6.417603300"><ele>331</ele><time>2013-07-05T11:09:15Z</time></trkpt>
 <trkpt lat="50.600953700" lon="6.417626200"><ele>332</ele><time>2013-07-05T11:09:19Z</time></trkpt>
 <trkpt lat="50.600985700" lon="6.417646600"><ele>333</ele><time>2013-07-05T11:09:23Z</time></trkpt>
 <trkpt lat="50.601009500" lon="6.417694900"><ele>334</ele><time>2013-07-05T11:09:27Z</time></trkpt>
 <trkpt lat="50.601022400" lon="6.417721600"><ele>335</ele><time>2013-07-05T11:09:31Z</time></trkpt>
 <trkpt lat="50.601055700" lon="6.417729500"><ele>335</ele><time>2013-07-05T11:09:35Z</time></trkpt>
 <trkpt lat="50.601089100" lon="6.417732800"><ele>336</ele><time>2013-07-05T11:09:39Z</time></trkpt>
 <trkpt lat="50.601129500" lon="6.417728700"><ele>337</ele><time>2013-07-05T11:09:43Z</time></trkpt>
 <trkpt lat="50.601168300" lon="6.417729100"><ele>338</ele><time>2013-07-05T11:09:47Z</time></trkpt>
 <trkpt lat="50.601190300" lon="6.417735400"><ele>338</ele><time>2013-07-05T11:09:51Z</time></trkpt>
 <trkpt lat="50.601190300" lon="6.417735400"><ele>339</ele><time>2013-07-05T11:09:55Z</time></trkpt>
 <trkpt lat="50.601195400" lon="6.417732400"><ele>339</ele><time>2013-07-05T11:09:59Z</time></trkpt>
 <trkpt lat="50.601195400" lon="6.417732400"><ele>340</ele><time>2013-07-05T11:10:03Z</time></trkpt>
 <trkpt lat="50.601195400" lon="6.417732400"><ele>340</ele><time>2013-07-05T11:10:07Z</time></trkpt>
 <trkpt lat="50.601195400" lon="6.417732400"><ele>341</ele><time>2013-07-05T11:10:11Z</time></trkpt>
 <trkpt lat="50.601182800" lon="6.417728300"><ele>341</ele><time>2013-07-05T11:10:15Z</time></trkpt>
 <trkpt lat="50.601178700" lon="6.417721600"><ele>341</ele><time>2013-07-05T11:10:19Z</time></trkpt>
 <trkpt lat="50.601184100" lon="6.417712400"><ele>341</ele><time>2013-07-05T11:10:23Z</time></trkpt>
 <trkpt lat="50.601190800" lon="6.417713300"><ele>342</ele><time>2013-07-05T11:10:27Z</time></trkpt>
 <trkpt lat="50.601190800" lon="6.417713300"><ele>342</ele><time>2013-07-05T11:10:31Z</time></trkpt>
 <trkpt lat="50.601192400" lon="6.417696200"><ele>342</ele><time>2013-07-05T11:10:35Z</time></trkpt>
 <trkpt lat="50.601199100" lon="6.417712900"><ele>342</ele><time>2013-07-05T11:10:39Z</time></trkpt>
 <trkpt lat="50.601199100" lon="6.417712900"><ele>342</ele><time>2013-07-05T11:10:43Z</time></trkpt>
 <trkpt lat="50.601200300" lon="6.417721200"><ele>342</ele><time>2013-07-05T11:10:47Z</time></trkpt>
 <trkpt lat="50.601200800" lon="6.417712000"><ele>342</ele><time>2013-07-05T11:10:51Z</time></trkpt>
 <trkpt lat="50.601199500" lon="6.417703700"><ele>343</ele><time>2013-07-05T11:10:55Z</time></trkpt>
 <trkpt lat="50.601199500" lon="6.417703700"><ele>343</ele><time>2013-07-05T11:10:59Z</time></trkpt>
 <trkpt lat="50.601197400" lon="6.417693700"><ele>343</ele><time>2013-07-05T11:11:03Z</time></trkpt>
 <trkpt lat="50.601197400" lon="6.417693700"><ele>343</ele><time>2013-07-05T11:11:07Z</time></trkpt>
 <trkpt lat="50.601194500" lon="6.417702000"><ele>343</ele><time>2013-07-05T11:11:11Z</time></trkpt>
 <trkpt lat="50.601194500" lon="6.417702000"><ele>343</ele><time>2013-07-05T11:11:15Z</time></trkpt>
 <trkpt lat="50.601201200" lon="6.417703700"><ele>343</ele><time>2013-07-05T11:11:19Z</time></trkpt>
 <trkpt lat="50.601201200" lon="6.417703700"><ele>343</ele><time>2013-07-05T11:11:23Z</time></trkpt>
 <trkpt lat="50.601195300" lon="6.417704500"><ele>343</ele><time>2013-07-05T11:11:27Z</time></trkpt>
 <trkpt lat="50.601181600" lon="6.417708700"><ele>343</ele><time>2013-07-05T11:11:31Z</time></trkpt>
 <trkpt lat="50.601175300" lon="6.417706600"><ele>343</ele><time>2013-07-05T11:11:35Z</time></trkpt>
 <trkpt lat="50.601162000" lon="6.417735300"><ele>343</ele><time>2013-07-05T11:11:39Z</time></trkpt>
 <trkpt lat="50.601157000" lon="6.417746200"><ele>343</ele><time>2013-07-05T11:11:43Z</time></trkpt>
 <trkpt lat="50.601152000" lon="6.417751600"><ele>343</ele><time>2013-07-05T11:11:47Z</time></trkpt>
 <trkpt lat="50.601152000" lon="6.417751600"><ele>343</ele><time>2013-07-05T11:11:51Z</time></trkpt>
 <trkpt lat="50.601154100" lon="6.417759900"><ele>343</ele><time>2013-07-05T11:11:55Z</time></trkpt>
 <trkpt lat="50.601149100" lon="6.417763700"><ele>343</ele><time>2013-07-05T11:11:59Z</time></trkpt>
 <trkpt lat="50.601149100" lon="6.417763700"><ele>343</ele><time>2013-07-05T11:12:03Z</time></trkpt>
 <trkpt lat="50.601145400" lon="6.417755800"><ele>343</ele><time>2013-07-05T11:12:07Z</time></trkpt>
 <trkpt lat="50.601156200" lon="6.417742800"><ele>343</ele><time>2013-07-05T11:12:11Z</time></trkpt>
 <trkpt lat="50.601158700" lon="6.417733700"><ele>343</ele><time>2013-07-05T11:12:15Z</time></trkpt>
 <trkpt lat="50.601158700" lon="6.417733700"><ele>343</ele><time>2013-07-05T11:12:19Z</time></trkpt>
 <trkpt lat="50.601158700" lon="6.417733700"><ele>343</ele><time>2013-07-05T11:12:23Z</time></trkpt>
 <trkpt lat="50.601136200" lon="6.417732400"><ele>343</ele><time>2013-07-05T11:12:27Z</time></trkpt>
 <trkpt lat="50.601117400" lon="6.417734900"><ele>343</ele><time>2013-07-05T11:12:31Z</time></trkpt>
 <trkpt lat="50.601118700" lon="6.417724900"><ele>343</ele><time>2013-07-05T11:12:35Z</time></trkpt>
 <trkpt lat="50.601119500" lon="6.417714500"><ele>343</ele><time>2013-07-05T11:12:39Z</time></trkpt>
 <trkpt lat="50.601119500" lon="6.417714500"><ele>343</ele><time>2013-07-05T11:12:43Z</time></trkpt>
 <trkpt lat="50.601129100" lon="6.417707800"><ele>343</ele><time>2013-07-05T11:12:47Z</time></trkpt>
 <trkpt lat="50.601126600" lon="6.417717400"><ele>343</ele><time>2013-07-05T11:12:51Z</time></trkpt>
 <trkpt lat="50.601086600" lon="6.417719100"><ele>343</ele><time>2013-07-05T11:12:55Z</time></trkpt>
 <trkpt lat="50.601050800" lon="6.417730800"><ele>343</ele><time>2013-07-05T11:12:59Z</time></trkpt>
 <trkpt lat="50.601010800" lon="6.417730300"><ele>343</ele><time>2013-07-05T11:13:03Z</time></trkpt>
 <trkpt lat="50.600973700" lon="6.417707800"><ele>343</ele><time>2013-07-05T11:13:07Z</time></trkpt>
 <trkpt lat="50.600937400" lon="6.417697000"><ele>343</ele><time>2013-07-05T11:13:11Z</time></trkpt>
 <trkpt lat="50.600905800" lon="6.417692000"><ele>343</ele><time>2013-07-05T11:13:15Z</time></trkpt>
 <trkpt lat="50.600872000" lon="6.417690800"><ele>343</ele><time>2013-07-05T11:13:19Z</time></trkpt>
 <trkpt lat="50.600844100" lon="6.417697900"><ele>343</ele><time>2013-07-05T11:13:23Z</time></trkpt>
 <trkpt lat="50.600806200" lon="6.417695800"><ele>343</ele><time>2013-07-05T11:13:27Z</time></trkpt>
 <trkpt lat="50.600757000" lon="6.417701600"><ele>343</ele><time>2013-07-05T11:13:31Z</time></trkpt>
 <trkpt lat="50.600707900" lon="6.417697400"><ele>343</ele><time>2013-07-05T11:13:35Z</time></trkpt>
 <trkpt lat="50.600657800" lon="6.417690400"><ele>343</ele><time>2013-07-05T11:13:39Z</time></trkpt>
 <trkpt lat="50.600614900" lon="6.417682000"><ele>344</ele><time>2013-07-05T11:13:43Z</time></trkpt>
 <trkpt lat="50.600571200" lon="6.417670800"><ele>344</ele><time>2013-07-05T11:13:47Z</time></trkpt>
 <trkpt lat="50.600538700" lon="6.417689500"><ele>344</ele><time>2013-07-05T11:13:51Z</time></trkpt>
 <trkpt lat="50.600500400" lon="6.417695400"><ele>344</ele><time>2013-07-05T11:13:55Z</time></trkpt>
 <trkpt lat="50.600462000" lon="6.417707000"><ele>344</ele><time>2013-07-05T11:13:59Z</time></trkpt>
 <trkpt lat="50.600420700" lon="6.417734900"><ele>345</ele><time>2013-07-05T11:14:03Z</time></trkpt>
 <trkpt lat="50.600371600" lon="6.417766200"><ele>345</ele><time>2013-07-05T11:14:07Z</time></trkpt>
 <trkpt lat="50.600327800" lon="6.417794500"><ele>345</ele><time>2013-07-05T11:14:11Z</time></trkpt>
 <trkpt lat="50.600286600" lon="6.417839900"><ele>346</ele><time>2013-07-05T11:14:15Z</time></trkpt>
 <trkpt lat="50.600251200" lon="6.417884500"><ele>346</ele><time>2013-07-05T11:14:19Z</time></trkpt>
 <trkpt lat="50.600219900" lon="6.417912000"><ele>347</ele><time>2013-07-05T11:14:23Z</time></trkpt>
 <trkpt lat="50.600202900" lon="6.417943300"><ele>347</ele><time>2013-07-05T11:14:27Z</time></trkpt>
 <trkpt lat="50.600172000" lon="6.417977400"><ele>347</ele><time>2013-07-05T11:14:31Z</time></trkpt>
 <trkpt lat="50.600144100" lon="6.418021600"><ele>348</ele><time>2013-07-05T11:14:35Z</time></trkpt>
 <trkpt lat="50.600099900" lon="6.418067800"><ele>348</ele><time>2013-07-05T11:14:39Z</time></trkpt>
 <trkpt lat="50.600060400" lon="6.418112400"><ele>349</ele><time>2013-07-05T11:14:43Z</time></trkpt>
 <trkpt lat="50.600032400" lon="6.418152900"><ele>349</ele><time>2013-07-05T11:14:47Z</time></trkpt>
 <trkpt lat="50.600004100" lon="6.418189500"><ele>350</ele><time>2013-07-05T11:14:51Z</time></trkpt>
 <trkpt lat="50.599982500" lon="6.418235300"><ele>351</ele><time>2013-07-05T11:14:55Z</time></trkpt>
 <trkpt lat="50.599958700" lon="6.418281200"><ele>351</ele><time>2013-07-05T11:14:59Z</time></trkpt>
 <trkpt lat="50.599925300" lon="6.418346600"><ele>352</ele><time>2013-07-05T11:15:03Z</time></trkpt>
 <trkpt lat="50.599911200" lon="6.418392400"><ele>352</ele><time>2013-07-05T11:15:07Z</time></trkpt>
 <trkpt lat="50.599897000" lon="6.418449100"><ele>353</ele><time>2013-07-05T11:15:11Z</time></trkpt>
 <trkpt lat="50.599870400" lon="6.418503700"><ele>354</ele><time>2013-07-05T11:15:15Z</time></trkpt>
 <trkpt lat="50.599827000" lon="6.418573200"><ele>354</ele><time>2013-07-05T11:15:19Z</time></trkpt>
 <trkpt lat="50.599790300" lon="6.418637900"><ele>355</ele><time>2013-07-05T11:15:23Z</time></trkpt>
 <trkpt lat="50.599770800" lon="6.418675300"><ele>356</ele><time>2013-07-05T11:15:27Z</time></trkpt>
 <trkpt lat="50.599746600" lon="6.418699900"><ele>357</ele><time>2013-07-05T11:15:31Z</time></trkpt>
 <trkpt lat="50.599720400" lon="6.418728700"><ele>357</ele><time>2013-07-05T11:15:35Z</time></trkpt>
 <trkpt lat="50.599683700" lon="6.418759900"><ele>358</ele><time>2013-07-05T11:15:39Z</time></trkpt>
 <trkpt lat="50.599624900" lon="6.418806200"><ele>359</ele><time>2013-07-05T11:15:43Z</time></trkpt>
 <trkpt lat="50.599579900" lon="6.418832000"><ele>360</ele><time>2013-07-05T11:15:47Z</time></trkpt>
 <trkpt lat="50.599537400" lon="6.418857800"><ele>361</ele><time>2013-07-05T11:15:51Z</time></trkpt>
 <trkpt lat="50.599492500" lon="6.418877400"><ele>361</ele><time>2013-07-05T11:15:55Z</time></trkpt>
 <trkpt lat="50.599455800" lon="6.418873300"><ele>362</ele><time>2013-07-05T11:15:59Z</time></trkpt>
 <trkpt lat="50.599419100" lon="6.418874500"><ele>363</ele><time>2013-07-05T11:16:03Z</time></trkpt>
 <trkpt lat="50.599375800" lon="6.418887400"><ele>364</ele><time>2013-07-05T11:16:07Z</time></trkpt>
 <trkpt lat="50.599342400" lon="6.418896200"><ele>365</ele><time>2013-07-05T11:16:11Z</time></trkpt>
 <trkpt lat="50.599297000" lon="6.418891200"><ele>366</ele><time>2013-07-05T11:16:15Z</time></trkpt>
 <trkpt lat="50.599252400" lon="6.418887000"><ele>367</ele><time>2013-07-05T11:16:19Z</time></trkpt>
 <trkpt lat="50.599225300" lon="6.418895300"><ele>367</ele><time>2013-07-05T11:16:23Z</time></trkpt>
 <trkpt lat="50.599210700" lon="6.418911600"><ele>368</ele><time>2013-07-05T11:16:27Z</time></trkpt>
 <trkpt lat="50.599198300" lon="6.418924100"><ele>369</ele><time>2013-07-05T11:16:31Z</time></trkpt>
 <trkpt lat="50.599198300" lon="6.418924100"><ele>369</ele><time>2013-07-05T11:16:35Z</time></trkpt>
 <trkpt lat="50.599183700" lon="6.418924900"><ele>370</ele><time>2013-07-05T11:16:39Z</time></trkpt>
 <trkpt lat="50.599149500" lon="6.418939900"><ele>370</ele><time>2013-07-05T11:16:43Z</time></trkpt>
 <trkpt lat="50.599122000" lon="6.418949900"><ele>371</ele><time>2013-07-05T11:16:47Z</time></trkpt>
 <trkpt lat="50.599097400" lon="6.418960300"><ele>371</ele><time>2013-07-05T11:16:51Z</time></trkpt>
 <trkpt lat="50.599070300" lon="6.418976200"><ele>372</ele><time>2013-07-05T11:16:55Z</time></trkpt>
 <trkpt lat="50.599037400" lon="6.418999500"><ele>372</ele><time>2013-07-05T11:16:59Z</time></trkpt>
 <trkpt lat="50.599000800" lon="6.419003700"><ele>372</ele><time>2013-07-05T11:17:03Z</time></trkpt>
 <trkpt lat="50.598972500" lon="6.419014100"><ele>372</ele><time>2013-07-05T11:17:07Z</time></trkpt>
 <trkpt lat="50.598941200" lon="6.419033700"><ele>372</ele><time>2013-07-05T11:17:11Z</time></trkpt>
 <trkpt lat="50.598902400" lon="6.419063700"><ele>372</ele><time>2013-07-05T11:17:15Z</time></trkpt>
 <trkpt lat="50.598864100" lon="6.419084100"><ele>372</ele><time>2013-07-05T11:17:19Z</time></trkpt>
 <trkpt lat="50.598831600" lon="6.419091600"><ele>372</ele><time>2013-07-05T11:17:23Z</time></trkpt>
 <trkpt lat="50.598795800" lon="6.419091200"><ele>373</ele><time>2013-07-05T11:17:27Z</time></trkpt>
 <trkpt lat="50.598764500" lon="6.419084900"><ele>373</ele><time>2013-07-05T11:17:31Z</time></trkpt>
 <trkpt lat="50.598738700" lon="6.419087800"><ele>373</ele><time>2013-07-05T11:17:35Z</time></trkpt>
 <trkpt lat="50.598698700" lon="6.419095800"><ele>373</ele><time>2013-07-05T11:17:39Z</time></trkpt>
 <trkpt lat="50.598662800" lon="6.419098300"><ele>373</ele><time>2013-07-05T11:17:43Z</time></trkpt>
 <trkpt lat="50.598601200" lon="6.419085800"><ele>373</ele><time>2013-07-05T11:17:47Z</time></trkpt>
 <trkpt lat="50.598567000" lon="6.419104100"><ele>373</ele><time>2013-07-05T11:17:51Z</time></trkpt>
 <trkpt lat="50.598530800" lon="6.419124100"><ele>373</ele><time>2013-07-05T11:17:55Z</time></trkpt>
 <trkpt lat="50.598501200" lon="6.419149500"><ele>373</ele><time>2013-07-05T11:17:59Z</time></trkpt>
 <trkpt lat="50.598477800" lon="6.419168700"><ele>373</ele><time>2013-07-05T11:18:03Z</time></trkpt>
 <trkpt lat="50.598451200" lon="6.419194100"><ele>373</ele><time>2013-07-05T11:18:07Z</time></trkpt>
 <trkpt lat="50.598406200" lon="6.419221200"><ele>373</ele><time>2013-07-05T11:18:11Z</time></trkpt>
 <trkpt lat="50.598364100" lon="6.419249900"><ele>373</ele><time>2013-07-05T11:18:15Z</time></trkpt>
 <trkpt lat="50.598314100" lon="6.419273700"><ele>373</ele><time>2013-07-05T11:18:19Z</time></trkpt>
 <trkpt lat="50.598258700" lon="6.419270800"><ele>373</ele><time>2013-07-05T11:18:23Z</time></trkpt>
 <trkpt lat="50.598215800" lon="6.419271600"><ele>373</ele><time>2013-07-05T11:18:27Z</time></trkpt>
 <trkpt lat="50.598175300" lon="6.419272400"><ele>373</ele><time>2013-07-05T11:18:31Z</time></trkpt>
 <trkpt lat="50.598132000" lon="6.419279900"><ele>374</ele><time>2013-07-05T11:18:35Z</time></trkpt>
 <trkpt lat="50.598091200" lon="6.419277000"><ele>374</ele><time>2013-07-05T11:18:39Z</time></trkpt>
 <trkpt lat="50.598039500" lon="6.419262900"><ele>374</ele><time>2013-07-05T11:18:43Z</time></trkpt>
 <trkpt lat="50.597978700" lon="6.419245800"><ele>375</ele><time>2013-07-05T11:18:47Z</time></trkpt>
 <trkpt lat="50.597927000" lon="6.419244100"><ele>375</ele><time>2013-07-05T11:18:51Z</time></trkpt>
 <trkpt lat="50.597883300" lon="6.419227000"><ele>376</ele><time>2013-07-05T11:18:55Z</time></trkpt>
 <trkpt lat="50.597844900" lon="6.419217000"><ele>377</ele><time>2013-07-05T11:18:59Z</time></trkpt>
 <trkpt lat="50.597807400" lon="6.419219100"><ele>377</ele><time>2013-07-05T11:19:03Z</time></trkpt>
 <trkpt lat="50.597765800" lon="6.419227900"><ele>378</ele><time>2013-07-05T11:19:07Z</time></trkpt>
 <trkpt lat="50.597729500" lon="6.419232400"><ele>379</ele><time>2013-07-05T11:19:11Z</time></trkpt>
 <trkpt lat="50.597694100" lon="6.419243700"><ele>380</ele><time>2013-07-05T11:19:15Z</time></trkpt>
 <trkpt lat="50.597655400" lon="6.419263700"><ele>381</ele><time>2013-07-05T11:19:19Z</time></trkpt>
 <trkpt lat="50.597616600" lon="6.419267800"><ele>382</ele><time>2013-07-05T11:19:23Z</time></trkpt>
 <trkpt lat="50.597580800" lon="6.419275400"><ele>383</ele><time>2013-07-05T11:19:27Z</time></trkpt>
 <trkpt lat="50.597525800" lon="6.419264500"><ele>385</ele><time>2013-07-05T11:19:31Z</time></trkpt>
 <trkpt lat="50.597475300" lon="6.419265800"><ele>386</ele><time>2013-07-05T11:19:35Z</time></trkpt>
 <trkpt lat="50.597438700" lon="6.419265800"><ele>387</ele><time>2013-07-05T11:19:39Z</time></trkpt>
 <trkpt lat="50.597397400" lon="6.419259900"><ele>388</ele><time>2013-07-05T11:19:43Z</time></trkpt>
 <trkpt lat="50.597358200" lon="6.419257400"><ele>389</ele><time>2013-07-05T11:19:47Z</time></trkpt>
 <trkpt lat="50.597319500" lon="6.419263300"><ele>391</ele><time>2013-07-05T11:19:51Z</time></trkpt>
 <trkpt lat="50.597282400" lon="6.419242400"><ele>392</ele><time>2013-07-05T11:19:55Z</time></trkpt>
 <trkpt lat="50.597241200" lon="6.419206600"><ele>393</ele><time>2013-07-05T11:19:59Z</time></trkpt>
 <trkpt lat="50.597194900" lon="6.419152800"><ele>394</ele><time>2013-07-05T11:20:03Z</time></trkpt>
 <trkpt lat="50.597166600" lon="6.419134500"><ele>395</ele><time>2013-07-05T11:20:07Z</time></trkpt>
 <trkpt lat="50.597118300" lon="6.419120300"><ele>397</ele><time>2013-07-05T11:20:11Z</time></trkpt>
 <trkpt lat="50.597075800" lon="6.419091200"><ele>398</ele><time>2013-07-05T11:20:15Z</time></trkpt>
 <trkpt lat="50.597042800" lon="6.419069100"><ele>399</ele><time>2013-07-05T11:20:19Z</time></trkpt>
 <trkpt lat="50.597013300" lon="6.419047400"><ele>400</ele><time>2013-07-05T11:20:23Z</time></trkpt>
 <trkpt lat="50.596985800" lon="6.419024100"><ele>401</ele><time>2013-07-05T11:20:27Z</time></trkpt>
 <trkpt lat="50.596956600" lon="6.419004500"><ele>401</ele><time>2013-07-05T11:20:31Z</time></trkpt>
 <trkpt lat="50.596951200" lon="6.419000700"><ele>402</ele><time>2013-07-05T11:20:35Z</time></trkpt>
 <trkpt lat="50.596952000" lon="6.419010800"><ele>403</ele><time>2013-07-05T11:20:39Z</time></trkpt>
 <trkpt lat="50.596951600" lon="6.419028700"><ele>404</ele><time>2013-07-05T11:20:43Z</time></trkpt>
 <trkpt lat="50.596946600" lon="6.419034500"><ele>404</ele><time>2013-07-05T11:20:47Z</time></trkpt>
 <trkpt lat="50.596942000" lon="6.419039100"><ele>405</ele><time>2013-07-05T11:20:51Z</time></trkpt>
 <trkpt lat="50.596941600" lon="6.419050300"><ele>405</ele><time>2013-07-05T11:20:55Z</time></trkpt>
 <trkpt lat="50.596941200" lon="6.419060800"><ele>405</ele><time>2013-07-05T11:20:59Z</time></trkpt>
 <trkpt lat="50.596942900" lon="6.419037400"><ele>406</ele><time>2013-07-05T11:21:03Z</time></trkpt>
 <trkpt lat="50.596893700" lon="6.419034500"><ele>406</ele><time>2013-07-05T11:21:07Z</time></trkpt>
 <trkpt lat="50.596840300" lon="6.419030300"><ele>406</ele><time>2013-07-05T11:21:11Z</time></trkpt>
 <trkpt lat="50.596790700" lon="6.419004500"><ele>406</ele><time>2013-07-05T11:21:15Z</time></trkpt>
 <trkpt lat="50.596746600" lon="6.418962000"><ele>406</ele><time>2013-07-05T11:21:19Z</time></trkpt>
 <trkpt lat="50.596713200" lon="6.418910700"><ele>406</ele><time>2013-07-05T11:21:23Z</time></trkpt>
 <trkpt lat="50.596674500" lon="6.418863700"><ele>406</ele><time>2013-07-05T11:21:27Z</time></trkpt>
 <trkpt lat="50.596642000" lon="6.418833300"><ele>406</ele><time>2013-07-05T11:21:31Z</time></trkpt>
 <trkpt lat="50.596616200" lon="6.418808300"><ele>406</ele><time>2013-07-05T11:21:35Z</time></trkpt>
 <trkpt lat="50.596592900" lon="6.418794100"><ele>405</ele><time>2013-07-05T11:21:39Z</time></trkpt>
 <trkpt lat="50.596567000" lon="6.418776600"><ele>405</ele><time>2013-07-05T11:21:43Z</time></trkpt>
 <trkpt lat="50.596537800" lon="6.418756200"><ele>405</ele><time>2013-07-05T11:21:47Z</time></trkpt>
 <trkpt lat="50.596509500" lon="6.418735800"><ele>405</ele><time>2013-07-05T11:21:51Z</time></trkpt>
 <trkpt lat="50.596491200" lon="6.418717400"><ele>405</ele><time>2013-07-05T11:21:55Z</time></trkpt>
 <trkpt lat="50.596484900" lon="6.418687400"><ele>405</ele><time>2013-07-05T11:21:59Z</time></trkpt>
 <trkpt lat="50.596483300" lon="6.418647800"><ele>404</ele><time>2013-07-05T11:22:03Z</time></trkpt>
 <trkpt lat="50.596449100" lon="6.418616200"><ele>404</ele><time>2013-07-05T11:22:07Z</time></trkpt>
 <trkpt lat="50.596415300" lon="6.418582000"><ele>404</ele><time>2013-07-05T11:22:11Z</time></trkpt>
 <trkpt lat="50.596380400" lon="6.418562800"><ele>404</ele><time>2013-07-05T11:22:15Z</time></trkpt>
 <trkpt lat="50.596351200" lon="6.418534100"><ele>403</ele><time>2013-07-05T11:22:19Z</time></trkpt>
 <trkpt lat="50.596305800" lon="6.418501600"><ele>403</ele><time>2013-07-05T11:22:23Z</time></trkpt>
 <trkpt lat="50.596252000" lon="6.418484100"><ele>403</ele><time>2013-07-05T11:22:27Z</time></trkpt>
 <trkpt lat="50.596210300" lon="6.418475300"><ele>402</ele><time>2013-07-05T11:22:31Z</time></trkpt>
 <trkpt lat="50.596174100" lon="6.418505300"><ele>402</ele><time>2013-07-05T11:22:35Z</time></trkpt>
 <trkpt lat="50.596131600" lon="6.418537400"><ele>401</ele><time>2013-07-05T11:22:39Z</time></trkpt>
 <trkpt lat="50.596101200" lon="6.418586200"><ele>401</ele><time>2013-07-05T11:22:43Z</time></trkpt>
 <trkpt lat="50.596077000" lon="6.418643300"><ele>401</ele><time>2013-07-05T11:22:47Z</time></trkpt>
 <trkpt lat="50.596070800" lon="6.418686200"><ele>400</ele><time>2013-07-05T11:22:51Z</time></trkpt>
 <trkpt lat="50.596066600" lon="6.418734100"><ele>400</ele><time>2013-07-05T11:22:55Z</time></trkpt>
 <trkpt lat="50.596054500" lon="6.418790800"><ele>399</ele><time>2013-07-05T11:22:59Z</time></trkpt>
 <trkpt lat="50.596028700" lon="6.418854500"><ele>399</ele><time>2013-07-05T11:23:03Z</time></trkpt>
 <trkpt lat="50.595995800" lon="6.418923300"><ele>398</ele><time>2013-07-05T11:23:07Z</time></trkpt>
 <trkpt lat="50.595968300" lon="6.418974900"><ele>398</ele><time>2013-07-05T11:23:11Z</time></trkpt>
 <trkpt lat="50.595984100" lon="6.419013700"><ele>397</ele><time>2013-07-05T11:23:15Z</time></trkpt>
 <trkpt lat="50.595983700" lon="6.419040800"><ele>397</ele><time>2013-07-05T11:23:19Z</time></trkpt>
 <trkpt lat="50.595974100" lon="6.419049900"><ele>397</ele><time>2013-07-05T11:23:23Z</time></trkpt>
 <trkpt lat="50.595964900" lon="6.419039100"><ele>396</ele><time>2013-07-05T11:23:27Z</time></trkpt>
 <trkpt lat="50.595961200" lon="6.419012800"><ele>396</ele><time>2013-07-05T11:23:31Z</time></trkpt>
 <trkpt lat="50.595977400" lon="6.419015300"><ele>396</ele><time>2013-07-05T11:23:35Z</time></trkpt>
 <trkpt lat="50.595974100" lon="6.419006200"><ele>396</ele><time>2013-07-05T11:23:39Z</time></trkpt>
 <trkpt lat="50.595974100" lon="6.419006200"><ele>395</ele><time>2013-07-05T11:23:43Z</time></trkpt>
 <trkpt lat="50.595974100" lon="6.419006200"><ele>395</ele><time>2013-07-05T11:23:47Z</time></trkpt>
 <trkpt lat="50.595974900" lon="6.418986200"><ele>395</ele><time>2013-07-05T11:23:51Z</time></trkpt>
 <trkpt lat="50.595974900" lon="6.418986200"><ele>395</ele><time>2013-07-05T11:23:55Z</time></trkpt>
 <trkpt lat="50.595974900" lon="6.418986200"><ele>395</ele><time>2013-07-05T11:23:59Z</time></trkpt>
 <trkpt lat="50.595968700" lon="6.419004100"><ele>395</ele><time>2013-07-05T11:24:03Z</time></trkpt>
 <trkpt lat="50.595957400" lon="6.419055400"><ele>395</ele><time>2013-07-05T11:24:07Z</time></trkpt>
 <trkpt lat="50.595934100" lon="6.419111600"><ele>395</ele><time>2013-07-05T11:24:11Z</time></trkpt>
 <trkpt lat="50.595889900" lon="6.419202000"><ele>395</ele><time>2013-07-05T11:24:15Z</time></trkpt>
 <trkpt lat="50.595848700" lon="6.419240800"><ele>395</ele><time>2013-07-05T11:24:19Z</time></trkpt>
 <trkpt lat="50.595819500" lon="6.419275400"><ele>395</ele><time>2013-07-05T11:24:23Z</time></trkpt>
 <trkpt lat="50.595798300" lon="6.419317400"><ele>396</ele><time>2013-07-05T11:24:27Z</time></trkpt>
 <trkpt lat="50.595772900" lon="6.419364900"><ele>396</ele><time>2013-07-05T11:24:31Z</time></trkpt>
 <trkpt lat="50.595742400" lon="6.419404900"><ele>396</ele><time>2013-07-05T11:24:35Z</time></trkpt>
 <trkpt lat="50.595714500" lon="6.419439500"><ele>396</ele><time>2013-07-05T11:24:39Z</time></trkpt>
 <trkpt lat="50.595684100" lon="6.419474900"><ele>396</ele><time>2013-07-05T11:24:43Z</time></trkpt>
 <trkpt lat="50.595649100" lon="6.419510800"><ele>396</ele><time>2013-07-05T11:24:47Z</time></trkpt>
 <trkpt lat="50.595615700" lon="6.419564100"><ele>396</ele><time>2013-07-05T11:24:51Z</time></trkpt>
 <trkpt lat="50.595564100" lon="6.419598300"><ele>396</ele><time>2013-07-05T11:24:55Z</time></trkpt>
 <trkpt lat="50.595517400" lon="6.419644500"><ele>396</ele><time>2013-07-05T11:24:59Z</time></trkpt>
 <trkpt lat="50.595489500" lon="6.419687000"><ele>396</ele><time>2013-07-05T11:25:03Z</time></trkpt>
 <trkpt lat="50.595456200" lon="6.419744100"><ele>397</ele><time>2013-07-05T11:25:07Z</time></trkpt>
 <trkpt lat="50.595424500" lon="6.419801600"><ele>397</ele><time>2013-07-05T11:25:11Z</time></trkpt>
 <trkpt lat="50.595407000" lon="6.419849500"><ele>397</ele><time>2013-07-05T11:25:15Z</time></trkpt>
 <trkpt lat="50.595383300" lon="6.419891200"><ele>397</ele><time>2013-07-05T11:25:19Z</time></trkpt>
 <trkpt lat="50.595352400" lon="6.419929500"><ele>397</ele><time>2013-07-05T11:25:23Z</time></trkpt>
 <trkpt lat="50.595312000" lon="6.419979100"><ele>398</ele><time>2013-07-05T11:25:27Z</time></trkpt>
 <trkpt lat="50.595279100" lon="6.420029500"><ele>398</ele><time>2013-07-05T11:25:31Z</time></trkpt>
 <trkpt lat="50.595267800" lon="6.420065800"><ele>398</ele><time>2013-07-05T11:25:35Z</time></trkpt>
 <trkpt lat="50.595240300" lon="6.420087800"><ele>399</ele><time>2013-07-05T11:25:39Z</time></trkpt>
 <trkpt lat="50.595210700" lon="6.420107000"><ele>399</ele><time>2013-07-05T11:25:43Z</time></trkpt>
 <trkpt lat="50.595184500" lon="6.420118300"><ele>399</ele><time>2013-07-05T11:25:47Z</time></trkpt>
 <trkpt lat="50.595167000" lon="6.420151600"><ele>400</ele><time>2013-07-05T11:25:51Z</time></trkpt>
 <trkpt lat="50.595142900" lon="6.420198300"><ele>400</ele><time>2013-07-05T11:25:55Z</time></trkpt>
 <trkpt lat="50.595111600" lon="6.420240800"><ele>401</ele><time>2013-07-05T11:25:59Z</time></trkpt>
 <trkpt lat="50.595099100" lon="6.420276600"><ele>401</ele><time>2013-07-05T11:26:03Z</time></trkpt>
 <trkpt lat="50.595068700" lon="6.420291200"><ele>402</ele><time>2013-07-05T11:26:07Z</time></trkpt>
 <trkpt lat="50.595037400" lon="6.420314100"><ele>402</ele><time>2013-07-05T11:26:11Z</time></trkpt>
 <trkpt lat="50.595009900" lon="6.420354500"><ele>403</ele><time>2013-07-05T11:26:15Z</time></trkpt>
 <trkpt lat="50.594993300" lon="6.420399100"><ele>403</ele><time>2013-07-05T11:26:19Z</time></trkpt>
 <trkpt lat="50.594980400" lon="6.420442400"><ele>404</ele><time>2013-07-05T11:26:23Z</time></trkpt>
 <trkpt lat="50.594965300" lon="6.420509500"><ele>405</ele><time>2013-07-05T11:26:27Z</time></trkpt>
 <trkpt lat="50.594962000" lon="6.420622900"><ele>405</ele><time>2013-07-05T11:26:31Z</time></trkpt>
 <trkpt lat="50.594965400" lon="6.420702800"><ele>406</ele><time>2013-07-05T11:26:35Z</time></trkpt>
 <trkpt lat="50.594938300" lon="6.420741600"><ele>406</ele><time>2013-07-05T11:26:39Z</time></trkpt>
 <trkpt lat="50.594900400" lon="6.420768300"><ele>407</ele><time>2013-07-05T11:26:43Z</time></trkpt>
 <trkpt lat="50.594861600" lon="6.420761600"><ele>407</ele><time>2013-07-05T11:26:47Z</time></trkpt>
 <trkpt lat="50.594825300" lon="6.420766600"><ele>408</ele><time>2013-07-05T11:26:51Z</time></trkpt>
 <trkpt lat="50.594797000" lon="6.420798700"><ele>409</ele><time>2013-07-05T11:26:55Z</time></trkpt>
 <trkpt lat="50.594758300" lon="6.420828300"><ele>409</ele><time>2013-07-05T11:26:59Z</time></trkpt>
 <trkpt lat="50.594736600" lon="6.420843700"><ele>410</ele><time>2013-07-05T11:27:03Z</time></trkpt>
 <trkpt lat="50.594722000" lon="6.420844500"><ele>410</ele><time>2013-07-05T11:27:07Z</time></trkpt>
 <trkpt lat="50.594722000" lon="6.420844500"><ele>411</ele><time>2013-07-05T11:27:11Z</time></trkpt>
 <trkpt lat="50.594715400" lon="6.420845800"><ele>411</ele><time>2013-07-05T11:27:15Z</time></trkpt>
 <trkpt lat="50.594727000" lon="6.420851200"><ele>411</ele><time>2013-07-05T11:27:19Z</time></trkpt>
 <trkpt lat="50.594740800" lon="6.420852400"><ele>411</ele><time>2013-07-05T11:27:23Z</time></trkpt>
 <trkpt lat="50.594746600" lon="6.420853300"><ele>412</ele><time>2013-07-05T11:27:27Z</time></trkpt>
 <trkpt lat="50.594759500" lon="6.420853300"><ele>412</ele><time>2013-07-05T11:27:31Z</time></trkpt>
 <trkpt lat="50.594783300" lon="6.420873300"><ele>412</ele><time>2013-07-05T11:27:35Z</time></trkpt>
 <trkpt lat="50.594787400" lon="6.420865800"><ele>412</ele><time>2013-07-05T11:27:39Z</time></trkpt>
 <trkpt lat="50.594794900" lon="6.420878300"><ele>412</ele><time>2013-07-05T11:27:43Z</time></trkpt>
 <trkpt lat="50.594806200" lon="6.420887900"><ele>412</ele><time>2013-07-05T11:27:47Z</time></trkpt>
 <trkpt lat="50.594817400" lon="6.420806200"><ele>413</ele><time>2013-07-05T11:27:51Z</time></trkpt>
 <trkpt lat="50.594821200" lon="6.420712400"><ele>413</ele><time>2013-07-05T11:27:55Z</time></trkpt>
 <trkpt lat="50.594799100" lon="6.420648300"><ele>413</ele><time>2013-07-05T11:27:59Z</time></trkpt>
 <trkpt lat="50.594769100" lon="6.420609100"><ele>413</ele><time>2013-07-05T11:28:03Z</time></trkpt>
 <trkpt lat="50.594749100" lon="6.420577400"><ele>413</ele><time>2013-07-05T11:28:07Z</time></trkpt>
 <trkpt lat="50.594728300" lon="6.420542000"><ele>413</ele><time>2013-07-05T11:28:11Z</time></trkpt>
 <trkpt lat="50.594695800" lon="6.420517800"><ele>414</ele><time>2013-07-05T11:28:15Z</time></trkpt>
 <trkpt lat="50.594657900" lon="6.420492800"><ele>414</ele><time>2013-07-05T11:28:19Z</time></trkpt>
 <trkpt lat="50.594634900" lon="6.420477400"><ele>414</ele><time>2013-07-05T11:28:23Z</time></trkpt>
 <trkpt lat="50.594599900" lon="6.420479100"><ele>414</ele><time>2013-07-05T11:28:27Z</time></trkpt>
 <trkpt lat="50.594564100" lon="6.420477400"><ele>414</ele><time>2013-07-05T11:28:31Z</time></trkpt>
 <trkpt lat="50.594528300" lon="6.420474900"><ele>415</ele><time>2013-07-05T11:28:35Z</time></trkpt>
 <trkpt lat="50.594494900" lon="6.420474900"><ele>415</ele><time>2013-07-05T11:28:39Z</time></trkpt>
 <trkpt lat="50.594464100" lon="6.420464900"><ele>415</ele><time>2013-07-05T11:28:43Z</time></trkpt>
 <trkpt lat="50.594425800" lon="6.420452900"><ele>415</ele><time>2013-07-05T11:28:47Z</time></trkpt>
 <trkpt lat="50.594392400" lon="6.420459100"><ele>415</ele><time>2013-07-05T11:28:51Z</time></trkpt>
 <trkpt lat="50.594356600" lon="6.420457400"><ele>415</ele><time>2013-07-05T11:28:55Z</time></trkpt>
 <trkpt lat="50.594323700" lon="6.420446200"><ele>415</ele><time>2013-07-05T11:28:59Z</time></trkpt>
 <trkpt lat="50.594312900" lon="6.420432900"><ele>416</ele><time>2013-07-05T11:29:03Z</time></trkpt>
 <trkpt lat="50.594327400" lon="6.420432400"><ele>416</ele><time>2013-07-05T11:29:07Z</time></trkpt>
 <trkpt lat="50.594344500" lon="6.420434900"><ele>416</ele><time>2013-07-05T11:29:11Z</time></trkpt>
 <trkpt lat="50.594356600" lon="6.420431200"><ele>416</ele><time>2013-07-05T11:29:15Z</time></trkpt>
 <trkpt lat="50.594371600" lon="6.420434900"><ele>416</ele><time>2013-07-05T11:29:19Z</time></trkpt>
 <trkpt lat="50.594367800" lon="6.420416600"><ele>416</ele><time>2013-07-05T11:29:23Z</time></trkpt>
 <trkpt lat="50.594352000" lon="6.420409900"><ele>416</ele><time>2013-07-05T11:29:27Z</time></trkpt>
 <trkpt lat="50.594292400" lon="6.420414900"><ele>417</ele><time>2013-07-05T11:29:31Z</time></trkpt>
 <trkpt lat="50.594224900" lon="6.420409100"><ele>417</ele><time>2013-07-05T11:29:35Z</time></trkpt>
 <trkpt lat="50.594187000" lon="6.420430300"><ele>417</ele><time>2013-07-05T11:29:39Z</time></trkpt>
 <trkpt lat="50.594149500" lon="6.420436600"><ele>417</ele><time>2013-07-05T11:29:43Z</time></trkpt>
 <trkpt lat="50.594112800" lon="6.420472800"><ele>417</ele><time>2013-07-05T11:29:47Z</time></trkpt>
 <trkpt lat="50.594085300" lon="6.420489100"><ele>418</ele><time>2013-07-05T11:29:51Z</time></trkpt>
 <trkpt lat="50.594048700" lon="6.420502000"><ele>418</ele><time>2013-07-05T11:29:55Z</time></trkpt>
 <trkpt lat="50.594012900" lon="6.420506600"><ele>418</ele><time>2013-07-05T11:29:59Z</time></trkpt>
 <trkpt lat="50.593970800" lon="6.420521200"><ele>418</ele><time>2013-07-05T11:30:03Z</time></trkpt>
 <trkpt lat="50.593917400" lon="6.420537000"><ele>419</ele><time>2013-07-05T11:30:07Z</time></trkpt>
 <trkpt lat="50.593869900" lon="6.420562400"><ele>419</ele><time>2013-07-05T11:30:11Z</time></trkpt>
 <trkpt lat="50.593824500" lon="6.420559500"><ele>419</ele><time>2013-07-05T11:30:15Z</time></trkpt>
 <trkpt lat="50.593796600" lon="6.420574500"><ele>420</ele><time>2013-07-05T11:30:19Z</time></trkpt>
 <trkpt lat="50.593759900" lon="6.420592000"><ele>420</ele><time>2013-07-05T11:30:23Z</time></trkpt>
 <trkpt lat="50.593722400" lon="6.420605800"><ele>420</ele><time>2013-07-05T11:30:27Z</time></trkpt>
 <trkpt lat="50.593685300" lon="6.420608700"><ele>420</ele><time>2013-07-05T11:30:31Z</time></trkpt>
 <trkpt lat="50.593652400" lon="6.420597900"><ele>421</ele><time>2013-07-05T11:30:35Z</time></trkpt>
 <trkpt lat="50.593645400" lon="6.420593300"><ele>421</ele><time>2013-07-05T11:30:39Z</time></trkpt>
 <trkpt lat="50.593639900" lon="6.420591600"><ele>421</ele><time>2013-07-05T11:30:43Z</time></trkpt>
 <trkpt lat="50.593639900" lon="6.420591600"><ele>422</ele><time>2013-07-05T11:30:47Z</time></trkpt>
 <trkpt lat="50.593637800" lon="6.420583700"><ele>422</ele><time>2013-07-05T11:30:51Z</time></trkpt>
 <trkpt lat="50.593634900" lon="6.420574100"><ele>423</ele><time>2013-07-05T11:30:55Z</time></trkpt>
 <trkpt lat="50.593630800" lon="6.420567900"><ele>423</ele><time>2013-07-05T11:30:59Z</time></trkpt>
 <trkpt lat="50.593630800" lon="6.420567900"><ele>424</ele><time>2013-07-05T11:31:03Z</time></trkpt>
 <trkpt lat="50.593604500" lon="6.420586200"><ele>424</ele><time>2013-07-05T11:31:07Z</time></trkpt>
 <trkpt lat="50.593571600" lon="6.420616200"><ele>425</ele><time>2013-07-05T11:31:11Z</time></trkpt>
 <trkpt lat="50.593544500" lon="6.420631600"><ele>425</ele><time>2013-07-05T11:31:15Z</time></trkpt>
 <trkpt lat="50.593510800" lon="6.420644900"><ele>426</ele><time>2013-07-05T11:31:19Z</time></trkpt>
 <trkpt lat="50.593474500" lon="6.420653700"><ele>426</ele><time>2013-07-05T11:31:23Z</time></trkpt>
 <trkpt lat="50.593436600" lon="6.420662900"><ele>427</ele><time>2013-07-05T11:31:27Z</time></trkpt>
 <trkpt lat="50.593401200" lon="6.420662000"><ele>428</ele><time>2013-07-05T11:31:31Z</time></trkpt>
 <trkpt lat="50.593370800" lon="6.420656200"><ele>429</ele><time>2013-07-05T11:31:35Z</time></trkpt>
 <trkpt lat="50.593329100" lon="6.420664100"><ele>429</ele><time>2013-07-05T11:31:39Z</time></trkpt>
 <trkpt lat="50.593289900" lon="6.420675800"><ele>430</ele><time>2013-07-05T11:31:43Z</time></trkpt>
 <trkpt lat="50.593254100" lon="6.420690800"><ele>431</ele><time>2013-07-05T11:31:47Z</time></trkpt>
 <trkpt lat="50.593221200" lon="6.420701600"><ele>432</ele><time>2013-07-05T11:31:51Z</time></trkpt>
 <trkpt lat="50.593180800" lon="6.420679100"><ele>433</ele><time>2013-07-05T11:31:55Z</time></trkpt>
 <trkpt lat="50.593141600" lon="6.420644900"><ele>434</ele><time>2013-07-05T11:31:59Z</time></trkpt>
 <trkpt lat="50.593104100" lon="6.420627400"><ele>435</ele><time>2013-07-05T11:32:03Z</time></trkpt>
 <trkpt lat="50.593071200" lon="6.420620300"><ele>436</ele><time>2013-07-05T11:32:07Z</time></trkpt>
 <trkpt lat="50.593030700" lon="6.420638300"><ele>437</ele><time>2013-07-05T11:32:11Z</time></trkpt>
 <trkpt lat="50.592980800" lon="6.420688700"><ele>438</ele><time>2013-07-05T11:32:15Z</time></trkpt>
 <trkpt lat="50.592928700" lon="6.420705400"><ele>439</ele><time>2013-07-05T11:32:19Z</time></trkpt>
 <trkpt lat="50.592886200" lon="6.420704900"><ele>440</ele><time>2013-07-05T11:32:23Z</time></trkpt>
 <trkpt lat="50.592845300" lon="6.420696600"><ele>441</ele><time>2013-07-05T11:32:27Z</time></trkpt>
 <trkpt lat="50.592807800" lon="6.420685800"><ele>442</ele><time>2013-07-05T11:32:31Z</time></trkpt>
 <trkpt lat="50.592775400" lon="6.420689500"><ele>443</ele><time>2013-07-05T11:32:35Z</time></trkpt>
 <trkpt lat="50.592742000" lon="6.420694500"><ele>444</ele><time>2013-07-05T11:32:39Z</time></trkpt>
 <trkpt lat="50.592721200" lon="6.420695400"><ele>445</ele><time>2013-07-05T11:32:43Z</time></trkpt>
 <trkpt lat="50.592715400" lon="6.420691600"><ele>446</ele><time>2013-07-05T11:32:47Z</time></trkpt>
 <trkpt lat="50.592711600" lon="6.420684500"><ele>447</ele><time>2013-07-05T11:32:51Z</time></trkpt>
 <trkpt lat="50.592706200" lon="6.420676600"><ele>447</ele><time>2013-07-05T11:32:55Z</time></trkpt>
 <trkpt lat="50.592691600" lon="6.420687000"><ele>448</ele><time>2013-07-05T11:32:59Z</time></trkpt>
 <trkpt lat="50.592684500" lon="6.420687800"><ele>449</ele><time>2013-07-05T11:33:03Z</time></trkpt>
 <trkpt lat="50.592683300" lon="6.420679100"><ele>449</ele><time>2013-07-05T11:33:07Z</time></trkpt>
 <trkpt lat="50.592683300" lon="6.420679100"><ele>449</ele><time>2013-07-05T11:33:11Z</time></trkpt>
 <trkpt lat="50.592686600" lon="6.420670300"><ele>450</ele><time>2013-07-05T11:33:15Z</time></trkpt>
 <trkpt lat="50.592688300" lon="6.420660800"><ele>450</ele><time>2013-07-05T11:33:19Z</time></trkpt>
 <trkpt lat="50.592690000" lon="6.420651600"><ele>450</ele><time>2013-07-05T11:33:23Z</time></trkpt>
 <trkpt lat="50.592690000" lon="6.420651600"><ele>451</ele><time>2013-07-05T11:33:27Z</time></trkpt>
 <trkpt lat="50.592690000" lon="6.420651600"><ele>451</ele><time>2013-07-05T11:33:31Z</time></trkpt>
 <trkpt lat="50.592690000" lon="6.420651600"><ele>451</ele><time>2013-07-05T11:33:35Z</time></trkpt>
 <trkpt lat="50.592645400" lon="6.420693700"><ele>452</ele><time>2013-07-05T11:33:39Z</time></trkpt>
 <trkpt lat="50.592622800" lon="6.420724100"><ele>452</ele><time>2013-07-05T11:33:43Z</time></trkpt>
 <trkpt lat="50.592587000" lon="6.420739500"><ele>453</ele><time>2013-07-05T11:33:47Z</time></trkpt>
 <trkpt lat="50.592537000" lon="6.420761600"><ele>454</ele><time>2013-07-05T11:33:51Z</time></trkpt>
 <trkpt lat="50.592492800" lon="6.420770300"><ele>454</ele><time>2013-07-05T11:33:55Z</time></trkpt>
 <trkpt lat="50.592453300" lon="6.420783300"><ele>455</ele><time>2013-07-05T11:33:59Z</time></trkpt>
 <trkpt lat="50.592414500" lon="6.420805800"><ele>456</ele><time>2013-07-05T11:34:03Z</time></trkpt>
 <trkpt lat="50.592369500" lon="6.420829500"><ele>458</ele><time>2013-07-05T11:34:07Z</time></trkpt>
 <trkpt lat="50.592311600" lon="6.420854900"><ele>459</ele><time>2013-07-05T11:34:11Z</time></trkpt>
 <trkpt lat="50.592277400" lon="6.420856600"><ele>460</ele><time>2013-07-05T11:34:15Z</time></trkpt>
 <trkpt lat="50.592245400" lon="6.420879900"><ele>461</ele><time>2013-07-05T11:34:19Z</time></trkpt>
 <trkpt lat="50.592206200" lon="6.420910400"><ele>463</ele><time>2013-07-05T11:34:23Z</time></trkpt>
 <trkpt lat="50.592159900" lon="6.420933300"><ele>464</ele><time>2013-07-05T11:34:27Z</time></trkpt>
 <trkpt lat="50.592114100" lon="6.420951600"><ele>465</ele><time>2013-07-05T11:34:31Z</time></trkpt>
 <trkpt lat="50.592074500" lon="6.420975300"><ele>466</ele><time>2013-07-05T11:34:35Z</time></trkpt>
 <trkpt lat="50.592028700" lon="6.421006600"><ele>467</ele><time>2013-07-05T11:34:39Z</time></trkpt>
 <trkpt lat="50.591975800" lon="6.421032000"><ele>468</ele><time>2013-07-05T11:34:43Z</time></trkpt>
 <trkpt lat="50.591918300" lon="6.421051200"><ele>469</ele><time>2013-07-05T11:34:47Z</time></trkpt>
 <trkpt lat="50.591872400" lon="6.421074900"><ele>469</ele><time>2013-07-05T11:34:51Z</time></trkpt>
 <trkpt lat="50.591823700" lon="6.421087900"><ele>470</ele><time>2013-07-05T11:34:55Z</time></trkpt>
 <trkpt lat="50.591785300" lon="6.421103300"><ele>470</ele><time>2013-07-05T11:34:59Z</time></trkpt>
 <trkpt lat="50.591745300" lon="6.421129100"><ele>471</ele><time>2013-07-05T11:35:03Z</time></trkpt>
 <trkpt lat="50.591712400" lon="6.421154100"><ele>471</ele><time>2013-07-05T11:35:07Z</time></trkpt>
 <trkpt lat="50.591685800" lon="6.421168700"><ele>471</ele><time>2013-07-05T11:35:11Z</time></trkpt>
 <trkpt lat="50.591655800" lon="6.421194900"><ele>471</ele><time>2013-07-05T11:35:15Z</time></trkpt>
 <trkpt lat="50.591624100" lon="6.421214100"><ele>471</ele><time>2013-07-05T11:35:19Z</time></trkpt>
 <trkpt lat="50.591583300" lon="6.421239900"><ele>471</ele><time>2013-07-05T11:35:23Z</time></trkpt>
 <trkpt lat="50.591544900" lon="6.421257000"><ele>471</ele><time>2013-07-05T11:35:27Z</time></trkpt>
 <trkpt lat="50.591504100" lon="6.421267900"><ele>471</ele><time>2013-07-05T11:35:31Z</time></trkpt>
 <trkpt lat="50.591460800" lon="6.421290800"><ele>471</ele><time>2013-07-05T11:35:35Z</time></trkpt>
 <trkpt lat="50.591423300" lon="6.421323300"><ele>471</ele><time>2013-07-05T11:35:39Z</time></trkpt>
 <trkpt lat="50.591382000" lon="6.421359100"><ele>471</ele><time>2013-07-05T11:35:43Z</time></trkpt>
 <trkpt lat="50.591337000" lon="6.421390300"><ele>470</ele><time>2013-07-05T11:35:47Z</time></trkpt>
 <trkpt lat="50.591304500" lon="6.421408700"><ele>470</ele><time>2013-07-05T11:35:51Z</time></trkpt>
 <trkpt lat="50.591269900" lon="6.421435800"><ele>470</ele><time>2013-07-05T11:35:55Z</time></trkpt>
 <trkpt lat="50.591227400" lon="6.421471600"><ele>470</ele><time>2013-07-05T11:35:59Z</time></trkpt>
 <trkpt lat="50.591183700" lon="6.421494900"><ele>470</ele><time>2013-07-05T11:36:03Z</time></trkpt>
 <trkpt lat="50.591146600" lon="6.421522900"><ele>470</ele><time>2013-07-05T11:36:07Z</time></trkpt>
 <trkpt lat="50.591092000" lon="6.421551600"><ele>470</ele><time>2013-07-05T11:36:11Z</time></trkpt>
 <trkpt lat="50.591041600" lon="6.421574900"><ele>470</ele><time>2013-07-05T11:36:15Z</time></trkpt>
 <trkpt lat="50.590993200" lon="6.421612800"><ele>470</ele><time>2013-07-05T11:36:19Z</time></trkpt>
 <trkpt lat="50.590931200" lon="6.421644500"><ele>470</ele><time>2013-07-05T11:36:23Z</time></trkpt>
 <trkpt lat="50.590886600" lon="6.421665800"><ele>470</ele><time>2013-07-05T11:36:27Z</time></trkpt>
 <trkpt lat="50.590854100" lon="6.421693700"><ele>470</ele><time>2013-07-05T11:36:31Z</time></trkpt>
 <trkpt lat="50.590813300" lon="6.421719900"><ele>470</ele><time>2013-07-05T11:36:35Z</time></trkpt>
 <trkpt lat="50.590768300" lon="6.421734900"><ele>470</ele><time>2013-07-05T11:36:39Z</time></trkpt>
 <trkpt lat="50.590729500" lon="6.421759500"><ele>470</ele><time>2013-07-05T11:36:43Z</time></trkpt>
 <trkpt lat="50.590687400" lon="6.421783200"><ele>471</ele><time>2013-07-05T11:36:47Z</time></trkpt>
 <trkpt lat="50.590654900" lon="6.421809500"><ele>471</ele><time>2013-07-05T11:36:51Z</time></trkpt>
 <trkpt lat="50.590648700" lon="6.421819100"><ele>471</ele><time>2013-07-05T11:36:55Z</time></trkpt>
 <trkpt lat="50.590638300" lon="6.421844100"><ele>471</ele><time>2013-07-05T11:36:59Z</time></trkpt>
 <trkpt lat="50.590599100" lon="6.421874100"><ele>472</ele><time>2013-07-05T11:37:03Z</time></trkpt>
 <trkpt lat="50.590559500" lon="6.421914500"><ele>472</ele><time>2013-07-05T11:37:07Z</time></trkpt>
 <trkpt lat="50.590517400" lon="6.421956200"><ele>472</ele><time>2013-07-05T11:37:11Z</time></trkpt>
 <trkpt lat="50.590486600" lon="6.422002400"><ele>473</ele><time>2013-07-05T11:37:15Z</time></trkpt>
 <trkpt lat="50.590447000" lon="6.422042000"><ele>473</ele><time>2013-07-05T11:37:19Z</time></trkpt>
 <trkpt lat="50.590402000" lon="6.422074100"><ele>473</ele><time>2013-07-05T11:37:23Z</time></trkpt>
 <trkpt lat="50.590354500" lon="6.422096200"><ele>474</ele><time>2013-07-05T11:37:27Z</time></trkpt>
 <trkpt lat="50.590314100" lon="6.422124100"><ele>474</ele><time>2013-07-05T11:37:31Z</time></trkpt>
 <trkpt lat="50.590275400" lon="6.422146200"><ele>474</ele><time>2013-07-05T11:37:35Z</time></trkpt>
 <trkpt lat="50.590230800" lon="6.422173700"><ele>474</ele><time>2013-07-05T11:37:39Z</time></trkpt>
 <trkpt lat="50.590185800" lon="6.422224100"><ele>474</ele><time>2013-07-05T11:37:43Z</time></trkpt>
 <trkpt lat="50.590147900" lon="6.422259900"><ele>475</ele><time>2013-07-05T11:37:47Z</time></trkpt>
 <trkpt lat="50.590101200" lon="6.422296200"><ele>475</ele><time>2013-07-05T11:37:51Z</time></trkpt>
 <trkpt lat="50.590050700" lon="6.422318700"><ele>475</ele><time>2013-07-05T11:37:55Z</time></trkpt>
 <trkpt lat="50.590004100" lon="6.422355300"><ele>475</ele><time>2013-07-05T11:37:59Z</time></trkpt>
 <trkpt lat="50.589961200" lon="6.422376200"><ele>475</ele><time>2013-07-05T11:38:03Z</time></trkpt>
 <trkpt lat="50.589921200" lon="6.422408700"><ele>476</ele><time>2013-07-05T11:38:07Z</time></trkpt>
 <trkpt lat="50.589880300" lon="6.422423300"><ele>476</ele><time>2013-07-05T11:38:11Z</time></trkpt>
 <trkpt lat="50.589830400" lon="6.422444900"><ele>476</ele><time>2013-07-05T11:38:15Z</time></trkpt>
 <trkpt lat="50.589799500" lon="6.422472400"><ele>476</ele><time>2013-07-05T11:38:19Z</time></trkpt>
 <trkpt lat="50.589761600" lon="6.422504500"><ele>476</ele><time>2013-07-05T11:38:23Z</time></trkpt>
 <trkpt lat="50.589725400" lon="6.422524500"><ele>477</ele><time>2013-07-05T11:38:27Z</time></trkpt>
 <trkpt lat="50.589677400" lon="6.422548700"><ele>477</ele><time>2013-07-05T11:38:31Z</time></trkpt>
 <trkpt lat="50.589619100" lon="6.422570400"><ele>477</ele><time>2013-07-05T11:38:35Z</time></trkpt>
 <trkpt lat="50.589561200" lon="6.422589100"><ele>478</ele><time>2013-07-05T11:38:39Z</time></trkpt>
 <trkpt lat="50.589519100" lon="6.422602000"><ele>478</ele><time>2013-07-05T11:38:43Z</time></trkpt>
 <trkpt lat="50.589480800" lon="6.422631200"><ele>478</ele><time>2013-07-05T11:38:47Z</time></trkpt>
 <trkpt lat="50.589441600" lon="6.422649900"><ele>479</ele><time>2013-07-05T11:38:51Z</time></trkpt>
 <trkpt lat="50.589398700" lon="6.422675300"><ele>479</ele><time>2013-07-05T11:38:55Z</time></trkpt>
 <trkpt lat="50.589358300" lon="6.422675300"><ele>479</ele><time>2013-07-05T11:38:59Z</time></trkpt>
 <trkpt lat="50.589313300" lon="6.422691600"><ele>480</ele><time>2013-07-05T11:39:03Z</time></trkpt>
 <trkpt lat="50.589267400" lon="6.422714900"><ele>480</ele><time>2013-07-05T11:39:07Z</time></trkpt>
 <trkpt lat="50.589220800" lon="6.422742000"><ele>480</ele><time>2013-07-05T11:39:11Z</time></trkpt>
 <trkpt lat="50.589180800" lon="6.422761600"><ele>481</ele><time>2013-07-05T11:39:15Z</time></trkpt>
 <trkpt lat="50.589135300" lon="6.422781600"><ele>481</ele><time>2013-07-05T11:39:19Z</time></trkpt>
 <trkpt lat="50.589084500" lon="6.422809500"><ele>481</ele><time>2013-07-05T11:39:23Z</time></trkpt>
 <trkpt lat="50.589036200" lon="6.422837400"><ele>481</ele><time>2013-07-05T11:39:27Z</time></trkpt>
 <trkpt lat="50.588992400" lon="6.422868700"><ele>481</ele><time>2013-07-05T11:39:31Z</time></trkpt>
 <trkpt lat="50.588949900" lon="6.422897000"><ele>482</ele><time>2013-07-05T11:39:35Z</time></trkpt>
 <trkpt lat="50.588902400" lon="6.422920300"><ele>482</ele><time>2013-07-05T11:39:39Z</time></trkpt>
 <trkpt lat="50.588855800" lon="6.422943700"><ele>482</ele><time>2013-07-05T11:39:43Z</time></trkpt>
 <trkpt lat="50.588809500" lon="6.422966600"><ele>482</ele><time>2013-07-05T11:39:47Z</time></trkpt>
 <trkpt lat="50.588764100" lon="6.422986200"><ele>482</ele><time>2013-07-05T11:39:51Z</time></trkpt>
 <trkpt lat="50.588712800" lon="6.423000800"><ele>482</ele><time>2013-07-05T11:39:55Z</time></trkpt>
 <trkpt lat="50.588673300" lon="6.423009900"><ele>482</ele><time>2013-07-05T11:39:59Z</time></trkpt>
 <trkpt lat="50.588621600" lon="6.423041200"><ele>482</ele><time>2013-07-05T11:40:03Z</time></trkpt>
 <trkpt lat="50.588578700" lon="6.423066600"><ele>483</ele><time>2013-07-05T11:40:07Z</time></trkpt>
 <trkpt lat="50.588531200" lon="6.423087500"><ele>483</ele><time>2013-07-05T11:40:11Z</time></trkpt>
 <trkpt lat="50.588477400" lon="6.423117400"><ele>483</ele><time>2013-07-05T11:40:15Z</time></trkpt>
 <trkpt lat="50.588434900" lon="6.423138300"><ele>483</ele><time>2013-07-05T11:40:19Z</time></trkpt>
 <trkpt lat="50.588386200" lon="6.423156600"><ele>483</ele><time>2013-07-05T11:40:23Z</time></trkpt>
 <trkpt lat="50.588339100" lon="6.423186600"><ele>483</ele><time>2013-07-05T11:40:27Z</time></trkpt>
 <trkpt lat="50.588298700" lon="6.423212000"><ele>483</ele><time>2013-07-05T11:40:31Z</time></trkpt>
 <trkpt lat="50.588254500" lon="6.423226600"><ele>483</ele><time>2013-07-05T11:40:35Z</time></trkpt>
 <trkpt lat="50.588207000" lon="6.423237400"><ele>483</ele><time>2013-07-05T11:40:39Z</time></trkpt>
 <trkpt lat="50.588150300" lon="6.423251600"><ele>483</ele><time>2013-07-05T11:40:43Z</time></trkpt>
 <trkpt lat="50.588109500" lon="6.423266600"><ele>483</ele><time>2013-07-05T11:40:47Z</time></trkpt>
 <trkpt lat="50.588065700" lon="6.423275800"><ele>483</ele><time>2013-07-05T11:40:51Z</time></trkpt>
 <trkpt lat="50.588014100" lon="6.423282400"><ele>483</ele><time>2013-07-05T11:40:55Z</time></trkpt>
 <trkpt lat="50.587961600" lon="6.423257000"><ele>484</ele><time>2013-07-05T11:40:59Z</time></trkpt>
 <trkpt lat="50.587920300" lon="6.423236600"><ele>484</ele><time>2013-07-05T11:41:03Z</time></trkpt>
 <trkpt lat="50.587873300" lon="6.423232000"><ele>484</ele><time>2013-07-05T11:41:07Z</time></trkpt>
 <trkpt lat="50.587824500" lon="6.423221200"><ele>485</ele><time>2013-07-05T11:41:11Z</time></trkpt>
 <trkpt lat="50.587770800" lon="6.423209100"><ele>485</ele><time>2013-07-05T11:41:15Z</time></trkpt>
 <trkpt lat="50.587728300" lon="6.423190400"><ele>485</ele><time>2013-07-05T11:41:19Z</time></trkpt>
 <trkpt lat="50.587680300" lon="6.423174100"><ele>486</ele><time>2013-07-05T11:41:23Z</time></trkpt>
 <trkpt lat="50.587629100" lon="6.423151200"><ele>486</ele><time>2013-07-05T11:41:27Z</time></trkpt>
 <trkpt lat="50.587603300" lon="6.423122900"><ele>487</ele><time>2013-07-05T11:41:31Z</time></trkpt>
 <trkpt lat="50.587561200" lon="6.423101200"><ele>488</ele><time>2013-07-05T11:41:35Z</time></trkpt>
 <trkpt lat="50.587529500" lon="6.423077800"><ele>488</ele><time>2013-07-05T11:41:39Z</time></trkpt>
 <trkpt lat="50.587493700" lon="6.423056600"><ele>489</ele><time>2013-07-05T11:41:43Z</time></trkpt>
 <trkpt lat="50.587450400" lon="6.423045800"><ele>489</ele><time>2013-07-05T11:41:47Z</time></trkpt>
 <trkpt lat="50.587408200" lon="6.423022000"><ele>490</ele><time>2013-07-05T11:41:51Z</time></trkpt>
 <trkpt lat="50.587360800" lon="6.423002400"><ele>490</ele><time>2013-07-05T11:41:55Z</time></trkpt>
 <trkpt lat="50.587308300" lon="6.422971200"><ele>491</ele><time>2013-07-05T11:41:59Z</time></trkpt>
 <trkpt lat="50.587258300" lon="6.422946200"><ele>491</ele><time>2013-07-05T11:42:03Z</time></trkpt>
 <trkpt lat="50.587217000" lon="6.422917800"><ele>491</ele><time>2013-07-05T11:42:07Z</time></trkpt>
 <trkpt lat="50.587217000" lon="6.422917800"><ele>491</ele><time>2013-07-05T11:42:11Z</time></trkpt>
 <trkpt lat="50.587192800" lon="6.422911200"><ele>492</ele><time>2013-07-05T11:42:15Z</time></trkpt>
 <trkpt lat="50.587159500" lon="6.422885800"><ele>492</ele><time>2013-07-05T11:42:19Z</time></trkpt>
 <trkpt lat="50.587153700" lon="6.422878700"><ele>492</ele><time>2013-07-05T11:42:23Z</time></trkpt>
 <trkpt lat="50.587153700" lon="6.422878700"><ele>492</ele><time>2013-07-05T11:42:27Z</time></trkpt>
 <trkpt lat="50.587153700" lon="6.422878700"><ele>492</ele><time>2013-07-05T11:42:31Z</time></trkpt>
 <trkpt lat="50.587148300" lon="6.422881600"><ele>492</ele><time>2013-07-05T11:42:35Z</time></trkpt>
 <trkpt lat="50.587137400" lon="6.422882400"><ele>492</ele><time>2013-07-05T11:42:39Z</time></trkpt>
 <trkpt lat="50.587091600" lon="6.422868700"><ele>492</ele><time>2013-07-05T11:42:43Z</time></trkpt>
 <trkpt lat="50.587038200" lon="6.422853700"><ele>491</ele><time>2013-07-05T11:42:47Z</time></trkpt>
 <trkpt lat="50.586990400" lon="6.422849100"><ele>491</ele><time>2013-07-05T11:42:51Z</time></trkpt>
 <trkpt lat="50.586939100" lon="6.422827500"><ele>491</ele><time>2013-07-05T11:42:55Z</time></trkpt>
 <trkpt lat="50.586896600" lon="6.422808300"><ele>491</ele><time>2013-07-05T11:42:59Z</time></trkpt>
 <trkpt lat="50.586852400" lon="6.422785300"><ele>491</ele><time>2013-07-05T11:43:03Z</time></trkpt>
 <trkpt lat="50.586812000" lon="6.422763300"><ele>490</ele><time>2013-07-05T11:43:07Z</time></trkpt>
 <trkpt lat="50.586759900" lon="6.422749900"><ele>490</ele><time>2013-07-05T11:43:11Z</time></trkpt>
 <trkpt lat="50.586704900" lon="6.422736200"><ele>490</ele><time>2013-07-05T11:43:15Z</time></trkpt>
 <trkpt lat="50.586649100" lon="6.422702800"><ele>490</ele><time>2013-07-05T11:43:19Z</time></trkpt>
 <trkpt lat="50.586602400" lon="6.422674100"><ele>490</ele><time>2013-07-05T11:43:23Z</time></trkpt>
 <trkpt lat="50.586562400" lon="6.422657400"><ele>490</ele><time>2013-07-05T11:43:27Z</time></trkpt>
 <trkpt lat="50.586521200" lon="6.422642800"><ele>490</ele><time>2013-07-05T11:43:31Z</time></trkpt>
 <trkpt lat="50.586473300" lon="6.422623300"><ele>490</ele><time>2013-07-05T11:43:35Z</time></trkpt>
 <trkpt lat="50.586422400" lon="6.422609500"><ele>490</ele><time>2013-07-05T11:43:39Z</time></trkpt>
 <trkpt lat="50.586372800" lon="6.422604100"><ele>490</ele><time>2013-07-05T11:43:43Z</time></trkpt>
 <trkpt lat="50.586309100" lon="6.422593700"><ele>490</ele><time>2013-07-05T11:43:47Z</time></trkpt>
 <trkpt lat="50.586250800" lon="6.422585400"><ele>490</ele><time>2013-07-05T11:43:51Z</time></trkpt>
 <trkpt lat="50.586200400" lon="6.422561200"><ele>490</ele><time>2013-07-05T11:43:55Z</time></trkpt>
 <trkpt lat="50.586147400" lon="6.422542800"><ele>491</ele><time>2013-07-05T11:43:59Z</time></trkpt>
 <trkpt lat="50.586097400" lon="6.422529100"><ele>491</ele><time>2013-07-05T11:44:03Z</time></trkpt>
 <trkpt lat="50.586043700" lon="6.422509900"><ele>492</ele><time>2013-07-05T11:44:07Z</time></trkpt>
 <trkpt lat="50.585992800" lon="6.422502000"><ele>492</ele><time>2013-07-05T11:44:11Z</time></trkpt>
 <trkpt lat="50.585957400" lon="6.422477400"><ele>492</ele><time>2013-07-05T11:44:15Z</time></trkpt>
 <trkpt lat="50.585920400" lon="6.422455300"><ele>493</ele><time>2013-07-05T11:44:19Z</time></trkpt>
 <trkpt lat="50.585867400" lon="6.422437500"><ele>493</ele><time>2013-07-05T11:44:23Z</time></trkpt>
 <trkpt lat="50.585830400" lon="6.422424100"><ele>494</ele><time>2013-07-05T11:44:27Z</time></trkpt>
 <trkpt lat="50.585774100" lon="6.422420400"><ele>494</ele><time>2013-07-05T11:44:31Z</time></trkpt>
 <trkpt lat="50.585724100" lon="6.422409900"><ele>495</ele><time>2013-07-05T11:44:35Z</time></trkpt>
 <trkpt lat="50.585673700" lon="6.422395700"><ele>495</ele><time>2013-07-05T11:44:39Z</time></trkpt>
 <trkpt lat="50.585627800" lon="6.422390300"><ele>495</ele><time>2013-07-05T11:44:43Z</time></trkpt>
 <trkpt lat="50.585573700" lon="6.422387400"><ele>496</ele><time>2013-07-05T11:44:47Z</time></trkpt>
 <trkpt lat="50.585527800" lon="6.422370800"><ele>496</ele><time>2013-07-05T11:44:51Z</time></trkpt>
 <trkpt lat="50.585476600" lon="6.422357400"><ele>497</ele><time>2013-07-05T11:44:55Z</time></trkpt>
 <trkpt lat="50.585426600" lon="6.422342900"><ele>497</ele><time>2013-07-05T11:44:59Z</time></trkpt>
 <trkpt lat="50.585373200" lon="6.422329500"><ele>498</ele><time>2013-07-05T11:45:03Z</time></trkpt>
 <trkpt lat="50.585323300" lon="6.422317400"><ele>498</ele><time>2013-07-05T11:45:07Z</time></trkpt>
 <trkpt lat="50.585269500" lon="6.422309900"><ele>498</ele><time>2013-07-05T11:45:11Z</time></trkpt>
 <trkpt lat="50.585218700" lon="6.422281200"><ele>499</ele><time>2013-07-05T11:45:15Z</time></trkpt>
 <trkpt lat="50.585152400" lon="6.422251600"><ele>499</ele><time>2013-07-05T11:45:19Z</time></trkpt>
 <trkpt lat="50.585102400" lon="6.422232400"><ele>499</ele><time>2013-07-05T11:45:23Z</time></trkpt>
 <trkpt lat="50.585048700" lon="6.422218300"><ele>499</ele><time>2013-07-05T11:45:27Z</time></trkpt>
 <trkpt lat="50.585001600" lon="6.422208300"><ele>500</ele><time>2013-07-05T11:45:31Z</time></trkpt>
 <trkpt lat="50.584943300" lon="6.422189500"><ele>500</ele><time>2013-07-05T11:45:35Z</time></trkpt>
 <trkpt lat="50.584901600" lon="6.422173300"><ele>501</ele><time>2013-07-05T11:45:39Z</time></trkpt>
 <trkpt lat="50.584851200" lon="6.422162000"><ele>501</ele><time>2013-07-05T11:45:43Z</time></trkpt>
 <trkpt lat="50.584807000" lon="6.422143200"><ele>501</ele><time>2013-07-05T11:45:47Z</time></trkpt>
 <trkpt lat="50.584755300" lon="6.422128300"><ele>501</ele><time>2013-07-05T11:45:51Z</time></trkpt>
 <trkpt lat="50.584717800" lon="6.422104100"><ele>502</ele><time>2013-07-05T11:45:55Z</time></trkpt>
 <trkpt lat="50.584673700" lon="6.422105300"><ele>502</ele><time>2013-07-05T11:45:59Z</time></trkpt>
 <trkpt lat="50.584623300" lon="6.422093700"><ele>502</ele><time>2013-07-05T11:46:03Z</time></trkpt>
 <trkpt lat="50.584569900" lon="6.422097800"><ele>502</ele><time>2013-07-05T11:46:07Z</time></trkpt>
 <trkpt lat="50.584523700" lon="6.422081200"><ele>502</ele><time>2013-07-05T11:46:11Z</time></trkpt>
 <trkpt lat="50.584475400" lon="6.422072000"><ele>502</ele><time>2013-07-05T11:46:15Z</time></trkpt>
 <trkpt lat="50.584411600" lon="6.422057000"><ele>503</ele><time>2013-07-05T11:46:19Z</time></trkpt>
 <trkpt lat="50.584345800" lon="6.422041600"><ele>503</ele><time>2013-07-05T11:46:23Z</time></trkpt>
 <trkpt lat="50.584297400" lon="6.422037000"><ele>503</ele><time>2013-07-05T11:46:27Z</time></trkpt>
 <trkpt lat="50.584241200" lon="6.422031200"><ele>503</ele><time>2013-07-05T11:46:31Z</time></trkpt>
 <trkpt lat="50.584188300" lon="6.422024900"><ele>503</ele><time>2013-07-05T11:46:35Z</time></trkpt>
 <trkpt lat="50.584140300" lon="6.422014900"><ele>503</ele><time>2013-07-05T11:46:39Z</time></trkpt>
 <trkpt lat="50.584086200" lon="6.421997000"><ele>503</ele><time>2013-07-05T11:46:43Z</time></trkpt>
 <trkpt lat="50.584042400" lon="6.421964100"><ele>503</ele><time>2013-07-05T11:46:47Z</time></trkpt>
 <trkpt lat="50.583993700" lon="6.421950300"><ele>503</ele><time>2013-07-05T11:46:51Z</time></trkpt>
 <trkpt lat="50.583953300" lon="6.421941200"><ele>503</ele><time>2013-07-05T11:46:55Z</time></trkpt>
 <trkpt lat="50.583913300" lon="6.421944900"><ele>503</ele><time>2013-07-05T11:46:59Z</time></trkpt>
 <trkpt lat="50.583868700" lon="6.421950400"><ele>503</ele><time>2013-07-05T11:47:03Z</time></trkpt>
 <trkpt lat="50.583824100" lon="6.421962000"><ele>503</ele><time>2013-07-05T11:47:07Z</time></trkpt>
 <trkpt lat="50.583776200" lon="6.421964500"><ele>503</ele><time>2013-07-05T11:47:11Z</time></trkpt>
 <trkpt lat="50.583732400" lon="6.421971600"><ele>503</ele><time>2013-07-05T11:47:15Z</time></trkpt>
 <trkpt lat="50.583683300" lon="6.421965800"><ele>503</ele><time>2013-07-05T11:47:19Z</time></trkpt>
 <trkpt lat="50.583634900" lon="6.421959500"><ele>503</ele><time>2013-07-05T11:47:23Z</time></trkpt>
 <trkpt lat="50.583586600" lon="6.421941200"><ele>502</ele><time>2013-07-05T11:47:27Z</time></trkpt>
 <trkpt lat="50.583539900" lon="6.421934100"><ele>502</ele><time>2013-07-05T11:47:31Z</time></trkpt>
 <trkpt lat="50.583489900" lon="6.421928700"><ele>502</ele><time>2013-07-05T11:47:35Z</time></trkpt>
 <trkpt lat="50.583443300" lon="6.421927400"><ele>501</ele><time>2013-07-05T11:47:39Z</time></trkpt>
 <trkpt lat="50.583404900" lon="6.421929500"><ele>501</ele><time>2013-07-05T11:47:43Z</time></trkpt>
 <trkpt lat="50.583364500" lon="6.421930700"><ele>501</ele><time>2013-07-05T11:47:47Z</time></trkpt>
 <trkpt lat="50.583322400" lon="6.421931200"><ele>500</ele><time>2013-07-05T11:47:51Z</time></trkpt>
 <trkpt lat="50.583264900" lon="6.421927400"><ele>500</ele><time>2013-07-05T11:47:55Z</time></trkpt>
 <trkpt lat="50.583208300" lon="6.421914100"><ele>500</ele><time>2013-07-05T11:47:59Z</time></trkpt>
 <trkpt lat="50.583163700" lon="6.421908300"><ele>500</ele><time>2013-07-05T11:48:03Z</time></trkpt>
 <trkpt lat="50.583145000" lon="6.421897800"><ele>499</ele><time>2013-07-05T11:48:07Z</time></trkpt>
 <trkpt lat="50.583145000" lon="6.421897800"><ele>499</ele><time>2013-07-05T11:48:11Z</time></trkpt>
 <trkpt lat="50.583145000" lon="6.421897800"><ele>499</ele><time>2013-07-05T11:48:15Z</time></trkpt>
 <trkpt lat="50.583149500" lon="6.421890800"><ele>499</ele><time>2013-07-05T11:48:19Z</time></trkpt>
 <trkpt lat="50.583149500" lon="6.421890800"><ele>499</ele><time>2013-07-05T11:48:23Z</time></trkpt>
 <trkpt lat="50.583149500" lon="6.421890800"><ele>499</ele><time>2013-07-05T11:48:27Z</time></trkpt>
 <trkpt lat="50.583149500" lon="6.421890800"><ele>499</ele><time>2013-07-05T11:48:31Z</time></trkpt>
 <trkpt lat="50.583084500" lon="6.421867800"><ele>499</ele><time>2013-07-05T11:48:35Z</time></trkpt>
 <trkpt lat="50.583044100" lon="6.421867400"><ele>499</ele><time>2013-07-05T11:48:39Z</time></trkpt>
 <trkpt lat="50.583008300" lon="6.421851200"><ele>499</ele><time>2013-07-05T11:48:43Z</time></trkpt>
 <trkpt lat="50.582957400" lon="6.421835800"><ele>499</ele><time>2013-07-05T11:48:47Z</time></trkpt>
 <trkpt lat="50.582897400" lon="6.421817400"><ele>499</ele><time>2013-07-05T11:48:51Z</time></trkpt>
 <trkpt lat="50.582837400" lon="6.421797400"><ele>499</ele><time>2013-07-05T11:48:55Z</time></trkpt>
 <trkpt lat="50.582797400" lon="6.421782900"><ele>499</ele><time>2013-07-05T11:48:59Z</time></trkpt>
 <trkpt lat="50.582758300" lon="6.421737400"><ele>500</ele><time>2013-07-05T11:49:03Z</time></trkpt>
 <trkpt lat="50.582719500" lon="6.421719500"><ele>500</ele><time>2013-07-05T11:49:07Z</time></trkpt>
 <trkpt lat="50.582681600" lon="6.421680300"><ele>500</ele><time>2013-07-05T11:49:11Z</time></trkpt>
 <trkpt lat="50.582642400" lon="6.421647400"><ele>500</ele><time>2013-07-05T11:49:15Z</time></trkpt>
 <trkpt lat="50.582605300" lon="6.421611200"><ele>500</ele><time>2013-07-05T11:49:19Z</time></trkpt>
 <trkpt lat="50.582574100" lon="6.421579900"><ele>501</ele><time>2013-07-05T11:49:23Z</time></trkpt>
 <trkpt lat="50.582537000" lon="6.421549100"><ele>501</ele><time>2013-07-05T11:49:27Z</time></trkpt>
 <trkpt lat="50.582494500" lon="6.421515800"><ele>501</ele><time>2013-07-05T11:49:31Z</time></trkpt>
 <trkpt lat="50.582456200" lon="6.421481200"><ele>502</ele><time>2013-07-05T11:49:35Z</time></trkpt>
 <trkpt lat="50.582404900" lon="6.421444900"><ele>502</ele><time>2013-07-05T11:49:39Z</time></trkpt>
 <trkpt lat="50.582360400" lon="6.421403200"><ele>503</ele><time>2013-07-05T11:49:43Z</time></trkpt>
 <trkpt lat="50.582319500" lon="6.421372000"><ele>503</ele><time>2013-07-05T11:49:47Z</time></trkpt>
 <trkpt lat="50.582274900" lon="6.421341600"><ele>504</ele><time>2013-07-05T11:49:51Z</time></trkpt>
 <trkpt lat="50.582234500" lon="6.421299500"><ele>504</ele><time>2013-07-05T11:49:55Z</time></trkpt>
 <trkpt lat="50.582198700" lon="6.421257400"><ele>505</ele><time>2013-07-05T11:49:59Z</time></trkpt>
 <trkpt lat="50.582162000" lon="6.421221200"><ele>506</ele><time>2013-07-05T11:50:03Z</time></trkpt>
 <trkpt lat="50.582117800" lon="6.421184100"><ele>506</ele><time>2013-07-05T11:50:07Z</time></trkpt>
 <trkpt lat="50.582067800" lon="6.421137000"><ele>507</ele><time>2013-07-05T11:50:11Z</time></trkpt>
 <trkpt lat="50.582021200" lon="6.421132000"><ele>507</ele><time>2013-07-05T11:50:15Z</time></trkpt>
 <trkpt lat="50.582006600" lon="6.421130300"><ele>508</ele><time>2013-07-05T11:50:19Z</time></trkpt>
 <trkpt lat="50.582007900" lon="6.421122000"><ele>508</ele><time>2013-07-05T11:50:23Z</time></trkpt>
 <trkpt lat="50.581977800" lon="6.421117400"><ele>509</ele><time>2013-07-05T11:50:27Z</time></trkpt>
 <trkpt lat="50.581962000" lon="6.421111600"><ele>509</ele><time>2013-07-05T11:50:31Z</time></trkpt>
 <trkpt lat="50.581954500" lon="6.421113700"><ele>509</ele><time>2013-07-05T11:50:35Z</time></trkpt>
 <trkpt lat="50.581921200" lon="6.421144500"><ele>509</ele><time>2013-07-05T11:50:39Z</time></trkpt>
 <trkpt lat="50.581873700" lon="6.421189900"><ele>510</ele><time>2013-07-05T11:50:43Z</time></trkpt>
 <trkpt lat="50.581828700" lon="6.421259100"><ele>510</ele><time>2013-07-05T11:50:47Z</time></trkpt>
 <trkpt lat="50.581783300" lon="6.421319100"><ele>510</ele><time>2013-07-05T11:50:51Z</time></trkpt>
 <trkpt lat="50.581738300" lon="6.421349500"><ele>510</ele><time>2013-07-05T11:50:55Z</time></trkpt>
 <trkpt lat="50.581696600" lon="6.421394100"><ele>510</ele><time>2013-07-05T11:50:59Z</time></trkpt>
 <trkpt lat="50.581656200" lon="6.421439500"><ele>510</ele><time>2013-07-05T11:51:03Z</time></trkpt>
 <trkpt lat="50.581621200" lon="6.421473300"><ele>510</ele><time>2013-07-05T11:51:07Z</time></trkpt>
 <trkpt lat="50.581574100" lon="6.421511200"><ele>509</ele><time>2013-07-05T11:51:11Z</time></trkpt>
 <trkpt lat="50.581534900" lon="6.421583300"><ele>509</ele><time>2013-07-05T11:51:15Z</time></trkpt>
 <trkpt lat="50.581490800" lon="6.421614900"><ele>509</ele><time>2013-07-05T11:51:19Z</time></trkpt>
 <trkpt lat="50.581448700" lon="6.421641600"><ele>509</ele><time>2013-07-05T11:51:23Z</time></trkpt>
 <trkpt lat="50.581403300" lon="6.421672800"><ele>509</ele><time>2013-07-05T11:51:27Z</time></trkpt>
 <trkpt lat="50.581366600" lon="6.421690800"><ele>508</ele><time>2013-07-05T11:51:31Z</time></trkpt>
 <trkpt lat="50.581326600" lon="6.421708700"><ele>508</ele><time>2013-07-05T11:51:35Z</time></trkpt>
 <trkpt lat="50.581282000" lon="6.421735400"><ele>508</ele><time>2013-07-05T11:51:39Z</time></trkpt>
 <trkpt lat="50.581239100" lon="6.421791200"><ele>508</ele><time>2013-07-05T11:51:43Z</time></trkpt>
 <trkpt lat="50.581193700" lon="6.421840400"><ele>508</ele><time>2013-07-05T11:51:47Z</time></trkpt>
 <trkpt lat="50.581145300" lon="6.421847000"><ele>508</ele><time>2013-07-05T11:51:51Z</time></trkpt>
 <trkpt lat="50.581099900" lon="6.421868300"><ele>508</ele><time>2013-07-05T11:51:55Z</time></trkpt>
 <trkpt lat="50.581049500" lon="6.421879900"><ele>508</ele><time>2013-07-05T11:51:59Z</time></trkpt>
 <trkpt lat="50.581002800" lon="6.421912000"><ele>508</ele><time>2013-07-05T11:52:03Z</time></trkpt>
 <trkpt lat="50.580956600" lon="6.421949900"><ele>508</ele><time>2013-07-05T11:52:07Z</time></trkpt>
 <trkpt lat="50.580913300" lon="6.421973300"><ele>509</ele><time>2013-07-05T11:52:11Z</time></trkpt>
 <trkpt lat="50.580877800" lon="6.422014100"><ele>509</ele><time>2013-07-05T11:52:15Z</time></trkpt>
 <trkpt lat="50.580867000" lon="6.422067500"><ele>509</ele><time>2013-07-05T11:52:19Z</time></trkpt>
 <trkpt lat="50.580851200" lon="6.422124100"><ele>510</ele><time>2013-07-05T11:52:23Z</time></trkpt>
 <trkpt lat="50.580835800" lon="6.422197400"><ele>510</ele><time>2013-07-05T11:52:27Z</time></trkpt>
 <trkpt lat="50.580825300" lon="6.422262800"><ele>511</ele><time>2013-07-05T11:52:31Z</time></trkpt>
 <trkpt lat="50.580815800" lon="6.422343700"><ele>511</ele><time>2013-07-05T11:52:35Z</time></trkpt>
 <trkpt lat="50.580815300" lon="6.422413700"><ele>511</ele><time>2013-07-05T11:52:39Z</time></trkpt>
 <trkpt lat="50.580814100" lon="6.422488700"><ele>512</ele><time>2013-07-05T11:52:43Z</time></trkpt>
 <trkpt lat="50.580794500" lon="6.422573200"><ele>512</ele><time>2013-07-05T11:52:47Z</time></trkpt>
 <trkpt lat="50.580782800" lon="6.422651200"><ele>513</ele><time>2013-07-05T11:52:51Z</time></trkpt>
 <trkpt lat="50.580774900" lon="6.422743300"><ele>513</ele><time>2013-07-05T11:52:55Z</time></trkpt>
 <trkpt lat="50.580769100" lon="6.422818200"><ele>514</ele><time>2013-07-05T11:52:59Z</time></trkpt>
 <trkpt lat="50.580770300" lon="6.422899500"><ele>514</ele><time>2013-07-05T11:53:03Z</time></trkpt>
 <trkpt lat="50.580764100" lon="6.422978300"><ele>514</ele><time>2013-07-05T11:53:07Z</time></trkpt>
 <trkpt lat="50.580760300" lon="6.423049900"><ele>514</ele><time>2013-07-05T11:53:11Z</time></trkpt>
 <trkpt lat="50.580752000" lon="6.423132000"><ele>515</ele><time>2013-07-05T11:53:15Z</time></trkpt>
 <trkpt lat="50.580742000" lon="6.423205800"><ele>515</ele><time>2013-07-05T11:53:19Z</time></trkpt>
 <trkpt lat="50.580741600" lon="6.423282900"><ele>515</ele><time>2013-07-05T11:53:23Z</time></trkpt>
 <trkpt lat="50.580727400" lon="6.423360300"><ele>515</ele><time>2013-07-05T11:53:27Z</time></trkpt>
 <trkpt lat="50.580717000" lon="6.423431200"><ele>515</ele><time>2013-07-05T11:53:31Z</time></trkpt>
 <trkpt lat="50.580713700" lon="6.423511600"><ele>516</ele><time>2013-07-05T11:53:35Z</time></trkpt>
 <trkpt lat="50.580703300" lon="6.423583700"><ele>516</ele><time>2013-07-05T11:53:39Z</time></trkpt>
 <trkpt lat="50.580698300" lon="6.423657400"><ele>516</ele><time>2013-07-05T11:53:43Z</time></trkpt>
 <trkpt lat="50.580688700" lon="6.423727800"><ele>516</ele><time>2013-07-05T11:53:47Z</time></trkpt>
 <trkpt lat="50.580676600" lon="6.423810800"><ele>516</ele><time>2013-07-05T11:53:51Z</time></trkpt>
 <trkpt lat="50.580655800" lon="6.423882400"><ele>516</ele><time>2013-07-05T11:53:55Z</time></trkpt>
 <trkpt lat="50.580637800" lon="6.423945300"><ele>516</ele><time>2013-07-05T11:53:59Z</time></trkpt>
 <trkpt lat="50.580615800" lon="6.424004500"><ele>516</ele><time>2013-07-05T11:54:03Z</time></trkpt>
 <trkpt lat="50.580592400" lon="6.424059100"><ele>516</ele><time>2013-07-05T11:54:07Z</time></trkpt>
 <trkpt lat="50.580558300" lon="6.424123300"><ele>516</ele><time>2013-07-05T11:54:11Z</time></trkpt>
 <trkpt lat="50.580519100" lon="6.424182400"><ele>517</ele><time>2013-07-05T11:54:15Z</time></trkpt>
 <trkpt lat="50.580476200" lon="6.424228700"><ele>517</ele><time>2013-07-05T11:54:19Z</time></trkpt>
 <trkpt lat="50.580437800" lon="6.424274500"><ele>517</ele><time>2013-07-05T11:54:23Z</time></trkpt>
 <trkpt lat="50.580413700" lon="6.424333300"><ele>517</ele><time>2013-07-05T11:54:27Z</time></trkpt>
 <trkpt lat="50.580377900" lon="6.424393700"><ele>517</ele><time>2013-07-05T11:54:31Z</time></trkpt>
 <trkpt lat="50.580347800" lon="6.424442400"><ele>517</ele><time>2013-07-05T11:54:35Z</time></trkpt>
 <trkpt lat="50.580322800" lon="6.424474900"><ele>517</ele><time>2013-07-05T11:54:39Z</time></trkpt>
 <trkpt lat="50.580316600" lon="6.424477400"><ele>517</ele><time>2013-07-05T11:54:43Z</time></trkpt>
 <trkpt lat="50.580316600" lon="6.424477400"><ele>517</ele><time>2013-07-05T11:54:47Z</time></trkpt>
 <trkpt lat="50.580316600" lon="6.424477400"><ele>517</ele><time>2013-07-05T11:54:51Z</time></trkpt>
 <trkpt lat="50.580311600" lon="6.424482000"><ele>517</ele><time>2013-07-05T11:54:55Z</time></trkpt>
 <trkpt lat="50.580306600" lon="6.424487400"><ele>517</ele><time>2013-07-05T11:54:59Z</time></trkpt>
 <trkpt lat="50.580289100" lon="6.424489100"><ele>517</ele><time>2013-07-05T11:55:03Z</time></trkpt>
 <trkpt lat="50.580281600" lon="6.424487900"><ele>517</ele><time>2013-07-05T11:55:07Z</time></trkpt>
 <trkpt lat="50.580269100" lon="6.424485800"><ele>517</ele><time>2013-07-05T11:55:11Z</time></trkpt>
 <trkpt lat="50.580269100" lon="6.424485800"><ele>517</ele><time>2013-07-05T11:55:15Z</time></trkpt>
 <trkpt lat="50.580269100" lon="6.424485800"><ele>517</ele><time>2013-07-05T11:55:19Z</time></trkpt>
 <trkpt lat="50.580269100" lon="6.424485800"><ele>517</ele><time>2013-07-05T11:55:23Z</time></trkpt>
 <trkpt lat="50.580261200" lon="6.424493300"><ele>517</ele><time>2013-07-05T11:55:27Z</time></trkpt>
 <trkpt lat="50.580269100" lon="6.424511600"><ele>517</ele><time>2013-07-05T11:55:31Z</time></trkpt>
 <trkpt lat="50.580271600" lon="6.424519500"><ele>517</ele><time>2013-07-05T11:55:35Z</time></trkpt>
 <trkpt lat="50.580249900" lon="6.424524500"><ele>517</ele><time>2013-07-05T11:55:39Z</time></trkpt>
 <trkpt lat="50.580213700" lon="6.424499100"><ele>516</ele><time>2013-07-05T11:55:43Z</time></trkpt>
 <trkpt lat="50.580181200" lon="6.424480800"><ele>516</ele><time>2013-07-05T11:55:47Z</time></trkpt>
 <trkpt lat="50.580130800" lon="6.424460800"><ele>516</ele><time>2013-07-05T11:55:51Z</time></trkpt>
 <trkpt lat="50.580095300" lon="6.424427400"><ele>516</ele><time>2013-07-05T11:55:55Z</time></trkpt>
 <trkpt lat="50.580063300" lon="6.424391600"><ele>515</ele><time>2013-07-05T11:55:59Z</time></trkpt>
 <trkpt lat="50.580022400" lon="6.424349100"><ele>515</ele><time>2013-07-05T11:56:03Z</time></trkpt>
 <trkpt lat="50.579989900" lon="6.424326200"><ele>515</ele><time>2013-07-05T11:56:07Z</time></trkpt>
 <trkpt lat="50.579947900" lon="6.424337000"><ele>514</ele><time>2013-07-05T11:56:11Z</time></trkpt>
 <trkpt lat="50.579904900" lon="6.424351200"><ele>514</ele><time>2013-07-05T11:56:15Z</time></trkpt>
 <trkpt lat="50.579852800" lon="6.424352400"><ele>514</ele><time>2013-07-05T11:56:19Z</time></trkpt>
 <trkpt lat="50.579819900" lon="6.424367000"><ele>514</ele><time>2013-07-05T11:56:23Z</time></trkpt>
 <trkpt lat="50.579778700" lon="6.424370800"><ele>514</ele><time>2013-07-05T11:56:27Z</time></trkpt>
 <trkpt lat="50.579732000" lon="6.424385800"><ele>514</ele><time>2013-07-05T11:56:31Z</time></trkpt>
 <trkpt lat="50.579700800" lon="6.424407800"><ele>514</ele><time>2013-07-05T11:56:35Z</time></trkpt>
 <trkpt lat="50.579682400" lon="6.424418300"><ele>515</ele><time>2013-07-05T11:56:39Z</time></trkpt>
 <trkpt lat="50.579677400" lon="6.424422800"><ele>515</ele><time>2013-07-05T11:56:43Z</time></trkpt>
 <trkpt lat="50.579677400" lon="6.424422800"><ele>515</ele><time>2013-07-05T11:56:47Z</time></trkpt>
 <trkpt lat="50.579677400" lon="6.424422800"><ele>515</ele><time>2013-07-05T11:56:51Z</time></trkpt>
 <trkpt lat="50.579677400" lon="6.424422800"><ele>516</ele><time>2013-07-05T11:56:55Z</time></trkpt>
 <trkpt lat="50.579677400" lon="6.424422800"><ele>516</ele><time>2013-07-05T11:56:59Z</time></trkpt>
 <trkpt lat="50.579682800" lon="6.424422000"><ele>516</ele><time>2013-07-05T11:57:03Z</time></trkpt>
 <trkpt lat="50.579679500" lon="6.424413700"><ele>517</ele><time>2013-07-05T11:57:07Z</time></trkpt>
 <trkpt lat="50.579679500" lon="6.424413700"><ele>517</ele><time>2013-07-05T11:57:11Z</time></trkpt>
 <trkpt lat="50.579679500" lon="6.424413700"><ele>517</ele><time>2013-07-05T11:57:15Z</time></trkpt>
 <trkpt lat="50.579671200" lon="6.424422800"><ele>518</ele><time>2013-07-05T11:57:19Z</time></trkpt>
 <trkpt lat="50.579671200" lon="6.424422800"><ele>518</ele><time>2013-07-05T11:57:23Z</time></trkpt>
 <trkpt lat="50.579671200" lon="6.424422800"><ele>518</ele><time>2013-07-05T11:57:27Z</time></trkpt>
 <trkpt lat="50.579671200" lon="6.424422800"><ele>518</ele><time>2013-07-05T11:57:31Z</time></trkpt>
 <trkpt lat="50.579672800" lon="6.424410400"><ele>518</ele><time>2013-07-05T11:57:35Z</time></trkpt>
 <trkpt lat="50.579672800" lon="6.424410400"><ele>518</ele><time>2013-07-05T11:57:39Z</time></trkpt>
 <trkpt lat="50.579672800" lon="6.424410400"><ele>518</ele><time>2013-07-05T11:57:43Z</time></trkpt>
 <trkpt lat="50.579672800" lon="6.424410400"><ele>519</ele><time>2013-07-05T11:57:47Z</time></trkpt>
 <trkpt lat="50.579672800" lon="6.424410400"><ele>519</ele><time>2013-07-05T11:57:51Z</time></trkpt>
 <trkpt lat="50.579673300" lon="6.424400800"><ele>519</ele><time>2013-07-05T11:57:55Z</time></trkpt>
 <trkpt lat="50.579670000" lon="6.424393300"><ele>519</ele><time>2013-07-05T11:57:59Z</time></trkpt>
 <trkpt lat="50.579670000" lon="6.424393300"><ele>519</ele><time>2013-07-05T11:58:03Z</time></trkpt>
 <trkpt lat="50.579670000" lon="6.424393300"><ele>519</ele><time>2013-07-05T11:58:07Z</time></trkpt>
 <trkpt lat="50.579670000" lon="6.424393300"><ele>519</ele><time>2013-07-05T11:58:11Z</time></trkpt>
 <trkpt lat="50.579670000" lon="6.424393300"><ele>519</ele><time>2013-07-05T11:58:15Z</time></trkpt>
 <trkpt lat="50.579670000" lon="6.424393300"><ele>520</ele><time>2013-07-05T11:58:19Z</time></trkpt>
 <trkpt lat="50.579670000" lon="6.424393300"><ele>520</ele><time>2013-07-05T11:58:23Z</time></trkpt>
 <trkpt lat="50.579670000" lon="6.424393300"><ele>520</ele><time>2013-07-05T11:58:27Z</time></trkpt>
 <trkpt lat="50.579670000" lon="6.424393300"><ele>520</ele><time>2013-07-05T11:58:31Z</time></trkpt>
 <trkpt lat="50.579675800" lon="6.424396600"><ele>520</ele><time>2013-07-05T11:58:35Z</time></trkpt>
 <trkpt lat="50.579675800" lon="6.424396600"><ele>521</ele><time>2013-07-05T11:58:39Z</time></trkpt>
 <trkpt lat="50.579675800" lon="6.424396600"><ele>521</ele><time>2013-07-05T11:58:43Z</time></trkpt>
 <trkpt lat="50.579675800" lon="6.424396600"><ele>521</ele><time>2013-07-05T11:58:47Z</time></trkpt>
 <trkpt lat="50.579675000" lon="6.424405400"><ele>521</ele><time>2013-07-05T11:58:51Z</time></trkpt>
 <trkpt lat="50.579675000" lon="6.424405400"><ele>522</ele><time>2013-07-05T11:58:55Z</time></trkpt>
 <trkpt lat="50.579675000" lon="6.424405400"><ele>522</ele><time>2013-07-05T11:58:59Z</time></trkpt>
 <trkpt lat="50.579675000" lon="6.424405400"><ele>523</ele><time>2013-07-05T11:59:03Z</time></trkpt>
 <trkpt lat="50.579675000" lon="6.424405400"><ele>523</ele><time>2013-07-05T11:59:07Z</time></trkpt>
 <trkpt lat="50.579680000" lon="6.424400800"><ele>523</ele><time>2013-07-05T11:59:11Z</time></trkpt>
 <trkpt lat="50.579680000" lon="6.424391600"><ele>524</ele><time>2013-07-05T11:59:15Z</time></trkpt>
 <trkpt lat="50.579680000" lon="6.424391600"><ele>524</ele><time>2013-07-05T11:59:19Z</time></trkpt>
 <trkpt lat="50.579680000" lon="6.424391600"><ele>524</ele><time>2013-07-05T11:59:23Z</time></trkpt>
 <trkpt lat="50.579680000" lon="6.424391600"><ele>525</ele><time>2013-07-05T11:59:27Z</time></trkpt>
 <trkpt lat="50.579680000" lon="6.424391600"><ele>525</ele><time>2013-07-05T11:59:31Z</time></trkpt>
 <trkpt lat="50.579680000" lon="6.424391600"><ele>525</ele><time>2013-07-05T11:59:35Z</time></trkpt>
 <trkpt lat="50.579680000" lon="6.424391600"><ele>525</ele><time>2013-07-05T11:59:39Z</time></trkpt>
 <trkpt lat="50.579680000" lon="6.424391600"><ele>525</ele><time>2013-07-05T11:59:43Z</time></trkpt>
 <trkpt lat="50.579680000" lon="6.424391600"><ele>525</ele><time>2013-07-05T11:59:47Z</time></trkpt>
 <trkpt lat="50.579680000" lon="6.424391600"><ele>525</ele><time>2013-07-05T11:59:51Z</time></trkpt>
 <trkpt lat="50.579680000" lon="6.424391600"><ele>525</ele><time>2013-07-05T11:59:55Z</time></trkpt>
 <trkpt lat="50.579680000" lon="6.424391600"><ele>526</ele><time>2013-07-05T11:59:59Z</time></trkpt>
 <trkpt lat="50.579680000" lon="6.424391600"><ele>526</ele><time>2013-07-05T12:00:03Z</time></trkpt>
 <trkpt lat="50.579680000" lon="6.424391600"><ele>526</ele><time>2013-07-05T12:00:07Z</time></trkpt>
 <trkpt lat="50.579680000" lon="6.424391600"><ele>526</ele><time>2013-07-05T12:00:11Z</time></trkpt>
 <trkpt lat="50.579680000" lon="6.424391600"><ele>526</ele><time>2013-07-05T12:00:15Z</time></trkpt>
 <trkpt lat="50.579680000" lon="6.424391600"><ele>526</ele><time>2013-07-05T12:00:19Z</time></trkpt>
 <trkpt lat="50.579681200" lon="6.424372900"><ele>526</ele><time>2013-07-05T12:00:23Z</time></trkpt>
 <trkpt lat="50.579684500" lon="6.424353700"><ele>526</ele><time>2013-07-05T12:00:27Z</time></trkpt>
 <trkpt lat="50.579684500" lon="6.424342400"><ele>526</ele><time>2013-07-05T12:00:31Z</time></trkpt>
 <trkpt lat="50.579681600" lon="6.424334900"><ele>526</ele><time>2013-07-05T12:00:35Z</time></trkpt>
 <trkpt lat="50.579678300" lon="6.424316200"><ele>526</ele><time>2013-07-05T12:00:39Z</time></trkpt>
 <trkpt lat="50.579678300" lon="6.424316200"><ele>526</ele><time>2013-07-05T12:00:43Z</time></trkpt>
 <trkpt lat="50.579678300" lon="6.424316200"><ele>526</ele><time>2013-07-05T12:00:47Z</time></trkpt>
 <trkpt lat="50.579678300" lon="6.424316200"><ele>526</ele><time>2013-07-05T12:00:51Z</time></trkpt>
 <trkpt lat="50.579676600" lon="6.424325300"><ele>526</ele><time>2013-07-05T12:00:55Z</time></trkpt>
 <trkpt lat="50.579677800" lon="6.424335300"><ele>526</ele><time>2013-07-05T12:00:59Z</time></trkpt>
 <trkpt lat="50.579677800" lon="6.424335300"><ele>526</ele><time>2013-07-05T12:01:03Z</time></trkpt>
 <trkpt lat="50.579677000" lon="6.424324500"><ele>526</ele><time>2013-07-05T12:01:07Z</time></trkpt>
 <trkpt lat="50.579677000" lon="6.424324500"><ele>526</ele><time>2013-07-05T12:01:11Z</time></trkpt>
 <trkpt lat="50.579677000" lon="6.424324500"><ele>526</ele><time>2013-07-05T12:01:15Z</time></trkpt>
 <trkpt lat="50.579677000" lon="6.424324500"><ele>526</ele><time>2013-07-05T12:01:19Z</time></trkpt>
 <trkpt lat="50.579670800" lon="6.424340300"><ele>526</ele><time>2013-07-05T12:01:23Z</time></trkpt>
 <trkpt lat="50.579668700" lon="6.424348700"><ele>527</ele><time>2013-07-05T12:01:27Z</time></trkpt>
 <trkpt lat="50.579668300" lon="6.424358700"><ele>527</ele><time>2013-07-05T12:01:31Z</time></trkpt>
 <trkpt lat="50.579668300" lon="6.424358700"><ele>527</ele><time>2013-07-05T12:01:35Z</time></trkpt>
 <trkpt lat="50.579664900" lon="6.424365300"><ele>527</ele><time>2013-07-05T12:01:39Z</time></trkpt>
 <trkpt lat="50.579661200" lon="6.424374100"><ele>527</ele><time>2013-07-05T12:01:43Z</time></trkpt>
 <trkpt lat="50.579656600" lon="6.424379500"><ele>527</ele><time>2013-07-05T12:01:47Z</time></trkpt>
 <trkpt lat="50.579656600" lon="6.424379500"><ele>527</ele><time>2013-07-05T12:01:51Z</time></trkpt>
 <trkpt lat="50.579656600" lon="6.424379500"><ele>527</ele><time>2013-07-05T12:01:55Z</time></trkpt>
 <trkpt lat="50.579656600" lon="6.424379500"><ele>527</ele><time>2013-07-05T12:01:59Z</time></trkpt>
 <trkpt lat="50.579656600" lon="6.424379500"><ele>526</ele><time>2013-07-05T12:02:03Z</time></trkpt>
 <trkpt lat="50.579656600" lon="6.424369500"><ele>526</ele><time>2013-07-05T12:02:07Z</time></trkpt>
 <trkpt lat="50.579656600" lon="6.424369500"><ele>526</ele><time>2013-07-05T12:02:11Z</time></trkpt>
 <trkpt lat="50.579656600" lon="6.424369500"><ele>526</ele><time>2013-07-05T12:02:15Z</time></trkpt>
 <trkpt lat="50.579655800" lon="6.424379100"><ele>526</ele><time>2013-07-05T12:02:19Z</time></trkpt>
 <trkpt lat="50.579657400" lon="6.424388300"><ele>526</ele><time>2013-07-05T12:02:23Z</time></trkpt>
 <trkpt lat="50.579660800" lon="6.424398300"><ele>526</ele><time>2013-07-05T12:02:27Z</time></trkpt>
 <trkpt lat="50.579664500" lon="6.424407000"><ele>526</ele><time>2013-07-05T12:02:31Z</time></trkpt>
 <trkpt lat="50.579669900" lon="6.424411200"><ele>526</ele><time>2013-07-05T12:02:35Z</time></trkpt>
 <trkpt lat="50.579669900" lon="6.424411200"><ele>526</ele><time>2013-07-05T12:02:39Z</time></trkpt>
 <trkpt lat="50.579675400" lon="6.424410800"><ele>526</ele><time>2013-07-05T12:02:43Z</time></trkpt>
 <trkpt lat="50.579675400" lon="6.424410800"><ele>526</ele><time>2013-07-05T12:02:47Z</time></trkpt>
 <trkpt lat="50.579678300" lon="6.424402800"><ele>526</ele><time>2013-07-05T12:02:51Z</time></trkpt>
 <trkpt lat="50.579678300" lon="6.424402800"><ele>526</ele><time>2013-07-05T12:02:55Z</time></trkpt>
 <trkpt lat="50.579682400" lon="6.424396200"><ele>526</ele><time>2013-07-05T12:02:59Z</time></trkpt>
 <trkpt lat="50.579682400" lon="6.424396200"><ele>526</ele><time>2013-07-05T12:03:03Z</time></trkpt>
 <trkpt lat="50.579682400" lon="6.424396200"><ele>526</ele><time>2013-07-05T12:03:07Z</time></trkpt>
 <trkpt lat="50.579682400" lon="6.424396200"><ele>526</ele><time>2013-07-05T12:03:11Z</time></trkpt>
 <trkpt lat="50.579682400" lon="6.424396200"><ele>526</ele><time>2013-07-05T12:03:15Z</time></trkpt>
 <trkpt lat="50.579682400" lon="6.424396200"><ele>526</ele><time>2013-07-05T12:03:19Z</time></trkpt>
 <trkpt lat="50.579682400" lon="6.424396200"><ele>526</ele><time>2013-07-05T12:03:23Z</time></trkpt>
 <trkpt lat="50.579682400" lon="6.424396200"><ele>526</ele><time>2013-07-05T12:03:27Z</time></trkpt>
 <trkpt lat="50.579682400" lon="6.424396200"><ele>526</ele><time>2013-07-05T12:03:31Z</time></trkpt>
 <trkpt lat="50.579682400" lon="6.424396200"><ele>526</ele><time>2013-07-05T12:03:35Z</time></trkpt>
 <trkpt lat="50.579682400" lon="6.424396200"><ele>526</ele><time>2013-07-05T12:03:39Z</time></trkpt>
 <trkpt lat="50.579682400" lon="6.424396200"><ele>526</ele><time>2013-07-05T12:03:43Z</time></trkpt>
 <trkpt lat="50.579682400" lon="6.424396200"><ele>526</ele><time>2013-07-05T12:03:47Z</time></trkpt>
 <trkpt lat="50.579682400" lon="6.424396200"><ele>526</ele><time>2013-07-05T12:03:51Z</time></trkpt>
 <trkpt lat="50.579682400" lon="6.424396200"><ele>526</ele><time>2013-07-05T12:03:55Z</time></trkpt>
 <trkpt lat="50.579682400" lon="6.424396200"><ele>526</ele><time>2013-07-05T12:03:59Z</time></trkpt>
 <trkpt lat="50.579682400" lon="6.424396200"><ele>526</ele><time>2013-07-05T12:04:03Z</time></trkpt>
 <trkpt lat="50.579682400" lon="6.424396200"><ele>526</ele><time>2013-07-05T12:04:07Z</time></trkpt>
 <trkpt lat="50.579682400" lon="6.424396200"><ele>526</ele><time>2013-07-05T12:04:11Z</time></trkpt>
 <trkpt lat="50.579682400" lon="6.424396200"><ele>526</ele><time>2013-07-05T12:04:15Z</time></trkpt>
 <trkpt lat="50.579682400" lon="6.424396200"><ele>526</ele><time>2013-07-05T12:04:19Z</time></trkpt>
 <trkpt lat="50.579682400" lon="6.424396200"><ele>526</ele><time>2013-07-05T12:04:23Z</time></trkpt>
 <trkpt lat="50.579682400" lon="6.424396200"><ele>526</ele><time>2013-07-05T12:04:27Z</time></trkpt>
 <trkpt lat="50.579682400" lon="6.424396200"><ele>526</ele><time>2013-07-05T12:04:31Z</time></trkpt>
 <trkpt lat="50.579682400" lon="6.424396200"><ele>526</ele><time>2013-07-05T12:04:35Z</time></trkpt>
 <trkpt lat="50.579682400" lon="6.424396200"><ele>526</ele><time>2013-07-05T12:04:39Z</time></trkpt>
 <trkpt lat="50.579682400" lon="6.424396200"><ele>526</ele><time>2013-07-05T12:04:43Z</time></trkpt>
 <trkpt lat="50.579682400" lon="6.424396200"><ele>526</ele><time>2013-07-05T12:04:47Z</time></trkpt>
 <trkpt lat="50.579682400" lon="6.424396200"><ele>526</ele><time>2013-07-05T12:04:51Z</time></trkpt>
 <trkpt lat="50.579682400" lon="6.424396200"><ele>526</ele><time>2013-07-05T12:04:55Z</time></trkpt>
 <trkpt lat="50.579682400" lon="6.424396200"><ele>526</ele><time>2013-07-05T12:04:59Z</time></trkpt>
 <trkpt lat="50.579682400" lon="6.424396200"><ele>526</ele><time>2013-07-05T12:05:03Z</time></trkpt>
 <trkpt lat="50.579682400" lon="6.424396200"><ele>526</ele><time>2013-07-05T12:05:07Z</time></trkpt>
 <trkpt lat="50.579682400" lon="6.424396200"><ele>526</ele><time>2013-07-05T12:05:11Z</time></trkpt>
 <trkpt lat="50.579682400" lon="6.424396200"><ele>526</ele><time>2013-07-05T12:05:15Z</time></trkpt>
 <trkpt lat="50.579682400" lon="6.424396200"><ele>526</ele><time>2013-07-05T12:05:19Z</time></trkpt>
 <trkpt lat="50.579682400" lon="6.424396200"><ele>526</ele><time>2013-07-05T12:05:23Z</time></trkpt>
 <trkpt lat="50.579682400" lon="6.424396200"><ele>526</ele><time>2013-07-05T12:05:27Z</time></trkpt>
 <trkpt lat="50.579682400" lon="6.424396200"><ele>526</ele><time>2013-07-05T12:05:31Z</time></trkpt>
 <trkpt lat="50.579682400" lon="6.424396200"><ele>526</ele><time>2013-07-05T12:05:35Z</time></trkpt>
 <trkpt lat="50.579682400" lon="6.424396200"><ele>526</ele><time>2013-07-05T12:05:39Z</time></trkpt>
 <trkpt lat="50.579682400" lon="6.424396200"><ele>526</ele><time>2013-07-05T12:05:43Z</time></trkpt>
 <trkpt lat="50.579682400" lon="6.424396200"><ele>526</ele><time>2013-07-05T12:05:47Z</time></trkpt>
 <trkpt lat="50.579682400" lon="6.424396200"><ele>526</ele><time>2013-07-05T12:05:51Z</time></trkpt>
 <trkpt lat="50.579682400" lon="6.424396200"><ele>525</ele><time>2013-07-05T12:05:55Z</time></trkpt>
 <trkpt lat="50.579682400" lon="6.424396200"><ele>525</ele><time>2013-07-05T12:05:59Z</time></trkpt>
 <trkpt lat="50.579682400" lon="6.424396200"><ele>525</ele><time>2013-07-05T12:06:03Z</time></trkpt>
 <trkpt lat="50.579682400" lon="6.424396200"><ele>525</ele><time>2013-07-05T12:06:07Z</time></trkpt>
 <trkpt lat="50.579682400" lon="6.424396200"><ele>525</ele><time>2013-07-05T12:06:11Z</time></trkpt>
 <trkpt lat="50.579682400" lon="6.424396200"><ele>525</ele><time>2013-07-05T12:06:15Z</time></trkpt>
 <trkpt lat="50.579682400" lon="6.424396200"><ele>525</ele><time>2013-07-05T12:06:19Z</time></trkpt>
 <trkpt lat="50.579682400" lon="6.424396200"><ele>525</ele><time>2013-07-05T12:06:23Z</time></trkpt>
 <trkpt lat="50.579682400" lon="6.424396200"><ele>525</ele><time>2013-07-05T12:06:27Z</time></trkpt>
 <trkpt lat="50.579682400" lon="6.424396200"><ele>525</ele><time>2013-07-05T12:06:31Z</time></trkpt>
 <trkpt lat="50.579678300" lon="6.424402400"><ele>524</ele><time>2013-07-05T12:06:35Z</time></trkpt>
 <trkpt lat="50.579678300" lon="6.424402400"><ele>524</ele><time>2013-07-05T12:06:39Z</time></trkpt>
 <trkpt lat="50.579678300" lon="6.424402400"><ele>524</ele><time>2013-07-05T12:06:43Z</time></trkpt>
 <trkpt lat="50.579678300" lon="6.424402400"><ele>524</ele><time>2013-07-05T12:06:47Z</time></trkpt>
 <trkpt lat="50.579678300" lon="6.424402400"><ele>524</ele><time>2013-07-05T12:06:51Z</time></trkpt>
 <trkpt lat="50.579678300" lon="6.424402400"><ele>524</ele><time>2013-07-05T12:06:55Z</time></trkpt>
 <trkpt lat="50.579678300" lon="6.424402400"><ele>524</ele><time>2013-07-05T12:06:59Z</time></trkpt>
 <trkpt lat="50.579678300" lon="6.424402400"><ele>524</ele><time>2013-07-05T12:07:03Z</time></trkpt>
 <trkpt lat="50.579678300" lon="6.424402400"><ele>524</ele><time>2013-07-05T12:07:07Z</time></trkpt>
 <trkpt lat="50.579678300" lon="6.424402400"><ele>524</ele><time>2013-07-05T12:07:11Z</time></trkpt>
 <trkpt lat="50.579678300" lon="6.424402400"><ele>524</ele><time>2013-07-05T12:07:15Z</time></trkpt>
 <trkpt lat="50.579678300" lon="6.424402400"><ele>524</ele><time>2013-07-05T12:07:19Z</time></trkpt>
 <trkpt lat="50.579678300" lon="6.424402400"><ele>524</ele><time>2013-07-05T12:07:23Z</time></trkpt>
 <trkpt lat="50.579678300" lon="6.424402400"><ele>524</ele><time>2013-07-05T12:07:27Z</time></trkpt>
 <trkpt lat="50.579678300" lon="6.424402400"><ele>524</ele><time>2013-07-05T12:07:31Z</time></trkpt>
 <trkpt lat="50.579678300" lon="6.424402400"><ele>524</ele><time>2013-07-05T12:07:35Z</time></trkpt>
 <trkpt lat="50.579678300" lon="6.424402400"><ele>524</ele><time>2013-07-05T12:07:39Z</time></trkpt>
 <trkpt lat="50.579678300" lon="6.424402400"><ele>524</ele><time>2013-07-05T12:07:43Z</time></trkpt>
 <trkpt lat="50.579678300" lon="6.424402400"><ele>524</ele><time>2013-07-05T12:07:47Z</time></trkpt>
 <trkpt lat="50.579678300" lon="6.424402400"><ele>524</ele><time>2013-07-05T12:07:51Z</time></trkpt>
 <trkpt lat="50.579678300" lon="6.424402400"><ele>524</ele><time>2013-07-05T12:07:55Z</time></trkpt>
 <trkpt lat="50.579673300" lon="6.424405800"><ele>524</ele><time>2013-07-05T12:07:59Z</time></trkpt>
 <trkpt lat="50.579673300" lon="6.424405800"><ele>524</ele><time>2013-07-05T12:08:03Z</time></trkpt>
 <trkpt lat="50.579673300" lon="6.424405800"><ele>524</ele><time>2013-07-05T12:08:07Z</time></trkpt>
 <trkpt lat="50.579673300" lon="6.424405800"><ele>524</ele><time>2013-07-05T12:08:11Z</time></trkpt>
 <trkpt lat="50.579673300" lon="6.424405800"><ele>524</ele><time>2013-07-05T12:08:15Z</time></trkpt>
 <trkpt lat="50.579673300" lon="6.424405800"><ele>524</ele><time>2013-07-05T12:08:19Z</time></trkpt>
 <trkpt lat="50.579673300" lon="6.424405800"><ele>524</ele><time>2013-07-05T12:08:23Z</time></trkpt>
 <trkpt lat="50.579673300" lon="6.424405800"><ele>524</ele><time>2013-07-05T12:08:27Z</time></trkpt>
 <trkpt lat="50.579673300" lon="6.424405800"><ele>524</ele><time>2013-07-05T12:08:31Z</time></trkpt>
 <trkpt lat="50.579673300" lon="6.424405800"><ele>524</ele><time>2013-07-05T12:08:35Z</time></trkpt>
 <trkpt lat="50.579673300" lon="6.424405800"><ele>524</ele><time>2013-07-05T12:08:39Z</time></trkpt>
 <trkpt lat="50.579673300" lon="6.424405800"><ele>524</ele><time>2013-07-05T12:08:43Z</time></trkpt>
 <trkpt lat="50.579673300" lon="6.424405800"><ele>525</ele><time>2013-07-05T12:08:47Z</time></trkpt>
 <trkpt lat="50.579673300" lon="6.424405800"><ele>525</ele><time>2013-07-05T12:08:51Z</time></trkpt>
 <trkpt lat="50.579673300" lon="6.424405800"><ele>525</ele><time>2013-07-05T12:08:55Z</time></trkpt>
 <trkpt lat="50.579673300" lon="6.424405800"><ele>525</ele><time>2013-07-05T12:08:59Z</time></trkpt>
 <trkpt lat="50.579673300" lon="6.424405800"><ele>525</ele><time>2013-07-05T12:09:03Z</time></trkpt>
 <trkpt lat="50.579673300" lon="6.424405800"><ele>525</ele><time>2013-07-05T12:09:07Z</time></trkpt>
 <trkpt lat="50.579673300" lon="6.424405800"><ele>525</ele><time>2013-07-05T12:09:11Z</time></trkpt>
 <trkpt lat="50.579673300" lon="6.424405800"><ele>525</ele><time>2013-07-05T12:09:15Z</time></trkpt>
 <trkpt lat="50.579673300" lon="6.424405800"><ele>525</ele><time>2013-07-05T12:09:19Z</time></trkpt>
 <trkpt lat="50.579673300" lon="6.424405800"><ele>524</ele><time>2013-07-05T12:09:23Z</time></trkpt>
 <trkpt lat="50.579673300" lon="6.424405800"><ele>524</ele><time>2013-07-05T12:09:27Z</time></trkpt>
 <trkpt lat="50.579673300" lon="6.424405800"><ele>524</ele><time>2013-07-05T12:09:31Z</time></trkpt>
 <trkpt lat="50.579673300" lon="6.424405800"><ele>524</ele><time>2013-07-05T12:09:35Z</time></trkpt>
 <trkpt lat="50.579673300" lon="6.424405800"><ele>524</ele><time>2013-07-05T12:09:39Z</time></trkpt>
 <trkpt lat="50.579673300" lon="6.424405800"><ele>524</ele><time>2013-07-05T12:09:43Z</time></trkpt>
 <trkpt lat="50.579673300" lon="6.424405800"><ele>524</ele><time>2013-07-05T12:09:47Z</time></trkpt>
 <trkpt lat="50.579677000" lon="6.424412000"><ele>524</ele><time>2013-07-05T12:09:51Z</time></trkpt>
 <trkpt lat="50.579677000" lon="6.424412000"><ele>524</ele><time>2013-07-05T12:09:55Z</time></trkpt>
 <trkpt lat="50.579677000" lon="6.424412000"><ele>524</ele><time>2013-07-05T12:09:59Z</time></trkpt>
 <trkpt lat="50.579677000" lon="6.424412000"><ele>524</ele><time>2013-07-05T12:10:03Z</time></trkpt>
 <trkpt lat="50.579677000" lon="6.424412000"><ele>524</ele><time>2013-07-05T12:10:07Z</time></trkpt>
 <trkpt lat="50.579677000" lon="6.424412000"><ele>524</ele><time>2013-07-05T12:10:11Z</time></trkpt>
 <trkpt lat="50.579677000" lon="6.424412000"><ele>524</ele><time>2013-07-05T12:10:15Z</time></trkpt>
 <trkpt lat="50.579674100" lon="6.424404100"><ele>524</ele><time>2013-07-05T12:10:19Z</time></trkpt>
 <trkpt lat="50.579674100" lon="6.424404100"><ele>524</ele><time>2013-07-05T12:10:23Z</time></trkpt>
 <trkpt lat="50.579674500" lon="6.424395300"><ele>524</ele><time>2013-07-05T12:10:27Z</time></trkpt>
 <trkpt lat="50.579680800" lon="6.424396200"><ele>524</ele><time>2013-07-05T12:10:31Z</time></trkpt>
 <trkpt lat="50.579687000" lon="6.424399500"><ele>524</ele><time>2013-07-05T12:10:35Z</time></trkpt>
 <trkpt lat="50.579692000" lon="6.424394100"><ele>524</ele><time>2013-07-05T12:10:39Z</time></trkpt>
 <trkpt lat="50.579692000" lon="6.424394100"><ele>524</ele><time>2013-07-05T12:10:43Z</time></trkpt>
 <trkpt lat="50.579696600" lon="6.424389100"><ele>524</ele><time>2013-07-05T12:10:47Z</time></trkpt>
 <trkpt lat="50.579696600" lon="6.424389100"><ele>524</ele><time>2013-07-05T12:10:51Z</time></trkpt>
 <trkpt lat="50.579700800" lon="6.424383300"><ele>524</ele><time>2013-07-05T12:10:55Z</time></trkpt>
 <trkpt lat="50.579704500" lon="6.424377000"><ele>524</ele><time>2013-07-05T12:10:59Z</time></trkpt>
 <trkpt lat="50.579704500" lon="6.424377000"><ele>524</ele><time>2013-07-05T12:11:03Z</time></trkpt>
 <trkpt lat="50.579704500" lon="6.424377000"><ele>524</ele><time>2013-07-05T12:11:07Z</time></trkpt>
 <trkpt lat="50.579704500" lon="6.424377000"><ele>524</ele><time>2013-07-05T12:11:11Z</time></trkpt>
 <trkpt lat="50.579711600" lon="6.424395300"><ele>524</ele><time>2013-07-05T12:11:15Z</time></trkpt>
 <trkpt lat="50.579711600" lon="6.424395300"><ele>524</ele><time>2013-07-05T12:11:19Z</time></trkpt>
 <trkpt lat="50.579706200" lon="6.424386200"><ele>524</ele><time>2013-07-05T12:11:23Z</time></trkpt>
 <trkpt lat="50.579700400" lon="6.424381200"><ele>524</ele><time>2013-07-05T12:11:27Z</time></trkpt>
 <trkpt lat="50.579702000" lon="6.424372400"><ele>524</ele><time>2013-07-05T12:11:31Z</time></trkpt>
 <trkpt lat="50.579695800" lon="6.424369500"><ele>524</ele><time>2013-07-05T12:11:35Z</time></trkpt>
 <trkpt lat="50.579691200" lon="6.424374100"><ele>524</ele><time>2013-07-05T12:11:39Z</time></trkpt>
 <trkpt lat="50.579691200" lon="6.424374100"><ele>524</ele><time>2013-07-05T12:11:43Z</time></trkpt>
 <trkpt lat="50.579691200" lon="6.424374100"><ele>524</ele><time>2013-07-05T12:11:47Z</time></trkpt>
 <trkpt lat="50.579691200" lon="6.424363700"><ele>524</ele><time>2013-07-05T12:11:51Z</time></trkpt>
 <trkpt lat="50.579691600" lon="6.424352800"><ele>524</ele><time>2013-07-05T12:11:55Z</time></trkpt>
 <trkpt lat="50.579692800" lon="6.424343700"><ele>524</ele><time>2013-07-05T12:11:59Z</time></trkpt>
 <trkpt lat="50.579692800" lon="6.424368700"><ele>524</ele><time>2013-07-05T12:12:03Z</time></trkpt>
 <trkpt lat="50.579693300" lon="6.424377400"><ele>524</ele><time>2013-07-05T12:12:07Z</time></trkpt>
 <trkpt lat="50.579693300" lon="6.424377400"><ele>524</ele><time>2013-07-05T12:12:11Z</time></trkpt>
 <trkpt lat="50.579697900" lon="6.424370800"><ele>524</ele><time>2013-07-05T12:12:15Z</time></trkpt>
 <trkpt lat="50.579702000" lon="6.424362400"><ele>524</ele><time>2013-07-05T12:12:19Z</time></trkpt>
 <trkpt lat="50.579705300" lon="6.424369500"><ele>524</ele><time>2013-07-05T12:12:23Z</time></trkpt>
 <trkpt lat="50.579709100" lon="6.424376200"><ele>524</ele><time>2013-07-05T12:12:27Z</time></trkpt>
 <trkpt lat="50.579709100" lon="6.424376200"><ele>524</ele><time>2013-07-05T12:12:31Z</time></trkpt>
 <trkpt lat="50.579709100" lon="6.424376200"><ele>524</ele><time>2013-07-05T12:12:35Z</time></trkpt>
 <trkpt lat="50.579709100" lon="6.424376200"><ele>524</ele><time>2013-07-05T12:12:39Z</time></trkpt>
 <trkpt lat="50.579709100" lon="6.424376200"><ele>524</ele><time>2013-07-05T12:12:43Z</time></trkpt>
 <trkpt lat="50.579709100" lon="6.424376200"><ele>524</ele><time>2013-07-05T12:12:47Z</time></trkpt>
 <trkpt lat="50.579709100" lon="6.424376200"><ele>524</ele><time>2013-07-05T12:12:51Z</time></trkpt>
 <trkpt lat="50.579709100" lon="6.424376200"><ele>524</ele><time>2013-07-05T12:12:55Z</time></trkpt>
 <trkpt lat="50.579709100" lon="6.424376200"><ele>524</ele><time>2013-07-05T12:12:59Z</time></trkpt>
 <trkpt lat="50.579709100" lon="6.424376200"><ele>524</ele><time>2013-07-05T12:13:03Z</time></trkpt>
 <trkpt lat="50.579709100" lon="6.424376200"><ele>524</ele><time>2013-07-05T12:13:07Z</time></trkpt>
 <trkpt lat="50.579709100" lon="6.424376200"><ele>524</ele><time>2013-07-05T12:13:11Z</time></trkpt>
 <trkpt lat="50.579713700" lon="6.424333700"><ele>524</ele><time>2013-07-05T12:13:15Z</time></trkpt>
 <trkpt lat="50.579716600" lon="6.424279500"><ele>524</ele><time>2013-07-05T12:13:19Z</time></trkpt>
 <trkpt lat="50.579717800" lon="6.424266600"><ele>524</ele><time>2013-07-05T12:13:23Z</time></trkpt>
 <trkpt lat="50.579724100" lon="6.424266200"><ele>524</ele><time>2013-07-05T12:13:27Z</time></trkpt>
 <trkpt lat="50.579729100" lon="6.424272000"><ele>524</ele><time>2013-07-05T12:13:31Z</time></trkpt>
 <trkpt lat="50.579734100" lon="6.424279900"><ele>524</ele><time>2013-07-05T12:13:35Z</time></trkpt>
 <trkpt lat="50.579734100" lon="6.424279900"><ele>524</ele><time>2013-07-05T12:13:39Z</time></trkpt>
 <trkpt lat="50.579734100" lon="6.424279900"><ele>524</ele><time>2013-07-05T12:13:43Z</time></trkpt>
 <trkpt lat="50.579734100" lon="6.424279900"><ele>524</ele><time>2013-07-05T12:13:47Z</time></trkpt>
 <trkpt lat="50.579734100" lon="6.424279900"><ele>524</ele><time>2013-07-05T12:13:51Z</time></trkpt>
 <trkpt lat="50.579734100" lon="6.424279900"><ele>524</ele><time>2013-07-05T12:13:55Z</time></trkpt>
 <trkpt lat="50.579740800" lon="6.424296200"><ele>524</ele><time>2013-07-05T12:13:59Z</time></trkpt>
 <trkpt lat="50.579743700" lon="6.424306600"><ele>524</ele><time>2013-07-05T12:14:03Z</time></trkpt>
 <trkpt lat="50.579747900" lon="6.424312500"><ele>524</ele><time>2013-07-05T12:14:07Z</time></trkpt>
 <trkpt lat="50.579751600" lon="6.424318700"><ele>524</ele><time>2013-07-05T12:14:11Z</time></trkpt>
 <trkpt lat="50.579751600" lon="6.424318700"><ele>524</ele><time>2013-07-05T12:14:15Z</time></trkpt>
 <trkpt lat="50.579751600" lon="6.424318700"><ele>524</ele><time>2013-07-05T12:14:19Z</time></trkpt>
 <trkpt lat="50.579751600" lon="6.424318700"><ele>524</ele><time>2013-07-05T12:14:23Z</time></trkpt>
 <trkpt lat="50.579751600" lon="6.424318700"><ele>524</ele><time>2013-07-05T12:14:27Z</time></trkpt>
 <trkpt lat="50.579748300" lon="6.424311600"><ele>524</ele><time>2013-07-05T12:14:31Z</time></trkpt>
 <trkpt lat="50.579748300" lon="6.424311600"><ele>524</ele><time>2013-07-05T12:14:35Z</time></trkpt>
 <trkpt lat="50.579751600" lon="6.424303700"><ele>525</ele><time>2013-07-05T12:14:39Z</time></trkpt>
 <trkpt lat="50.579717000" lon="6.424268700"><ele>525</ele><time>2013-07-05T12:14:43Z</time></trkpt>
 <trkpt lat="50.579688300" lon="6.424250400"><ele>525</ele><time>2013-07-05T12:14:47Z</time></trkpt>
 <trkpt lat="50.579669900" lon="6.424226200"><ele>525</ele><time>2013-07-05T12:14:51Z</time></trkpt>
 <trkpt lat="50.579662400" lon="6.424219900"><ele>525</ele><time>2013-07-05T12:14:55Z</time></trkpt>
 <trkpt lat="50.579656200" lon="6.424218700"><ele>525</ele><time>2013-07-05T12:14:59Z</time></trkpt>
 <trkpt lat="50.579654100" lon="6.424210800"><ele>525</ele><time>2013-07-05T12:15:03Z</time></trkpt>
 <trkpt lat="50.579650800" lon="6.424202800"><ele>525</ele><time>2013-07-05T12:15:07Z</time></trkpt>
 <trkpt lat="50.579650800" lon="6.424202800"><ele>525</ele><time>2013-07-05T12:15:11Z</time></trkpt>
 <trkpt lat="50.579650800" lon="6.424202800"><ele>525</ele><time>2013-07-05T12:15:15Z</time></trkpt>
 <trkpt lat="50.579650800" lon="6.424202800"><ele>525</ele><time>2013-07-05T12:15:19Z</time></trkpt>
 <trkpt lat="50.579666600" lon="6.424207900"><ele>525</ele><time>2013-07-05T12:15:23Z</time></trkpt>
 <trkpt lat="50.579666600" lon="6.424207900"><ele>525</ele><time>2013-07-05T12:15:27Z</time></trkpt>
 <trkpt lat="50.579671600" lon="6.424213700"><ele>525</ele><time>2013-07-05T12:15:31Z</time></trkpt>
 <trkpt lat="50.579675800" lon="6.424219100"><ele>525</ele><time>2013-07-05T12:15:35Z</time></trkpt>
 <trkpt lat="50.579675800" lon="6.424219100"><ele>525</ele><time>2013-07-05T12:15:39Z</time></trkpt>
 <trkpt lat="50.579675800" lon="6.424219100"><ele>524</ele><time>2013-07-05T12:15:43Z</time></trkpt>
 <trkpt lat="50.579675800" lon="6.424219100"><ele>524</ele><time>2013-07-05T12:15:47Z</time></trkpt>
 <trkpt lat="50.579677400" lon="6.424210800"><ele>524</ele><time>2013-07-05T12:15:51Z</time></trkpt>
 <trkpt lat="50.579675000" lon="6.424201200"><ele>524</ele><time>2013-07-05T12:15:55Z</time></trkpt>
 <trkpt lat="50.579690800" lon="6.424223300"><ele>524</ele><time>2013-07-05T12:15:59Z</time></trkpt>
 <trkpt lat="50.579725800" lon="6.424243700"><ele>524</ele><time>2013-07-05T12:16:03Z</time></trkpt>
 <trkpt lat="50.579736600" lon="6.424252800"><ele>524</ele><time>2013-07-05T12:16:07Z</time></trkpt>
 <trkpt lat="50.579736600" lon="6.424252800"><ele>524</ele><time>2013-07-05T12:16:11Z</time></trkpt>
 <trkpt lat="50.579736600" lon="6.424252800"><ele>524</ele><time>2013-07-05T12:16:15Z</time></trkpt>
 <trkpt lat="50.579736600" lon="6.424252800"><ele>524</ele><time>2013-07-05T12:16:19Z</time></trkpt>
 <trkpt lat="50.579736600" lon="6.424252800"><ele>524</ele><time>2013-07-05T12:16:23Z</time></trkpt>
 <trkpt lat="50.579720800" lon="6.424267000"><ele>524</ele><time>2013-07-05T12:16:27Z</time></trkpt>
 <trkpt lat="50.579731600" lon="6.424329100"><ele>524</ele><time>2013-07-05T12:16:31Z</time></trkpt>
 <trkpt lat="50.579762000" lon="6.424380700"><ele>524</ele><time>2013-07-05T12:16:35Z</time></trkpt>
 <trkpt lat="50.579784900" lon="6.424402000"><ele>524</ele><time>2013-07-05T12:16:39Z</time></trkpt>
 <trkpt lat="50.579787900" lon="6.424411600"><ele>524</ele><time>2013-07-05T12:16:43Z</time></trkpt>
 <trkpt lat="50.579803700" lon="6.424405300"><ele>524</ele><time>2013-07-05T12:16:47Z</time></trkpt>
 <trkpt lat="50.579764100" lon="6.424417400"><ele>524</ele><time>2013-07-05T12:16:51Z</time></trkpt>
 <trkpt lat="50.579718700" lon="6.424398300"><ele>524</ele><time>2013-07-05T12:16:55Z</time></trkpt>
 <trkpt lat="50.579703300" lon="6.424398300"><ele>524</ele><time>2013-07-05T12:16:59Z</time></trkpt>
 <trkpt lat="50.579703300" lon="6.424398300"><ele>524</ele><time>2013-07-05T12:17:03Z</time></trkpt>
 <trkpt lat="50.579703300" lon="6.424398300"><ele>524</ele><time>2013-07-05T12:17:07Z</time></trkpt>
 <trkpt lat="50.579703300" lon="6.424398300"><ele>524</ele><time>2013-07-05T12:17:11Z</time></trkpt>
 <trkpt lat="50.579703300" lon="6.424398300"><ele>524</ele><time>2013-07-05T12:17:15Z</time></trkpt>
 <trkpt lat="50.579698300" lon="6.424380300"><ele>524</ele><time>2013-07-05T12:17:19Z</time></trkpt>
 <trkpt lat="50.579698300" lon="6.424380300"><ele>524</ele><time>2013-07-05T12:17:23Z</time></trkpt>
 <trkpt lat="50.579692800" lon="6.424380000"><ele>524</ele><time>2013-07-05T12:17:27Z</time></trkpt>
 <trkpt lat="50.579689100" lon="6.424372800"><ele>524</ele><time>2013-07-05T12:17:31Z</time></trkpt>
 <trkpt lat="50.579682400" lon="6.424367400"><ele>524</ele><time>2013-07-05T12:17:35Z</time></trkpt>
 <trkpt lat="50.579678300" lon="6.424361600"><ele>524</ele><time>2013-07-05T12:17:39Z</time></trkpt>
 <trkpt lat="50.579678300" lon="6.424361600"><ele>524</ele><time>2013-07-05T12:17:43Z</time></trkpt>
 <trkpt lat="50.579688300" lon="6.424367000"><ele>525</ele><time>2013-07-05T12:17:47Z</time></trkpt>
 <trkpt lat="50.579688300" lon="6.424367000"><ele>525</ele><time>2013-07-05T12:17:51Z</time></trkpt>
 <trkpt lat="50.579689500" lon="6.424376600"><ele>525</ele><time>2013-07-05T12:17:55Z</time></trkpt>
 <trkpt lat="50.579689500" lon="6.424376600"><ele>525</ele><time>2013-07-05T12:17:59Z</time></trkpt>
 <trkpt lat="50.579691600" lon="6.424384900"><ele>525</ele><time>2013-07-05T12:18:03Z</time></trkpt>
 <trkpt lat="50.579692800" lon="6.424393300"><ele>525</ele><time>2013-07-05T12:18:07Z</time></trkpt>
 <trkpt lat="50.579692800" lon="6.424393300"><ele>525</ele><time>2013-07-05T12:18:11Z</time></trkpt>
 <trkpt lat="50.579692800" lon="6.424393300"><ele>525</ele><time>2013-07-05T12:18:15Z</time></trkpt>
 <trkpt lat="50.579692400" lon="6.424402800"><ele>525</ele><time>2013-07-05T12:18:19Z</time></trkpt>
 <trkpt lat="50.579692400" lon="6.424402800"><ele>525</ele><time>2013-07-05T12:18:23Z</time></trkpt>
 <trkpt lat="50.579692400" lon="6.424402800"><ele>525</ele><time>2013-07-05T12:18:27Z</time></trkpt>
 <trkpt lat="50.579686600" lon="6.424397800"><ele>525</ele><time>2013-07-05T12:18:31Z</time></trkpt>
 <trkpt lat="50.579679900" lon="6.424397000"><ele>525</ele><time>2013-07-05T12:18:35Z</time></trkpt>
 <trkpt lat="50.579679500" lon="6.424386200"><ele>525</ele><time>2013-07-05T12:18:39Z</time></trkpt>
 <trkpt lat="50.579680800" lon="6.424374500"><ele>525</ele><time>2013-07-05T12:18:43Z</time></trkpt>
 <trkpt lat="50.579680800" lon="6.424374500"><ele>525</ele><time>2013-07-05T12:18:47Z</time></trkpt>
 <trkpt lat="50.579680800" lon="6.424374500"><ele>525</ele><time>2013-07-05T12:18:51Z</time></trkpt>
 <trkpt lat="50.579675400" lon="6.424369100"><ele>525</ele><time>2013-07-05T12:18:55Z</time></trkpt>
 <trkpt lat="50.579675400" lon="6.424369100"><ele>525</ele><time>2013-07-05T12:18:59Z</time></trkpt>
 <trkpt lat="50.579680800" lon="6.424366600"><ele>525</ele><time>2013-07-05T12:19:03Z</time></trkpt>
 <trkpt lat="50.579680800" lon="6.424366600"><ele>524</ele><time>2013-07-05T12:19:07Z</time></trkpt>
 <trkpt lat="50.579677900" lon="6.424345300"><ele>524</ele><time>2013-07-05T12:19:11Z</time></trkpt>
 <trkpt lat="50.579677900" lon="6.424345300"><ele>524</ele><time>2013-07-05T12:19:15Z</time></trkpt>
 <trkpt lat="50.579670300" lon="6.424319500"><ele>524</ele><time>2013-07-05T12:19:19Z</time></trkpt>
 <trkpt lat="50.579632400" lon="6.424306600"><ele>524</ele><time>2013-07-05T12:19:23Z</time></trkpt>
 <trkpt lat="50.579599100" lon="6.424319100"><ele>524</ele><time>2013-07-05T12:19:27Z</time></trkpt>
 <trkpt lat="50.579569500" lon="6.424307000"><ele>524</ele><time>2013-07-05T12:19:31Z</time></trkpt>
 <trkpt lat="50.579539900" lon="6.424309500"><ele>523</ele><time>2013-07-05T12:19:35Z</time></trkpt>
 <trkpt lat="50.579508700" lon="6.424325400"><ele>523</ele><time>2013-07-05T12:19:39Z</time></trkpt>
 <trkpt lat="50.579495800" lon="6.424357000"><ele>523</ele><time>2013-07-05T12:19:43Z</time></trkpt>
 <trkpt lat="50.579484100" lon="6.424386200"><ele>523</ele><time>2013-07-05T12:19:47Z</time></trkpt>
 <trkpt lat="50.579475800" lon="6.424442800"><ele>522</ele><time>2013-07-05T12:19:51Z</time></trkpt>
 <trkpt lat="50.579475800" lon="6.424490800"><ele>522</ele><time>2013-07-05T12:19:55Z</time></trkpt>
 <trkpt lat="50.579465400" lon="6.424538300"><ele>521</ele><time>2013-07-05T12:19:59Z</time></trkpt>
 <trkpt lat="50.579472000" lon="6.424587400"><ele>521</ele><time>2013-07-05T12:20:03Z</time></trkpt>
 <trkpt lat="50.579461200" lon="6.424652400"><ele>520</ele><time>2013-07-05T12:20:07Z</time></trkpt>
 <trkpt lat="50.579448300" lon="6.424708700"><ele>520</ele><time>2013-07-05T12:20:11Z</time></trkpt>
 <trkpt lat="50.579431200" lon="6.424771200"><ele>520</ele><time>2013-07-05T12:20:15Z</time></trkpt>
 <trkpt lat="50.579412800" lon="6.424816600"><ele>519</ele><time>2013-07-05T12:20:19Z</time></trkpt>
 <trkpt lat="50.579401600" lon="6.424853700"><ele>519</ele><time>2013-07-05T12:20:23Z</time></trkpt>
 <trkpt lat="50.579399100" lon="6.424866600"><ele>519</ele><time>2013-07-05T12:20:27Z</time></trkpt>
 <trkpt lat="50.579389900" lon="6.424882800"><ele>518</ele><time>2013-07-05T12:20:31Z</time></trkpt>
 <trkpt lat="50.579389900" lon="6.424882800"><ele>518</ele><time>2013-07-05T12:20:35Z</time></trkpt>
 <trkpt lat="50.579389900" lon="6.424882800"><ele>518</ele><time>2013-07-05T12:20:39Z</time></trkpt>
 <trkpt lat="50.579395800" lon="6.424886200"><ele>518</ele><time>2013-07-05T12:20:43Z</time></trkpt>
 <trkpt lat="50.579399100" lon="6.424896200"><ele>518</ele><time>2013-07-05T12:20:47Z</time></trkpt>
 <trkpt lat="50.579414900" lon="6.424909900"><ele>517</ele><time>2013-07-05T12:20:51Z</time></trkpt>
 <trkpt lat="50.579439900" lon="6.424909100"><ele>517</ele><time>2013-07-05T12:20:55Z</time></trkpt>
 <trkpt lat="50.579477800" lon="6.424915800"><ele>517</ele><time>2013-07-05T12:20:59Z</time></trkpt>
 <trkpt lat="50.579516200" lon="6.424938300"><ele>517</ele><time>2013-07-05T12:21:03Z</time></trkpt>
 <trkpt lat="50.579549900" lon="6.424967000"><ele>517</ele><time>2013-07-05T12:21:07Z</time></trkpt>
 <trkpt lat="50.579589100" lon="6.425000800"><ele>516</ele><time>2013-07-05T12:21:11Z</time></trkpt>
 <trkpt lat="50.579625400" lon="6.425032000"><ele>516</ele><time>2013-07-05T12:21:15Z</time></trkpt>
 <trkpt lat="50.579665800" lon="6.425054500"><ele>516</ele><time>2013-07-05T12:21:19Z</time></trkpt>
 <trkpt lat="50.579711600" lon="6.425088700"><ele>515</ele><time>2013-07-05T12:21:23Z</time></trkpt>
 <trkpt lat="50.579746600" lon="6.425134100"><ele>515</ele><time>2013-07-05T12:21:27Z</time></trkpt>
 <trkpt lat="50.579772800" lon="6.425189100"><ele>515</ele><time>2013-07-05T12:21:31Z</time></trkpt>
 <trkpt lat="50.579783700" lon="6.425227900"><ele>514</ele><time>2013-07-05T12:21:35Z</time></trkpt>
 <trkpt lat="50.579785300" lon="6.425247000"><ele>514</ele><time>2013-07-05T12:21:39Z</time></trkpt>
 <trkpt lat="50.579783700" lon="6.425271200"><ele>514</ele><time>2013-07-05T12:21:43Z</time></trkpt>
 <trkpt lat="50.579768300" lon="6.425317900"><ele>514</ele><time>2013-07-05T12:21:47Z</time></trkpt>
 <trkpt lat="50.579747400" lon="6.425380300"><ele>513</ele><time>2013-07-05T12:21:51Z</time></trkpt>
 <trkpt lat="50.579710800" lon="6.425433700"><ele>513</ele><time>2013-07-05T12:21:55Z</time></trkpt>
 <trkpt lat="50.579687800" lon="6.425487400"><ele>513</ele><time>2013-07-05T12:21:59Z</time></trkpt>
 <trkpt lat="50.579674500" lon="6.425552400"><ele>513</ele><time>2013-07-05T12:22:03Z</time></trkpt>
 <trkpt lat="50.579667000" lon="6.425607000"><ele>513</ele><time>2013-07-05T12:22:07Z</time></trkpt>
 <trkpt lat="50.579664900" lon="6.425664500"><ele>513</ele><time>2013-07-05T12:22:11Z</time></trkpt>
 <trkpt lat="50.579662400" lon="6.425688700"><ele>513</ele><time>2013-07-05T12:22:15Z</time></trkpt>
 <trkpt lat="50.579669900" lon="6.425672000"><ele>513</ele><time>2013-07-05T12:22:19Z</time></trkpt>
 <trkpt lat="50.579675800" lon="6.425665800"><ele>513</ele><time>2013-07-05T12:22:23Z</time></trkpt>
 <trkpt lat="50.579680000" lon="6.425659500"><ele>513</ele><time>2013-07-05T12:22:27Z</time></trkpt>
 <trkpt lat="50.579680000" lon="6.425659500"><ele>513</ele><time>2013-07-05T12:22:31Z</time></trkpt>
 <trkpt lat="50.579680000" lon="6.425659500"><ele>513</ele><time>2013-07-05T12:22:35Z</time></trkpt>
 <trkpt lat="50.579683300" lon="6.425667000"><ele>513</ele><time>2013-07-05T12:22:39Z</time></trkpt>
 <trkpt lat="50.579682000" lon="6.425675800"><ele>513</ele><time>2013-07-05T12:22:43Z</time></trkpt>
 <trkpt lat="50.579682000" lon="6.425675800"><ele>513</ele><time>2013-07-05T12:22:47Z</time></trkpt>
 <trkpt lat="50.579682000" lon="6.425675800"><ele>513</ele><time>2013-07-05T12:22:51Z</time></trkpt>
 <trkpt lat="50.579682000" lon="6.425675800"><ele>513</ele><time>2013-07-05T12:22:55Z</time></trkpt>
 <trkpt lat="50.579682000" lon="6.425675800"><ele>512</ele><time>2013-07-05T12:22:59Z</time></trkpt>
 <trkpt lat="50.579682000" lon="6.425675800"><ele>512</ele><time>2013-07-05T12:23:03Z</time></trkpt>
 <trkpt lat="50.579682800" lon="6.425666200"><ele>512</ele><time>2013-07-05T12:23:07Z</time></trkpt>
 <trkpt lat="50.579683700" lon="6.425657800"><ele>512</ele><time>2013-07-05T12:23:11Z</time></trkpt>
 <trkpt lat="50.579686600" lon="6.425649900"><ele>512</ele><time>2013-07-05T12:23:15Z</time></trkpt>
 <trkpt lat="50.579672400" lon="6.425672400"><ele>512</ele><time>2013-07-05T12:23:19Z</time></trkpt>
 <trkpt lat="50.579654900" lon="6.425755800"><ele>512</ele><time>2013-07-05T12:23:23Z</time></trkpt>
 <trkpt lat="50.579645800" lon="6.425823300"><ele>511</ele><time>2013-07-05T12:23:27Z</time></trkpt>
 <trkpt lat="50.579639900" lon="6.425876600"><ele>511</ele><time>2013-07-05T12:23:31Z</time></trkpt>
 <trkpt lat="50.579622800" lon="6.425957900"><ele>511</ele><time>2013-07-05T12:23:35Z</time></trkpt>
 <trkpt lat="50.579591600" lon="6.426017000"><ele>510</ele><time>2013-07-05T12:23:39Z</time></trkpt>
 <trkpt lat="50.579565700" lon="6.426085800"><ele>510</ele><time>2013-07-05T12:23:43Z</time></trkpt>
 <trkpt lat="50.579556600" lon="6.426150300"><ele>509</ele><time>2013-07-05T12:23:47Z</time></trkpt>
 <trkpt lat="50.579545300" lon="6.426217000"><ele>509</ele><time>2013-07-05T12:23:51Z</time></trkpt>
 <trkpt lat="50.579536600" lon="6.426283700"><ele>508</ele><time>2013-07-05T12:23:55Z</time></trkpt>
 <trkpt lat="50.579529100" lon="6.426356600"><ele>507</ele><time>2013-07-05T12:23:59Z</time></trkpt>
 <trkpt lat="50.579523300" lon="6.426427400"><ele>506</ele><time>2013-07-05T12:24:03Z</time></trkpt>
 <trkpt lat="50.579514100" lon="6.426494900"><ele>505</ele><time>2013-07-05T12:24:07Z</time></trkpt>
 <trkpt lat="50.579508300" lon="6.426558700"><ele>505</ele><time>2013-07-05T12:24:11Z</time></trkpt>
 <trkpt lat="50.579494900" lon="6.426616600"><ele>504</ele><time>2013-07-05T12:24:15Z</time></trkpt>
 <trkpt lat="50.579470400" lon="6.426670300"><ele>503</ele><time>2013-07-05T12:24:19Z</time></trkpt>
 <trkpt lat="50.579443700" lon="6.426723700"><ele>502</ele><time>2013-07-05T12:24:23Z</time></trkpt>
 <trkpt lat="50.579428300" lon="6.426772900"><ele>501</ele><time>2013-07-05T12:24:27Z</time></trkpt>
 <trkpt lat="50.579403300" lon="6.426817400"><ele>499</ele><time>2013-07-05T12:24:31Z</time></trkpt>
 <trkpt lat="50.579377000" lon="6.426874900"><ele>498</ele><time>2013-07-05T12:24:35Z</time></trkpt>
 <trkpt lat="50.579357000" lon="6.426931600"><ele>497</ele><time>2013-07-05T12:24:39Z</time></trkpt>
 <trkpt lat="50.579347000" lon="6.426985300"><ele>497</ele><time>2013-07-05T12:24:43Z</time></trkpt>
 <trkpt lat="50.579353300" lon="6.427042800"><ele>496</ele><time>2013-07-05T12:24:47Z</time></trkpt>
 <trkpt lat="50.579376200" lon="6.427088300"><ele>495</ele><time>2013-07-05T12:24:51Z</time></trkpt>
 <trkpt lat="50.579406600" lon="6.427142400"><ele>494</ele><time>2013-07-05T12:24:55Z</time></trkpt>
 <trkpt lat="50.579430800" lon="6.427207000"><ele>493</ele><time>2013-07-05T12:24:59Z</time></trkpt>
 <trkpt lat="50.579449100" lon="6.427268700"><ele>492</ele><time>2013-07-05T12:25:03Z</time></trkpt>
 <trkpt lat="50.579482400" lon="6.427309100"><ele>491</ele><time>2013-07-05T12:25:07Z</time></trkpt>
 <trkpt lat="50.579519100" lon="6.427342000"><ele>490</ele><time>2013-07-05T12:25:11Z</time></trkpt>
 <trkpt lat="50.579564900" lon="6.427373200"><ele>490</ele><time>2013-07-05T12:25:15Z</time></trkpt>
 <trkpt lat="50.579602400" lon="6.427402000"><ele>489</ele><time>2013-07-05T12:25:19Z</time></trkpt>
 <trkpt lat="50.579613300" lon="6.427402800"><ele>488</ele><time>2013-07-05T12:25:23Z</time></trkpt>
 <trkpt lat="50.579634500" lon="6.427435300"><ele>488</ele><time>2013-07-05T12:25:27Z</time></trkpt>
 <trkpt lat="50.579683200" lon="6.427489500"><ele>487</ele><time>2013-07-05T12:25:31Z</time></trkpt>
 <trkpt lat="50.579719100" lon="6.427542000"><ele>487</ele><time>2013-07-05T12:25:35Z</time></trkpt>
 <trkpt lat="50.579747000" lon="6.427645300"><ele>486</ele><time>2013-07-05T12:25:39Z</time></trkpt>
 <trkpt lat="50.579792000" lon="6.427679900"><ele>486</ele><time>2013-07-05T12:25:43Z</time></trkpt>
 <trkpt lat="50.579832000" lon="6.427727800"><ele>485</ele><time>2013-07-05T12:25:47Z</time></trkpt>
 <trkpt lat="50.579858300" lon="6.427781600"><ele>485</ele><time>2013-07-05T12:25:51Z</time></trkpt>
 <trkpt lat="50.579887400" lon="6.427836600"><ele>485</ele><time>2013-07-05T12:25:55Z</time></trkpt>
 <trkpt lat="50.579914900" lon="6.427898700"><ele>484</ele><time>2013-07-05T12:25:59Z</time></trkpt>
 <trkpt lat="50.579943200" lon="6.427998700"><ele>484</ele><time>2013-07-05T12:26:03Z</time></trkpt>
 <trkpt lat="50.579955800" lon="6.428081600"><ele>484</ele><time>2013-07-05T12:26:07Z</time></trkpt>
 <trkpt lat="50.579985300" lon="6.428153300"><ele>484</ele><time>2013-07-05T12:26:11Z</time></trkpt>
 <trkpt lat="50.580028700" lon="6.428209900"><ele>485</ele><time>2013-07-05T12:26:15Z</time></trkpt>
 <trkpt lat="50.580073700" lon="6.428267000"><ele>485</ele><time>2013-07-05T12:26:19Z</time></trkpt>
 <trkpt lat="50.580107400" lon="6.428327000"><ele>485</ele><time>2013-07-05T12:26:23Z</time></trkpt>
 <trkpt lat="50.580142400" lon="6.428394100"><ele>486</ele><time>2013-07-05T12:26:27Z</time></trkpt>
 <trkpt lat="50.580169900" lon="6.428467400"><ele>486</ele><time>2013-07-05T12:26:31Z</time></trkpt>
 <trkpt lat="50.580182400" lon="6.428521600"><ele>487</ele><time>2013-07-05T12:26:35Z</time></trkpt>
 <trkpt lat="50.580212000" lon="6.428597400"><ele>488</ele><time>2013-07-05T12:26:39Z</time></trkpt>
 <trkpt lat="50.580233700" lon="6.428663700"><ele>489</ele><time>2013-07-05T12:26:43Z</time></trkpt>
 <trkpt lat="50.580258300" lon="6.428747000"><ele>490</ele><time>2013-07-05T12:26:47Z</time></trkpt>
 <trkpt lat="50.580284100" lon="6.428821600"><ele>491</ele><time>2013-07-05T12:26:51Z</time></trkpt>
 <trkpt lat="50.580297800" lon="6.428900800"><ele>492</ele><time>2013-07-05T12:26:55Z</time></trkpt>
 <trkpt lat="50.580310800" lon="6.428991600"><ele>493</ele><time>2013-07-05T12:26:59Z</time></trkpt>
 <trkpt lat="50.580319500" lon="6.429079100"><ele>494</ele><time>2013-07-05T12:27:03Z</time></trkpt>
 <trkpt lat="50.580336600" lon="6.429159900"><ele>495</ele><time>2013-07-05T12:27:07Z</time></trkpt>
 <trkpt lat="50.580330400" lon="6.429241200"><ele>495</ele><time>2013-07-05T12:27:11Z</time></trkpt>
 <trkpt lat="50.580311200" lon="6.429325400"><ele>496</ele><time>2013-07-05T12:27:15Z</time></trkpt>
 <trkpt lat="50.580297900" lon="6.429407900"><ele>497</ele><time>2013-07-05T12:27:19Z</time></trkpt>
 <trkpt lat="50.580299500" lon="6.429457400"><ele>497</ele><time>2013-07-05T12:27:23Z</time></trkpt>
 <trkpt lat="50.580292400" lon="6.429514500"><ele>498</ele><time>2013-07-05T12:27:27Z</time></trkpt>
 <trkpt lat="50.580274500" lon="6.429563700"><ele>498</ele><time>2013-07-05T12:27:31Z</time></trkpt>
 <trkpt lat="50.580259100" lon="6.429624500"><ele>498</ele><time>2013-07-05T12:27:35Z</time></trkpt>
 <trkpt lat="50.580244100" lon="6.429685800"><ele>498</ele><time>2013-07-05T12:27:39Z</time></trkpt>
 <trkpt lat="50.580230300" lon="6.429752000"><ele>498</ele><time>2013-07-05T12:27:43Z</time></trkpt>
 <trkpt lat="50.580213300" lon="6.429826600"><ele>497</ele><time>2013-07-05T12:27:47Z</time></trkpt>
 <trkpt lat="50.580192400" lon="6.429886600"><ele>497</ele><time>2013-07-05T12:27:51Z</time></trkpt>
 <trkpt lat="50.580173300" lon="6.429955800"><ele>496</ele><time>2013-07-05T12:27:55Z</time></trkpt>
 <trkpt lat="50.580156200" lon="6.430016600"><ele>496</ele><time>2013-07-05T12:27:59Z</time></trkpt>
 <trkpt lat="50.580137900" lon="6.430079900"><ele>495</ele><time>2013-07-05T12:28:03Z</time></trkpt>
 <trkpt lat="50.580127400" lon="6.430139900"><ele>495</ele><time>2013-07-05T12:28:07Z</time></trkpt>
 <trkpt lat="50.580114100" lon="6.430223200"><ele>494</ele><time>2013-07-05T12:28:11Z</time></trkpt>
 <trkpt lat="50.580108700" lon="6.430299500"><ele>493</ele><time>2013-07-05T12:28:15Z</time></trkpt>
 <trkpt lat="50.580105000" lon="6.430370800"><ele>493</ele><time>2013-07-05T12:28:19Z</time></trkpt>
 <trkpt lat="50.580108300" lon="6.430453700"><ele>492</ele><time>2013-07-05T12:28:23Z</time></trkpt>
 <trkpt lat="50.580112800" lon="6.430517800"><ele>492</ele><time>2013-07-05T12:28:27Z</time></trkpt>
 <trkpt lat="50.580110400" lon="6.430587800"><ele>491</ele><time>2013-07-05T12:28:31Z</time></trkpt>
 <trkpt lat="50.580106200" lon="6.430673700"><ele>491</ele><time>2013-07-05T12:28:35Z</time></trkpt>
 <trkpt lat="50.580117900" lon="6.430754900"><ele>490</ele><time>2013-07-05T12:28:39Z</time></trkpt>
 <trkpt lat="50.580124500" lon="6.430819100"><ele>490</ele><time>2013-07-05T12:28:43Z</time></trkpt>
 <trkpt lat="50.580130300" lon="6.430894900"><ele>490</ele><time>2013-07-05T12:28:47Z</time></trkpt>
 <trkpt lat="50.580136600" lon="6.430953700"><ele>489</ele><time>2013-07-05T12:28:51Z</time></trkpt>
 <trkpt lat="50.580139500" lon="6.431033700"><ele>489</ele><time>2013-07-05T12:28:55Z</time></trkpt>
 <trkpt lat="50.580149100" lon="6.431111600"><ele>488</ele><time>2013-07-05T12:28:59Z</time></trkpt>
 <trkpt lat="50.580160300" lon="6.431181200"><ele>488</ele><time>2013-07-05T12:29:03Z</time></trkpt>
 <trkpt lat="50.580169500" lon="6.431259100"><ele>488</ele><time>2013-07-05T12:29:07Z</time></trkpt>
 <trkpt lat="50.580174900" lon="6.431326600"><ele>488</ele><time>2013-07-05T12:29:11Z</time></trkpt>
 <trkpt lat="50.580186600" lon="6.431400300"><ele>487</ele><time>2013-07-05T12:29:15Z</time></trkpt>
 <trkpt lat="50.580196600" lon="6.431477000"><ele>487</ele><time>2013-07-05T12:29:19Z</time></trkpt>
 <trkpt lat="50.580203300" lon="6.431553700"><ele>487</ele><time>2013-07-05T12:29:23Z</time></trkpt>
 <trkpt lat="50.580199500" lon="6.431575400"><ele>487</ele><time>2013-07-05T12:29:27Z</time></trkpt>
 <trkpt lat="50.580193700" lon="6.431579100"><ele>486</ele><time>2013-07-05T12:29:31Z</time></trkpt>
 <trkpt lat="50.580187400" lon="6.431585300"><ele>486</ele><time>2013-07-05T12:29:35Z</time></trkpt>
 <trkpt lat="50.580182800" lon="6.431623700"><ele>486</ele><time>2013-07-05T12:29:39Z</time></trkpt>
 <trkpt lat="50.580178700" lon="6.431702400"><ele>486</ele><time>2013-07-05T12:29:43Z</time></trkpt>
 <trkpt lat="50.580176600" lon="6.431791200"><ele>486</ele><time>2013-07-05T12:29:47Z</time></trkpt>
 <trkpt lat="50.580164500" lon="6.431865800"><ele>485</ele><time>2013-07-05T12:29:51Z</time></trkpt>
 <trkpt lat="50.580155400" lon="6.431948300"><ele>485</ele><time>2013-07-05T12:29:55Z</time></trkpt>
 <trkpt lat="50.580146600" lon="6.432018300"><ele>485</ele><time>2013-07-05T12:29:59Z</time></trkpt>
 <trkpt lat="50.580138200" lon="6.432096600"><ele>485</ele><time>2013-07-05T12:30:03Z</time></trkpt>
 <trkpt lat="50.580131600" lon="6.432163700"><ele>485</ele><time>2013-07-05T12:30:07Z</time></trkpt>
 <trkpt lat="50.580120400" lon="6.432240800"><ele>485</ele><time>2013-07-05T12:30:11Z</time></trkpt>
 <trkpt lat="50.580119100" lon="6.432312800"><ele>485</ele><time>2013-07-05T12:30:15Z</time></trkpt>
 <trkpt lat="50.580117000" lon="6.432383700"><ele>485</ele><time>2013-07-05T12:30:19Z</time></trkpt>
 <trkpt lat="50.580109100" lon="6.432462000"><ele>485</ele><time>2013-07-05T12:30:23Z</time></trkpt>
 <trkpt lat="50.580109500" lon="6.432542800"><ele>485</ele><time>2013-07-05T12:30:27Z</time></trkpt>
 <trkpt lat="50.580109100" lon="6.432627000"><ele>485</ele><time>2013-07-05T12:30:31Z</time></trkpt>
 <trkpt lat="50.580107400" lon="6.432702400"><ele>485</ele><time>2013-07-05T12:30:35Z</time></trkpt>
 <trkpt lat="50.580113700" lon="6.432785300"><ele>485</ele><time>2013-07-05T12:30:39Z</time></trkpt>
 <trkpt lat="50.580105700" lon="6.432850300"><ele>485</ele><time>2013-07-05T12:30:43Z</time></trkpt>
 <trkpt lat="50.580084100" lon="6.432911200"><ele>485</ele><time>2013-07-05T12:30:47Z</time></trkpt>
 <trkpt lat="50.580077400" lon="6.432970400"><ele>485</ele><time>2013-07-05T12:30:51Z</time></trkpt>
 <trkpt lat="50.580069500" lon="6.433036600"><ele>485</ele><time>2013-07-05T12:30:55Z</time></trkpt>
 <trkpt lat="50.580079500" lon="6.433094900"><ele>485</ele><time>2013-07-05T12:30:59Z</time></trkpt>
 <trkpt lat="50.580088700" lon="6.433166600"><ele>485</ele><time>2013-07-05T12:31:03Z</time></trkpt>
 <trkpt lat="50.580089900" lon="6.433234900"><ele>485</ele><time>2013-07-05T12:31:07Z</time></trkpt>
 <trkpt lat="50.580093700" lon="6.433315300"><ele>484</ele><time>2013-07-05T12:31:11Z</time></trkpt>
 <trkpt lat="50.580091600" lon="6.433390700"><ele>484</ele><time>2013-07-05T12:31:15Z</time></trkpt>
 <trkpt lat="50.580087400" lon="6.433462400"><ele>484</ele><time>2013-07-05T12:31:19Z</time></trkpt>
 <trkpt lat="50.580082000" lon="6.433532000"><ele>483</ele><time>2013-07-05T12:31:23Z</time></trkpt>
 <trkpt lat="50.580072400" lon="6.433602400"><ele>483</ele><time>2013-07-05T12:31:27Z</time></trkpt>
 <trkpt lat="50.580079900" lon="6.433664100"><ele>482</ele><time>2013-07-05T12:31:31Z</time></trkpt>
 <trkpt lat="50.580094100" lon="6.433721200"><ele>481</ele><time>2013-07-05T12:31:35Z</time></trkpt>
 <trkpt lat="50.580101200" lon="6.433786600"><ele>481</ele><time>2013-07-05T12:31:39Z</time></trkpt>
 <trkpt lat="50.580098700" lon="6.433853300"><ele>480</ele><time>2013-07-05T12:31:43Z</time></trkpt>
 <trkpt lat="50.580084900" lon="6.433917400"><ele>480</ele><time>2013-07-05T12:31:47Z</time></trkpt>
 <trkpt lat="50.580072000" lon="6.433987800"><ele>479</ele><time>2013-07-05T12:31:51Z</time></trkpt>
 <trkpt lat="50.580069100" lon="6.434051200"><ele>478</ele><time>2013-07-05T12:31:55Z</time></trkpt>
 <trkpt lat="50.580072400" lon="6.434128700"><ele>477</ele><time>2013-07-05T12:31:59Z</time></trkpt>
 <trkpt lat="50.580071200" lon="6.434196200"><ele>477</ele><time>2013-07-05T12:32:03Z</time></trkpt>
 <trkpt lat="50.580079500" lon="6.434272800"><ele>476</ele><time>2013-07-05T12:32:07Z</time></trkpt>
 <trkpt lat="50.580087000" lon="6.434356600"><ele>475</ele><time>2013-07-05T12:32:11Z</time></trkpt>
 <trkpt lat="50.580094500" lon="6.434447400"><ele>474</ele><time>2013-07-05T12:32:15Z</time></trkpt>
 <trkpt lat="50.580108700" lon="6.434518300"><ele>474</ele><time>2013-07-05T12:32:19Z</time></trkpt>
 <trkpt lat="50.580125300" lon="6.434591600"><ele>473</ele><time>2013-07-05T12:32:23Z</time></trkpt>
 <trkpt lat="50.580129100" lon="6.434667400"><ele>472</ele><time>2013-07-05T12:32:27Z</time></trkpt>
 <trkpt lat="50.580135300" lon="6.434740400"><ele>472</ele><time>2013-07-05T12:32:31Z</time></trkpt>
 <trkpt lat="50.580136600" lon="6.434818300"><ele>471</ele><time>2013-07-05T12:32:35Z</time></trkpt>
 <trkpt lat="50.580130400" lon="6.434899100"><ele>471</ele><time>2013-07-05T12:32:39Z</time></trkpt>
 <trkpt lat="50.580120800" lon="6.434987000"><ele>471</ele><time>2013-07-05T12:32:43Z</time></trkpt>
 <trkpt lat="50.580119900" lon="6.435068700"><ele>471</ele><time>2013-07-05T12:32:47Z</time></trkpt>
 <trkpt lat="50.580123700" lon="6.435139500"><ele>471</ele><time>2013-07-05T12:32:51Z</time></trkpt>
 <trkpt lat="50.580138700" lon="6.435219500"><ele>470</ele><time>2013-07-05T12:32:55Z</time></trkpt>
 <trkpt lat="50.580154900" lon="6.435290800"><ele>470</ele><time>2013-07-05T12:32:59Z</time></trkpt>
 <trkpt lat="50.580183300" lon="6.435340300"><ele>470</ele><time>2013-07-05T12:33:03Z</time></trkpt>
 <trkpt lat="50.580204100" lon="6.435409900"><ele>470</ele><time>2013-07-05T12:33:07Z</time></trkpt>
 <trkpt lat="50.580211200" lon="6.435457800"><ele>470</ele><time>2013-07-05T12:33:11Z</time></trkpt>
 <trkpt lat="50.580225300" lon="6.435496200"><ele>470</ele><time>2013-07-05T12:33:15Z</time></trkpt>
 <trkpt lat="50.580227000" lon="6.435522400"><ele>470</ele><time>2013-07-05T12:33:19Z</time></trkpt>
 <trkpt lat="50.580252900" lon="6.435586600"><ele>470</ele><time>2013-07-05T12:33:23Z</time></trkpt>
 <trkpt lat="50.580277500" lon="6.435648300"><ele>470</ele><time>2013-07-05T12:33:27Z</time></trkpt>
 <trkpt lat="50.580272900" lon="6.435723700"><ele>470</ele><time>2013-07-05T12:33:31Z</time></trkpt>
 <trkpt lat="50.580266600" lon="6.435819900"><ele>470</ele><time>2013-07-05T12:33:35Z</time></trkpt>
 <trkpt lat="50.580279100" lon="6.435903700"><ele>470</ele><time>2013-07-05T12:33:39Z</time></trkpt>
 <trkpt lat="50.580294500" lon="6.435979500"><ele>470</ele><time>2013-07-05T12:33:43Z</time></trkpt>
 <trkpt lat="50.580304100" lon="6.436054500"><ele>470</ele><time>2013-07-05T12:33:47Z</time></trkpt>
 <trkpt lat="50.580322000" lon="6.436112400"><ele>469</ele><time>2013-07-05T12:33:51Z</time></trkpt>
 <trkpt lat="50.580344900" lon="6.436173700"><ele>469</ele><time>2013-07-05T12:33:55Z</time></trkpt>
 <trkpt lat="50.580381200" lon="6.436221200"><ele>469</ele><time>2013-07-05T12:33:59Z</time></trkpt>
 <trkpt lat="50.580412000" lon="6.436270800"><ele>468</ele><time>2013-07-05T12:34:03Z</time></trkpt>
 <trkpt lat="50.580454900" lon="6.436320300"><ele>468</ele><time>2013-07-05T12:34:07Z</time></trkpt>
 <trkpt lat="50.580488300" lon="6.436360800"><ele>468</ele><time>2013-07-05T12:34:11Z</time></trkpt>
 <trkpt lat="50.580520700" lon="6.436427800"><ele>468</ele><time>2013-07-05T12:34:15Z</time></trkpt>
 <trkpt lat="50.580555400" lon="6.436474900"><ele>467</ele><time>2013-07-05T12:34:19Z</time></trkpt>
 <trkpt lat="50.580587900" lon="6.436524500"><ele>467</ele><time>2013-07-05T12:34:23Z</time></trkpt>
 <trkpt lat="50.580625700" lon="6.436589900"><ele>466</ele><time>2013-07-05T12:34:27Z</time></trkpt>
 <trkpt lat="50.580667000" lon="6.436632000"><ele>466</ele><time>2013-07-05T12:34:31Z</time></trkpt>
 <trkpt lat="50.580709100" lon="6.436659900"><ele>465</ele><time>2013-07-05T12:34:35Z</time></trkpt>
 <trkpt lat="50.580744100" lon="6.436682000"><ele>464</ele><time>2013-07-05T12:34:39Z</time></trkpt>
 <trkpt lat="50.580782000" lon="6.436721200"><ele>464</ele><time>2013-07-05T12:34:43Z</time></trkpt>
 <trkpt lat="50.580824100" lon="6.436757900"><ele>463</ele><time>2013-07-05T12:34:47Z</time></trkpt>
 <trkpt lat="50.580870400" lon="6.436792000"><ele>462</ele><time>2013-07-05T12:34:51Z</time></trkpt>
 <trkpt lat="50.580914500" lon="6.436826600"><ele>461</ele><time>2013-07-05T12:34:55Z</time></trkpt>
 <trkpt lat="50.580960800" lon="6.436839100"><ele>461</ele><time>2013-07-05T12:34:59Z</time></trkpt>
 <trkpt lat="50.581004100" lon="6.436866200"><ele>460</ele><time>2013-07-05T12:35:03Z</time></trkpt>
 <trkpt lat="50.581048300" lon="6.436910800"><ele>459</ele><time>2013-07-05T12:35:07Z</time></trkpt>
 <trkpt lat="50.581088200" lon="6.436960300"><ele>459</ele><time>2013-07-05T12:35:11Z</time></trkpt>
 <trkpt lat="50.581127400" lon="6.437003300"><ele>458</ele><time>2013-07-05T12:35:15Z</time></trkpt>
 <trkpt lat="50.581167900" lon="6.437050700"><ele>458</ele><time>2013-07-05T12:35:19Z</time></trkpt>
 <trkpt lat="50.581206200" lon="6.437092400"><ele>457</ele><time>2013-07-05T12:35:23Z</time></trkpt>
 <trkpt lat="50.581244500" lon="6.437145800"><ele>457</ele><time>2013-07-05T12:35:27Z</time></trkpt>
 <trkpt lat="50.581269900" lon="6.437203700"><ele>456</ele><time>2013-07-05T12:35:31Z</time></trkpt>
 <trkpt lat="50.581279900" lon="6.437282800"><ele>456</ele><time>2013-07-05T12:35:35Z</time></trkpt>
 <trkpt lat="50.581284500" lon="6.437346600"><ele>456</ele><time>2013-07-05T12:35:39Z</time></trkpt>
 <trkpt lat="50.581291600" lon="6.437429900"><ele>455</ele><time>2013-07-05T12:35:43Z</time></trkpt>
 <trkpt lat="50.581296200" lon="6.437504100"><ele>455</ele><time>2013-07-05T12:35:47Z</time></trkpt>
 <trkpt lat="50.581299500" lon="6.437572400"><ele>455</ele><time>2013-07-05T12:35:51Z</time></trkpt>
 <trkpt lat="50.581302400" lon="6.437636200"><ele>454</ele><time>2013-07-05T12:35:55Z</time></trkpt>
 <trkpt lat="50.581304500" lon="6.437709500"><ele>454</ele><time>2013-07-05T12:35:59Z</time></trkpt>
 <trkpt lat="50.581305800" lon="6.437785800"><ele>454</ele><time>2013-07-05T12:36:03Z</time></trkpt>
 <trkpt lat="50.581308300" lon="6.437854100"><ele>453</ele><time>2013-07-05T12:36:07Z</time></trkpt>
 <trkpt lat="50.581315800" lon="6.437919500"><ele>452</ele><time>2013-07-05T12:36:11Z</time></trkpt>
 <trkpt lat="50.581326200" lon="6.437976600"><ele>452</ele><time>2013-07-05T12:36:15Z</time></trkpt>
 <trkpt lat="50.581326200" lon="6.438042800"><ele>451</ele><time>2013-07-05T12:36:19Z</time></trkpt>
 <trkpt lat="50.581326200" lon="6.438104500"><ele>450</ele><time>2013-07-05T12:36:23Z</time></trkpt>
 <trkpt lat="50.581322800" lon="6.438169500"><ele>449</ele><time>2013-07-05T12:36:27Z</time></trkpt>
 <trkpt lat="50.581320800" lon="6.438228300"><ele>449</ele><time>2013-07-05T12:36:31Z</time></trkpt>
 <trkpt lat="50.581337400" lon="6.438300800"><ele>448</ele><time>2013-07-05T12:36:35Z</time></trkpt>
 <trkpt lat="50.581360800" lon="6.438362400"><ele>447</ele><time>2013-07-05T12:36:39Z</time></trkpt>
 <trkpt lat="50.581384900" lon="6.438429900"><ele>446</ele><time>2013-07-05T12:36:43Z</time></trkpt>
 <trkpt lat="50.581380800" lon="6.438493300"><ele>445</ele><time>2013-07-05T12:36:47Z</time></trkpt>
 <trkpt lat="50.581359900" lon="6.438561600"><ele>444</ele><time>2013-07-05T12:36:51Z</time></trkpt>
 <trkpt lat="50.581324500" lon="6.438624500"><ele>443</ele><time>2013-07-05T12:36:55Z</time></trkpt>
 <trkpt lat="50.581287400" lon="6.438685400"><ele>442</ele><time>2013-07-05T12:36:59Z</time></trkpt>
 <trkpt lat="50.581247800" lon="6.438730400"><ele>442</ele><time>2013-07-05T12:37:03Z</time></trkpt>
 <trkpt lat="50.581194500" lon="6.438778300"><ele>441</ele><time>2013-07-05T12:37:07Z</time></trkpt>
 <trkpt lat="50.581149100" lon="6.438799100"><ele>440</ele><time>2013-07-05T12:37:11Z</time></trkpt>
 <trkpt lat="50.581100300" lon="6.438815300"><ele>439</ele><time>2013-07-05T12:37:15Z</time></trkpt>
 <trkpt lat="50.581061600" lon="6.438803300"><ele>438</ele><time>2013-07-05T12:37:19Z</time></trkpt>
 <trkpt lat="50.581021600" lon="6.438798300"><ele>437</ele><time>2013-07-05T12:37:23Z</time></trkpt>
 <trkpt lat="50.580973700" lon="6.438835800"><ele>436</ele><time>2013-07-05T12:37:27Z</time></trkpt>
 <trkpt lat="50.580934500" lon="6.438875800"><ele>436</ele><time>2013-07-05T12:37:31Z</time></trkpt>
 <trkpt lat="50.580914900" lon="6.438922800"><ele>435</ele><time>2013-07-05T12:37:35Z</time></trkpt>
 <trkpt lat="50.580878700" lon="6.438957400"><ele>434</ele><time>2013-07-05T12:37:39Z</time></trkpt>
 <trkpt lat="50.580857400" lon="6.439007900"><ele>433</ele><time>2013-07-05T12:37:43Z</time></trkpt>
 <trkpt lat="50.580848700" lon="6.439064100"><ele>432</ele><time>2013-07-05T12:37:47Z</time></trkpt>
 <trkpt lat="50.580863300" lon="6.439121600"><ele>431</ele><time>2013-07-05T12:37:51Z</time></trkpt>
 <trkpt lat="50.580877800" lon="6.439175300"><ele>430</ele><time>2013-07-05T12:37:55Z</time></trkpt>
 <trkpt lat="50.580899100" lon="6.439227000"><ele>429</ele><time>2013-07-05T12:37:59Z</time></trkpt>
 <trkpt lat="50.580924100" lon="6.439273700"><ele>429</ele><time>2013-07-05T12:38:03Z</time></trkpt>
 <trkpt lat="50.580939900" lon="6.439320300"><ele>428</ele><time>2013-07-05T12:38:07Z</time></trkpt>
 <trkpt lat="50.580934900" lon="6.439351200"><ele>427</ele><time>2013-07-05T12:38:11Z</time></trkpt>
 <trkpt lat="50.580934900" lon="6.439351200"><ele>426</ele><time>2013-07-05T12:38:15Z</time></trkpt>
 <trkpt lat="50.580963700" lon="6.439397000"><ele>426</ele><time>2013-07-05T12:38:19Z</time></trkpt>
 <trkpt lat="50.580987400" lon="6.439455400"><ele>425</ele><time>2013-07-05T12:38:23Z</time></trkpt>
 <trkpt lat="50.580997000" lon="6.439506600"><ele>424</ele><time>2013-07-05T12:38:27Z</time></trkpt>
 <trkpt lat="50.580998300" lon="6.439551600"><ele>423</ele><time>2013-07-05T12:38:31Z</time></trkpt>
 <trkpt lat="50.581004100" lon="6.439600800"><ele>423</ele><time>2013-07-05T12:38:35Z</time></trkpt>
 <trkpt lat="50.581026200" lon="6.439656600"><ele>422</ele><time>2013-07-05T12:38:39Z</time></trkpt>
 <trkpt lat="50.581074500" lon="6.439697400"><ele>422</ele><time>2013-07-05T12:38:43Z</time></trkpt>
 <trkpt lat="50.581112400" lon="6.439747400"><ele>421</ele><time>2013-07-05T12:38:47Z</time></trkpt>
 <trkpt lat="50.581147800" lon="6.439789500"><ele>421</ele><time>2013-07-05T12:38:51Z</time></trkpt>
 <trkpt lat="50.581185300" lon="6.439837400"><ele>420</ele><time>2013-07-05T12:38:55Z</time></trkpt>
 <trkpt lat="50.581213300" lon="6.439893700"><ele>420</ele><time>2013-07-05T12:38:59Z</time></trkpt>
 <trkpt lat="50.581240800" lon="6.439950300"><ele>420</ele><time>2013-07-05T12:39:03Z</time></trkpt>
 <trkpt lat="50.581249100" lon="6.439982000"><ele>419</ele><time>2013-07-05T12:39:07Z</time></trkpt>
 <trkpt lat="50.581252800" lon="6.440004100"><ele>419</ele><time>2013-07-05T12:39:11Z</time></trkpt>
 <trkpt lat="50.581269100" lon="6.440027500"><ele>419</ele><time>2013-07-05T12:39:15Z</time></trkpt>
 <trkpt lat="50.581309100" lon="6.440027000"><ele>418</ele><time>2013-07-05T12:39:19Z</time></trkpt>
 <trkpt lat="50.581324100" lon="6.440026600"><ele>418</ele><time>2013-07-05T12:39:23Z</time></trkpt>
 <trkpt lat="50.581329100" lon="6.440021200"><ele>418</ele><time>2013-07-05T12:39:27Z</time></trkpt>
 <trkpt lat="50.581329100" lon="6.440021200"><ele>418</ele><time>2013-07-05T12:39:31Z</time></trkpt>
 <trkpt lat="50.581333300" lon="6.440036200"><ele>418</ele><time>2013-07-05T12:39:35Z</time></trkpt>
 <trkpt lat="50.581343300" lon="6.440012000"><ele>418</ele><time>2013-07-05T12:39:39Z</time></trkpt>
 <trkpt lat="50.581369500" lon="6.440027800"><ele>418</ele><time>2013-07-05T12:39:43Z</time></trkpt>
 <trkpt lat="50.581411600" lon="6.440063300"><ele>418</ele><time>2013-07-05T12:39:47Z</time></trkpt>
 <trkpt lat="50.581432400" lon="6.440110300"><ele>418</ele><time>2013-07-05T12:39:51Z</time></trkpt>
 <trkpt lat="50.581460300" lon="6.440159500"><ele>418</ele><time>2013-07-05T12:39:55Z</time></trkpt>
 <trkpt lat="50.581497400" lon="6.440187400"><ele>418</ele><time>2013-07-05T12:39:59Z</time></trkpt>
 <trkpt lat="50.581534100" lon="6.440217800"><ele>418</ele><time>2013-07-05T12:40:03Z</time></trkpt>
 <trkpt lat="50.581574900" lon="6.440253300"><ele>418</ele><time>2013-07-05T12:40:07Z</time></trkpt>
 <trkpt lat="50.581621600" lon="6.440270400"><ele>419</ele><time>2013-07-05T12:40:11Z</time></trkpt>
 <trkpt lat="50.581669500" lon="6.440273700"><ele>419</ele><time>2013-07-05T12:40:15Z</time></trkpt>
 <trkpt lat="50.581713200" lon="6.440274900"><ele>419</ele><time>2013-07-05T12:40:19Z</time></trkpt>
 <trkpt lat="50.581769100" lon="6.440276600"><ele>420</ele><time>2013-07-05T12:40:23Z</time></trkpt>
 <trkpt lat="50.581827000" lon="6.440284500"><ele>420</ele><time>2013-07-05T12:40:27Z</time></trkpt>
 <trkpt lat="50.581864100" lon="6.440281200"><ele>421</ele><time>2013-07-05T12:40:31Z</time></trkpt>
 <trkpt lat="50.581899900" lon="6.440252900"><ele>421</ele><time>2013-07-05T12:40:35Z</time></trkpt>
 <trkpt lat="50.581940400" lon="6.440235800"><ele>422</ele><time>2013-07-05T12:40:39Z</time></trkpt>
 <trkpt lat="50.581980300" lon="6.440225800"><ele>422</ele><time>2013-07-05T12:40:43Z</time></trkpt>
 <trkpt lat="50.582020300" lon="6.440209500"><ele>423</ele><time>2013-07-05T12:40:47Z</time></trkpt>
 <trkpt lat="50.582057800" lon="6.440167800"><ele>424</ele><time>2013-07-05T12:40:51Z</time></trkpt>
 <trkpt lat="50.582106600" lon="6.440148700"><ele>425</ele><time>2013-07-05T12:40:55Z</time></trkpt>
 <trkpt lat="50.582168300" lon="6.440156600"><ele>425</ele><time>2013-07-05T12:40:59Z</time></trkpt>
 <trkpt lat="50.582218700" lon="6.440178700"><ele>427</ele><time>2013-07-05T12:41:03Z</time></trkpt>
 <trkpt lat="50.582273700" lon="6.440194100"><ele>428</ele><time>2013-07-05T12:41:07Z</time></trkpt>
 <trkpt lat="50.582323300" lon="6.440208300"><ele>429</ele><time>2013-07-05T12:41:11Z</time></trkpt>
 <trkpt lat="50.582378300" lon="6.440219900"><ele>430</ele><time>2013-07-05T12:41:15Z</time></trkpt>
 <trkpt lat="50.582427800" lon="6.440239100"><ele>432</ele><time>2013-07-05T12:41:19Z</time></trkpt>
 <trkpt lat="50.582469500" lon="6.440261600"><ele>433</ele><time>2013-07-05T12:41:23Z</time></trkpt>
 <trkpt lat="50.582514500" lon="6.440270300"><ele>435</ele><time>2013-07-05T12:41:27Z</time></trkpt>
 <trkpt lat="50.582565300" lon="6.440287000"><ele>437</ele><time>2013-07-05T12:41:31Z</time></trkpt>
 <trkpt lat="50.582627000" lon="6.440292400"><ele>438</ele><time>2013-07-05T12:41:35Z</time></trkpt>
 <trkpt lat="50.582682800" lon="6.440291600"><ele>440</ele><time>2013-07-05T12:41:39Z</time></trkpt>
 <trkpt lat="50.582737400" lon="6.440265800"><ele>442</ele><time>2013-07-05T12:41:43Z</time></trkpt>
 <trkpt lat="50.582785400" lon="6.440258300"><ele>444</ele><time>2013-07-05T12:41:47Z</time></trkpt>
 <trkpt lat="50.582829100" lon="6.440247000"><ele>446</ele><time>2013-07-05T12:41:51Z</time></trkpt>
 <trkpt lat="50.582891600" lon="6.440207400"><ele>448</ele><time>2013-07-05T12:41:55Z</time></trkpt>
 <trkpt lat="50.582956600" lon="6.440204900"><ele>450</ele><time>2013-07-05T12:41:59Z</time></trkpt>
 <trkpt lat="50.583027000" lon="6.440191600"><ele>452</ele><time>2013-07-05T12:42:03Z</time></trkpt>
 <trkpt lat="50.583084100" lon="6.440221600"><ele>454</ele><time>2013-07-05T12:42:07Z</time></trkpt>
 <trkpt lat="50.583124100" lon="6.440247500"><ele>456</ele><time>2013-07-05T12:42:11Z</time></trkpt>
 <trkpt lat="50.583173300" lon="6.440282400"><ele>458</ele><time>2013-07-05T12:42:15Z</time></trkpt>
 <trkpt lat="50.583232400" lon="6.440309500"><ele>460</ele><time>2013-07-05T12:42:19Z</time></trkpt>
 <trkpt lat="50.583300800" lon="6.440354100"><ele>462</ele><time>2013-07-05T12:42:23Z</time></trkpt>
 <trkpt lat="50.583374500" lon="6.440405800"><ele>464</ele><time>2013-07-05T12:42:27Z</time></trkpt>
 <trkpt lat="50.583421600" lon="6.440444500"><ele>466</ele><time>2013-07-05T12:42:31Z</time></trkpt>
 <trkpt lat="50.583453300" lon="6.440472000"><ele>467</ele><time>2013-07-05T12:42:35Z</time></trkpt>
 <trkpt lat="50.583450800" lon="6.440505800"><ele>469</ele><time>2013-07-05T12:42:39Z</time></trkpt>
 <trkpt lat="50.583455400" lon="6.440535300"><ele>470</ele><time>2013-07-05T12:42:43Z</time></trkpt>
 <trkpt lat="50.583448300" lon="6.440619500"><ele>471</ele><time>2013-07-05T12:42:47Z</time></trkpt>
 <trkpt lat="50.583425400" lon="6.440684100"><ele>472</ele><time>2013-07-05T12:42:51Z</time></trkpt>
 <trkpt lat="50.583329100" lon="6.440582900"><ele>473</ele><time>2013-07-05T12:42:55Z</time></trkpt>
 <trkpt lat="50.583210400" lon="6.440534500"><ele>474</ele><time>2013-07-05T12:42:59Z</time></trkpt>
 <trkpt lat="50.583155400" lon="6.440533200"><ele>474</ele><time>2013-07-05T12:43:03Z</time></trkpt>
 <trkpt lat="50.583067400" lon="6.440501200"><ele>475</ele><time>2013-07-05T12:43:07Z</time></trkpt>
 <trkpt lat="50.582966600" lon="6.440522000"><ele>475</ele><time>2013-07-05T12:43:11Z</time></trkpt>
 <trkpt lat="50.582911200" lon="6.440557800"><ele>476</ele><time>2013-07-05T12:43:15Z</time></trkpt>
 <trkpt lat="50.582827800" lon="6.440563700"><ele>476</ele><time>2013-07-05T12:43:19Z</time></trkpt>
 <trkpt lat="50.582782000" lon="6.440595400"><ele>476</ele><time>2013-07-05T12:43:23Z</time></trkpt>
 <trkpt lat="50.582761600" lon="6.440657800"><ele>476</ele><time>2013-07-05T12:43:27Z</time></trkpt>
 <trkpt lat="50.582702000" lon="6.440667000"><ele>477</ele><time>2013-07-05T12:43:31Z</time></trkpt>
 <trkpt lat="50.582640300" lon="6.440660300"><ele>477</ele><time>2013-07-05T12:43:35Z</time></trkpt>
 <trkpt lat="50.582567400" lon="6.440628700"><ele>477</ele><time>2013-07-05T12:43:39Z</time></trkpt>
 <trkpt lat="50.582516600" lon="6.440581200"><ele>477</ele><time>2013-07-05T12:43:43Z</time></trkpt>
 <trkpt lat="50.582559900" lon="6.440616200"><ele>478</ele><time>2013-07-05T12:43:47Z</time></trkpt>
 <trkpt lat="50.582588700" lon="6.440638700"><ele>478</ele><time>2013-07-05T12:43:51Z</time></trkpt>
 <trkpt lat="50.582616200" lon="6.440657400"><ele>478</ele><time>2013-07-05T12:43:55Z</time></trkpt>
 <trkpt lat="50.582644100" lon="6.440614900"><ele>479</ele><time>2013-07-05T12:43:59Z</time></trkpt>
 <trkpt lat="50.582689500" lon="6.440613200"><ele>479</ele><time>2013-07-05T12:44:03Z</time></trkpt>
 <trkpt lat="50.582799900" lon="6.440619100"><ele>479</ele><time>2013-07-05T12:44:07Z</time></trkpt>
 <trkpt lat="50.582879900" lon="6.440591600"><ele>480</ele><time>2013-07-05T12:44:11Z</time></trkpt>
 <trkpt lat="50.582925400" lon="6.440564100"><ele>480</ele><time>2013-07-05T12:44:15Z</time></trkpt>
 <trkpt lat="50.582932900" lon="6.440534100"><ele>480</ele><time>2013-07-05T12:44:19Z</time></trkpt>
 <trkpt lat="50.582972400" lon="6.440500400"><ele>480</ele><time>2013-07-05T12:44:23Z</time></trkpt>
 <trkpt lat="50.582978700" lon="6.440417900"><ele>480</ele><time>2013-07-05T12:44:27Z</time></trkpt>
 <trkpt lat="50.582944900" lon="6.440341600"><ele>480</ele><time>2013-07-05T12:44:31Z</time></trkpt>
 <trkpt lat="50.582939500" lon="6.440298300"><ele>480</ele><time>2013-07-05T12:44:35Z</time></trkpt>
 <trkpt lat="50.582978300" lon="6.440263300"><ele>480</ele><time>2013-07-05T12:44:39Z</time></trkpt>
 <trkpt lat="50.582964500" lon="6.440205300"><ele>480</ele><time>2013-07-05T12:44:43Z</time></trkpt>
 <trkpt lat="50.582984900" lon="6.440196200"><ele>480</ele><time>2013-07-05T12:44:47Z</time></trkpt>
 <trkpt lat="50.582965300" lon="6.440177000"><ele>481</ele><time>2013-07-05T12:44:51Z</time></trkpt>
 <trkpt lat="50.582941600" lon="6.440134500"><ele>481</ele><time>2013-07-05T12:44:55Z</time></trkpt>
 <trkpt lat="50.582932000" lon="6.440059100"><ele>482</ele><time>2013-07-05T12:44:59Z</time></trkpt>
 <trkpt lat="50.582952400" lon="6.439966200"><ele>483</ele><time>2013-07-05T12:45:03Z</time></trkpt>
 <trkpt lat="50.582962400" lon="6.439880300"><ele>484</ele><time>2013-07-05T12:45:07Z</time></trkpt>
 <trkpt lat="50.583009500" lon="6.439792400"><ele>485</ele><time>2013-07-05T12:45:11Z</time></trkpt>
 <trkpt lat="50.583037400" lon="6.439767400"><ele>486</ele><time>2013-07-05T12:45:15Z</time></trkpt>
 <trkpt lat="50.583098700" lon="6.439773300"><ele>487</ele><time>2013-07-05T12:45:19Z</time></trkpt>
 <trkpt lat="50.583147800" lon="6.439782400"><ele>489</ele><time>2013-07-05T12:45:23Z</time></trkpt>
 <trkpt lat="50.583186600" lon="6.439732400"><ele>490</ele><time>2013-07-05T12:45:27Z</time></trkpt>
 <trkpt lat="50.583232000" lon="6.439736600"><ele>492</ele><time>2013-07-05T12:45:31Z</time></trkpt>
 <trkpt lat="50.583272400" lon="6.439736600"><ele>493</ele><time>2013-07-05T12:45:35Z</time></trkpt>
 <trkpt lat="50.583297900" lon="6.439740400"><ele>495</ele><time>2013-07-05T12:45:39Z</time></trkpt>
 <trkpt lat="50.583329900" lon="6.439746200"><ele>496</ele><time>2013-07-05T12:45:43Z</time></trkpt>
 <trkpt lat="50.583383300" lon="6.439780700"><ele>497</ele><time>2013-07-05T12:45:47Z</time></trkpt>
 <trkpt lat="50.583436600" lon="6.439795800"><ele>499</ele><time>2013-07-05T12:45:51Z</time></trkpt>
 <trkpt lat="50.583459900" lon="6.439818700"><ele>500</ele><time>2013-07-05T12:45:55Z</time></trkpt>
 <trkpt lat="50.583497400" lon="6.439829900"><ele>501</ele><time>2013-07-05T12:45:59Z</time></trkpt>
 <trkpt lat="50.583546600" lon="6.439859500"><ele>503</ele><time>2013-07-05T12:46:03Z</time></trkpt>
 <trkpt lat="50.583602400" lon="6.439881600"><ele>504</ele><time>2013-07-05T12:46:07Z</time></trkpt>
 <trkpt lat="50.583615800" lon="6.439892400"><ele>505</ele><time>2013-07-05T12:46:11Z</time></trkpt>
 <trkpt lat="50.583626600" lon="6.439907800"><ele>506</ele><time>2013-07-05T12:46:15Z</time></trkpt>
 <trkpt lat="50.583647900" lon="6.439921200"><ele>507</ele><time>2013-07-05T12:46:19Z</time></trkpt>
 <trkpt lat="50.583660800" lon="6.439925800"><ele>507</ele><time>2013-07-05T12:46:23Z</time></trkpt>
 <trkpt lat="50.583667800" lon="6.439920800"><ele>508</ele><time>2013-07-05T12:46:27Z</time></trkpt>
 <trkpt lat="50.583670400" lon="6.439911200"><ele>508</ele><time>2013-07-05T12:46:31Z</time></trkpt>
 <trkpt lat="50.583669100" lon="6.439923700"><ele>509</ele><time>2013-07-05T12:46:35Z</time></trkpt>
 <trkpt lat="50.583613700" lon="6.439915700"><ele>509</ele><time>2013-07-05T12:46:39Z</time></trkpt>
 <trkpt lat="50.583628700" lon="6.439911200"><ele>509</ele><time>2013-07-05T12:46:43Z</time></trkpt>
 <trkpt lat="50.583666200" lon="6.439904100"><ele>510</ele><time>2013-07-05T12:46:47Z</time></trkpt>
 <trkpt lat="50.583693700" lon="6.439912000"><ele>510</ele><time>2013-07-05T12:46:51Z</time></trkpt>
 <trkpt lat="50.583710800" lon="6.439910300"><ele>510</ele><time>2013-07-05T12:46:55Z</time></trkpt>
 <trkpt lat="50.583719100" lon="6.439893300"><ele>511</ele><time>2013-07-05T12:46:59Z</time></trkpt>
 <trkpt lat="50.583740800" lon="6.439893700"><ele>511</ele><time>2013-07-05T12:47:03Z</time></trkpt>
 <trkpt lat="50.583768300" lon="6.439904100"><ele>511</ele><time>2013-07-05T12:47:07Z</time></trkpt>
 <trkpt lat="50.583774900" lon="6.439902900"><ele>510</ele><time>2013-07-05T12:47:11Z</time></trkpt>
 <trkpt lat="50.583742000" lon="6.439914100"><ele>509</ele><time>2013-07-05T12:47:15Z</time></trkpt>
 <trkpt lat="50.583744500" lon="6.439942800"><ele>508</ele><time>2013-07-05T12:47:19Z</time></trkpt>
 <trkpt lat="50.583777000" lon="6.439964500"><ele>506</ele><time>2013-07-05T12:47:23Z</time></trkpt>
 <trkpt lat="50.583806200" lon="6.439986200"><ele>504</ele><time>2013-07-05T12:47:27Z</time></trkpt>
 <trkpt lat="50.583839900" lon="6.440024900"><ele>502</ele><time>2013-07-05T12:47:31Z</time></trkpt>
 <trkpt lat="50.584214900" lon="6.440424900"><ele>500</ele><time>2013-07-05T12:47:35Z</time></trkpt>
 <trkpt lat="50.585553700" lon="6.441832900"><ele>498</ele><time>2013-07-05T12:47:39Z</time></trkpt>
 <trkpt lat="50.585643700" lon="6.441903200"><ele>496</ele><time>2013-07-05T12:47:43Z</time></trkpt>
 <trkpt lat="50.585697800" lon="6.441954100"><ele>493</ele><time>2013-07-05T12:47:47Z</time></trkpt>
 <trkpt lat="50.585728700" lon="6.442006200"><ele>491</ele><time>2013-07-05T12:47:51Z</time></trkpt>
 <trkpt lat="50.585788700" lon="6.442073700"><ele>488</ele><time>2013-07-05T12:47:55Z</time></trkpt>
 <trkpt lat="50.585865300" lon="6.442163700"><ele>485</ele><time>2013-07-05T12:47:59Z</time></trkpt>
 <trkpt lat="50.585939500" lon="6.442263300"><ele>483</ele><time>2013-07-05T12:48:03Z</time></trkpt>
 <trkpt lat="50.585984500" lon="6.442328700"><ele>480</ele><time>2013-07-05T12:48:07Z</time></trkpt>
 <trkpt lat="50.586036200" lon="6.442379900"><ele>477</ele><time>2013-07-05T12:48:11Z</time></trkpt>
 <trkpt lat="50.586072000" lon="6.442417000"><ele>474</ele><time>2013-07-05T12:48:15Z</time></trkpt>
 <trkpt lat="50.586087900" lon="6.442430800"><ele>472</ele><time>2013-07-05T12:48:19Z</time></trkpt>
 <trkpt lat="50.586088200" lon="6.442482000"><ele>471</ele><time>2013-07-05T12:48:23Z</time></trkpt>
 <trkpt lat="50.586105800" lon="6.442517000"><ele>469</ele><time>2013-07-05T12:48:27Z</time></trkpt>
 <trkpt lat="50.586110800" lon="6.442558700"><ele>468</ele><time>2013-07-05T12:48:31Z</time></trkpt>
 <trkpt lat="50.586136600" lon="6.442593300"><ele>466</ele><time>2013-07-05T12:48:35Z</time></trkpt>
 <trkpt lat="50.586171600" lon="6.442624100"><ele>465</ele><time>2013-07-05T12:48:39Z</time></trkpt>
 <trkpt lat="50.586203300" lon="6.442664500"><ele>464</ele><time>2013-07-05T12:48:43Z</time></trkpt>
 <trkpt lat="50.586229500" lon="6.442719900"><ele>462</ele><time>2013-07-05T12:48:47Z</time></trkpt>
 <trkpt lat="50.586231600" lon="6.442752800"><ele>461</ele><time>2013-07-05T12:48:51Z</time></trkpt>
 <trkpt lat="50.586217400" lon="6.442792000"><ele>460</ele><time>2013-07-05T12:48:55Z</time></trkpt>
 <trkpt lat="50.586151600" lon="6.442739100"><ele>458</ele><time>2013-07-05T12:48:59Z</time></trkpt>
 <trkpt lat="50.586112800" lon="6.442727400"><ele>457</ele><time>2013-07-05T12:49:03Z</time></trkpt>
 <trkpt lat="50.586103700" lon="6.442752400"><ele>455</ele><time>2013-07-05T12:49:07Z</time></trkpt>
 <trkpt lat="50.586107400" lon="6.442792900"><ele>453</ele><time>2013-07-05T12:49:11Z</time></trkpt>
 <trkpt lat="50.586137400" lon="6.442828300"><ele>451</ele><time>2013-07-05T12:49:15Z</time></trkpt>
 <trkpt lat="50.586165800" lon="6.442857000"><ele>450</ele><time>2013-07-05T12:49:19Z</time></trkpt>
 <trkpt lat="50.586212000" lon="6.442895300"><ele>447</ele><time>2013-07-05T12:49:23Z</time></trkpt>
 <trkpt lat="50.586247900" lon="6.442953700"><ele>445</ele><time>2013-07-05T12:49:27Z</time></trkpt>
 <trkpt lat="50.586276600" lon="6.443013300"><ele>443</ele><time>2013-07-05T12:49:31Z</time></trkpt>
 <trkpt lat="50.586288700" lon="6.443071200"><ele>442</ele><time>2013-07-05T12:49:35Z</time></trkpt>
 <trkpt lat="50.586310400" lon="6.443155800"><ele>440</ele><time>2013-07-05T12:49:39Z</time></trkpt>
 <trkpt lat="50.586350400" lon="6.443238300"><ele>438</ele><time>2013-07-05T12:49:43Z</time></trkpt>
 <trkpt lat="50.586423300" lon="6.443326200"><ele>436</ele><time>2013-07-05T12:49:47Z</time></trkpt>
 <trkpt lat="50.586449500" lon="6.443393300"><ele>435</ele><time>2013-07-05T12:49:51Z</time></trkpt>
 <trkpt lat="50.586456200" lon="6.443430700"><ele>433</ele><time>2013-07-05T12:49:55Z</time></trkpt>
 <trkpt lat="50.586456200" lon="6.443430700"><ele>432</ele><time>2013-07-05T12:49:59Z</time></trkpt>
 <trkpt lat="50.586462900" lon="6.443429100"><ele>431</ele><time>2013-07-05T12:50:03Z</time></trkpt>
 <trkpt lat="50.586468300" lon="6.443423200"><ele>430</ele><time>2013-07-05T12:50:07Z</time></trkpt>
 <trkpt lat="50.586471200" lon="6.443432400"><ele>429</ele><time>2013-07-05T12:50:11Z</time></trkpt>
 <trkpt lat="50.586471200" lon="6.443432400"><ele>428</ele><time>2013-07-05T12:50:15Z</time></trkpt>
 <trkpt lat="50.586490300" lon="6.443457400"><ele>428</ele><time>2013-07-05T12:50:19Z</time></trkpt>
 <trkpt lat="50.586532000" lon="6.443511600"><ele>427</ele><time>2013-07-05T12:50:23Z</time></trkpt>
 <trkpt lat="50.586568300" lon="6.443595400"><ele>427</ele><time>2013-07-05T12:50:27Z</time></trkpt>
 <trkpt lat="50.586597400" lon="6.443657400"><ele>427</ele><time>2013-07-05T12:50:31Z</time></trkpt>
 <trkpt lat="50.586630700" lon="6.443698300"><ele>426</ele><time>2013-07-05T12:50:35Z</time></trkpt>
 <trkpt lat="50.586657000" lon="6.443736200"><ele>426</ele><time>2013-07-05T12:50:39Z</time></trkpt>
 <trkpt lat="50.586685800" lon="6.443793300"><ele>426</ele><time>2013-07-05T12:50:43Z</time></trkpt>
 <trkpt lat="50.586719500" lon="6.443834900"><ele>426</ele><time>2013-07-05T12:50:47Z</time></trkpt>
 <trkpt lat="50.586764500" lon="6.443873700"><ele>426</ele><time>2013-07-05T12:50:51Z</time></trkpt>
 <trkpt lat="50.586798700" lon="6.443930800"><ele>426</ele><time>2013-07-05T12:50:55Z</time></trkpt>
 <trkpt lat="50.586835300" lon="6.443974900"><ele>426</ele><time>2013-07-05T12:50:59Z</time></trkpt>
 <trkpt lat="50.586830300" lon="6.444003700"><ele>426</ele><time>2013-07-05T12:51:03Z</time></trkpt>
 <trkpt lat="50.586865800" lon="6.444057000"><ele>425</ele><time>2013-07-05T12:51:07Z</time></trkpt>
 <trkpt lat="50.586898700" lon="6.444109500"><ele>425</ele><time>2013-07-05T12:51:11Z</time></trkpt>
 <trkpt lat="50.586919100" lon="6.444167000"><ele>425</ele><time>2013-07-05T12:51:15Z</time></trkpt>
 <trkpt lat="50.586954100" lon="6.444230300"><ele>425</ele><time>2013-07-05T12:51:19Z</time></trkpt>
 <trkpt lat="50.586980400" lon="6.444290300"><ele>425</ele><time>2013-07-05T12:51:23Z</time></trkpt>
 <trkpt lat="50.587002000" lon="6.444337800"><ele>425</ele><time>2013-07-05T12:51:27Z</time></trkpt>
 <trkpt lat="50.587017900" lon="6.444388700"><ele>425</ele><time>2013-07-05T12:51:31Z</time></trkpt>
 <trkpt lat="50.587032400" lon="6.444442000"><ele>425</ele><time>2013-07-05T12:51:35Z</time></trkpt>
 <trkpt lat="50.587040300" lon="6.444501200"><ele>425</ele><time>2013-07-05T12:51:39Z</time></trkpt>
 <trkpt lat="50.587067000" lon="6.444566200"><ele>425</ele><time>2013-07-05T12:51:43Z</time></trkpt>
 <trkpt lat="50.587096600" lon="6.444632900"><ele>425</ele><time>2013-07-05T12:51:47Z</time></trkpt>
 <trkpt lat="50.587128700" lon="6.444699500"><ele>426</ele><time>2013-07-05T12:51:51Z</time></trkpt>
 <trkpt lat="50.587142000" lon="6.444728200"><ele>426</ele><time>2013-07-05T12:51:55Z</time></trkpt>
 <trkpt lat="50.587164100" lon="6.444777400"><ele>426</ele><time>2013-07-05T12:51:59Z</time></trkpt>
 <trkpt lat="50.587175300" lon="6.444821600"><ele>427</ele><time>2013-07-05T12:52:03Z</time></trkpt>
 <trkpt lat="50.587207400" lon="6.444874900"><ele>427</ele><time>2013-07-05T12:52:07Z</time></trkpt>
 <trkpt lat="50.587229500" lon="6.444936600"><ele>428</ele><time>2013-07-05T12:52:11Z</time></trkpt>
 <trkpt lat="50.587250800" lon="6.444977400"><ele>428</ele><time>2013-07-05T12:52:15Z</time></trkpt>
 <trkpt lat="50.587249900" lon="6.445001600"><ele>429</ele><time>2013-07-05T12:52:19Z</time></trkpt>
 <trkpt lat="50.587248300" lon="6.445012400"><ele>429</ele><time>2013-07-05T12:52:23Z</time></trkpt>
 <trkpt lat="50.587248300" lon="6.445012400"><ele>430</ele><time>2013-07-05T12:52:27Z</time></trkpt>
 <trkpt lat="50.587248300" lon="6.445012400"><ele>430</ele><time>2013-07-05T12:52:31Z</time></trkpt>
 <trkpt lat="50.587250000" lon="6.445020700"><ele>431</ele><time>2013-07-05T12:52:35Z</time></trkpt>
 <trkpt lat="50.587249100" lon="6.445031600"><ele>431</ele><time>2013-07-05T12:52:39Z</time></trkpt>
 <trkpt lat="50.587244100" lon="6.445068300"><ele>431</ele><time>2013-07-05T12:52:43Z</time></trkpt>
 <trkpt lat="50.587242000" lon="6.445076200"><ele>432</ele><time>2013-07-05T12:52:47Z</time></trkpt>
 <trkpt lat="50.587253700" lon="6.445092000"><ele>432</ele><time>2013-07-05T12:52:51Z</time></trkpt>
 <trkpt lat="50.587277900" lon="6.445122800"><ele>432</ele><time>2013-07-05T12:52:55Z</time></trkpt>
 <trkpt lat="50.587299900" lon="6.445153300"><ele>432</ele><time>2013-07-05T12:52:59Z</time></trkpt>
 <trkpt lat="50.587340300" lon="6.445188700"><ele>432</ele><time>2013-07-05T12:53:03Z</time></trkpt>
 <trkpt lat="50.587393300" lon="6.445239500"><ele>433</ele><time>2013-07-05T12:53:07Z</time></trkpt>
 <trkpt lat="50.587422000" lon="6.445280800"><ele>433</ele><time>2013-07-05T12:53:11Z</time></trkpt>
 <trkpt lat="50.587436200" lon="6.445337400"><ele>433</ele><time>2013-07-05T12:53:15Z</time></trkpt>
 <trkpt lat="50.587448700" lon="6.445373700"><ele>433</ele><time>2013-07-05T12:53:19Z</time></trkpt>
 <trkpt lat="50.587461600" lon="6.445416200"><ele>433</ele><time>2013-07-05T12:53:23Z</time></trkpt>
 <trkpt lat="50.587482000" lon="6.445465800"><ele>433</ele><time>2013-07-05T12:53:27Z</time></trkpt>
 <trkpt lat="50.587510300" lon="6.445496200"><ele>434</ele><time>2013-07-05T12:53:31Z</time></trkpt>
 <trkpt lat="50.587527800" lon="6.445518700"><ele>434</ele><time>2013-07-05T12:53:35Z</time></trkpt>
 <trkpt lat="50.587524100" lon="6.445517400"><ele>434</ele><time>2013-07-05T12:53:39Z</time></trkpt>
 <trkpt lat="50.587532000" lon="6.445515300"><ele>434</ele><time>2013-07-05T12:53:43Z</time></trkpt>
 <trkpt lat="50.587532000" lon="6.445535300"><ele>434</ele><time>2013-07-05T12:53:47Z</time></trkpt>
 <trkpt lat="50.587543700" lon="6.445557400"><ele>434</ele><time>2013-07-05T12:53:51Z</time></trkpt>
 <trkpt lat="50.587577000" lon="6.445580300"><ele>434</ele><time>2013-07-05T12:53:55Z</time></trkpt>
 <trkpt lat="50.587607800" lon="6.445598700"><ele>434</ele><time>2013-07-05T12:53:59Z</time></trkpt>
 <trkpt lat="50.587635300" lon="6.445629900"><ele>433</ele><time>2013-07-05T12:54:03Z</time></trkpt>
 <trkpt lat="50.587664100" lon="6.445662000"><ele>433</ele><time>2013-07-05T12:54:07Z</time></trkpt>
 <trkpt lat="50.587674100" lon="6.445727400"><ele>433</ele><time>2013-07-05T12:54:11Z</time></trkpt>
 <trkpt lat="50.587701600" lon="6.445784500"><ele>432</ele><time>2013-07-05T12:54:15Z</time></trkpt>
 <trkpt lat="50.587722900" lon="6.445812400"><ele>432</ele><time>2013-07-05T12:54:19Z</time></trkpt>
 <trkpt lat="50.587743300" lon="6.445866200"><ele>431</ele><time>2013-07-05T12:54:23Z</time></trkpt>
 <trkpt lat="50.587747800" lon="6.445922800"><ele>431</ele><time>2013-07-05T12:54:27Z</time></trkpt>
 <trkpt lat="50.587715400" lon="6.445940300"><ele>430</ele><time>2013-07-05T12:54:31Z</time></trkpt>
 <trkpt lat="50.587718300" lon="6.445962400"><ele>430</ele><time>2013-07-05T12:54:35Z</time></trkpt>
 <trkpt lat="50.587724900" lon="6.445983700"><ele>429</ele><time>2013-07-05T12:54:39Z</time></trkpt>
 <trkpt lat="50.587719100" lon="6.445989500"><ele>429</ele><time>2013-07-05T12:54:43Z</time></trkpt>
 <trkpt lat="50.587713300" lon="6.445994100"><ele>429</ele><time>2013-07-05T12:54:47Z</time></trkpt>
 <trkpt lat="50.587709100" lon="6.446002400"><ele>428</ele><time>2013-07-05T12:54:51Z</time></trkpt>
 <trkpt lat="50.587704900" lon="6.446011200"><ele>428</ele><time>2013-07-05T12:54:55Z</time></trkpt>
 <trkpt lat="50.587702400" lon="6.446020300"><ele>428</ele><time>2013-07-05T12:54:59Z</time></trkpt>
 <trkpt lat="50.587700800" lon="6.446029500"><ele>428</ele><time>2013-07-05T12:55:03Z</time></trkpt>
 <trkpt lat="50.587698700" lon="6.446038300"><ele>428</ele><time>2013-07-05T12:55:07Z</time></trkpt>
 <trkpt lat="50.587696600" lon="6.446017000"><ele>428</ele><time>2013-07-05T12:55:11Z</time></trkpt>
 <trkpt lat="50.587702400" lon="6.445982000"><ele>428</ele><time>2013-07-05T12:55:15Z</time></trkpt>
 <trkpt lat="50.587702400" lon="6.445982000"><ele>428</ele><time>2013-07-05T12:55:19Z</time></trkpt>
 <trkpt lat="50.587705800" lon="6.445975400"><ele>428</ele><time>2013-07-05T12:55:23Z</time></trkpt>
 <trkpt lat="50.587719100" lon="6.445976600"><ele>428</ele><time>2013-07-05T12:55:27Z</time></trkpt>
 <trkpt lat="50.587739100" lon="6.445987400"><ele>428</ele><time>2013-07-05T12:55:31Z</time></trkpt>
 <trkpt lat="50.587752800" lon="6.445992000"><ele>428</ele><time>2013-07-05T12:55:35Z</time></trkpt>
 <trkpt lat="50.587759100" lon="6.445995800"><ele>428</ele><time>2013-07-05T12:55:39Z</time></trkpt>
 <trkpt lat="50.587759100" lon="6.445995800"><ele>428</ele><time>2013-07-05T12:55:43Z</time></trkpt>
 <trkpt lat="50.587770300" lon="6.446005400"><ele>428</ele><time>2013-07-05T12:55:47Z</time></trkpt>
 <trkpt lat="50.587769100" lon="6.446014100"><ele>428</ele><time>2013-07-05T12:55:51Z</time></trkpt>
 <trkpt lat="50.587727900" lon="6.446032400"><ele>428</ele><time>2013-07-05T12:55:55Z</time></trkpt>
 <trkpt lat="50.587674500" lon="6.446052000"><ele>428</ele><time>2013-07-05T12:55:59Z</time></trkpt>
 <trkpt lat="50.587668700" lon="6.446049900"><ele>428</ele><time>2013-07-05T12:56:03Z</time></trkpt>
 <trkpt lat="50.587668700" lon="6.446049900"><ele>428</ele><time>2013-07-05T12:56:07Z</time></trkpt>
 <trkpt lat="50.587649500" lon="6.446040800"><ele>428</ele><time>2013-07-05T12:56:11Z</time></trkpt>
 <trkpt lat="50.587610300" lon="6.446024100"><ele>429</ele><time>2013-07-05T12:56:15Z</time></trkpt>
 <trkpt lat="50.587589500" lon="6.446015800"><ele>429</ele><time>2013-07-05T12:56:19Z</time></trkpt>
 <trkpt lat="50.587564100" lon="6.446005300"><ele>429</ele><time>2013-07-05T12:56:23Z</time></trkpt>
 <trkpt lat="50.587547400" lon="6.445992900"><ele>429</ele><time>2013-07-05T12:56:27Z</time></trkpt>
 <trkpt lat="50.587532800" lon="6.445992800"><ele>429</ele><time>2013-07-05T12:56:31Z</time></trkpt>
 <trkpt lat="50.587526200" lon="6.445990800"><ele>429</ele><time>2013-07-05T12:56:35Z</time></trkpt>
 <trkpt lat="50.587497400" lon="6.445991600"><ele>429</ele><time>2013-07-05T12:56:39Z</time></trkpt>
 <trkpt lat="50.587458300" lon="6.446007400"><ele>429</ele><time>2013-07-05T12:56:43Z</time></trkpt>
 <trkpt lat="50.587459500" lon="6.446001600"><ele>430</ele><time>2013-07-05T12:56:47Z</time></trkpt>
 <trkpt lat="50.587474100" lon="6.445957400"><ele>430</ele><time>2013-07-05T12:56:51Z</time></trkpt>
 <trkpt lat="50.587447000" lon="6.445897400"><ele>430</ele><time>2013-07-05T12:56:55Z</time></trkpt>
 <trkpt lat="50.587380800" lon="6.445860800"><ele>430</ele><time>2013-07-05T12:56:59Z</time></trkpt>
 <trkpt lat="50.587357800" lon="6.445879100"><ele>430</ele><time>2013-07-05T12:57:03Z</time></trkpt>
 <trkpt lat="50.587351200" lon="6.445916200"><ele>431</ele><time>2013-07-05T12:57:07Z</time></trkpt>
 <trkpt lat="50.587351600" lon="6.445926600"><ele>431</ele><time>2013-07-05T12:57:11Z</time></trkpt>
 <trkpt lat="50.587357400" lon="6.445926600"><ele>431</ele><time>2013-07-05T12:57:15Z</time></trkpt>
 <trkpt lat="50.587357400" lon="6.445926600"><ele>431</ele><time>2013-07-05T12:57:19Z</time></trkpt>
 <trkpt lat="50.587349500" lon="6.445948700"><ele>432</ele><time>2013-07-05T12:57:23Z</time></trkpt>
 <trkpt lat="50.587338700" lon="6.445986600"><ele>432</ele><time>2013-07-05T12:57:27Z</time></trkpt>
 <trkpt lat="50.587303300" lon="6.446026600"><ele>433</ele><time>2013-07-05T12:57:31Z</time></trkpt>
 <trkpt lat="50.587242400" lon="6.446050800"><ele>433</ele><time>2013-07-05T12:57:35Z</time></trkpt>
 <trkpt lat="50.587211600" lon="6.446087400"><ele>434</ele><time>2013-07-05T12:57:39Z</time></trkpt>
 <trkpt lat="50.587179500" lon="6.446128300"><ele>434</ele><time>2013-07-05T12:57:43Z</time></trkpt>
 <trkpt lat="50.587142400" lon="6.446160800"><ele>435</ele><time>2013-07-05T12:57:47Z</time></trkpt>
 <trkpt lat="50.587081600" lon="6.446180300"><ele>435</ele><time>2013-07-05T12:57:51Z</time></trkpt>
 <trkpt lat="50.587043700" lon="6.446217400"><ele>436</ele><time>2013-07-05T12:57:55Z</time></trkpt>
 <trkpt lat="50.587022400" lon="6.446262400"><ele>436</ele><time>2013-07-05T12:57:59Z</time></trkpt>
 <trkpt lat="50.587021600" lon="6.446274900"><ele>437</ele><time>2013-07-05T12:58:03Z</time></trkpt>
 <trkpt lat="50.587021600" lon="6.446274900"><ele>437</ele><time>2013-07-05T12:58:07Z</time></trkpt>
 <trkpt lat="50.587027400" lon="6.446278700"><ele>438</ele><time>2013-07-05T12:58:11Z</time></trkpt>
 <trkpt lat="50.587029100" lon="6.446287400"><ele>438</ele><time>2013-07-05T12:58:15Z</time></trkpt>
 <trkpt lat="50.587024100" lon="6.446275300"><ele>439</ele><time>2013-07-05T12:58:19Z</time></trkpt>
 <trkpt lat="50.587020800" lon="6.446263700"><ele>439</ele><time>2013-07-05T12:58:23Z</time></trkpt>
 <trkpt lat="50.587010300" lon="6.446237400"><ele>440</ele><time>2013-07-05T12:58:27Z</time></trkpt>
 <trkpt lat="50.586994100" lon="6.446194900"><ele>440</ele><time>2013-07-05T12:58:31Z</time></trkpt>
 <trkpt lat="50.586962800" lon="6.446144900"><ele>440</ele><time>2013-07-05T12:58:35Z</time></trkpt>
 <trkpt lat="50.586922000" lon="6.446115300"><ele>441</ele><time>2013-07-05T12:58:39Z</time></trkpt>
 <trkpt lat="50.586875800" lon="6.446085800"><ele>441</ele><time>2013-07-05T12:58:43Z</time></trkpt>
 <trkpt lat="50.586833300" lon="6.446044900"><ele>441</ele><time>2013-07-05T12:58:47Z</time></trkpt>
 <trkpt lat="50.586791200" lon="6.446008300"><ele>441</ele><time>2013-07-05T12:58:51Z</time></trkpt>
 <trkpt lat="50.586747000" lon="6.445975800"><ele>442</ele><time>2013-07-05T12:58:55Z</time></trkpt>
 <trkpt lat="50.586702400" lon="6.445935300"><ele>442</ele><time>2013-07-05T12:58:59Z</time></trkpt>
 <trkpt lat="50.586652800" lon="6.445916200"><ele>442</ele><time>2013-07-05T12:59:03Z</time></trkpt>
 <trkpt lat="50.586608700" lon="6.445868700"><ele>442</ele><time>2013-07-05T12:59:07Z</time></trkpt>
 <trkpt lat="50.586564500" lon="6.445841600"><ele>442</ele><time>2013-07-05T12:59:11Z</time></trkpt>
 <trkpt lat="50.586518200" lon="6.445813300"><ele>442</ele><time>2013-07-05T12:59:15Z</time></trkpt>
 <trkpt lat="50.586479100" lon="6.445782800"><ele>442</ele><time>2013-07-05T12:59:19Z</time></trkpt>
 <trkpt lat="50.586439500" lon="6.445752000"><ele>443</ele><time>2013-07-05T12:59:23Z</time></trkpt>
 <trkpt lat="50.586405300" lon="6.445717800"><ele>443</ele><time>2013-07-05T12:59:27Z</time></trkpt>
 <trkpt lat="50.586367800" lon="6.445681200"><ele>443</ele><time>2013-07-05T12:59:31Z</time></trkpt>
 <trkpt lat="50.586322900" lon="6.445632400"><ele>443</ele><time>2013-07-05T12:59:35Z</time></trkpt>
 <trkpt lat="50.586278700" lon="6.445600400"><ele>443</ele><time>2013-07-05T12:59:39Z</time></trkpt>
 <trkpt lat="50.586239100" lon="6.445573300"><ele>443</ele><time>2013-07-05T12:59:43Z</time></trkpt>
 <trkpt lat="50.586205300" lon="6.445549900"><ele>443</ele><time>2013-07-05T12:59:47Z</time></trkpt>
 <trkpt lat="50.586157800" lon="6.445522800"><ele>443</ele><time>2013-07-05T12:59:51Z</time></trkpt>
 <trkpt lat="50.586114900" lon="6.445503700"><ele>443</ele><time>2013-07-05T12:59:55Z</time></trkpt>
 <trkpt lat="50.586066200" lon="6.445487000"><ele>443</ele><time>2013-07-05T12:59:59Z</time></trkpt>
 <trkpt lat="50.586019500" lon="6.445470300"><ele>443</ele><time>2013-07-05T13:00:03Z</time></trkpt>
 <trkpt lat="50.585977000" lon="6.445455300"><ele>443</ele><time>2013-07-05T13:00:07Z</time></trkpt>
 <trkpt lat="50.585945400" lon="6.445434900"><ele>443</ele><time>2013-07-05T13:00:11Z</time></trkpt>
 <trkpt lat="50.585901600" lon="6.445408200"><ele>443</ele><time>2013-07-05T13:00:15Z</time></trkpt>
 <trkpt lat="50.585849900" lon="6.445373700"><ele>443</ele><time>2013-07-05T13:00:19Z</time></trkpt>
 <trkpt lat="50.585807500" lon="6.445354900"><ele>443</ele><time>2013-07-05T13:00:23Z</time></trkpt>
 <trkpt lat="50.585756600" lon="6.445337400"><ele>443</ele><time>2013-07-05T13:00:27Z</time></trkpt>
 <trkpt lat="50.585710800" lon="6.445326600"><ele>444</ele><time>2013-07-05T13:00:31Z</time></trkpt>
 <trkpt lat="50.585670800" lon="6.445321200"><ele>444</ele><time>2013-07-05T13:00:35Z</time></trkpt>
 <trkpt lat="50.585644100" lon="6.445305300"><ele>444</ele><time>2013-07-05T13:00:39Z</time></trkpt>
 <trkpt lat="50.585611200" lon="6.445275300"><ele>444</ele><time>2013-07-05T13:00:43Z</time></trkpt>
 <trkpt lat="50.585569900" lon="6.445241600"><ele>444</ele><time>2013-07-05T13:00:47Z</time></trkpt>
 <trkpt lat="50.585542000" lon="6.445213300"><ele>445</ele><time>2013-07-05T13:00:51Z</time></trkpt>
 <trkpt lat="50.585517000" lon="6.445197000"><ele>445</ele><time>2013-07-05T13:00:55Z</time></trkpt>
 <trkpt lat="50.585474900" lon="6.445164100"><ele>445</ele><time>2013-07-05T13:00:59Z</time></trkpt>
 <trkpt lat="50.585452000" lon="6.445128700"><ele>445</ele><time>2013-07-05T13:01:03Z</time></trkpt>
 <trkpt lat="50.585403300" lon="6.445067000"><ele>445</ele><time>2013-07-05T13:01:07Z</time></trkpt>
 <trkpt lat="50.585359500" lon="6.445017000"><ele>445</ele><time>2013-07-05T13:01:11Z</time></trkpt>
 <trkpt lat="50.585319500" lon="6.444953300"><ele>445</ele><time>2013-07-05T13:01:15Z</time></trkpt>
 <trkpt lat="50.585279900" lon="6.444895400"><ele>445</ele><time>2013-07-05T13:01:19Z</time></trkpt>
 <trkpt lat="50.585232900" lon="6.444837000"><ele>445</ele><time>2013-07-05T13:01:23Z</time></trkpt>
 <trkpt lat="50.585204900" lon="6.444780300"><ele>445</ele><time>2013-07-05T13:01:27Z</time></trkpt>
 <trkpt lat="50.585187800" lon="6.444712000"><ele>445</ele><time>2013-07-05T13:01:31Z</time></trkpt>
 <trkpt lat="50.585179900" lon="6.444654100"><ele>445</ele><time>2013-07-05T13:01:35Z</time></trkpt>
 <trkpt lat="50.585139100" lon="6.444582000"><ele>445</ele><time>2013-07-05T13:01:39Z</time></trkpt>
 <trkpt lat="50.585096200" lon="6.444500800"><ele>445</ele><time>2013-07-05T13:01:43Z</time></trkpt>
 <trkpt lat="50.585058700" lon="6.444421600"><ele>445</ele><time>2013-07-05T13:01:47Z</time></trkpt>
 <trkpt lat="50.585029500" lon="6.444359900"><ele>445</ele><time>2013-07-05T13:01:51Z</time></trkpt>
 <trkpt lat="50.585011200" lon="6.444297000"><ele>445</ele><time>2013-07-05T13:01:55Z</time></trkpt>
 <trkpt lat="50.584993200" lon="6.444239900"><ele>446</ele><time>2013-07-05T13:01:59Z</time></trkpt>
 <trkpt lat="50.584983300" lon="6.444176200"><ele>446</ele><time>2013-07-05T13:02:03Z</time></trkpt>
 <trkpt lat="50.584958300" lon="6.444114900"><ele>447</ele><time>2013-07-05T13:02:07Z</time></trkpt>
 <trkpt lat="50.584946200" lon="6.444063300"><ele>448</ele><time>2013-07-05T13:02:11Z</time></trkpt>
 <trkpt lat="50.584903700" lon="6.443986600"><ele>449</ele><time>2013-07-05T13:02:15Z</time></trkpt>
 <trkpt lat="50.584882400" lon="6.443907800"><ele>450</ele><time>2013-07-05T13:02:19Z</time></trkpt>
 <trkpt lat="50.584873700" lon="6.443831600"><ele>451</ele><time>2013-07-05T13:02:23Z</time></trkpt>
 <trkpt lat="50.584841200" lon="6.443767900"><ele>452</ele><time>2013-07-05T13:02:27Z</time></trkpt>
 <trkpt lat="50.584779900" lon="6.443686200"><ele>453</ele><time>2013-07-05T13:02:31Z</time></trkpt>
 <trkpt lat="50.584721600" lon="6.443631600"><ele>454</ele><time>2013-07-05T13:02:35Z</time></trkpt>
 <trkpt lat="50.584664500" lon="6.443576200"><ele>455</ele><time>2013-07-05T13:02:39Z</time></trkpt>
 <trkpt lat="50.584622900" lon="6.443529900"><ele>457</ele><time>2013-07-05T13:02:43Z</time></trkpt>
 <trkpt lat="50.584562000" lon="6.443483300"><ele>458</ele><time>2013-07-05T13:02:47Z</time></trkpt>
 <trkpt lat="50.584481600" lon="6.443452000"><ele>459</ele><time>2013-07-05T13:02:51Z</time></trkpt>
 <trkpt lat="50.584425400" lon="6.443449900"><ele>461</ele><time>2013-07-05T13:02:55Z</time></trkpt>
 <trkpt lat="50.584377400" lon="6.443441600"><ele>462</ele><time>2013-07-05T13:02:59Z</time></trkpt>
 <trkpt lat="50.584339100" lon="6.443469500"><ele>464</ele><time>2013-07-05T13:03:03Z</time></trkpt>
 <trkpt lat="50.584307000" lon="6.443524500"><ele>465</ele><time>2013-07-05T13:03:07Z</time></trkpt>
 <trkpt lat="50.584286200" lon="6.443584500"><ele>466</ele><time>2013-07-05T13:03:11Z</time></trkpt>
 <trkpt lat="50.584287900" lon="6.443663200"><ele>467</ele><time>2013-07-05T13:03:15Z</time></trkpt>
 <trkpt lat="50.584311600" lon="6.443739500"><ele>468</ele><time>2013-07-05T13:03:19Z</time></trkpt>
 <trkpt lat="50.584321200" lon="6.443821200"><ele>469</ele><time>2013-07-05T13:03:23Z</time></trkpt>
 <trkpt lat="50.584329100" lon="6.443897900"><ele>470</ele><time>2013-07-05T13:03:27Z</time></trkpt>
 <trkpt lat="50.584329500" lon="6.443960800"><ele>471</ele><time>2013-07-05T13:03:31Z</time></trkpt>
 <trkpt lat="50.584345400" lon="6.444025400"><ele>472</ele><time>2013-07-05T13:03:35Z</time></trkpt>
 <trkpt lat="50.584364100" lon="6.444096200"><ele>473</ele><time>2013-07-05T13:03:39Z</time></trkpt>
 <trkpt lat="50.584380800" lon="6.444167400"><ele>473</ele><time>2013-07-05T13:03:43Z</time></trkpt>
 <trkpt lat="50.584435400" lon="6.444234500"><ele>474</ele><time>2013-07-05T13:03:47Z</time></trkpt>
 <trkpt lat="50.584457400" lon="6.444302000"><ele>474</ele><time>2013-07-05T13:03:51Z</time></trkpt>
 <trkpt lat="50.584475400" lon="6.444365300"><ele>475</ele><time>2013-07-05T13:03:55Z</time></trkpt>
 <trkpt lat="50.584506200" lon="6.444432900"><ele>475</ele><time>2013-07-05T13:03:59Z</time></trkpt>
 <trkpt lat="50.584542000" lon="6.444501200"><ele>475</ele><time>2013-07-05T13:04:03Z</time></trkpt>
 <trkpt lat="50.584569100" lon="6.444564500"><ele>475</ele><time>2013-07-05T13:04:07Z</time></trkpt>
 <trkpt lat="50.584562000" lon="6.444571200"><ele>476</ele><time>2013-07-05T13:04:11Z</time></trkpt>
 <trkpt lat="50.584557000" lon="6.444601200"><ele>476</ele><time>2013-07-05T13:04:15Z</time></trkpt>
 <trkpt lat="50.584584500" lon="6.444659100"><ele>476</ele><time>2013-07-05T13:04:19Z</time></trkpt>
 <trkpt lat="50.584606600" lon="6.444730400"><ele>476</ele><time>2013-07-05T13:04:23Z</time></trkpt>
 <trkpt lat="50.584627000" lon="6.444794500"><ele>476</ele><time>2013-07-05T13:04:27Z</time></trkpt>
 <trkpt lat="50.584654900" lon="6.444866200"><ele>476</ele><time>2013-07-05T13:04:31Z</time></trkpt>
 <trkpt lat="50.584679100" lon="6.444928700"><ele>476</ele><time>2013-07-05T13:04:35Z</time></trkpt>
 <trkpt lat="50.584712400" lon="6.445005800"><ele>476</ele><time>2013-07-05T13:04:39Z</time></trkpt>
 <trkpt lat="50.584746600" lon="6.445068700"><ele>476</ele><time>2013-07-05T13:04:43Z</time></trkpt>
 <trkpt lat="50.584775700" lon="6.445139100"><ele>476</ele><time>2013-07-05T13:04:47Z</time></trkpt>
 <trkpt lat="50.584803700" lon="6.445187800"><ele>476</ele><time>2013-07-05T13:04:51Z</time></trkpt>
 <trkpt lat="50.584832000" lon="6.445238200"><ele>476</ele><time>2013-07-05T13:04:55Z</time></trkpt>
 <trkpt lat="50.584852400" lon="6.445283700"><ele>477</ele><time>2013-07-05T13:04:59Z</time></trkpt>
 <trkpt lat="50.584877000" lon="6.445339900"><ele>477</ele><time>2013-07-05T13:05:03Z</time></trkpt>
 <trkpt lat="50.584924900" lon="6.445424100"><ele>477</ele><time>2013-07-05T13:05:07Z</time></trkpt>
 <trkpt lat="50.584950300" lon="6.445502400"><ele>478</ele><time>2013-07-05T13:05:11Z</time></trkpt>
 <trkpt lat="50.584987400" lon="6.445577000"><ele>478</ele><time>2013-07-05T13:05:15Z</time></trkpt>
 <trkpt lat="50.585009500" lon="6.445645300"><ele>479</ele><time>2013-07-05T13:05:19Z</time></trkpt>
 <trkpt lat="50.585021600" lon="6.445735000"><ele>480</ele><time>2013-07-05T13:05:23Z</time></trkpt>
 <trkpt lat="50.585023300" lon="6.445827000"><ele>480</ele><time>2013-07-05T13:05:27Z</time></trkpt>
 <trkpt lat="50.585044500" lon="6.445904900"><ele>481</ele><time>2013-07-05T13:05:31Z</time></trkpt>
 <trkpt lat="50.585054500" lon="6.445972800"><ele>482</ele><time>2013-07-05T13:05:35Z</time></trkpt>
 <trkpt lat="50.585060300" lon="6.446047400"><ele>483</ele><time>2013-07-05T13:05:39Z</time></trkpt>
 <trkpt lat="50.585067400" lon="6.446134500"><ele>485</ele><time>2013-07-05T13:05:43Z</time></trkpt>
 <trkpt lat="50.585075300" lon="6.446219100"><ele>486</ele><time>2013-07-05T13:05:47Z</time></trkpt>
 <trkpt lat="50.585064500" lon="6.446312900"><ele>487</ele><time>2013-07-05T13:05:51Z</time></trkpt>
 <trkpt lat="50.585041200" lon="6.446421600"><ele>488</ele><time>2013-07-05T13:05:55Z</time></trkpt>
 <trkpt lat="50.585051600" lon="6.446493700"><ele>490</ele><time>2013-07-05T13:05:59Z</time></trkpt>
 <trkpt lat="50.585051200" lon="6.446574900"><ele>491</ele><time>2013-07-05T13:06:03Z</time></trkpt>
 <trkpt lat="50.585059500" lon="6.446657000"><ele>492</ele><time>2013-07-05T13:06:07Z</time></trkpt>
 <trkpt lat="50.585084500" lon="6.446732000"><ele>493</ele><time>2013-07-05T13:06:11Z</time></trkpt>
 <trkpt lat="50.585101600" lon="6.446799100"><ele>494</ele><time>2013-07-05T13:06:15Z</time></trkpt>
 <trkpt lat="50.585112800" lon="6.446867900"><ele>495</ele><time>2013-07-05T13:06:19Z</time></trkpt>
 <trkpt lat="50.585088300" lon="6.446905300"><ele>497</ele><time>2013-07-05T13:06:23Z</time></trkpt>
 <trkpt lat="50.585052400" lon="6.446911600"><ele>498</ele><time>2013-07-05T13:06:27Z</time></trkpt>
 <trkpt lat="50.585035700" lon="6.446944500"><ele>499</ele><time>2013-07-05T13:06:31Z</time></trkpt>
 <trkpt lat="50.584982400" lon="6.446965400"><ele>500</ele><time>2013-07-05T13:06:35Z</time></trkpt>
 <trkpt lat="50.584922400" lon="6.446981600"><ele>500</ele><time>2013-07-05T13:06:39Z</time></trkpt>
 <trkpt lat="50.584867000" lon="6.446992800"><ele>501</ele><time>2013-07-05T13:06:43Z</time></trkpt>
 <trkpt lat="50.584805800" lon="6.446991600"><ele>502</ele><time>2013-07-05T13:06:47Z</time></trkpt>
 <trkpt lat="50.584735800" lon="6.446990800"><ele>502</ele><time>2013-07-05T13:06:51Z</time></trkpt>
 <trkpt lat="50.584652400" lon="6.447034900"><ele>503</ele><time>2013-07-05T13:06:55Z</time></trkpt>
 <trkpt lat="50.584584500" lon="6.447072800"><ele>503</ele><time>2013-07-05T13:06:59Z</time></trkpt>
 <trkpt lat="50.584558700" lon="6.447092000"><ele>503</ele><time>2013-07-05T13:07:03Z</time></trkpt>
 <trkpt lat="50.584537000" lon="6.447104100"><ele>503</ele><time>2013-07-05T13:07:07Z</time></trkpt>
 <trkpt lat="50.584512800" lon="6.447132000"><ele>503</ele><time>2013-07-05T13:07:11Z</time></trkpt>
 <trkpt lat="50.584502400" lon="6.447177000"><ele>503</ele><time>2013-07-05T13:07:15Z</time></trkpt>
 <trkpt lat="50.584497400" lon="6.447239100"><ele>503</ele><time>2013-07-05T13:07:19Z</time></trkpt>
 <trkpt lat="50.584487000" lon="6.447294900"><ele>503</ele><time>2013-07-05T13:07:23Z</time></trkpt>
 <trkpt lat="50.584472000" lon="6.447350400"><ele>503</ele><time>2013-07-05T13:07:27Z</time></trkpt>
 <trkpt lat="50.584447000" lon="6.447396200"><ele>502</ele><time>2013-07-05T13:07:31Z</time></trkpt>
 <trkpt lat="50.584418700" lon="6.447449100"><ele>502</ele><time>2013-07-05T13:07:35Z</time></trkpt>
 <trkpt lat="50.584387800" lon="6.447496600"><ele>501</ele><time>2013-07-05T13:07:39Z</time></trkpt>
 <trkpt lat="50.584353700" lon="6.447544900"><ele>500</ele><time>2013-07-05T13:07:43Z</time></trkpt>
 <trkpt lat="50.584301200" lon="6.447585300"><ele>499</ele><time>2013-07-05T13:07:47Z</time></trkpt>
 <trkpt lat="50.584239100" lon="6.447620800"><ele>499</ele><time>2013-07-05T13:07:51Z</time></trkpt>
 <trkpt lat="50.584188700" lon="6.447663300"><ele>498</ele><time>2013-07-05T13:07:55Z</time></trkpt>
 <trkpt lat="50.584129500" lon="6.447682000"><ele>497</ele><time>2013-07-05T13:07:59Z</time></trkpt>
 <trkpt lat="50.584056200" lon="6.447691200"><ele>496</ele><time>2013-07-05T13:08:03Z</time></trkpt>
 <trkpt lat="50.584004900" lon="6.447694900"><ele>495</ele><time>2013-07-05T13:08:07Z</time></trkpt>
 <trkpt lat="50.583969100" lon="6.447679500"><ele>493</ele><time>2013-07-05T13:08:11Z</time></trkpt>
 <trkpt lat="50.583935300" lon="6.447655700"><ele>492</ele><time>2013-07-05T13:08:15Z</time></trkpt>
 <trkpt lat="50.583901600" lon="6.447623700"><ele>491</ele><time>2013-07-05T13:08:19Z</time></trkpt>
 <trkpt lat="50.583869100" lon="6.447598700"><ele>490</ele><time>2013-07-05T13:08:23Z</time></trkpt>
 <trkpt lat="50.583834500" lon="6.447577000"><ele>488</ele><time>2013-07-05T13:08:27Z</time></trkpt>
 <trkpt lat="50.583807400" lon="6.447552000"><ele>487</ele><time>2013-07-05T13:08:31Z</time></trkpt>
 <trkpt lat="50.583794100" lon="6.447544900"><ele>486</ele><time>2013-07-05T13:08:35Z</time></trkpt>
 <trkpt lat="50.583781200" lon="6.447529100"><ele>485</ele><time>2013-07-05T13:08:39Z</time></trkpt>
 <trkpt lat="50.583792900" lon="6.447460300"><ele>483</ele><time>2013-07-05T13:08:43Z</time></trkpt>
 <trkpt lat="50.583796200" lon="6.447362900"><ele>482</ele><time>2013-07-05T13:08:47Z</time></trkpt>
 <trkpt lat="50.583787800" lon="6.447291600"><ele>481</ele><time>2013-07-05T13:08:51Z</time></trkpt>
 <trkpt lat="50.583790400" lon="6.447221200"><ele>480</ele><time>2013-07-05T13:08:55Z</time></trkpt>
 <trkpt lat="50.583766200" lon="6.447152800"><ele>479</ele><time>2013-07-05T13:08:59Z</time></trkpt>
 <trkpt lat="50.583749900" lon="6.447132000"><ele>477</ele><time>2013-07-05T13:09:03Z</time></trkpt>
 <trkpt lat="50.583739500" lon="6.447121200"><ele>476</ele><time>2013-07-05T13:09:07Z</time></trkpt>
 <trkpt lat="50.583706200" lon="6.447149900"><ele>475</ele><time>2013-07-05T13:09:11Z</time></trkpt>
 <trkpt lat="50.583685300" lon="6.447189100"><ele>474</ele><time>2013-07-05T13:09:15Z</time></trkpt>
 <trkpt lat="50.583679900" lon="6.447207400"><ele>474</ele><time>2013-07-05T13:09:19Z</time></trkpt>
 <trkpt lat="50.583654900" lon="6.447189500"><ele>473</ele><time>2013-07-05T13:09:23Z</time></trkpt>
 <trkpt lat="50.583644900" lon="6.447162800"><ele>472</ele><time>2013-07-05T13:09:27Z</time></trkpt>
 <trkpt lat="50.583672000" lon="6.447142000"><ele>472</ele><time>2013-07-05T13:09:31Z</time></trkpt>
 <trkpt lat="50.583691200" lon="6.447107800"><ele>471</ele><time>2013-07-05T13:09:35Z</time></trkpt>
 <trkpt lat="50.583712400" lon="6.447052800"><ele>471</ele><time>2013-07-05T13:09:39Z</time></trkpt>
 <trkpt lat="50.583727000" lon="6.447042500"><ele>471</ele><time>2013-07-05T13:09:43Z</time></trkpt>
 <trkpt lat="50.583677400" lon="6.447054500"><ele>470</ele><time>2013-07-05T13:09:47Z</time></trkpt>
 <trkpt lat="50.583631200" lon="6.447082400"><ele>470</ele><time>2013-07-05T13:09:51Z</time></trkpt>
 <trkpt lat="50.583580800" lon="6.447133700"><ele>470</ele><time>2013-07-05T13:09:55Z</time></trkpt>
 <trkpt lat="50.583539500" lon="6.447178200"><ele>472</ele><time>2013-07-05T13:09:59Z</time></trkpt>
 <trkpt lat="50.583539900" lon="6.447187800"><ele>474</ele><time>2013-07-05T13:10:03Z</time></trkpt>
 <trkpt lat="50.583527800" lon="6.447187400"><ele>476</ele><time>2013-07-05T13:10:07Z</time></trkpt>
 <trkpt lat="50.583515300" lon="6.447224500"><ele>478</ele><time>2013-07-05T13:10:11Z</time></trkpt>
 <trkpt lat="50.583507400" lon="6.447290800"><ele>480</ele><time>2013-07-05T13:10:15Z</time></trkpt>
 <trkpt lat="50.583514500" lon="6.447375800"><ele>482</ele><time>2013-07-05T13:10:19Z</time></trkpt>
 <trkpt lat="50.583496600" lon="6.447421600"><ele>483</ele><time>2013-07-05T13:10:21Z</time></trkpt>
 <trkpt lat="50.583610000" lon="6.447260000"><ele>485</ele><time>2013-07-05T13:47:07Z</time></trkpt>
 <trkpt lat="50.583614900" lon="6.447259500"><ele>487</ele><time>2013-07-05T13:47:09Z</time></trkpt>
 <trkpt lat="50.583629100" lon="6.447279500"><ele>489</ele><time>2013-07-05T13:47:13Z</time></trkpt>
 <trkpt lat="50.583698300" lon="6.447245800"><ele>491</ele><time>2013-07-05T13:47:17Z</time></trkpt>
 <trkpt lat="50.583725300" lon="6.447261600"><ele>493</ele><time>2013-07-05T13:47:21Z</time></trkpt>
 <trkpt lat="50.583730400" lon="6.447292000"><ele>494</ele><time>2013-07-05T13:47:25Z</time></trkpt>
 <trkpt lat="50.583757000" lon="6.447372800"><ele>496</ele><time>2013-07-05T13:47:29Z</time></trkpt>
 <trkpt lat="50.583771200" lon="6.447464900"><ele>498</ele><time>2013-07-05T13:47:33Z</time></trkpt>
 <trkpt lat="50.583775400" lon="6.447549900"><ele>500</ele><time>2013-07-05T13:47:37Z</time></trkpt>
 <trkpt lat="50.583766600" lon="6.447607400"><ele>500</ele><time>2013-07-05T13:47:41Z</time></trkpt>
 <trkpt lat="50.583761600" lon="6.447637400"><ele>500</ele><time>2013-07-05T13:47:45Z</time></trkpt>
 <trkpt lat="50.583760000" lon="6.447694500"><ele>500</ele><time>2013-07-05T13:47:49Z</time></trkpt>
 <trkpt lat="50.583762800" lon="6.447731200"><ele>500</ele><time>2013-07-05T13:47:53Z</time></trkpt>
 <trkpt lat="50.583767000" lon="6.447751200"><ele>500</ele><time>2013-07-05T13:47:57Z</time></trkpt>
 <trkpt lat="50.583761600" lon="6.447779900"><ele>500</ele><time>2013-07-05T13:48:01Z</time></trkpt>
 <trkpt lat="50.583732400" lon="6.447798300"><ele>501</ele><time>2013-07-05T13:48:05Z</time></trkpt>
 <trkpt lat="50.583695800" lon="6.447809900"><ele>501</ele><time>2013-07-05T13:48:09Z</time></trkpt>
 <trkpt lat="50.583644900" lon="6.447805300"><ele>502</ele><time>2013-07-05T13:48:13Z</time></trkpt>
 <trkpt lat="50.583588700" lon="6.447788200"><ele>502</ele><time>2013-07-05T13:48:17Z</time></trkpt>
 <trkpt lat="50.583539900" lon="6.447783700"><ele>503</ele><time>2013-07-05T13:48:21Z</time></trkpt>
 <trkpt lat="50.583485400" lon="6.447803700"><ele>503</ele><time>2013-07-05T13:48:25Z</time></trkpt>
 <trkpt lat="50.583449500" lon="6.447808300"><ele>504</ele><time>2013-07-05T13:48:29Z</time></trkpt>
 <trkpt lat="50.583418300" lon="6.447807400"><ele>505</ele><time>2013-07-05T13:48:33Z</time></trkpt>
 <trkpt lat="50.583378700" lon="6.447815300"><ele>505</ele><time>2013-07-05T13:48:37Z</time></trkpt>
 <trkpt lat="50.583335800" lon="6.447827800"><ele>506</ele><time>2013-07-05T13:48:41Z</time></trkpt>
 <trkpt lat="50.583294100" lon="6.447861200"><ele>506</ele><time>2013-07-05T13:48:45Z</time></trkpt>
 <trkpt lat="50.583268700" lon="6.447909900"><ele>507</ele><time>2013-07-05T13:48:49Z</time></trkpt>
 <trkpt lat="50.583227900" lon="6.447916200"><ele>507</ele><time>2013-07-05T13:48:53Z</time></trkpt>
 <trkpt lat="50.583172400" lon="6.447920400"><ele>508</ele><time>2013-07-05T13:48:57Z</time></trkpt>
 <trkpt lat="50.583123700" lon="6.447922900"><ele>508</ele><time>2013-07-05T13:49:01Z</time></trkpt>
 <trkpt lat="50.583067000" lon="6.447920800"><ele>508</ele><time>2013-07-05T13:49:05Z</time></trkpt>
 <trkpt lat="50.583011600" lon="6.447910400"><ele>509</ele><time>2013-07-05T13:49:09Z</time></trkpt>
 <trkpt lat="50.582972000" lon="6.447907400"><ele>509</ele><time>2013-07-05T13:49:13Z</time></trkpt>
 <trkpt lat="50.582930400" lon="6.447910300"><ele>509</ele><time>2013-07-05T13:49:17Z</time></trkpt>
 <trkpt lat="50.582876600" lon="6.447899500"><ele>509</ele><time>2013-07-05T13:49:21Z</time></trkpt>
 <trkpt lat="50.582799100" lon="6.447862000"><ele>509</ele><time>2013-07-05T13:49:25Z</time></trkpt>
 <trkpt lat="50.582743700" lon="6.447846600"><ele>508</ele><time>2013-07-05T13:49:29Z</time></trkpt>
 <trkpt lat="50.582701200" lon="6.447846600"><ele>508</ele><time>2013-07-05T13:49:33Z</time></trkpt>
 <trkpt lat="50.582654500" lon="6.447853300"><ele>508</ele><time>2013-07-05T13:49:37Z</time></trkpt>
 <trkpt lat="50.582614100" lon="6.447862000"><ele>508</ele><time>2013-07-05T13:49:41Z</time></trkpt>
 <trkpt lat="50.582569500" lon="6.447872000"><ele>507</ele><time>2013-07-05T13:49:45Z</time></trkpt>
 <trkpt lat="50.582516600" lon="6.447871200"><ele>507</ele><time>2013-07-05T13:49:49Z</time></trkpt>
 <trkpt lat="50.582459500" lon="6.447885800"><ele>506</ele><time>2013-07-05T13:49:53Z</time></trkpt>
 <trkpt lat="50.582406600" lon="6.447902000"><ele>506</ele><time>2013-07-05T13:49:57Z</time></trkpt>
 <trkpt lat="50.582376600" lon="6.447920700"><ele>505</ele><time>2013-07-05T13:50:01Z</time></trkpt>
 <trkpt lat="50.582329900" lon="6.447918700"><ele>504</ele><time>2013-07-05T13:50:05Z</time></trkpt>
 <trkpt lat="50.582280800" lon="6.447919500"><ele>503</ele><time>2013-07-05T13:50:09Z</time></trkpt>
 <trkpt lat="50.582232800" lon="6.447916200"><ele>502</ele><time>2013-07-05T13:50:13Z</time></trkpt>
 <trkpt lat="50.582184900" lon="6.447904500"><ele>502</ele><time>2013-07-05T13:50:17Z</time></trkpt>
 <trkpt lat="50.582146600" lon="6.447886600"><ele>500</ele><time>2013-07-05T13:50:21Z</time></trkpt>
 <trkpt lat="50.582109900" lon="6.447863300"><ele>499</ele><time>2013-07-05T13:50:25Z</time></trkpt>
 <trkpt lat="50.582069900" lon="6.447831600"><ele>498</ele><time>2013-07-05T13:50:29Z</time></trkpt>
 <trkpt lat="50.582025300" lon="6.447798700"><ele>497</ele><time>2013-07-05T13:50:33Z</time></trkpt>
 <trkpt lat="50.581992000" lon="6.447768700"><ele>496</ele><time>2013-07-05T13:50:37Z</time></trkpt>
 <trkpt lat="50.581959500" lon="6.447737900"><ele>494</ele><time>2013-07-05T13:50:41Z</time></trkpt>
 <trkpt lat="50.581919500" lon="6.447719500"><ele>493</ele><time>2013-07-05T13:50:45Z</time></trkpt>
 <trkpt lat="50.581877800" lon="6.447701200"><ele>492</ele><time>2013-07-05T13:50:49Z</time></trkpt>
 <trkpt lat="50.581834900" lon="6.447693300"><ele>490</ele><time>2013-07-05T13:50:53Z</time></trkpt>
 <trkpt lat="50.581792400" lon="6.447676600"><ele>489</ele><time>2013-07-05T13:50:57Z</time></trkpt>
 <trkpt lat="50.581750400" lon="6.447675400"><ele>487</ele><time>2013-07-05T13:51:01Z</time></trkpt>
 <trkpt lat="50.581712000" lon="6.447669900"><ele>486</ele><time>2013-07-05T13:51:05Z</time></trkpt>
 <trkpt lat="50.581668700" lon="6.447662400"><ele>484</ele><time>2013-07-05T13:51:09Z</time></trkpt>
 <trkpt lat="50.581622800" lon="6.447649900"><ele>483</ele><time>2013-07-05T13:51:13Z</time></trkpt>
 <trkpt lat="50.581582400" lon="6.447634500"><ele>482</ele><time>2013-07-05T13:51:17Z</time></trkpt>
 <trkpt lat="50.581541600" lon="6.447621200"><ele>481</ele><time>2013-07-05T13:51:21Z</time></trkpt>
 <trkpt lat="50.581498700" lon="6.447600800"><ele>480</ele><time>2013-07-05T13:51:25Z</time></trkpt>
 <trkpt lat="50.581430800" lon="6.447586600"><ele>479</ele><time>2013-07-05T13:51:29Z</time></trkpt>
 <trkpt lat="50.581393300" lon="6.447568700"><ele>478</ele><time>2013-07-05T13:51:33Z</time></trkpt>
 <trkpt lat="50.581355800" lon="6.447578300"><ele>477</ele><time>2013-07-05T13:51:37Z</time></trkpt>
 <trkpt lat="50.581309500" lon="6.447586200"><ele>476</ele><time>2013-07-05T13:51:41Z</time></trkpt>
 <trkpt lat="50.581266600" lon="6.447574900"><ele>475</ele><time>2013-07-05T13:51:45Z</time></trkpt>
 <trkpt lat="50.581220400" lon="6.447564500"><ele>474</ele><time>2013-07-05T13:51:49Z</time></trkpt>
 <trkpt lat="50.581177800" lon="6.447552000"><ele>474</ele><time>2013-07-05T13:51:53Z</time></trkpt>
 <trkpt lat="50.581129900" lon="6.447544500"><ele>473</ele><time>2013-07-05T13:51:57Z</time></trkpt>
 <trkpt lat="50.581079500" lon="6.447522000"><ele>472</ele><time>2013-07-05T13:52:01Z</time></trkpt>
 <trkpt lat="50.581030300" lon="6.447502400"><ele>472</ele><time>2013-07-05T13:52:05Z</time></trkpt>
 <trkpt lat="50.580984500" lon="6.447490800"><ele>471</ele><time>2013-07-05T13:52:09Z</time></trkpt>
 <trkpt lat="50.580943700" lon="6.447473300"><ele>471</ele><time>2013-07-05T13:52:13Z</time></trkpt>
 <trkpt lat="50.580902000" lon="6.447442400"><ele>470</ele><time>2013-07-05T13:52:17Z</time></trkpt>
 <trkpt lat="50.580854900" lon="6.447404500"><ele>470</ele><time>2013-07-05T13:52:21Z</time></trkpt>
 <trkpt lat="50.580814900" lon="6.447365700"><ele>469</ele><time>2013-07-05T13:52:25Z</time></trkpt>
 <trkpt lat="50.580777000" lon="6.447337900"><ele>469</ele><time>2013-07-05T13:52:29Z</time></trkpt>
 <trkpt lat="50.580736200" lon="6.447343300"><ele>468</ele><time>2013-07-05T13:52:33Z</time></trkpt>
 <trkpt lat="50.580704900" lon="6.447372900"><ele>468</ele><time>2013-07-05T13:52:37Z</time></trkpt>
 <trkpt lat="50.580669500" lon="6.447412000"><ele>468</ele><time>2013-07-05T13:52:41Z</time></trkpt>
 <trkpt lat="50.580647000" lon="6.447447400"><ele>467</ele><time>2013-07-05T13:52:45Z</time></trkpt>
 <trkpt lat="50.580623300" lon="6.447483300"><ele>467</ele><time>2013-07-05T13:52:49Z</time></trkpt>
 <trkpt lat="50.580598700" lon="6.447504500"><ele>467</ele><time>2013-07-05T13:52:53Z</time></trkpt>
 <trkpt lat="50.580589500" lon="6.447508300"><ele>466</ele><time>2013-07-05T13:52:57Z</time></trkpt>
 <trkpt lat="50.580590300" lon="6.447489500"><ele>466</ele><time>2013-07-05T13:53:01Z</time></trkpt>
 <trkpt lat="50.580607800" lon="6.447467900"><ele>466</ele><time>2013-07-05T13:53:05Z</time></trkpt>
 <trkpt lat="50.580619500" lon="6.447419100"><ele>465</ele><time>2013-07-05T13:53:09Z</time></trkpt>
 <trkpt lat="50.580624900" lon="6.447395300"><ele>465</ele><time>2013-07-05T13:53:13Z</time></trkpt>
 <trkpt lat="50.580639900" lon="6.447389100"><ele>465</ele><time>2013-07-05T13:53:17Z</time></trkpt>
 <trkpt lat="50.580652400" lon="6.447398300"><ele>465</ele><time>2013-07-05T13:53:21Z</time></trkpt>
 <trkpt lat="50.580656600" lon="6.447390800"><ele>465</ele><time>2013-07-05T13:53:25Z</time></trkpt>
 <trkpt lat="50.580659900" lon="6.447383300"><ele>465</ele><time>2013-07-05T13:53:29Z</time></trkpt>
 <trkpt lat="50.580666600" lon="6.447380700"><ele>465</ele><time>2013-07-05T13:53:33Z</time></trkpt>
 <trkpt lat="50.580664900" lon="6.447408700"><ele>465</ele><time>2013-07-05T13:53:37Z</time></trkpt>
 <trkpt lat="50.580654100" lon="6.447418300"><ele>465</ele><time>2013-07-05T13:53:41Z</time></trkpt>
 <trkpt lat="50.580623700" lon="6.447417400"><ele>465</ele><time>2013-07-05T13:53:45Z</time></trkpt>
 <trkpt lat="50.580594500" lon="6.447423700"><ele>466</ele><time>2013-07-05T13:53:49Z</time></trkpt>
 <trkpt lat="50.580580300" lon="6.447443300"><ele>466</ele><time>2013-07-05T13:53:53Z</time></trkpt>
 <trkpt lat="50.580578300" lon="6.447467800"><ele>466</ele><time>2013-07-05T13:53:57Z</time></trkpt>
 <trkpt lat="50.580572800" lon="6.447473700"><ele>467</ele><time>2013-07-05T13:54:01Z</time></trkpt>
 <trkpt lat="50.580554900" lon="6.447492000"><ele>467</ele><time>2013-07-05T13:54:05Z</time></trkpt>
 <trkpt lat="50.580515300" lon="6.447524900"><ele>468</ele><time>2013-07-05T13:54:09Z</time></trkpt>
 <trkpt lat="50.580439500" lon="6.447512400"><ele>468</ele><time>2013-07-05T13:54:13Z</time></trkpt>
 <trkpt lat="50.580405300" lon="6.447446600"><ele>469</ele><time>2013-07-05T13:54:17Z</time></trkpt>
 <trkpt lat="50.580356200" lon="6.447448300"><ele>470</ele><time>2013-07-05T13:54:21Z</time></trkpt>
 <trkpt lat="50.580309900" lon="6.447458300"><ele>470</ele><time>2013-07-05T13:54:25Z</time></trkpt>
 <trkpt lat="50.580264100" lon="6.447465800"><ele>471</ele><time>2013-07-05T13:54:29Z</time></trkpt>
 <trkpt lat="50.580213700" lon="6.447455300"><ele>472</ele><time>2013-07-05T13:54:33Z</time></trkpt>
 <trkpt lat="50.580163700" lon="6.447433700"><ele>473</ele><time>2013-07-05T13:54:37Z</time></trkpt>
 <trkpt lat="50.580110400" lon="6.447401600"><ele>473</ele><time>2013-07-05T13:54:41Z</time></trkpt>
 <trkpt lat="50.580073300" lon="6.447377000"><ele>474</ele><time>2013-07-05T13:54:45Z</time></trkpt>
 <trkpt lat="50.580025300" lon="6.447331200"><ele>475</ele><time>2013-07-05T13:54:49Z</time></trkpt>
 <trkpt lat="50.579987000" lon="6.447297900"><ele>477</ele><time>2013-07-05T13:54:53Z</time></trkpt>
 <trkpt lat="50.579944900" lon="6.447289100"><ele>478</ele><time>2013-07-05T13:54:57Z</time></trkpt>
 <trkpt lat="50.579895800" lon="6.447248300"><ele>479</ele><time>2013-07-05T13:55:01Z</time></trkpt>
 <trkpt lat="50.579851600" lon="6.447207000"><ele>481</ele><time>2013-07-05T13:55:05Z</time></trkpt>
 <trkpt lat="50.579810300" lon="6.447181200"><ele>482</ele><time>2013-07-05T13:55:09Z</time></trkpt>
 <trkpt lat="50.579772400" lon="6.447157000"><ele>483</ele><time>2013-07-05T13:55:13Z</time></trkpt>
 <trkpt lat="50.579731600" lon="6.447127400"><ele>485</ele><time>2013-07-05T13:55:17Z</time></trkpt>
 <trkpt lat="50.579684100" lon="6.447070400"><ele>486</ele><time>2013-07-05T13:55:21Z</time></trkpt>
 <trkpt lat="50.579644100" lon="6.447026200"><ele>487</ele><time>2013-07-05T13:55:25Z</time></trkpt>
 <trkpt lat="50.579598300" lon="6.446985800"><ele>489</ele><time>2013-07-05T13:55:29Z</time></trkpt>
 <trkpt lat="50.579561200" lon="6.446955400"><ele>490</ele><time>2013-07-05T13:55:33Z</time></trkpt>
 <trkpt lat="50.579514900" lon="6.446921600"><ele>491</ele><time>2013-07-05T13:55:37Z</time></trkpt>
 <trkpt lat="50.579478700" lon="6.446893700"><ele>492</ele><time>2013-07-05T13:55:41Z</time></trkpt>
 <trkpt lat="50.579432000" lon="6.446872800"><ele>493</ele><time>2013-07-05T13:55:45Z</time></trkpt>
 <trkpt lat="50.579393700" lon="6.446851600"><ele>494</ele><time>2013-07-05T13:55:49Z</time></trkpt>
 <trkpt lat="50.579350300" lon="6.446834900"><ele>494</ele><time>2013-07-05T13:55:53Z</time></trkpt>
 <trkpt lat="50.579312400" lon="6.446808200"><ele>495</ele><time>2013-07-05T13:55:57Z</time></trkpt>
 <trkpt lat="50.579261600" lon="6.446779100"><ele>495</ele><time>2013-07-05T13:56:01Z</time></trkpt>
 <trkpt lat="50.579234100" lon="6.446769900"><ele>495</ele><time>2013-07-05T13:56:05Z</time></trkpt>
 <trkpt lat="50.579226200" lon="6.446771600"><ele>495</ele><time>2013-07-05T13:56:09Z</time></trkpt>
 <trkpt lat="50.579221200" lon="6.446778300"><ele>495</ele><time>2013-07-05T13:56:13Z</time></trkpt>
 <trkpt lat="50.579216200" lon="6.446784100"><ele>495</ele><time>2013-07-05T13:56:17Z</time></trkpt>
 <trkpt lat="50.579216200" lon="6.446784100"><ele>495</ele><time>2013-07-05T13:56:21Z</time></trkpt>
 <trkpt lat="50.579202400" lon="6.446777900"><ele>495</ele><time>2013-07-05T13:56:25Z</time></trkpt>
 <trkpt lat="50.579148700" lon="6.446752400"><ele>494</ele><time>2013-07-05T13:56:29Z</time></trkpt>
 <trkpt lat="50.579087400" lon="6.446669500"><ele>494</ele><time>2013-07-05T13:56:33Z</time></trkpt>
 <trkpt lat="50.579055400" lon="6.446657400"><ele>493</ele><time>2013-07-05T13:56:37Z</time></trkpt>
 <trkpt lat="50.579053700" lon="6.446670300"><ele>493</ele><time>2013-07-05T13:56:41Z</time></trkpt>
 <trkpt lat="50.579041600" lon="6.446688300"><ele>492</ele><time>2013-07-05T13:56:45Z</time></trkpt>
 <trkpt lat="50.579027400" lon="6.446718700"><ele>492</ele><time>2013-07-05T13:56:49Z</time></trkpt>
 <trkpt lat="50.579019100" lon="6.446739100"><ele>492</ele><time>2013-07-05T13:56:53Z</time></trkpt>
 <trkpt lat="50.579019500" lon="6.446749100"><ele>491</ele><time>2013-07-05T13:56:57Z</time></trkpt>
 <trkpt lat="50.579016600" lon="6.446757400"><ele>491</ele><time>2013-07-05T13:57:01Z</time></trkpt>
 <trkpt lat="50.579016600" lon="6.446757400"><ele>491</ele><time>2013-07-05T13:57:05Z</time></trkpt>
 <trkpt lat="50.579011200" lon="6.446757800"><ele>490</ele><time>2013-07-05T13:57:09Z</time></trkpt>
 <trkpt lat="50.579011200" lon="6.446757800"><ele>490</ele><time>2013-07-05T13:57:13Z</time></trkpt>
 <trkpt lat="50.579009100" lon="6.446747400"><ele>490</ele><time>2013-07-05T13:57:17Z</time></trkpt>
 <trkpt lat="50.579012800" lon="6.446727800"><ele>489</ele><time>2013-07-05T13:57:21Z</time></trkpt>
 <trkpt lat="50.579022400" lon="6.446708700"><ele>489</ele><time>2013-07-05T13:57:25Z</time></trkpt>
 <trkpt lat="50.579037000" lon="6.446695400"><ele>489</ele><time>2013-07-05T13:57:29Z</time></trkpt>
 <trkpt lat="50.579054100" lon="6.446689500"><ele>489</ele><time>2013-07-05T13:57:33Z</time></trkpt>
 <trkpt lat="50.579054100" lon="6.446689500"><ele>489</ele><time>2013-07-05T13:57:37Z</time></trkpt>
 <trkpt lat="50.579062000" lon="6.446673200"><ele>489</ele><time>2013-07-05T13:57:41Z</time></trkpt>
 <trkpt lat="50.579062000" lon="6.446673200"><ele>489</ele><time>2013-07-05T13:57:45Z</time></trkpt>
 <trkpt lat="50.579064500" lon="6.446664900"><ele>489</ele><time>2013-07-05T13:57:49Z</time></trkpt>
 <trkpt lat="50.579060300" lon="6.446659500"><ele>488</ele><time>2013-07-05T13:57:53Z</time></trkpt>
 <trkpt lat="50.579060300" lon="6.446659500"><ele>488</ele><time>2013-07-05T13:57:57Z</time></trkpt>
 <trkpt lat="50.579056600" lon="6.446652800"><ele>488</ele><time>2013-07-05T13:58:01Z</time></trkpt>
 <trkpt lat="50.579056600" lon="6.446652800"><ele>488</ele><time>2013-07-05T13:58:05Z</time></trkpt>
 <trkpt lat="50.579056600" lon="6.446652800"><ele>488</ele><time>2013-07-05T13:58:09Z</time></trkpt>
 <trkpt lat="50.579056600" lon="6.446652800"><ele>488</ele><time>2013-07-05T13:58:13Z</time></trkpt>
 <trkpt lat="50.579050700" lon="6.446699500"><ele>488</ele><time>2013-07-05T13:58:17Z</time></trkpt>
 <trkpt lat="50.579041200" lon="6.446779100"><ele>487</ele><time>2013-07-05T13:58:21Z</time></trkpt>
 <trkpt lat="50.579016200" lon="6.446861200"><ele>487</ele><time>2013-07-05T13:58:25Z</time></trkpt>
 <trkpt lat="50.578992400" lon="6.446956200"><ele>488</ele><time>2013-07-05T13:58:29Z</time></trkpt>
 <trkpt lat="50.578994100" lon="6.447044900"><ele>488</ele><time>2013-07-05T13:58:33Z</time></trkpt>
 <trkpt lat="50.578999100" lon="6.447096600"><ele>488</ele><time>2013-07-05T13:58:37Z</time></trkpt>
 <trkpt lat="50.578984500" lon="6.447162900"><ele>488</ele><time>2013-07-05T13:58:41Z</time></trkpt>
 <trkpt lat="50.578961600" lon="6.447239500"><ele>488</ele><time>2013-07-05T13:58:45Z</time></trkpt>
 <trkpt lat="50.578942400" lon="6.447311600"><ele>489</ele><time>2013-07-05T13:58:49Z</time></trkpt>
 <trkpt lat="50.578917900" lon="6.447387400"><ele>489</ele><time>2013-07-05T13:58:53Z</time></trkpt>
 <trkpt lat="50.578908300" lon="6.447442000"><ele>489</ele><time>2013-07-05T13:58:57Z</time></trkpt>
 <trkpt lat="50.578926200" lon="6.447442400"><ele>489</ele><time>2013-07-05T13:59:01Z</time></trkpt>
 <trkpt lat="50.578921600" lon="6.447426200"><ele>490</ele><time>2013-07-05T13:59:05Z</time></trkpt>
 <trkpt lat="50.578914500" lon="6.447419100"><ele>490</ele><time>2013-07-05T13:59:09Z</time></trkpt>
 <trkpt lat="50.578909900" lon="6.447412400"><ele>490</ele><time>2013-07-05T13:59:13Z</time></trkpt>
 <trkpt lat="50.578902000" lon="6.447443700"><ele>491</ele><time>2013-07-05T13:59:17Z</time></trkpt>
 <trkpt lat="50.578890800" lon="6.447513700"><ele>491</ele><time>2013-07-05T13:59:21Z</time></trkpt>
 <trkpt lat="50.578884500" lon="6.447559500"><ele>491</ele><time>2013-07-05T13:59:25Z</time></trkpt>
 <trkpt lat="50.578884100" lon="6.447569100"><ele>492</ele><time>2013-07-05T13:59:29Z</time></trkpt>
 <trkpt lat="50.578890800" lon="6.447585300"><ele>492</ele><time>2013-07-05T13:59:33Z</time></trkpt>
 <trkpt lat="50.578882000" lon="6.447584500"><ele>492</ele><time>2013-07-05T13:59:37Z</time></trkpt>
 <trkpt lat="50.578874900" lon="6.447561600"><ele>492</ele><time>2013-07-05T13:59:41Z</time></trkpt>
 <trkpt lat="50.578860300" lon="6.447603300"><ele>492</ele><time>2013-07-05T13:59:45Z</time></trkpt>
 <trkpt lat="50.578847400" lon="6.447657900"><ele>492</ele><time>2013-07-05T13:59:49Z</time></trkpt>
 <trkpt lat="50.578839900" lon="6.447720700"><ele>492</ele><time>2013-07-05T13:59:53Z</time></trkpt>
 <trkpt lat="50.578823700" lon="6.447787000"><ele>492</ele><time>2013-07-05T13:59:57Z</time></trkpt>
 <trkpt lat="50.578801600" lon="6.447839900"><ele>492</ele><time>2013-07-05T14:00:01Z</time></trkpt>
 <trkpt lat="50.578778700" lon="6.447894100"><ele>492</ele><time>2013-07-05T14:00:05Z</time></trkpt>
 <trkpt lat="50.578753700" lon="6.447959900"><ele>492</ele><time>2013-07-05T14:00:09Z</time></trkpt>
 <trkpt lat="50.578729900" lon="6.448020300"><ele>492</ele><time>2013-07-05T14:00:13Z</time></trkpt>
 <trkpt lat="50.578719900" lon="6.448060400"><ele>492</ele><time>2013-07-05T14:00:17Z</time></trkpt>
 <trkpt lat="50.578730300" lon="6.448075800"><ele>492</ele><time>2013-07-05T14:00:21Z</time></trkpt>
 <trkpt lat="50.578726600" lon="6.448098700"><ele>493</ele><time>2013-07-05T14:00:25Z</time></trkpt>
 <trkpt lat="50.578709100" lon="6.448136200"><ele>493</ele><time>2013-07-05T14:00:29Z</time></trkpt>
 <trkpt lat="50.578687400" lon="6.448181600"><ele>493</ele><time>2013-07-05T14:00:33Z</time></trkpt>
 <trkpt lat="50.578662000" lon="6.448249500"><ele>493</ele><time>2013-07-05T14:00:37Z</time></trkpt>
 <trkpt lat="50.578645800" lon="6.448306200"><ele>493</ele><time>2013-07-05T14:00:41Z</time></trkpt>
 <trkpt lat="50.578621200" lon="6.448361600"><ele>494</ele><time>2013-07-05T14:00:45Z</time></trkpt>
 <trkpt lat="50.578600800" lon="6.448421600"><ele>494</ele><time>2013-07-05T14:00:49Z</time></trkpt>
 <trkpt lat="50.578584500" lon="6.448484500"><ele>494</ele><time>2013-07-05T14:00:53Z</time></trkpt>
 <trkpt lat="50.578557400" lon="6.448546600"><ele>495</ele><time>2013-07-05T14:00:57Z</time></trkpt>
 <trkpt lat="50.578532000" lon="6.448617900"><ele>495</ele><time>2013-07-05T14:01:01Z</time></trkpt>
 <trkpt lat="50.578517000" lon="6.448672800"><ele>495</ele><time>2013-07-05T14:01:05Z</time></trkpt>
 <trkpt lat="50.578497900" lon="6.448726600"><ele>495</ele><time>2013-07-05T14:01:09Z</time></trkpt>
 <trkpt lat="50.578484500" lon="6.448784500"><ele>496</ele><time>2013-07-05T14:01:13Z</time></trkpt>
 <trkpt lat="50.578463300" lon="6.448863300"><ele>496</ele><time>2013-07-05T14:01:17Z</time></trkpt>
 <trkpt lat="50.578464900" lon="6.448907000"><ele>496</ele><time>2013-07-05T14:01:21Z</time></trkpt>
 <trkpt lat="50.578474900" lon="6.448923300"><ele>496</ele><time>2013-07-05T14:01:25Z</time></trkpt>
 <trkpt lat="50.578480800" lon="6.448927800"><ele>496</ele><time>2013-07-05T14:01:29Z</time></trkpt>
 <trkpt lat="50.578486600" lon="6.448931200"><ele>496</ele><time>2013-07-05T14:01:33Z</time></trkpt>
 <trkpt lat="50.578488300" lon="6.448940800"><ele>496</ele><time>2013-07-05T14:01:37Z</time></trkpt>
 <trkpt lat="50.578488300" lon="6.448940800"><ele>496</ele><time>2013-07-05T14:01:41Z</time></trkpt>
 <trkpt lat="50.578488300" lon="6.448940800"><ele>496</ele><time>2013-07-05T14:01:45Z</time></trkpt>
 <trkpt lat="50.578488300" lon="6.448940800"><ele>496</ele><time>2013-07-05T14:01:49Z</time></trkpt>
 <trkpt lat="50.578483700" lon="6.448945300"><ele>496</ele><time>2013-07-05T14:01:53Z</time></trkpt>
 <trkpt lat="50.578479100" lon="6.448921600"><ele>496</ele><time>2013-07-05T14:01:57Z</time></trkpt>
 <trkpt lat="50.578476600" lon="6.448912000"><ele>496</ele><time>2013-07-05T14:02:01Z</time></trkpt>
 <trkpt lat="50.578476600" lon="6.448902400"><ele>496</ele><time>2013-07-05T14:02:05Z</time></trkpt>
 <trkpt lat="50.578472400" lon="6.448896200"><ele>495</ele><time>2013-07-05T14:02:09Z</time></trkpt>
 <trkpt lat="50.578467800" lon="6.448889100"><ele>495</ele><time>2013-07-05T14:02:13Z</time></trkpt>
 <trkpt lat="50.578465400" lon="6.448880300"><ele>495</ele><time>2013-07-05T14:02:17Z</time></trkpt>
 <trkpt lat="50.578461200" lon="6.448887000"><ele>495</ele><time>2013-07-05T14:02:21Z</time></trkpt>
 <trkpt lat="50.578452000" lon="6.448934900"><ele>494</ele><time>2013-07-05T14:02:25Z</time></trkpt>
 <trkpt lat="50.578442400" lon="6.448973300"><ele>494</ele><time>2013-07-05T14:02:29Z</time></trkpt>
 <trkpt lat="50.578427400" lon="6.449031200"><ele>493</ele><time>2013-07-05T14:02:33Z</time></trkpt>
 <trkpt lat="50.578400800" lon="6.449090700"><ele>493</ele><time>2013-07-05T14:02:37Z</time></trkpt>
 <trkpt lat="50.578379900" lon="6.449155800"><ele>493</ele><time>2013-07-05T14:02:41Z</time></trkpt>
 <trkpt lat="50.578352400" lon="6.449219900"><ele>492</ele><time>2013-07-05T14:02:45Z</time></trkpt>
 <trkpt lat="50.578325400" lon="6.449279500"><ele>492</ele><time>2013-07-05T14:02:49Z</time></trkpt>
 <trkpt lat="50.578297000" lon="6.449337400"><ele>492</ele><time>2013-07-05T14:02:53Z</time></trkpt>
 <trkpt lat="50.578267000" lon="6.449398300"><ele>492</ele><time>2013-07-05T14:02:57Z</time></trkpt>
 <trkpt lat="50.578224100" lon="6.449449900"><ele>492</ele><time>2013-07-05T14:03:01Z</time></trkpt>
 <trkpt lat="50.578200400" lon="6.449510400"><ele>492</ele><time>2013-07-05T14:03:05Z</time></trkpt>
 <trkpt lat="50.578173700" lon="6.449558200"><ele>492</ele><time>2013-07-05T14:03:09Z</time></trkpt>
 <trkpt lat="50.578133300" lon="6.449613300"><ele>492</ele><time>2013-07-05T14:03:13Z</time></trkpt>
 <trkpt lat="50.578096600" lon="6.449677400"><ele>492</ele><time>2013-07-05T14:03:17Z</time></trkpt>
 <trkpt lat="50.578054900" lon="6.449728700"><ele>492</ele><time>2013-07-05T14:03:21Z</time></trkpt>
 <trkpt lat="50.578019900" lon="6.449765700"><ele>493</ele><time>2013-07-05T14:03:25Z</time></trkpt>
 <trkpt lat="50.577983700" lon="6.449784100"><ele>493</ele><time>2013-07-05T14:03:29Z</time></trkpt>
 <trkpt lat="50.577947400" lon="6.449805300"><ele>494</ele><time>2013-07-05T14:03:33Z</time></trkpt>
 <trkpt lat="50.577901600" lon="6.449824500"><ele>494</ele><time>2013-07-05T14:03:37Z</time></trkpt>
 <trkpt lat="50.577835300" lon="6.449827400"><ele>494</ele><time>2013-07-05T14:03:41Z</time></trkpt>
 <trkpt lat="50.577804500" lon="6.449827400"><ele>495</ele><time>2013-07-05T14:03:45Z</time></trkpt>
 <trkpt lat="50.577754900" lon="6.449822400"><ele>495</ele><time>2013-07-05T14:03:49Z</time></trkpt>
 <trkpt lat="50.577713700" lon="6.449827900"><ele>496</ele><time>2013-07-05T14:03:53Z</time></trkpt>
 <trkpt lat="50.577665800" lon="6.449838700"><ele>496</ele><time>2013-07-05T14:03:57Z</time></trkpt>
 <trkpt lat="50.577629900" lon="6.449834100"><ele>497</ele><time>2013-07-05T14:04:01Z</time></trkpt>
 <trkpt lat="50.577572900" lon="6.449827000"><ele>497</ele><time>2013-07-05T14:04:05Z</time></trkpt>
 <trkpt lat="50.577522400" lon="6.449813300"><ele>497</ele><time>2013-07-05T14:04:09Z</time></trkpt>
 <trkpt lat="50.577490800" lon="6.449798300"><ele>498</ele><time>2013-07-05T14:04:13Z</time></trkpt>
 <trkpt lat="50.577439900" lon="6.449774100"><ele>498</ele><time>2013-07-05T14:04:17Z</time></trkpt>
 <trkpt lat="50.577398200" lon="6.449765300"><ele>498</ele><time>2013-07-05T14:04:21Z</time></trkpt>
 <trkpt lat="50.577365300" lon="6.449747000"><ele>498</ele><time>2013-07-05T14:04:25Z</time></trkpt>
 <trkpt lat="50.577341600" lon="6.449709500"><ele>498</ele><time>2013-07-05T14:04:29Z</time></trkpt>
 <trkpt lat="50.577287000" lon="6.449691200"><ele>498</ele><time>2013-07-05T14:04:33Z</time></trkpt>
 <trkpt lat="50.577226200" lon="6.449680400"><ele>499</ele><time>2013-07-05T14:04:37Z</time></trkpt>
 <trkpt lat="50.577159500" lon="6.449640800"><ele>499</ele><time>2013-07-05T14:04:41Z</time></trkpt>
 <trkpt lat="50.577114100" lon="6.449606600"><ele>499</ele><time>2013-07-05T14:04:45Z</time></trkpt>
 <trkpt lat="50.577078700" lon="6.449601200"><ele>499</ele><time>2013-07-05T14:04:49Z</time></trkpt>
 <trkpt lat="50.577038300" lon="6.449579500"><ele>499</ele><time>2013-07-05T14:04:53Z</time></trkpt>
 <trkpt lat="50.576989900" lon="6.449564500"><ele>499</ele><time>2013-07-05T14:04:57Z</time></trkpt>
 <trkpt lat="50.576942000" lon="6.449578700"><ele>499</ele><time>2013-07-05T14:05:01Z</time></trkpt>
 <trkpt lat="50.576915300" lon="6.449615300"><ele>499</ele><time>2013-07-05T14:05:05Z</time></trkpt>
 <trkpt lat="50.576867800" lon="6.449622400"><ele>499</ele><time>2013-07-05T14:05:09Z</time></trkpt>
 <trkpt lat="50.576795800" lon="6.449602000"><ele>500</ele><time>2013-07-05T14:05:13Z</time></trkpt>
 <trkpt lat="50.576731200" lon="6.449559500"><ele>500</ele><time>2013-07-05T14:05:17Z</time></trkpt>
 <trkpt lat="50.576681600" lon="6.449537000"><ele>500</ele><time>2013-07-05T14:05:21Z</time></trkpt>
 <trkpt lat="50.576617400" lon="6.449519900"><ele>501</ele><time>2013-07-05T14:05:25Z</time></trkpt>
 <trkpt lat="50.576565800" lon="6.449505400"><ele>502</ele><time>2013-07-05T14:05:29Z</time></trkpt>
 <trkpt lat="50.576507000" lon="6.449496200"><ele>502</ele><time>2013-07-05T14:05:33Z</time></trkpt>
 <trkpt lat="50.576453300" lon="6.449463300"><ele>503</ele><time>2013-07-05T14:05:37Z</time></trkpt>
 <trkpt lat="50.576394900" lon="6.449439500"><ele>504</ele><time>2013-07-05T14:05:41Z</time></trkpt>
 <trkpt lat="50.576350300" lon="6.449456600"><ele>505</ele><time>2013-07-05T14:05:45Z</time></trkpt>
 <trkpt lat="50.576302900" lon="6.449469900"><ele>505</ele><time>2013-07-05T14:05:49Z</time></trkpt>
 <trkpt lat="50.576255400" lon="6.449445800"><ele>506</ele><time>2013-07-05T14:05:53Z</time></trkpt>
 <trkpt lat="50.576206600" lon="6.449410800"><ele>507</ele><time>2013-07-05T14:05:57Z</time></trkpt>
 <trkpt lat="50.576152400" lon="6.449408700"><ele>507</ele><time>2013-07-05T14:06:01Z</time></trkpt>
 <trkpt lat="50.576094500" lon="6.449414100"><ele>508</ele><time>2013-07-05T14:06:05Z</time></trkpt>
 <trkpt lat="50.576049900" lon="6.449428700"><ele>508</ele><time>2013-07-05T14:06:09Z</time></trkpt>
 <trkpt lat="50.576004900" lon="6.449370800"><ele>508</ele><time>2013-07-05T14:06:13Z</time></trkpt>
 <trkpt lat="50.575957400" lon="6.449308700"><ele>509</ele><time>2013-07-05T14:06:17Z</time></trkpt>
 <trkpt lat="50.575936600" lon="6.449306600"><ele>508</ele><time>2013-07-05T14:06:21Z</time></trkpt>
 <trkpt lat="50.575898700" lon="6.449314900"><ele>508</ele><time>2013-07-05T14:06:25Z</time></trkpt>
 <trkpt lat="50.575863300" lon="6.449347000"><ele>508</ele><time>2013-07-05T14:06:29Z</time></trkpt>
 <trkpt lat="50.575848700" lon="6.449354100"><ele>507</ele><time>2013-07-05T14:06:33Z</time></trkpt>
 <trkpt lat="50.575841600" lon="6.449358700"><ele>507</ele><time>2013-07-05T14:06:37Z</time></trkpt>
 <trkpt lat="50.575847000" lon="6.449351200"><ele>506</ele><time>2013-07-05T14:06:41Z</time></trkpt>
 <trkpt lat="50.575840800" lon="6.449355300"><ele>505</ele><time>2013-07-05T14:06:45Z</time></trkpt>
 <trkpt lat="50.575819500" lon="6.449393300"><ele>504</ele><time>2013-07-05T14:06:49Z</time></trkpt>
 <trkpt lat="50.575816200" lon="6.449414100"><ele>503</ele><time>2013-07-05T14:06:53Z</time></trkpt>
 <trkpt lat="50.575819500" lon="6.449423200"><ele>502</ele><time>2013-07-05T14:06:57Z</time></trkpt>
 <trkpt lat="50.575816600" lon="6.449438300"><ele>501</ele><time>2013-07-05T14:07:01Z</time></trkpt>
 <trkpt lat="50.575812000" lon="6.449443700"><ele>500</ele><time>2013-07-05T14:07:05Z</time></trkpt>
 <trkpt lat="50.575793700" lon="6.449446200"><ele>499</ele><time>2013-07-05T14:07:09Z</time></trkpt>
 <trkpt lat="50.575770700" lon="6.449458700"><ele>498</ele><time>2013-07-05T14:07:13Z</time></trkpt>
 <trkpt lat="50.575751200" lon="6.449468200"><ele>497</ele><time>2013-07-05T14:07:17Z</time></trkpt>
 <trkpt lat="50.575725300" lon="6.449469900"><ele>496</ele><time>2013-07-05T14:07:21Z</time></trkpt>
 <trkpt lat="50.575683700" lon="6.449496600"><ele>495</ele><time>2013-07-05T14:07:25Z</time></trkpt>
 <trkpt lat="50.575683700" lon="6.449523300"><ele>494</ele><time>2013-07-05T14:07:29Z</time></trkpt>
 <trkpt lat="50.575702000" lon="6.449557000"><ele>492</ele><time>2013-07-05T14:07:33Z</time></trkpt>
 <trkpt lat="50.575722400" lon="6.449595800"><ele>491</ele><time>2013-07-05T14:07:37Z</time></trkpt>
 <trkpt lat="50.575741600" lon="6.449643300"><ele>490</ele><time>2013-07-05T14:07:41Z</time></trkpt>
 <trkpt lat="50.575763300" lon="6.449686600"><ele>489</ele><time>2013-07-05T14:07:45Z</time></trkpt>
 <trkpt lat="50.575791200" lon="6.449718300"><ele>488</ele><time>2013-07-05T14:07:49Z</time></trkpt>
 <trkpt lat="50.575834100" lon="6.449735400"><ele>486</ele><time>2013-07-05T14:07:53Z</time></trkpt>
 <trkpt lat="50.575880700" lon="6.449755800"><ele>485</ele><time>2013-07-05T14:07:57Z</time></trkpt>
 <trkpt lat="50.575914500" lon="6.449773300"><ele>484</ele><time>2013-07-05T14:08:01Z</time></trkpt>
 <trkpt lat="50.575935300" lon="6.449804900"><ele>483</ele><time>2013-07-05T14:08:05Z</time></trkpt>
 <trkpt lat="50.575960700" lon="6.449834500"><ele>481</ele><time>2013-07-05T14:08:09Z</time></trkpt>
 <trkpt lat="50.575985300" lon="6.449861600"><ele>480</ele><time>2013-07-05T14:08:13Z</time></trkpt>
 <trkpt lat="50.576014900" lon="6.449929500"><ele>479</ele><time>2013-07-05T14:08:17Z</time></trkpt>
 <trkpt lat="50.576014100" lon="6.449979900"><ele>478</ele><time>2013-07-05T14:08:21Z</time></trkpt>
 <trkpt lat="50.576030400" lon="6.450030300"><ele>477</ele><time>2013-07-05T14:08:25Z</time></trkpt>
 <trkpt lat="50.576005800" lon="6.450065400"><ele>476</ele><time>2013-07-05T14:08:29Z</time></trkpt>
 <trkpt lat="50.575963200" lon="6.450067400"><ele>475</ele><time>2013-07-05T14:08:33Z</time></trkpt>
 <trkpt lat="50.575915800" lon="6.450085300"><ele>474</ele><time>2013-07-05T14:08:37Z</time></trkpt>
 <trkpt lat="50.575877800" lon="6.450073300"><ele>474</ele><time>2013-07-05T14:08:41Z</time></trkpt>
 <trkpt lat="50.575842800" lon="6.450060300"><ele>473</ele><time>2013-07-05T14:08:45Z</time></trkpt>
 <trkpt lat="50.575817000" lon="6.450080400"><ele>472</ele><time>2013-07-05T14:08:49Z</time></trkpt>
 <trkpt lat="50.575777400" lon="6.450101200"><ele>471</ele><time>2013-07-05T14:08:53Z</time></trkpt>
 <trkpt lat="50.575737400" lon="6.450106200"><ele>471</ele><time>2013-07-05T14:08:57Z</time></trkpt>
 <trkpt lat="50.575724100" lon="6.450116600"><ele>470</ele><time>2013-07-05T14:09:01Z</time></trkpt>
 <trkpt lat="50.575694100" lon="6.450139100"><ele>469</ele><time>2013-07-05T14:09:05Z</time></trkpt>
 <trkpt lat="50.575674900" lon="6.450143200"><ele>469</ele><time>2013-07-05T14:09:09Z</time></trkpt>
 <trkpt lat="50.575670800" lon="6.450150300"><ele>468</ele><time>2013-07-05T14:09:13Z</time></trkpt>
 <trkpt lat="50.575666600" lon="6.450171600"><ele>467</ele><time>2013-07-05T14:09:17Z</time></trkpt>
 <trkpt lat="50.575694500" lon="6.450198300"><ele>466</ele><time>2013-07-05T14:09:21Z</time></trkpt>
 <trkpt lat="50.575726200" lon="6.450224100"><ele>466</ele><time>2013-07-05T14:09:25Z</time></trkpt>
 <trkpt lat="50.575765800" lon="6.450289100"><ele>465</ele><time>2013-07-05T14:09:29Z</time></trkpt>
 <trkpt lat="50.575793700" lon="6.450349100"><ele>464</ele><time>2013-07-05T14:09:33Z</time></trkpt>
 <trkpt lat="50.575782400" lon="6.450360400"><ele>463</ele><time>2013-07-05T14:09:37Z</time></trkpt>
 <trkpt lat="50.575756200" lon="6.450349500"><ele>462</ele><time>2013-07-05T14:09:41Z</time></trkpt>
 <trkpt lat="50.575725300" lon="6.450387000"><ele>461</ele><time>2013-07-05T14:09:45Z</time></trkpt>
 <trkpt lat="50.575703300" lon="6.450460300"><ele>460</ele><time>2013-07-05T14:09:49Z</time></trkpt>
 <trkpt lat="50.575692000" lon="6.450515800"><ele>459</ele><time>2013-07-05T14:09:53Z</time></trkpt>
 <trkpt lat="50.575680300" lon="6.450579900"><ele>458</ele><time>2013-07-05T14:09:57Z</time></trkpt>
 <trkpt lat="50.575642000" lon="6.450625800"><ele>457</ele><time>2013-07-05T14:10:01Z</time></trkpt>
 <trkpt lat="50.575564100" lon="6.450612400"><ele>455</ele><time>2013-07-05T14:10:05Z</time></trkpt>
 <trkpt lat="50.575532000" lon="6.450637000"><ele>454</ele><time>2013-07-05T14:10:09Z</time></trkpt>
 <trkpt lat="50.575509100" lon="6.450668700"><ele>453</ele><time>2013-07-05T14:10:13Z</time></trkpt>
 <trkpt lat="50.575503300" lon="6.450667400"><ele>452</ele><time>2013-07-05T14:10:17Z</time></trkpt>
 <trkpt lat="50.575482400" lon="6.450667400"><ele>451</ele><time>2013-07-05T14:10:21Z</time></trkpt>
 <trkpt lat="50.575507000" lon="6.450665300"><ele>450</ele><time>2013-07-05T14:10:25Z</time></trkpt>
 <trkpt lat="50.575541600" lon="6.450624500"><ele>449</ele><time>2013-07-05T14:10:29Z</time></trkpt>
 <trkpt lat="50.575572400" lon="6.450600800"><ele>447</ele><time>2013-07-05T14:10:33Z</time></trkpt>
 <trkpt lat="50.575598700" lon="6.450570300"><ele>446</ele><time>2013-07-05T14:10:37Z</time></trkpt>
 <trkpt lat="50.575607000" lon="6.450557400"><ele>445</ele><time>2013-07-05T14:10:41Z</time></trkpt>
 <trkpt lat="50.575609100" lon="6.450549500"><ele>445</ele><time>2013-07-05T14:10:45Z</time></trkpt>
 <trkpt lat="50.575609100" lon="6.450549500"><ele>444</ele><time>2013-07-05T14:10:49Z</time></trkpt>
 <trkpt lat="50.575599100" lon="6.450559900"><ele>443</ele><time>2013-07-05T14:10:53Z</time></trkpt>
 <trkpt lat="50.575571200" lon="6.450605800"><ele>442</ele><time>2013-07-05T14:10:57Z</time></trkpt>
 <trkpt lat="50.575542800" lon="6.450653700"><ele>441</ele><time>2013-07-05T14:11:01Z</time></trkpt>
 <trkpt lat="50.575537000" lon="6.450695400"><ele>440</ele><time>2013-07-05T14:11:05Z</time></trkpt>
 <trkpt lat="50.575547000" lon="6.450718300"><ele>440</ele><time>2013-07-05T14:11:09Z</time></trkpt>
 <trkpt lat="50.575559500" lon="6.450709900"><ele>439</ele><time>2013-07-05T14:11:13Z</time></trkpt>
 <trkpt lat="50.575559500" lon="6.450709900"><ele>439</ele><time>2013-07-05T14:11:17Z</time></trkpt>
 <trkpt lat="50.575527800" lon="6.450744900"><ele>438</ele><time>2013-07-05T14:11:21Z</time></trkpt>
 <trkpt lat="50.575507000" lon="6.450761600"><ele>438</ele><time>2013-07-05T14:11:25Z</time></trkpt>
 <trkpt lat="50.575506200" lon="6.450751600"><ele>437</ele><time>2013-07-05T14:11:29Z</time></trkpt>
 <trkpt lat="50.575465800" lon="6.450768700"><ele>437</ele><time>2013-07-05T14:11:33Z</time></trkpt>
 <trkpt lat="50.575457800" lon="6.450783300"><ele>437</ele><time>2013-07-05T14:11:37Z</time></trkpt>
 <trkpt lat="50.575450300" lon="6.450827400"><ele>436</ele><time>2013-07-05T14:11:41Z</time></trkpt>
 <trkpt lat="50.575463700" lon="6.450854900"><ele>436</ele><time>2013-07-05T14:11:45Z</time></trkpt>
 <trkpt lat="50.575466200" lon="6.450863700"><ele>436</ele><time>2013-07-05T14:11:49Z</time></trkpt>
 <trkpt lat="50.575466200" lon="6.450863700"><ele>436</ele><time>2013-07-05T14:11:53Z</time></trkpt>
 <trkpt lat="50.575471600" lon="6.450863300"><ele>436</ele><time>2013-07-05T14:11:57Z</time></trkpt>
 <trkpt lat="50.575484100" lon="6.450861600"><ele>436</ele><time>2013-07-05T14:12:01Z</time></trkpt>
 <trkpt lat="50.575488700" lon="6.450853300"><ele>436</ele><time>2013-07-05T14:12:05Z</time></trkpt>
 <trkpt lat="50.575491200" lon="6.450842000"><ele>435</ele><time>2013-07-05T14:12:09Z</time></trkpt>
 <trkpt lat="50.575497900" lon="6.450833700"><ele>435</ele><time>2013-07-05T14:12:13Z</time></trkpt>
 <trkpt lat="50.575536600" lon="6.450798700"><ele>435</ele><time>2013-07-05T14:12:17Z</time></trkpt>
 <trkpt lat="50.575564100" lon="6.450785800"><ele>435</ele><time>2013-07-05T14:12:21Z</time></trkpt>
 <trkpt lat="50.575576600" lon="6.450789500"><ele>435</ele><time>2013-07-05T14:12:25Z</time></trkpt>
 <trkpt lat="50.575577000" lon="6.450807900"><ele>434</ele><time>2013-07-05T14:12:29Z</time></trkpt>
 <trkpt lat="50.575583700" lon="6.450822000"><ele>434</ele><time>2013-07-05T14:12:33Z</time></trkpt>
 <trkpt lat="50.575595400" lon="6.450830800"><ele>434</ele><time>2013-07-05T14:12:37Z</time></trkpt>
 <trkpt lat="50.575600800" lon="6.450850400"><ele>433</ele><time>2013-07-05T14:12:41Z</time></trkpt>
 <trkpt lat="50.575636600" lon="6.450856200"><ele>433</ele><time>2013-07-05T14:12:45Z</time></trkpt>
 <trkpt lat="50.575689100" lon="6.450821600"><ele>432</ele><time>2013-07-05T14:12:49Z</time></trkpt>
 <trkpt lat="50.575736200" lon="6.450819500"><ele>432</ele><time>2013-07-05T14:12:53Z</time></trkpt>
 <trkpt lat="50.575799500" lon="6.450807000"><ele>431</ele><time>2013-07-05T14:12:57Z</time></trkpt>
 <trkpt lat="50.575842800" lon="6.450832900"><ele>430</ele><time>2013-07-05T14:13:01Z</time></trkpt>
 <trkpt lat="50.575888300" lon="6.450886200"><ele>429</ele><time>2013-07-05T14:13:05Z</time></trkpt>
 <trkpt lat="50.575940300" lon="6.450955300"><ele>428</ele><time>2013-07-05T14:13:09Z</time></trkpt>
 <trkpt lat="50.576015800" lon="6.451114500"><ele>427</ele><time>2013-07-05T14:13:13Z</time></trkpt>
 <trkpt lat="50.576066200" lon="6.451188700"><ele>426</ele><time>2013-07-05T14:13:17Z</time></trkpt>
 <trkpt lat="50.576096200" lon="6.451233700"><ele>425</ele><time>2013-07-05T14:13:21Z</time></trkpt>
 <trkpt lat="50.576126600" lon="6.451268300"><ele>425</ele><time>2013-07-05T14:13:25Z</time></trkpt>
 <trkpt lat="50.576146200" lon="6.451319100"><ele>424</ele><time>2013-07-05T14:13:29Z</time></trkpt>
 <trkpt lat="50.576186600" lon="6.451381200"><ele>423</ele><time>2013-07-05T14:13:33Z</time></trkpt>
 <trkpt lat="50.576241600" lon="6.451431200"><ele>422</ele><time>2013-07-05T14:13:37Z</time></trkpt>
 <trkpt lat="50.576294100" lon="6.451482400"><ele>422</ele><time>2013-07-05T14:13:41Z</time></trkpt>
 <trkpt lat="50.576349900" lon="6.451573200"><ele>422</ele><time>2013-07-05T14:13:45Z</time></trkpt>
 <trkpt lat="50.576390400" lon="6.451631600"><ele>421</ele><time>2013-07-05T14:13:49Z</time></trkpt>
 <trkpt lat="50.576436600" lon="6.451670800"><ele>421</ele><time>2013-07-05T14:13:53Z</time></trkpt>
 <trkpt lat="50.576453300" lon="6.451717800"><ele>422</ele><time>2013-07-05T14:13:57Z</time></trkpt>
 <trkpt lat="50.576469100" lon="6.451772800"><ele>422</ele><time>2013-07-05T14:14:01Z</time></trkpt>
 <trkpt lat="50.576481600" lon="6.451825400"><ele>422</ele><time>2013-07-05T14:14:05Z</time></trkpt>
 <trkpt lat="50.576500700" lon="6.451873700"><ele>423</ele><time>2013-07-05T14:14:09Z</time></trkpt>
 <trkpt lat="50.576517000" lon="6.451928300"><ele>423</ele><time>2013-07-05T14:14:13Z</time></trkpt>
 <trkpt lat="50.576528700" lon="6.451997000"><ele>424</ele><time>2013-07-05T14:14:17Z</time></trkpt>
 <trkpt lat="50.576554900" lon="6.452039100"><ele>425</ele><time>2013-07-05T14:14:21Z</time></trkpt>
 <trkpt lat="50.576582000" lon="6.452087000"><ele>425</ele><time>2013-07-05T14:14:25Z</time></trkpt>
 <trkpt lat="50.576610800" lon="6.452128700"><ele>426</ele><time>2013-07-05T14:14:29Z</time></trkpt>
 <trkpt lat="50.576644500" lon="6.452167000"><ele>427</ele><time>2013-07-05T14:14:33Z</time></trkpt>
 <trkpt lat="50.576690300" lon="6.452225800"><ele>428</ele><time>2013-07-05T14:14:37Z</time></trkpt>
 <trkpt lat="50.576733700" lon="6.452282800"><ele>429</ele><time>2013-07-05T14:14:41Z</time></trkpt>
 <trkpt lat="50.576754900" lon="6.452361200"><ele>430</ele><time>2013-07-05T14:14:45Z</time></trkpt>
 <trkpt lat="50.576776200" lon="6.452415300"><ele>430</ele><time>2013-07-05T14:14:49Z</time></trkpt>
 <trkpt lat="50.576807000" lon="6.452454500"><ele>431</ele><time>2013-07-05T14:14:53Z</time></trkpt>
 <trkpt lat="50.576836200" lon="6.452520800"><ele>432</ele><time>2013-07-05T14:14:57Z</time></trkpt>
 <trkpt lat="50.576850300" lon="6.452569900"><ele>433</ele><time>2013-07-05T14:15:01Z</time></trkpt>
 <trkpt lat="50.576864100" lon="6.452625300"><ele>433</ele><time>2013-07-05T14:15:05Z</time></trkpt>
 <trkpt lat="50.576872000" lon="6.452693300"><ele>434</ele><time>2013-07-05T14:15:09Z</time></trkpt>
 <trkpt lat="50.576893700" lon="6.452735300"><ele>434</ele><time>2013-07-05T14:15:13Z</time></trkpt>
 <trkpt lat="50.576927900" lon="6.452794100"><ele>435</ele><time>2013-07-05T14:15:17Z</time></trkpt>
 <trkpt lat="50.576980400" lon="6.452877800"><ele>435</ele><time>2013-07-05T14:15:21Z</time></trkpt>
 <trkpt lat="50.577006200" lon="6.452920400"><ele>436</ele><time>2013-07-05T14:15:25Z</time></trkpt>
 <trkpt lat="50.577018700" lon="6.452957900"><ele>437</ele><time>2013-07-05T14:15:29Z</time></trkpt>
 <trkpt lat="50.577032400" lon="6.453012800"><ele>437</ele><time>2013-07-05T14:15:33Z</time></trkpt>
 <trkpt lat="50.577039900" lon="6.453065800"><ele>437</ele><time>2013-07-05T14:15:37Z</time></trkpt>
 <trkpt lat="50.577053300" lon="6.453106600"><ele>438</ele><time>2013-07-05T14:15:41Z</time></trkpt>
 <trkpt lat="50.577069500" lon="6.453157000"><ele>438</ele><time>2013-07-05T14:15:45Z</time></trkpt>
 <trkpt lat="50.577087400" lon="6.453214900"><ele>438</ele><time>2013-07-05T14:15:49Z</time></trkpt>
 <trkpt lat="50.577099100" lon="6.453277000"><ele>439</ele><time>2013-07-05T14:15:53Z</time></trkpt>
 <trkpt lat="50.577117000" lon="6.453365800"><ele>439</ele><time>2013-07-05T14:15:57Z</time></trkpt>
 <trkpt lat="50.577146600" lon="6.453416200"><ele>439</ele><time>2013-07-05T14:16:01Z</time></trkpt>
 <trkpt lat="50.577176200" lon="6.453475300"><ele>439</ele><time>2013-07-05T14:16:05Z</time></trkpt>
 <trkpt lat="50.577209100" lon="6.453529500"><ele>440</ele><time>2013-07-05T14:16:09Z</time></trkpt>
 <trkpt lat="50.577244100" lon="6.453577000"><ele>440</ele><time>2013-07-05T14:16:13Z</time></trkpt>
 <trkpt lat="50.577272000" lon="6.453645700"><ele>440</ele><time>2013-07-05T14:16:17Z</time></trkpt>
 <trkpt lat="50.577302400" lon="6.453703700"><ele>441</ele><time>2013-07-05T14:16:21Z</time></trkpt>
 <trkpt lat="50.577336600" lon="6.453763700"><ele>441</ele><time>2013-07-05T14:16:25Z</time></trkpt>
 <trkpt lat="50.577377400" lon="6.453859900"><ele>441</ele><time>2013-07-05T14:16:29Z</time></trkpt>
 <trkpt lat="50.577399500" lon="6.453918700"><ele>442</ele><time>2013-07-05T14:16:33Z</time></trkpt>
 <trkpt lat="50.577417000" lon="6.453903300"><ele>442</ele><time>2013-07-05T14:16:37Z</time></trkpt>
 <trkpt lat="50.577433300" lon="6.453871200"><ele>442</ele><time>2013-07-05T14:16:41Z</time></trkpt>
 <trkpt lat="50.577434900" lon="6.453860300"><ele>443</ele><time>2013-07-05T14:16:45Z</time></trkpt>
 <trkpt lat="50.577424100" lon="6.453852800"><ele>443</ele><time>2013-07-05T14:16:49Z</time></trkpt>
 <trkpt lat="50.577416200" lon="6.453852400"><ele>443</ele><time>2013-07-05T14:16:53Z</time></trkpt>
 <trkpt lat="50.577409100" lon="6.453860800"><ele>443</ele><time>2013-07-05T14:16:57Z</time></trkpt>
 <trkpt lat="50.577357400" lon="6.453937900"><ele>443</ele><time>2013-07-05T14:17:01Z</time></trkpt>
 <trkpt lat="50.577337800" lon="6.453968700"><ele>442</ele><time>2013-07-05T14:17:05Z</time></trkpt>
 <trkpt lat="50.577364500" lon="6.454022000"><ele>442</ele><time>2013-07-05T14:17:09Z</time></trkpt>
 <trkpt lat="50.577428700" lon="6.454089900"><ele>442</ele><time>2013-07-05T14:17:13Z</time></trkpt>
 <trkpt lat="50.577476600" lon="6.454145800"><ele>442</ele><time>2013-07-05T14:17:17Z</time></trkpt>
 <trkpt lat="50.577518700" lon="6.454195300"><ele>442</ele><time>2013-07-05T14:17:21Z</time></trkpt>
 <trkpt lat="50.577544100" lon="6.454243700"><ele>441</ele><time>2013-07-05T14:17:25Z</time></trkpt>
 <trkpt lat="50.577570300" lon="6.454284500"><ele>441</ele><time>2013-07-05T14:17:29Z</time></trkpt>
 <trkpt lat="50.577593700" lon="6.454326200"><ele>441</ele><time>2013-07-05T14:17:33Z</time></trkpt>
 <trkpt lat="50.577619500" lon="6.454368300"><ele>440</ele><time>2013-07-05T14:17:37Z</time></trkpt>
 <trkpt lat="50.577624100" lon="6.454377000"><ele>440</ele><time>2013-07-05T14:17:41Z</time></trkpt>
 <trkpt lat="50.577628300" lon="6.454383700"><ele>439</ele><time>2013-07-05T14:17:45Z</time></trkpt>
 <trkpt lat="50.577617400" lon="6.454401600"><ele>439</ele><time>2013-07-05T14:17:49Z</time></trkpt>
 <trkpt lat="50.577575300" lon="6.454422400"><ele>438</ele><time>2013-07-05T14:17:53Z</time></trkpt>
 <trkpt lat="50.577546600" lon="6.454387000"><ele>438</ele><time>2013-07-05T14:17:57Z</time></trkpt>
 <trkpt lat="50.577512400" lon="6.454349100"><ele>438</ele><time>2013-07-05T14:18:01Z</time></trkpt>
 <trkpt lat="50.577469100" lon="6.454310700"><ele>437</ele><time>2013-07-05T14:18:05Z</time></trkpt>
 <trkpt lat="50.577418700" lon="6.454269900"><ele>437</ele><time>2013-07-05T14:18:09Z</time></trkpt>
 <trkpt lat="50.577370400" lon="6.454235400"><ele>437</ele><time>2013-07-05T14:18:13Z</time></trkpt>
 <trkpt lat="50.577337900" lon="6.454202800"><ele>436</ele><time>2013-07-05T14:18:17Z</time></trkpt>
 <trkpt lat="50.577305000" lon="6.454173300"><ele>436</ele><time>2013-07-05T14:18:21Z</time></trkpt>
 <trkpt lat="50.577268300" lon="6.454146600"><ele>435</ele><time>2013-07-05T14:18:25Z</time></trkpt>
 <trkpt lat="50.577234900" lon="6.454112400"><ele>435</ele><time>2013-07-05T14:18:29Z</time></trkpt>
 <trkpt lat="50.577203300" lon="6.454076200"><ele>435</ele><time>2013-07-05T14:18:33Z</time></trkpt>
 <trkpt lat="50.577167000" lon="6.454038700"><ele>434</ele><time>2013-07-05T14:18:37Z</time></trkpt>
 <trkpt lat="50.577138700" lon="6.453998700"><ele>434</ele><time>2013-07-05T14:18:41Z</time></trkpt>
 <trkpt lat="50.577099500" lon="6.453968700"><ele>433</ele><time>2013-07-05T14:18:45Z</time></trkpt>
 <trkpt lat="50.577059900" lon="6.453938700"><ele>433</ele><time>2013-07-05T14:18:49Z</time></trkpt>
 <trkpt lat="50.577030700" lon="6.453914100"><ele>433</ele><time>2013-07-05T14:18:53Z</time></trkpt>
 <trkpt lat="50.576996200" lon="6.453898300"><ele>432</ele><time>2013-07-05T14:18:57Z</time></trkpt>
 <trkpt lat="50.576958200" lon="6.453868700"><ele>432</ele><time>2013-07-05T14:19:01Z</time></trkpt>
 <trkpt lat="50.576921600" lon="6.453834900"><ele>432</ele><time>2013-07-05T14:19:05Z</time></trkpt>
 <trkpt lat="50.576889500" lon="6.453807000"><ele>431</ele><time>2013-07-05T14:19:09Z</time></trkpt>
 <trkpt lat="50.576850400" lon="6.453775800"><ele>431</ele><time>2013-07-05T14:19:13Z</time></trkpt>
 <trkpt lat="50.576817900" lon="6.453749100"><ele>431</ele><time>2013-07-05T14:19:17Z</time></trkpt>
 <trkpt lat="50.576778700" lon="6.453714100"><ele>430</ele><time>2013-07-05T14:19:21Z</time></trkpt>
 <trkpt lat="50.576742000" lon="6.453688300"><ele>430</ele><time>2013-07-05T14:19:25Z</time></trkpt>
 <trkpt lat="50.576715400" lon="6.453658300"><ele>429</ele><time>2013-07-05T14:19:29Z</time></trkpt>
 <trkpt lat="50.576685800" lon="6.453630300"><ele>429</ele><time>2013-07-05T14:19:33Z</time></trkpt>
 <trkpt lat="50.576655400" lon="6.453585800"><ele>428</ele><time>2013-07-05T14:19:37Z</time></trkpt>
 <trkpt lat="50.576622400" lon="6.453545800"><ele>428</ele><time>2013-07-05T14:19:41Z</time></trkpt>
 <trkpt lat="50.576590800" lon="6.453522900"><ele>428</ele><time>2013-07-05T14:19:45Z</time></trkpt>
 <trkpt lat="50.576562400" lon="6.453499100"><ele>427</ele><time>2013-07-05T14:19:49Z</time></trkpt>
 <trkpt lat="50.576529900" lon="6.453477400"><ele>427</ele><time>2013-07-05T14:19:53Z</time></trkpt>
 <trkpt lat="50.576501600" lon="6.453452800"><ele>426</ele><time>2013-07-05T14:19:57Z</time></trkpt>
 <trkpt lat="50.576488700" lon="6.453443700"><ele>426</ele><time>2013-07-05T14:20:01Z</time></trkpt>
 <trkpt lat="50.576482800" lon="6.453444100"><ele>425</ele><time>2013-07-05T14:20:05Z</time></trkpt>
 <trkpt lat="50.576475800" lon="6.453447800"><ele>425</ele><time>2013-07-05T14:20:09Z</time></trkpt>
 <trkpt lat="50.576472000" lon="6.453454900"><ele>425</ele><time>2013-07-05T14:20:13Z</time></trkpt>
 <trkpt lat="50.576479500" lon="6.453454500"><ele>424</ele><time>2013-07-05T14:20:17Z</time></trkpt>
 <trkpt lat="50.576486200" lon="6.453452400"><ele>424</ele><time>2013-07-05T14:20:21Z</time></trkpt>
 <trkpt lat="50.576504100" lon="6.453437000"><ele>424</ele><time>2013-07-05T14:20:25Z</time></trkpt>
 <trkpt lat="50.576501600" lon="6.453439900"><ele>424</ele><time>2013-07-05T14:20:29Z</time></trkpt>
 <trkpt lat="50.576492400" lon="6.453462900"><ele>424</ele><time>2013-07-05T14:20:33Z</time></trkpt>
 <trkpt lat="50.576492800" lon="6.453472000"><ele>424</ele><time>2013-07-05T14:20:37Z</time></trkpt>
 <trkpt lat="50.576474900" lon="6.453485400"><ele>424</ele><time>2013-07-05T14:20:41Z</time></trkpt>
 <trkpt lat="50.576435300" lon="6.453489100"><ele>424</ele><time>2013-07-05T14:20:45Z</time></trkpt>
 <trkpt lat="50.576397900" lon="6.453472000"><ele>424</ele><time>2013-07-05T14:20:49Z</time></trkpt>
 <trkpt lat="50.576368300" lon="6.453447000"><ele>424</ele><time>2013-07-05T14:20:53Z</time></trkpt>
 <trkpt lat="50.576345400" lon="6.453424900"><ele>425</ele><time>2013-07-05T14:20:57Z</time></trkpt>
 <trkpt lat="50.576315300" lon="6.453398700"><ele>425</ele><time>2013-07-05T14:21:01Z</time></trkpt>
 <trkpt lat="50.576289100" lon="6.453367000"><ele>425</ele><time>2013-07-05T14:21:05Z</time></trkpt>
 <trkpt lat="50.576262900" lon="6.453339500"><ele>425</ele><time>2013-07-05T14:21:09Z</time></trkpt>
 <trkpt lat="50.576233700" lon="6.453318700"><ele>426</ele><time>2013-07-05T14:21:13Z</time></trkpt>
 <trkpt lat="50.576206600" lon="6.453284900"><ele>426</ele><time>2013-07-05T14:21:17Z</time></trkpt>
 <trkpt lat="50.576185700" lon="6.453238700"><ele>426</ele><time>2013-07-05T14:21:21Z</time></trkpt>
 <trkpt lat="50.576172900" lon="6.453194500"><ele>427</ele><time>2013-07-05T14:21:25Z</time></trkpt>
 <trkpt lat="50.576155400" lon="6.453155400"><ele>427</ele><time>2013-07-05T14:21:29Z</time></trkpt>
 <trkpt lat="50.576127000" lon="6.453173300"><ele>428</ele><time>2013-07-05T14:21:33Z</time></trkpt>
 <trkpt lat="50.576080400" lon="6.453214500"><ele>428</ele><time>2013-07-05T14:21:37Z</time></trkpt>
 <trkpt lat="50.576053300" lon="6.453277400"><ele>429</ele><time>2013-07-05T14:21:41Z</time></trkpt>
 <trkpt lat="50.576044100" lon="6.453347900"><ele>430</ele><time>2013-07-05T14:21:45Z</time></trkpt>
 <trkpt lat="50.576067400" lon="6.453405300"><ele>430</ele><time>2013-07-05T14:21:49Z</time></trkpt>
 <trkpt lat="50.576102400" lon="6.453453700"><ele>431</ele><time>2013-07-05T14:21:53Z</time></trkpt>
 <trkpt lat="50.576140400" lon="6.453511200"><ele>432</ele><time>2013-07-05T14:21:57Z</time></trkpt>
 <trkpt lat="50.576175300" lon="6.453574100"><ele>433</ele><time>2013-07-05T14:22:01Z</time></trkpt>
 <trkpt lat="50.576203700" lon="6.453641600"><ele>434</ele><time>2013-07-05T14:22:05Z</time></trkpt>
 <trkpt lat="50.576242800" lon="6.453715300"><ele>435</ele><time>2013-07-05T14:22:09Z</time></trkpt>
 <trkpt lat="50.576274100" lon="6.453775400"><ele>436</ele><time>2013-07-05T14:22:13Z</time></trkpt>
 <trkpt lat="50.576297400" lon="6.453822800"><ele>437</ele><time>2013-07-05T14:22:17Z</time></trkpt>
 <trkpt lat="50.576305400" lon="6.453840300"><ele>438</ele><time>2013-07-05T14:22:21Z</time></trkpt>
 <trkpt lat="50.576305400" lon="6.453840300"><ele>439</ele><time>2013-07-05T14:22:25Z</time></trkpt>
 <trkpt lat="50.576305400" lon="6.453857800"><ele>440</ele><time>2013-07-05T14:22:29Z</time></trkpt>
 <trkpt lat="50.576310300" lon="6.453861600"><ele>441</ele><time>2013-07-05T14:22:33Z</time></trkpt>
 <trkpt lat="50.576316200" lon="6.453858700"><ele>441</ele><time>2013-07-05T14:22:37Z</time></trkpt>
 <trkpt lat="50.576316200" lon="6.453858700"><ele>442</ele><time>2013-07-05T14:22:41Z</time></trkpt>
 <trkpt lat="50.576328700" lon="6.453859900"><ele>443</ele><time>2013-07-05T14:22:45Z</time></trkpt>
 <trkpt lat="50.576349900" lon="6.453891600"><ele>443</ele><time>2013-07-05T14:22:49Z</time></trkpt>
 <trkpt lat="50.576362800" lon="6.453922400"><ele>444</ele><time>2013-07-05T14:22:53Z</time></trkpt>
 <trkpt lat="50.576380300" lon="6.453962000"><ele>444</ele><time>2013-07-05T14:22:57Z</time></trkpt>
 <trkpt lat="50.576401600" lon="6.454014100"><ele>445</ele><time>2013-07-05T14:23:01Z</time></trkpt>
 <trkpt lat="50.576408300" lon="6.454045800"><ele>445</ele><time>2013-07-05T14:23:05Z</time></trkpt>
 <trkpt lat="50.576410800" lon="6.454055800"><ele>445</ele><time>2013-07-05T14:23:09Z</time></trkpt>
 <trkpt lat="50.576408700" lon="6.454082000"><ele>446</ele><time>2013-07-05T14:23:13Z</time></trkpt>
 <trkpt lat="50.576393300" lon="6.454137000"><ele>446</ele><time>2013-07-05T14:23:17Z</time></trkpt>
 <trkpt lat="50.576371600" lon="6.454182400"><ele>446</ele><time>2013-07-05T14:23:21Z</time></trkpt>
 <trkpt lat="50.576345400" lon="6.454221200"><ele>447</ele><time>2013-07-05T14:23:25Z</time></trkpt>
 <trkpt lat="50.576324900" lon="6.454242900"><ele>447</ele><time>2013-07-05T14:23:29Z</time></trkpt>
 <trkpt lat="50.576309100" lon="6.454261200"><ele>447</ele><time>2013-07-05T14:23:33Z</time></trkpt>
 <trkpt lat="50.576288700" lon="6.454290800"><ele>448</ele><time>2013-07-05T14:23:37Z</time></trkpt>
 <trkpt lat="50.576281600" lon="6.454262400"><ele>448</ele><time>2013-07-05T14:23:41Z</time></trkpt>
 <trkpt lat="50.576274500" lon="6.454241600"><ele>449</ele><time>2013-07-05T14:23:45Z</time></trkpt>
 <trkpt lat="50.576260800" lon="6.454246200"><ele>449</ele><time>2013-07-05T14:23:49Z</time></trkpt>
 <trkpt lat="50.576253700" lon="6.454258300"><ele>449</ele><time>2013-07-05T14:23:53Z</time></trkpt>
 <trkpt lat="50.576242400" lon="6.454266600"><ele>449</ele><time>2013-07-05T14:23:57Z</time></trkpt>
 <trkpt lat="50.576237000" lon="6.454262400"><ele>450</ele><time>2013-07-05T14:24:01Z</time></trkpt>
 <trkpt lat="50.576237000" lon="6.454262400"><ele>450</ele><time>2013-07-05T14:24:05Z</time></trkpt>
 <trkpt lat="50.576233300" lon="6.454253300"><ele>450</ele><time>2013-07-05T14:24:09Z</time></trkpt>
 <trkpt lat="50.576230800" lon="6.454243700"><ele>450</ele><time>2013-07-05T14:24:13Z</time></trkpt>
 <trkpt lat="50.576247000" lon="6.454247400"><ele>451</ele><time>2013-07-05T14:24:17Z</time></trkpt>
 <trkpt lat="50.576264100" lon="6.454272800"><ele>451</ele><time>2013-07-05T14:24:21Z</time></trkpt>
 <trkpt lat="50.576264100" lon="6.454272800"><ele>451</ele><time>2013-07-05T14:24:25Z</time></trkpt>
 <trkpt lat="50.576283200" lon="6.454277000"><ele>451</ele><time>2013-07-05T14:24:29Z</time></trkpt>
 <trkpt lat="50.576292000" lon="6.454275800"><ele>452</ele><time>2013-07-05T14:24:33Z</time></trkpt>
 <trkpt lat="50.576297400" lon="6.454280400"><ele>452</ele><time>2013-07-05T14:24:37Z</time></trkpt>
 <trkpt lat="50.576292000" lon="6.454277800"><ele>452</ele><time>2013-07-05T14:24:41Z</time></trkpt>
 <trkpt lat="50.576292000" lon="6.454277800"><ele>452</ele><time>2013-07-05T14:24:45Z</time></trkpt>
 <trkpt lat="50.576292000" lon="6.454277800"><ele>452</ele><time>2013-07-05T14:24:49Z</time></trkpt>
 <trkpt lat="50.576292000" lon="6.454277800"><ele>452</ele><time>2013-07-05T14:24:53Z</time></trkpt>
 <trkpt lat="50.576292000" lon="6.454277800"><ele>452</ele><time>2013-07-05T14:24:57Z</time></trkpt>
 <trkpt lat="50.576279500" lon="6.454292400"><ele>453</ele><time>2013-07-05T14:25:01Z</time></trkpt>
 <trkpt lat="50.576279500" lon="6.454292400"><ele>453</ele><time>2013-07-05T14:25:05Z</time></trkpt>
 <trkpt lat="50.576279500" lon="6.454292400"><ele>453</ele><time>2013-07-05T14:25:09Z</time></trkpt>
 <trkpt lat="50.576279500" lon="6.454292400"><ele>453</ele><time>2013-07-05T14:25:13Z</time></trkpt>
 <trkpt lat="50.576285300" lon="6.454292400"><ele>453</ele><time>2013-07-05T14:25:17Z</time></trkpt>
 <trkpt lat="50.576289900" lon="6.454327000"><ele>453</ele><time>2013-07-05T14:25:21Z</time></trkpt>
 <trkpt lat="50.576286600" lon="6.454344500"><ele>453</ele><time>2013-07-05T14:25:25Z</time></trkpt>
 <trkpt lat="50.576282800" lon="6.454355700"><ele>454</ele><time>2013-07-05T14:25:29Z</time></trkpt>
 <trkpt lat="50.576289500" lon="6.454357000"><ele>454</ele><time>2013-07-05T14:25:33Z</time></trkpt>
 <trkpt lat="50.576297800" lon="6.454344100"><ele>454</ele><time>2013-07-05T14:25:37Z</time></trkpt>
 <trkpt lat="50.576297800" lon="6.454344100"><ele>454</ele><time>2013-07-05T14:25:41Z</time></trkpt>
 <trkpt lat="50.576301200" lon="6.454336200"><ele>454</ele><time>2013-07-05T14:25:45Z</time></trkpt>
 <trkpt lat="50.576301200" lon="6.454336200"><ele>454</ele><time>2013-07-05T14:25:49Z</time></trkpt>
 <trkpt lat="50.576300800" lon="6.454327400"><ele>454</ele><time>2013-07-05T14:25:53Z</time></trkpt>
 <trkpt lat="50.576294900" lon="6.454324500"><ele>454</ele><time>2013-07-05T14:25:57Z</time></trkpt>
 <trkpt lat="50.576277000" lon="6.454325300"><ele>454</ele><time>2013-07-05T14:26:01Z</time></trkpt>
 <trkpt lat="50.576258700" lon="6.454306600"><ele>455</ele><time>2013-07-05T14:26:05Z</time></trkpt>
 <trkpt lat="50.576258700" lon="6.454306600"><ele>455</ele><time>2013-07-05T14:26:09Z</time></trkpt>
 <trkpt lat="50.576269100" lon="6.454288200"><ele>455</ele><time>2013-07-05T14:26:13Z</time></trkpt>
 <trkpt lat="50.576265800" lon="6.454280300"><ele>455</ele><time>2013-07-05T14:26:17Z</time></trkpt>
 <trkpt lat="50.576265800" lon="6.454280300"><ele>455</ele><time>2013-07-05T14:26:21Z</time></trkpt>
 <trkpt lat="50.576265800" lon="6.454280300"><ele>455</ele><time>2013-07-05T14:26:25Z</time></trkpt>
 <trkpt lat="50.576271200" lon="6.454278300"><ele>455</ele><time>2013-07-05T14:26:29Z</time></trkpt>
 <trkpt lat="50.576277400" lon="6.454278300"><ele>455</ele><time>2013-07-05T14:26:33Z</time></trkpt>
 <trkpt lat="50.576278700" lon="6.454252000"><ele>454</ele><time>2013-07-05T14:26:37Z</time></trkpt>
 <trkpt lat="50.576263300" lon="6.454199100"><ele>454</ele><time>2013-07-05T14:26:41Z</time></trkpt>
 <trkpt lat="50.576252000" lon="6.454126600"><ele>454</ele><time>2013-07-05T14:26:45Z</time></trkpt>
 <trkpt lat="50.576235700" lon="6.454077000"><ele>454</ele><time>2013-07-05T14:26:49Z</time></trkpt>
 <trkpt lat="50.576197800" lon="6.454042400"><ele>454</ele><time>2013-07-05T14:26:53Z</time></trkpt>
 <trkpt lat="50.576157800" lon="6.454006200"><ele>453</ele><time>2013-07-05T14:26:57Z</time></trkpt>
 <trkpt lat="50.576117800" lon="6.453971200"><ele>453</ele><time>2013-07-05T14:27:01Z</time></trkpt>
 <trkpt lat="50.576079900" lon="6.453944100"><ele>453</ele><time>2013-07-05T14:27:05Z</time></trkpt>
 <trkpt lat="50.576037000" lon="6.453908200"><ele>453</ele><time>2013-07-05T14:27:09Z</time></trkpt>
 <trkpt lat="50.575992900" lon="6.453864500"><ele>452</ele><time>2013-07-05T14:27:13Z</time></trkpt>
 <trkpt lat="50.575952000" lon="6.453825300"><ele>452</ele><time>2013-07-05T14:27:17Z</time></trkpt>
 <trkpt lat="50.575909500" lon="6.453785300"><ele>452</ele><time>2013-07-05T14:27:21Z</time></trkpt>
 <trkpt lat="50.575870400" lon="6.453736200"><ele>451</ele><time>2013-07-05T14:27:25Z</time></trkpt>
 <trkpt lat="50.575834900" lon="6.453697000"><ele>451</ele><time>2013-07-05T14:27:29Z</time></trkpt>
 <trkpt lat="50.575807400" lon="6.453659500"><ele>451</ele><time>2013-07-05T14:27:33Z</time></trkpt>
 <trkpt lat="50.575777000" lon="6.453626600"><ele>450</ele><time>2013-07-05T14:27:37Z</time></trkpt>
 <trkpt lat="50.575739900" lon="6.453590800"><ele>450</ele><time>2013-07-05T14:27:41Z</time></trkpt>
 <trkpt lat="50.575705800" lon="6.453548300"><ele>450</ele><time>2013-07-05T14:27:45Z</time></trkpt>
 <trkpt lat="50.575678700" lon="6.453502000"><ele>450</ele><time>2013-07-05T14:27:49Z</time></trkpt>
 <trkpt lat="50.575639100" lon="6.453442400"><ele>449</ele><time>2013-07-05T14:27:53Z</time></trkpt>
 <trkpt lat="50.575599900" lon="6.453405800"><ele>449</ele><time>2013-07-05T14:27:57Z</time></trkpt>
 <trkpt lat="50.575567000" lon="6.453369900"><ele>449</ele><time>2013-07-05T14:28:01Z</time></trkpt>
 <trkpt lat="50.575533700" lon="6.453325400"><ele>449</ele><time>2013-07-05T14:28:05Z</time></trkpt>
 <trkpt lat="50.575505300" lon="6.453288700"><ele>449</ele><time>2013-07-05T14:28:09Z</time></trkpt>
 <trkpt lat="50.575472800" lon="6.453242800"><ele>449</ele><time>2013-07-05T14:28:13Z</time></trkpt>
 <trkpt lat="50.575448700" lon="6.453204100"><ele>449</ele><time>2013-07-05T14:28:17Z</time></trkpt>
 <trkpt lat="50.575422500" lon="6.453181200"><ele>449</ele><time>2013-07-05T14:28:21Z</time></trkpt>
 <trkpt lat="50.575397000" lon="6.453142000"><ele>449</ele><time>2013-07-05T14:28:25Z</time></trkpt>
 <trkpt lat="50.575359100" lon="6.453106200"><ele>449</ele><time>2013-07-05T14:28:29Z</time></trkpt>
 <trkpt lat="50.575310300" lon="6.453044100"><ele>450</ele><time>2013-07-05T14:28:33Z</time></trkpt>
 <trkpt lat="50.575256200" lon="6.453000300"><ele>450</ele><time>2013-07-05T14:28:37Z</time></trkpt>
 <trkpt lat="50.575211600" lon="6.452967900"><ele>450</ele><time>2013-07-05T14:28:41Z</time></trkpt>
 <trkpt lat="50.575177000" lon="6.452923700"><ele>451</ele><time>2013-07-05T14:28:45Z</time></trkpt>
 <trkpt lat="50.575140800" lon="6.452904100"><ele>451</ele><time>2013-07-05T14:28:49Z</time></trkpt>
 <trkpt lat="50.575110300" lon="6.452887900"><ele>451</ele><time>2013-07-05T14:28:53Z</time></trkpt>
 <trkpt lat="50.575075300" lon="6.452877000"><ele>452</ele><time>2013-07-05T14:28:57Z</time></trkpt>
 <trkpt lat="50.575045700" lon="6.452867800"><ele>452</ele><time>2013-07-05T14:29:01Z</time></trkpt>
 <trkpt lat="50.575010800" lon="6.452868700"><ele>453</ele><time>2013-07-05T14:29:05Z</time></trkpt>
 <trkpt lat="50.575031200" lon="6.452794900"><ele>453</ele><time>2013-07-05T14:29:09Z</time></trkpt>
 <trkpt lat="50.575040300" lon="6.452749500"><ele>453</ele><time>2013-07-05T14:29:13Z</time></trkpt>
 <trkpt lat="50.575042000" lon="6.452737400"><ele>454</ele><time>2013-07-05T14:29:17Z</time></trkpt>
 <trkpt lat="50.575037400" lon="6.452732800"><ele>454</ele><time>2013-07-05T14:29:21Z</time></trkpt>
 <trkpt lat="50.575032000" lon="6.452729500"><ele>455</ele><time>2013-07-05T14:29:25Z</time></trkpt>
 <trkpt lat="50.575032000" lon="6.452729500"><ele>455</ele><time>2013-07-05T14:29:29Z</time></trkpt>
 <trkpt lat="50.575048300" lon="6.452734900"><ele>455</ele><time>2013-07-05T14:29:33Z</time></trkpt>
 <trkpt lat="50.575053700" lon="6.452747400"><ele>455</ele><time>2013-07-05T14:29:37Z</time></trkpt>
 <trkpt lat="50.575059100" lon="6.452746200"><ele>456</ele><time>2013-07-05T14:29:41Z</time></trkpt>
 <trkpt lat="50.575052900" lon="6.452742000"><ele>456</ele><time>2013-07-05T14:29:45Z</time></trkpt>
 <trkpt lat="50.575037500" lon="6.452740800"><ele>456</ele><time>2013-07-05T14:29:49Z</time></trkpt>
 <trkpt lat="50.575031600" lon="6.452755800"><ele>456</ele><time>2013-07-05T14:29:53Z</time></trkpt>
 <trkpt lat="50.575032800" lon="6.452764900"><ele>456</ele><time>2013-07-05T14:29:57Z</time></trkpt>
 <trkpt lat="50.575032800" lon="6.452773700"><ele>456</ele><time>2013-07-05T14:30:01Z</time></trkpt>
 <trkpt lat="50.575036200" lon="6.452782000"><ele>457</ele><time>2013-07-05T14:30:05Z</time></trkpt>
 <trkpt lat="50.575036200" lon="6.452782000"><ele>457</ele><time>2013-07-05T14:30:09Z</time></trkpt>
 <trkpt lat="50.575038300" lon="6.452791600"><ele>457</ele><time>2013-07-05T14:30:13Z</time></trkpt>
 <trkpt lat="50.575038300" lon="6.452800300"><ele>457</ele><time>2013-07-05T14:30:17Z</time></trkpt>
 <trkpt lat="50.575023300" lon="6.452794900"><ele>457</ele><time>2013-07-05T14:30:21Z</time></trkpt>
 <trkpt lat="50.574987000" lon="6.452782800"><ele>458</ele><time>2013-07-05T14:30:25Z</time></trkpt>
 <trkpt lat="50.574940800" lon="6.452770800"><ele>458</ele><time>2013-07-05T14:30:29Z</time></trkpt>
 <trkpt lat="50.574882400" lon="6.452769900"><ele>458</ele><time>2013-07-05T14:30:33Z</time></trkpt>
 <trkpt lat="50.574833700" lon="6.452780400"><ele>459</ele><time>2013-07-05T14:30:37Z</time></trkpt>
 <trkpt lat="50.574794900" lon="6.452789100"><ele>459</ele><time>2013-07-05T14:30:41Z</time></trkpt>
 <trkpt lat="50.574752800" lon="6.452802900"><ele>460</ele><time>2013-07-05T14:30:45Z</time></trkpt>
 <trkpt lat="50.574710300" lon="6.452790400"><ele>460</ele><time>2013-07-05T14:30:49Z</time></trkpt>
 <trkpt lat="50.574665300" lon="6.452779900"><ele>461</ele><time>2013-07-05T14:30:53Z</time></trkpt>
 <trkpt lat="50.574622000" lon="6.452767800"><ele>462</ele><time>2013-07-05T14:30:57Z</time></trkpt>
 <trkpt lat="50.574579900" lon="6.452757000"><ele>462</ele><time>2013-07-05T14:31:01Z</time></trkpt>
 <trkpt lat="50.574547900" lon="6.452743700"><ele>463</ele><time>2013-07-05T14:31:05Z</time></trkpt>
 <trkpt lat="50.574510800" lon="6.452745800"><ele>464</ele><time>2013-07-05T14:31:09Z</time></trkpt>
 <trkpt lat="50.574464900" lon="6.452757800"><ele>465</ele><time>2013-07-05T14:31:13Z</time></trkpt>
 <trkpt lat="50.574416200" lon="6.452773700"><ele>466</ele><time>2013-07-05T14:31:17Z</time></trkpt>
 <trkpt lat="50.574369100" lon="6.452778300"><ele>467</ele><time>2013-07-05T14:31:21Z</time></trkpt>
 <trkpt lat="50.574322400" lon="6.452789500"><ele>467</ele><time>2013-07-05T14:31:25Z</time></trkpt>
 <trkpt lat="50.574284500" lon="6.452800800"><ele>468</ele><time>2013-07-05T14:31:29Z</time></trkpt>
 <trkpt lat="50.574257400" lon="6.452812900"><ele>469</ele><time>2013-07-05T14:31:33Z</time></trkpt>
 <trkpt lat="50.574206200" lon="6.452834900"><ele>470</ele><time>2013-07-05T14:31:37Z</time></trkpt>
 <trkpt lat="50.574160400" lon="6.452834500"><ele>471</ele><time>2013-07-05T14:31:41Z</time></trkpt>
 <trkpt lat="50.574112000" lon="6.452823700"><ele>472</ele><time>2013-07-05T14:31:45Z</time></trkpt>
 <trkpt lat="50.574066600" lon="6.452816600"><ele>472</ele><time>2013-07-05T14:31:49Z</time></trkpt>
 <trkpt lat="50.574014900" lon="6.452799500"><ele>473</ele><time>2013-07-05T14:31:53Z</time></trkpt>
 <trkpt lat="50.573980800" lon="6.452782800"><ele>474</ele><time>2013-07-05T14:31:57Z</time></trkpt>
 <trkpt lat="50.573941200" lon="6.452772000"><ele>475</ele><time>2013-07-05T14:32:01Z</time></trkpt>
 <trkpt lat="50.573900300" lon="6.452752800"><ele>476</ele><time>2013-07-05T14:32:05Z</time></trkpt>
 <trkpt lat="50.573858700" lon="6.452721600"><ele>476</ele><time>2013-07-05T14:32:09Z</time></trkpt>
 <trkpt lat="50.573855300" lon="6.452713300"><ele>477</ele><time>2013-07-05T14:32:13Z</time></trkpt>
 <trkpt lat="50.573818300" lon="6.452694900"><ele>478</ele><time>2013-07-05T14:32:17Z</time></trkpt>
 <trkpt lat="50.573795800" lon="6.452686600"><ele>478</ele><time>2013-07-05T14:32:21Z</time></trkpt>
 <trkpt lat="50.573772400" lon="6.452676600"><ele>479</ele><time>2013-07-05T14:32:25Z</time></trkpt>
 <trkpt lat="50.573744500" lon="6.452642000"><ele>479</ele><time>2013-07-05T14:32:29Z</time></trkpt>
 <trkpt lat="50.573752400" lon="6.452613700"><ele>480</ele><time>2013-07-05T14:32:33Z</time></trkpt>
 <trkpt lat="50.573723700" lon="6.452580400"><ele>481</ele><time>2013-07-05T14:32:37Z</time></trkpt>
 <trkpt lat="50.573672000" lon="6.452554100"><ele>481</ele><time>2013-07-05T14:32:41Z</time></trkpt>
 <trkpt lat="50.573625300" lon="6.452534900"><ele>481</ele><time>2013-07-05T14:32:45Z</time></trkpt>
 <trkpt lat="50.573583700" lon="6.452504500"><ele>482</ele><time>2013-07-05T14:32:49Z</time></trkpt>
 <trkpt lat="50.573540800" lon="6.452483700"><ele>482</ele><time>2013-07-05T14:32:53Z</time></trkpt>
 <trkpt lat="50.573502400" lon="6.452444500"><ele>482</ele><time>2013-07-05T14:32:57Z</time></trkpt>
 <trkpt lat="50.573471200" lon="6.452406600"><ele>483</ele><time>2013-07-05T14:33:01Z</time></trkpt>
 <trkpt lat="50.573436600" lon="6.452379500"><ele>483</ele><time>2013-07-05T14:33:05Z</time></trkpt>
 <trkpt lat="50.573402000" lon="6.452344500"><ele>483</ele><time>2013-07-05T14:33:09Z</time></trkpt>
 <trkpt lat="50.573362000" lon="6.452309900"><ele>484</ele><time>2013-07-05T14:33:13Z</time></trkpt>
 <trkpt lat="50.573324100" lon="6.452267000"><ele>484</ele><time>2013-07-05T14:33:17Z</time></trkpt>
 <trkpt lat="50.573292400" lon="6.452225400"><ele>484</ele><time>2013-07-05T14:33:21Z</time></trkpt>
 <trkpt lat="50.573258300" lon="6.452184500"><ele>485</ele><time>2013-07-05T14:33:25Z</time></trkpt>
 <trkpt lat="50.573215300" lon="6.452156600"><ele>485</ele><time>2013-07-05T14:33:29Z</time></trkpt>
 <trkpt lat="50.573173300" lon="6.452128700"><ele>486</ele><time>2013-07-05T14:33:33Z</time></trkpt>
 <trkpt lat="50.573134900" lon="6.452116200"><ele>486</ele><time>2013-07-05T14:33:37Z</time></trkpt>
 <trkpt lat="50.573093300" lon="6.452108700"><ele>487</ele><time>2013-07-05T14:33:41Z</time></trkpt>
 <trkpt lat="50.573042000" lon="6.452097000"><ele>487</ele><time>2013-07-05T14:33:45Z</time></trkpt>
 <trkpt lat="50.572992400" lon="6.452088300"><ele>488</ele><time>2013-07-05T14:33:49Z</time></trkpt>
 <trkpt lat="50.572947800" lon="6.452074900"><ele>488</ele><time>2013-07-05T14:33:53Z</time></trkpt>
 <trkpt lat="50.572912400" lon="6.452066600"><ele>489</ele><time>2013-07-05T14:33:57Z</time></trkpt>
 <trkpt lat="50.572879900" lon="6.452053300"><ele>489</ele><time>2013-07-05T14:34:01Z</time></trkpt>
 <trkpt lat="50.572835400" lon="6.452043700"><ele>490</ele><time>2013-07-05T14:34:05Z</time></trkpt>
 <trkpt lat="50.572794100" lon="6.452032800"><ele>490</ele><time>2013-07-05T14:34:09Z</time></trkpt>
 <trkpt lat="50.572752400" lon="6.452022400"><ele>491</ele><time>2013-07-05T14:34:13Z</time></trkpt>
 <trkpt lat="50.572704100" lon="6.452003300"><ele>491</ele><time>2013-07-05T14:34:17Z</time></trkpt>
 <trkpt lat="50.572667900" lon="6.451978700"><ele>492</ele><time>2013-07-05T14:34:21Z</time></trkpt>
 <trkpt lat="50.572663300" lon="6.451973300"><ele>492</ele><time>2013-07-05T14:34:25Z</time></trkpt>
 <trkpt lat="50.572687800" lon="6.452008700"><ele>492</ele><time>2013-07-05T14:34:29Z</time></trkpt>
 <trkpt lat="50.572719100" lon="6.452047400"><ele>493</ele><time>2013-07-05T14:34:33Z</time></trkpt>
 <trkpt lat="50.572715800" lon="6.452084500"><ele>493</ele><time>2013-07-05T14:34:37Z</time></trkpt>
 <trkpt lat="50.572706600" lon="6.452151200"><ele>494</ele><time>2013-07-05T14:34:41Z</time></trkpt>
 <trkpt lat="50.572693700" lon="6.452233700"><ele>494</ele><time>2013-07-05T14:34:45Z</time></trkpt>
 <trkpt lat="50.572678300" lon="6.452306600"><ele>495</ele><time>2013-07-05T14:34:49Z</time></trkpt>
 <trkpt lat="50.572677400" lon="6.452359500"><ele>495</ele><time>2013-07-05T14:34:53Z</time></trkpt>
 <trkpt lat="50.572682900" lon="6.452366600"><ele>495</ele><time>2013-07-05T14:34:57Z</time></trkpt>
 <trkpt lat="50.572685000" lon="6.452342400"><ele>496</ele><time>2013-07-05T14:35:01Z</time></trkpt>
 <trkpt lat="50.572685400" lon="6.452333300"><ele>496</ele><time>2013-07-05T14:35:05Z</time></trkpt>
 <trkpt lat="50.572679500" lon="6.452332400"><ele>497</ele><time>2013-07-05T14:35:09Z</time></trkpt>
 <trkpt lat="50.572664900" lon="6.452367000"><ele>497</ele><time>2013-07-05T14:35:13Z</time></trkpt>
 <trkpt lat="50.572664100" lon="6.452327800"><ele>497</ele><time>2013-07-05T14:35:17Z</time></trkpt>
 <trkpt lat="50.572657400" lon="6.452350400"><ele>498</ele><time>2013-07-05T14:35:21Z</time></trkpt>
 <trkpt lat="50.572655400" lon="6.452362500"><ele>498</ele><time>2013-07-05T14:35:25Z</time></trkpt>
 <trkpt lat="50.572655400" lon="6.452362500"><ele>498</ele><time>2013-07-05T14:35:29Z</time></trkpt>
 <trkpt lat="50.572655400" lon="6.452362500"><ele>499</ele><time>2013-07-05T14:35:33Z</time></trkpt>
 <trkpt lat="50.572659500" lon="6.452349500"><ele>499</ele><time>2013-07-05T14:35:37Z</time></trkpt>
 <trkpt lat="50.572664500" lon="6.452330800"><ele>499</ele><time>2013-07-05T14:35:41Z</time></trkpt>
 <trkpt lat="50.572666600" lon="6.452322800"><ele>499</ele><time>2013-07-05T14:35:45Z</time></trkpt>
 <trkpt lat="50.572666600" lon="6.452322800"><ele>499</ele><time>2013-07-05T14:35:49Z</time></trkpt>
 <trkpt lat="50.572666600" lon="6.452322800"><ele>499</ele><time>2013-07-05T14:35:53Z</time></trkpt>
 <trkpt lat="50.572666200" lon="6.452334500"><ele>499</ele><time>2013-07-05T14:35:57Z</time></trkpt>
 <trkpt lat="50.572666200" lon="6.452334500"><ele>499</ele><time>2013-07-05T14:36:01Z</time></trkpt>
 <trkpt lat="50.572667000" lon="6.452344900"><ele>499</ele><time>2013-07-05T14:36:05Z</time></trkpt>
 <trkpt lat="50.572667000" lon="6.452344900"><ele>499</ele><time>2013-07-05T14:36:09Z</time></trkpt>
 <trkpt lat="50.572661600" lon="6.452348300"><ele>498</ele><time>2013-07-05T14:36:13Z</time></trkpt>
 <trkpt lat="50.572661600" lon="6.452348300"><ele>498</ele><time>2013-07-05T14:36:17Z</time></trkpt>
 <trkpt lat="50.572659500" lon="6.452357000"><ele>498</ele><time>2013-07-05T14:36:21Z</time></trkpt>
 <trkpt lat="50.572656200" lon="6.452364100"><ele>498</ele><time>2013-07-05T14:36:25Z</time></trkpt>
 <trkpt lat="50.572656200" lon="6.452364100"><ele>498</ele><time>2013-07-05T14:36:29Z</time></trkpt>
 <trkpt lat="50.572662800" lon="6.452361200"><ele>498</ele><time>2013-07-05T14:36:33Z</time></trkpt>
 <trkpt lat="50.572662800" lon="6.452361200"><ele>498</ele><time>2013-07-05T14:36:37Z</time></trkpt>
 <trkpt lat="50.572670000" lon="6.452374100"><ele>498</ele><time>2013-07-05T14:36:41Z</time></trkpt>
 <trkpt lat="50.572676600" lon="6.452377000"><ele>498</ele><time>2013-07-05T14:36:45Z</time></trkpt>
 <trkpt lat="50.572681600" lon="6.452383300"><ele>498</ele><time>2013-07-05T14:36:49Z</time></trkpt>
 <trkpt lat="50.572687400" lon="6.452385800"><ele>497</ele><time>2013-07-05T14:36:53Z</time></trkpt>
 <trkpt lat="50.572687400" lon="6.452385800"><ele>497</ele><time>2013-07-05T14:36:57Z</time></trkpt>
 <trkpt lat="50.572687400" lon="6.452385800"><ele>497</ele><time>2013-07-05T14:37:01Z</time></trkpt>
 <trkpt lat="50.572682800" lon="6.452391600"><ele>497</ele><time>2013-07-05T14:37:05Z</time></trkpt>
 <trkpt lat="50.572682800" lon="6.452391600"><ele>497</ele><time>2013-07-05T14:37:09Z</time></trkpt>
 <trkpt lat="50.572680800" lon="6.452399500"><ele>497</ele><time>2013-07-05T14:37:13Z</time></trkpt>
 <trkpt lat="50.572677800" lon="6.452389900"><ele>497</ele><time>2013-07-05T14:37:17Z</time></trkpt>
 <trkpt lat="50.572673300" lon="6.452366600"><ele>497</ele><time>2013-07-05T14:37:21Z</time></trkpt>
 <trkpt lat="50.572654500" lon="6.452294500"><ele>497</ele><time>2013-07-05T14:37:25Z</time></trkpt>
 <trkpt lat="50.572652400" lon="6.452217900"><ele>497</ele><time>2013-07-05T14:37:29Z</time></trkpt>
 <trkpt lat="50.572671200" lon="6.452153700"><ele>497</ele><time>2013-07-05T14:37:33Z</time></trkpt>
 <trkpt lat="50.572679500" lon="6.452091200"><ele>497</ele><time>2013-07-05T14:37:37Z</time></trkpt>
 <trkpt lat="50.572650800" lon="6.452025400"><ele>497</ele><time>2013-07-05T14:37:41Z</time></trkpt>
 <trkpt lat="50.572605000" lon="6.451981200"><ele>497</ele><time>2013-07-05T14:37:45Z</time></trkpt>
 <trkpt lat="50.572565800" lon="6.451952400"><ele>498</ele><time>2013-07-05T14:37:49Z</time></trkpt>
 <trkpt lat="50.572525800" lon="6.451915400"><ele>498</ele><time>2013-07-05T14:37:53Z</time></trkpt>
 <trkpt lat="50.572494100" lon="6.451873700"><ele>498</ele><time>2013-07-05T14:37:57Z</time></trkpt>
 <trkpt lat="50.572499500" lon="6.451866200"><ele>499</ele><time>2013-07-05T14:38:01Z</time></trkpt>
 <trkpt lat="50.572499500" lon="6.451866200"><ele>499</ele><time>2013-07-05T14:38:05Z</time></trkpt>
 <trkpt lat="50.572499500" lon="6.451866200"><ele>499</ele><time>2013-07-05T14:38:09Z</time></trkpt>
 <trkpt lat="50.572499500" lon="6.451866200"><ele>500</ele><time>2013-07-05T14:38:13Z</time></trkpt>
 <trkpt lat="50.572472400" lon="6.451839900"><ele>500</ele><time>2013-07-05T14:38:17Z</time></trkpt>
 <trkpt lat="50.572435300" lon="6.451817800"><ele>500</ele><time>2013-07-05T14:38:21Z</time></trkpt>
 <trkpt lat="50.572399100" lon="6.451804900"><ele>501</ele><time>2013-07-05T14:38:25Z</time></trkpt>
 <trkpt lat="50.572363700" lon="6.451782900"><ele>501</ele><time>2013-07-05T14:38:29Z</time></trkpt>
 <trkpt lat="50.572322000" lon="6.451758300"><ele>501</ele><time>2013-07-05T14:38:33Z</time></trkpt>
 <trkpt lat="50.572282400" lon="6.451734100"><ele>501</ele><time>2013-07-05T14:38:37Z</time></trkpt>
 <trkpt lat="50.572251200" lon="6.451726200"><ele>501</ele><time>2013-07-05T14:38:41Z</time></trkpt>
 <trkpt lat="50.572239500" lon="6.451739100"><ele>501</ele><time>2013-07-05T14:38:45Z</time></trkpt>
 <trkpt lat="50.572240400" lon="6.451752000"><ele>501</ele><time>2013-07-05T14:38:49Z</time></trkpt>
 <trkpt lat="50.572240400" lon="6.451752000"><ele>500</ele><time>2013-07-05T14:38:53Z</time></trkpt>
 <trkpt lat="50.572240400" lon="6.451752000"><ele>500</ele><time>2013-07-05T14:38:57Z</time></trkpt>
 <trkpt lat="50.572240400" lon="6.451752000"><ele>500</ele><time>2013-07-05T14:39:01Z</time></trkpt>
 <trkpt lat="50.572240400" lon="6.451752000"><ele>500</ele><time>2013-07-05T14:39:05Z</time></trkpt>
 <trkpt lat="50.572240400" lon="6.451752000"><ele>500</ele><time>2013-07-05T14:39:09Z</time></trkpt>
 <trkpt lat="50.572240400" lon="6.451752000"><ele>500</ele><time>2013-07-05T14:39:13Z</time></trkpt>
 <trkpt lat="50.572240400" lon="6.451752000"><ele>500</ele><time>2013-07-05T14:39:17Z</time></trkpt>
 <trkpt lat="50.572240400" lon="6.451752000"><ele>500</ele><time>2013-07-05T14:39:21Z</time></trkpt>
 <trkpt lat="50.572226200" lon="6.451737000"><ele>500</ele><time>2013-07-05T14:39:25Z</time></trkpt>
 <trkpt lat="50.572196200" lon="6.451724500"><ele>500</ele><time>2013-07-05T14:39:29Z</time></trkpt>
 <trkpt lat="50.572189900" lon="6.451718300"><ele>499</ele><time>2013-07-05T14:39:33Z</time></trkpt>
 <trkpt lat="50.572189900" lon="6.451718300"><ele>499</ele><time>2013-07-05T14:39:37Z</time></trkpt>
 <trkpt lat="50.572151200" lon="6.451700700"><ele>499</ele><time>2013-07-05T14:39:41Z</time></trkpt>
 <trkpt lat="50.572101600" lon="6.451679500"><ele>499</ele><time>2013-07-05T14:39:45Z</time></trkpt>
 <trkpt lat="50.572057800" lon="6.451636200"><ele>499</ele><time>2013-07-05T14:39:49Z</time></trkpt>
 <trkpt lat="50.572020400" lon="6.451597000"><ele>499</ele><time>2013-07-05T14:39:53Z</time></trkpt>
 <trkpt lat="50.571987800" lon="6.451565800"><ele>499</ele><time>2013-07-05T14:39:57Z</time></trkpt>
 <trkpt lat="50.571954100" lon="6.451542000"><ele>499</ele><time>2013-07-05T14:40:01Z</time></trkpt>
 <trkpt lat="50.571908700" lon="6.451519100"><ele>499</ele><time>2013-07-05T14:40:05Z</time></trkpt>
 <trkpt lat="50.571864100" lon="6.451493300"><ele>499</ele><time>2013-07-05T14:40:09Z</time></trkpt>
 <trkpt lat="50.571812400" lon="6.451484100"><ele>499</ele><time>2013-07-05T14:40:13Z</time></trkpt>
 <trkpt lat="50.571760800" lon="6.451465800"><ele>499</ele><time>2013-07-05T14:40:17Z</time></trkpt>
 <trkpt lat="50.571712400" lon="6.451442000"><ele>499</ele><time>2013-07-05T14:40:21Z</time></trkpt>
 <trkpt lat="50.571668700" lon="6.451403700"><ele>499</ele><time>2013-07-05T14:40:25Z</time></trkpt>
 <trkpt lat="50.571622900" lon="6.451379100"><ele>499</ele><time>2013-07-05T14:40:29Z</time></trkpt>
 <trkpt lat="50.571570300" lon="6.451358300"><ele>499</ele><time>2013-07-05T14:40:33Z</time></trkpt>
 <trkpt lat="50.571523700" lon="6.451336200"><ele>499</ele><time>2013-07-05T14:40:37Z</time></trkpt>
 <trkpt lat="50.571478300" lon="6.451319900"><ele>499</ele><time>2013-07-05T14:40:41Z</time></trkpt>
 <trkpt lat="50.571441600" lon="6.451298300"><ele>499</ele><time>2013-07-05T14:40:45Z</time></trkpt>
 <trkpt lat="50.571400800" lon="6.451282400"><ele>499</ele><time>2013-07-05T14:40:49Z</time></trkpt>
 <trkpt lat="50.571361200" lon="6.451272400"><ele>499</ele><time>2013-07-05T14:40:53Z</time></trkpt>
 <trkpt lat="50.571318700" lon="6.451255300"><ele>499</ele><time>2013-07-05T14:40:57Z</time></trkpt>
 <trkpt lat="50.571272800" lon="6.451229500"><ele>499</ele><time>2013-07-05T14:41:01Z</time></trkpt>
 <trkpt lat="50.571230800" lon="6.451210800"><ele>498</ele><time>2013-07-05T14:41:05Z</time></trkpt>
 <trkpt lat="50.571189500" lon="6.451189500"><ele>498</ele><time>2013-07-05T14:41:09Z</time></trkpt>
 <trkpt lat="50.571145800" lon="6.451163700"><ele>498</ele><time>2013-07-05T14:41:13Z</time></trkpt>
 <trkpt lat="50.571093300" lon="6.451143700"><ele>498</ele><time>2013-07-05T14:41:17Z</time></trkpt>
 <trkpt lat="50.571041200" lon="6.451120400"><ele>497</ele><time>2013-07-05T14:41:21Z</time></trkpt>
 <trkpt lat="50.570996600" lon="6.451117400"><ele>497</ele><time>2013-07-05T14:41:25Z</time></trkpt>
 <trkpt lat="50.570962900" lon="6.451098300"><ele>497</ele><time>2013-07-05T14:41:29Z</time></trkpt>
 <trkpt lat="50.570915800" lon="6.451064500"><ele>496</ele><time>2013-07-05T14:41:33Z</time></trkpt>
 <trkpt lat="50.570869900" lon="6.451035800"><ele>496</ele><time>2013-07-05T14:41:37Z</time></trkpt>
 <trkpt lat="50.570824500" lon="6.451009900"><ele>496</ele><time>2013-07-05T14:41:41Z</time></trkpt>
 <trkpt lat="50.570787000" lon="6.450987000"><ele>495</ele><time>2013-07-05T14:41:45Z</time></trkpt>
 <trkpt lat="50.570742400" lon="6.450980000"><ele>495</ele><time>2013-07-05T14:41:49Z</time></trkpt>
 <trkpt lat="50.570698300" lon="6.450977400"><ele>495</ele><time>2013-07-05T14:41:53Z</time></trkpt>
 <trkpt lat="50.570649900" lon="6.450980000"><ele>495</ele><time>2013-07-05T14:41:57Z</time></trkpt>
 <trkpt lat="50.570604500" lon="6.450989100"><ele>494</ele><time>2013-07-05T14:42:01Z</time></trkpt>
 <trkpt lat="50.570551600" lon="6.451004900"><ele>494</ele><time>2013-07-05T14:42:05Z</time></trkpt>
 <trkpt lat="50.570504900" lon="6.451012800"><ele>494</ele><time>2013-07-05T14:42:09Z</time></trkpt>
 <trkpt lat="50.570462000" lon="6.451020800"><ele>494</ele><time>2013-07-05T14:42:13Z</time></trkpt>
 <trkpt lat="50.570419100" lon="6.451032900"><ele>495</ele><time>2013-07-05T14:42:17Z</time></trkpt>
 <trkpt lat="50.570369100" lon="6.451037800"><ele>495</ele><time>2013-07-05T14:42:21Z</time></trkpt>
 <trkpt lat="50.570319500" lon="6.451037000"><ele>495</ele><time>2013-07-05T14:42:25Z</time></trkpt>
 <trkpt lat="50.570275300" lon="6.451044100"><ele>495</ele><time>2013-07-05T14:42:29Z</time></trkpt>
 <trkpt lat="50.570223700" lon="6.451046600"><ele>495</ele><time>2013-07-05T14:42:33Z</time></trkpt>
 <trkpt lat="50.570172800" lon="6.451055300"><ele>496</ele><time>2013-07-05T14:42:37Z</time></trkpt>
 <trkpt lat="50.570127400" lon="6.451064900"><ele>496</ele><time>2013-07-05T14:42:41Z</time></trkpt>
 <trkpt lat="50.570082800" lon="6.451071600"><ele>497</ele><time>2013-07-05T14:42:45Z</time></trkpt>
 <trkpt lat="50.570030800" lon="6.451089900"><ele>497</ele><time>2013-07-05T14:42:49Z</time></trkpt>
 <trkpt lat="50.569966600" lon="6.451104900"><ele>498</ele><time>2013-07-05T14:42:53Z</time></trkpt>
 <trkpt lat="50.569906200" lon="6.451114500"><ele>499</ele><time>2013-07-05T14:42:57Z</time></trkpt>
 <trkpt lat="50.569866600" lon="6.451121600"><ele>499</ele><time>2013-07-05T14:43:01Z</time></trkpt>
 <trkpt lat="50.569814100" lon="6.451119500"><ele>499</ele><time>2013-07-05T14:43:05Z</time></trkpt>
 <trkpt lat="50.569771600" lon="6.451125800"><ele>500</ele><time>2013-07-05T14:43:09Z</time></trkpt>
 <trkpt lat="50.569721200" lon="6.451132000"><ele>500</ele><time>2013-07-05T14:43:13Z</time></trkpt>
 <trkpt lat="50.569679100" lon="6.451137800"><ele>500</ele><time>2013-07-05T14:43:17Z</time></trkpt>
 <trkpt lat="50.569643700" lon="6.451161200"><ele>501</ele><time>2013-07-05T14:43:21Z</time></trkpt>
 <trkpt lat="50.569611600" lon="6.451158700"><ele>501</ele><time>2013-07-05T14:43:25Z</time></trkpt>
 <trkpt lat="50.569566200" lon="6.451160700"><ele>501</ele><time>2013-07-05T14:43:29Z</time></trkpt>
 <trkpt lat="50.569514900" lon="6.451149100"><ele>501</ele><time>2013-07-05T14:43:33Z</time></trkpt>
 <trkpt lat="50.569463300" lon="6.451145400"><ele>501</ele><time>2013-07-05T14:43:37Z</time></trkpt>
 <trkpt lat="50.569413700" lon="6.451149100"><ele>501</ele><time>2013-07-05T14:43:41Z</time></trkpt>
 <trkpt lat="50.569361200" lon="6.451149100"><ele>501</ele><time>2013-07-05T14:43:45Z</time></trkpt>
 <trkpt lat="50.569311600" lon="6.451141600"><ele>500</ele><time>2013-07-05T14:43:49Z</time></trkpt>
 <trkpt lat="50.569254100" lon="6.451139100"><ele>500</ele><time>2013-07-05T14:43:53Z</time></trkpt>
 <trkpt lat="50.569230800" lon="6.451123200"><ele>500</ele><time>2013-07-05T14:43:57Z</time></trkpt>
 <trkpt lat="50.569236600" lon="6.451132400"><ele>499</ele><time>2013-07-05T14:44:01Z</time></trkpt>
 <trkpt lat="50.569233300" lon="6.451154500"><ele>499</ele><time>2013-07-05T14:44:05Z</time></trkpt>
 <trkpt lat="50.569204100" lon="6.451139500"><ele>499</ele><time>2013-07-05T14:44:09Z</time></trkpt>
 <trkpt lat="50.569158300" lon="6.451115300"><ele>499</ele><time>2013-07-05T14:44:13Z</time></trkpt>
 <trkpt lat="50.569115400" lon="6.451087800"><ele>499</ele><time>2013-07-05T14:44:17Z</time></trkpt>
 <trkpt lat="50.569072000" lon="6.451064500"><ele>499</ele><time>2013-07-05T14:44:21Z</time></trkpt>
 <trkpt lat="50.569025000" lon="6.451042400"><ele>499</ele><time>2013-07-05T14:44:25Z</time></trkpt>
 <trkpt lat="50.568968300" lon="6.451013300"><ele>499</ele><time>2013-07-05T14:44:29Z</time></trkpt>
 <trkpt lat="50.568909100" lon="6.450996600"><ele>499</ele><time>2013-07-05T14:44:33Z</time></trkpt>
 <trkpt lat="50.568855300" lon="6.450987800"><ele>499</ele><time>2013-07-05T14:44:37Z</time></trkpt>
 <trkpt lat="50.568799500" lon="6.450979900"><ele>499</ele><time>2013-07-05T14:44:41Z</time></trkpt>
 <trkpt lat="50.568741600" lon="6.450992000"><ele>500</ele><time>2013-07-05T14:44:45Z</time></trkpt>
 <trkpt lat="50.568691200" lon="6.450983200"><ele>500</ele><time>2013-07-05T14:44:49Z</time></trkpt>
 <trkpt lat="50.568642900" lon="6.450984100"><ele>500</ele><time>2013-07-05T14:44:53Z</time></trkpt>
 <trkpt lat="50.568596600" lon="6.450973700"><ele>500</ele><time>2013-07-05T14:44:57Z</time></trkpt>
 <trkpt lat="50.568537900" lon="6.450963700"><ele>500</ele><time>2013-07-05T14:45:01Z</time></trkpt>
 <trkpt lat="50.568485800" lon="6.450937800"><ele>500</ele><time>2013-07-05T14:45:05Z</time></trkpt>
 <trkpt lat="50.568435800" lon="6.450922400"><ele>500</ele><time>2013-07-05T14:45:09Z</time></trkpt>
 <trkpt lat="50.568388700" lon="6.450896200"><ele>500</ele><time>2013-07-05T14:45:13Z</time></trkpt>
 <trkpt lat="50.568335400" lon="6.450867900"><ele>499</ele><time>2013-07-05T14:45:17Z</time></trkpt>
 <trkpt lat="50.568302400" lon="6.450835800"><ele>499</ele><time>2013-07-05T14:45:21Z</time></trkpt>
 <trkpt lat="50.568256600" lon="6.450800300"><ele>499</ele><time>2013-07-05T14:45:25Z</time></trkpt>
 <trkpt lat="50.568212800" lon="6.450773300"><ele>499</ele><time>2013-07-05T14:45:29Z</time></trkpt>
 <trkpt lat="50.568151200" lon="6.450747400"><ele>498</ele><time>2013-07-05T14:45:33Z</time></trkpt>
 <trkpt lat="50.568102900" lon="6.450736200"><ele>498</ele><time>2013-07-05T14:45:37Z</time></trkpt>
 <trkpt lat="50.568052000" lon="6.450726200"><ele>497</ele><time>2013-07-05T14:45:41Z</time></trkpt>
 <trkpt lat="50.568000800" lon="6.450694500"><ele>497</ele><time>2013-07-05T14:45:45Z</time></trkpt>
 <trkpt lat="50.567956600" lon="6.450653700"><ele>496</ele><time>2013-07-05T14:45:49Z</time></trkpt>
 <trkpt lat="50.567913300" lon="6.450622400"><ele>496</ele><time>2013-07-05T14:45:53Z</time></trkpt>
 <trkpt lat="50.567873700" lon="6.450612400"><ele>495</ele><time>2013-07-05T14:45:57Z</time></trkpt>
 <trkpt lat="50.567834900" lon="6.450581200"><ele>495</ele><time>2013-07-05T14:46:01Z</time></trkpt>
 <trkpt lat="50.567787000" lon="6.450542000"><ele>494</ele><time>2013-07-05T14:46:05Z</time></trkpt>
 <trkpt lat="50.567743300" lon="6.450538700"><ele>494</ele><time>2013-07-05T14:46:09Z</time></trkpt>
 <trkpt lat="50.567714900" lon="6.450534100"><ele>493</ele><time>2013-07-05T14:46:13Z</time></trkpt>
 <trkpt lat="50.567735800" lon="6.450614500"><ele>493</ele><time>2013-07-05T14:46:17Z</time></trkpt>
 <trkpt lat="50.567774900" lon="6.450679500"><ele>492</ele><time>2013-07-05T14:46:21Z</time></trkpt>
 <trkpt lat="50.567802400" lon="6.450750300"><ele>491</ele><time>2013-07-05T14:46:25Z</time></trkpt>
 <trkpt lat="50.567835800" lon="6.450807800"><ele>490</ele><time>2013-07-05T14:46:29Z</time></trkpt>
 <trkpt lat="50.567864500" lon="6.450864900"><ele>490</ele><time>2013-07-05T14:46:33Z</time></trkpt>
 <trkpt lat="50.567889100" lon="6.450947400"><ele>489</ele><time>2013-07-05T14:46:37Z</time></trkpt>
 <trkpt lat="50.567913200" lon="6.451004500"><ele>488</ele><time>2013-07-05T14:46:41Z</time></trkpt>
 <trkpt lat="50.567949900" lon="6.451050400"><ele>487</ele><time>2013-07-05T14:46:45Z</time></trkpt>
 <trkpt lat="50.567974500" lon="6.451112400"><ele>487</ele><time>2013-07-05T14:46:49Z</time></trkpt>
 <trkpt lat="50.567990800" lon="6.451178700"><ele>486</ele><time>2013-07-05T14:46:53Z</time></trkpt>
 <trkpt lat="50.568012900" lon="6.451246600"><ele>485</ele><time>2013-07-05T14:46:57Z</time></trkpt>
 <trkpt lat="50.568034500" lon="6.451297000"><ele>485</ele><time>2013-07-05T14:47:01Z</time></trkpt>
 <trkpt lat="50.568055800" lon="6.451369500"><ele>484</ele><time>2013-07-05T14:47:05Z</time></trkpt>
 <trkpt lat="50.568089100" lon="6.451413700"><ele>483</ele><time>2013-07-05T14:47:09Z</time></trkpt>
 <trkpt lat="50.568115800" lon="6.451473300"><ele>483</ele><time>2013-07-05T14:47:13Z</time></trkpt>
 <trkpt lat="50.568130800" lon="6.451539100"><ele>482</ele><time>2013-07-05T14:47:17Z</time></trkpt>
 <trkpt lat="50.568141200" lon="6.451629100"><ele>482</ele><time>2013-07-05T14:47:21Z</time></trkpt>
 <trkpt lat="50.568151200" lon="6.451711200"><ele>481</ele><time>2013-07-05T14:47:25Z</time></trkpt>
 <trkpt lat="50.568159900" lon="6.451793700"><ele>481</ele><time>2013-07-05T14:47:29Z</time></trkpt>
 <trkpt lat="50.568162000" lon="6.451861600"><ele>481</ele><time>2013-07-05T14:47:33Z</time></trkpt>
 <trkpt lat="50.568163700" lon="6.451952900"><ele>480</ele><time>2013-07-05T14:47:37Z</time></trkpt>
 <trkpt lat="50.568164900" lon="6.452031600"><ele>479</ele><time>2013-07-05T14:47:41Z</time></trkpt>
 <trkpt lat="50.568180700" lon="6.452102400"><ele>479</ele><time>2013-07-05T14:47:45Z</time></trkpt>
 <trkpt lat="50.568193700" lon="6.452162900"><ele>478</ele><time>2013-07-05T14:47:49Z</time></trkpt>
 <trkpt lat="50.568205800" lon="6.452237400"><ele>477</ele><time>2013-07-05T14:47:53Z</time></trkpt>
 <trkpt lat="50.568217000" lon="6.452302900"><ele>476</ele><time>2013-07-05T14:47:57Z</time></trkpt>
 <trkpt lat="50.568231600" lon="6.452387400"><ele>475</ele><time>2013-07-05T14:48:01Z</time></trkpt>
 <trkpt lat="50.568242000" lon="6.452453700"><ele>474</ele><time>2013-07-05T14:48:05Z</time></trkpt>
 <trkpt lat="50.568258700" lon="6.452534900"><ele>473</ele><time>2013-07-05T14:48:09Z</time></trkpt>
 <trkpt lat="50.568269100" lon="6.452584100"><ele>472</ele><time>2013-07-05T14:48:13Z</time></trkpt>
 <trkpt lat="50.568272000" lon="6.452642400"><ele>471</ele><time>2013-07-05T14:48:17Z</time></trkpt>
 <trkpt lat="50.568301200" lon="6.452708700"><ele>470</ele><time>2013-07-05T14:48:21Z</time></trkpt>
 <trkpt lat="50.568322400" lon="6.452764500"><ele>469</ele><time>2013-07-05T14:48:25Z</time></trkpt>
 <trkpt lat="50.568342400" lon="6.452827400"><ele>468</ele><time>2013-07-05T14:48:29Z</time></trkpt>
 <trkpt lat="50.568362800" lon="6.452878300"><ele>467</ele><time>2013-07-05T14:48:33Z</time></trkpt>
 <trkpt lat="50.568388300" lon="6.452932900"><ele>466</ele><time>2013-07-05T14:48:37Z</time></trkpt>
 <trkpt lat="50.568412500" lon="6.452991200"><ele>466</ele><time>2013-07-05T14:48:41Z</time></trkpt>
 <trkpt lat="50.568429500" lon="6.453040300"><ele>465</ele><time>2013-07-05T14:48:45Z</time></trkpt>
 <trkpt lat="50.568448700" lon="6.453083700"><ele>464</ele><time>2013-07-05T14:48:49Z</time></trkpt>
 <trkpt lat="50.568468700" lon="6.453150800"><ele>463</ele><time>2013-07-05T14:48:53Z</time></trkpt>
 <trkpt lat="50.568489100" lon="6.453207800"><ele>462</ele><time>2013-07-05T14:48:57Z</time></trkpt>
 <trkpt lat="50.568508700" lon="6.453266200"><ele>461</ele><time>2013-07-05T14:49:01Z</time></trkpt>
 <trkpt lat="50.568527400" lon="6.453330800"><ele>461</ele><time>2013-07-05T14:49:05Z</time></trkpt>
 <trkpt lat="50.568553700" lon="6.453371600"><ele>460</ele><time>2013-07-05T14:49:09Z</time></trkpt>
 <trkpt lat="50.568577000" lon="6.453419100"><ele>459</ele><time>2013-07-05T14:49:13Z</time></trkpt>
 <trkpt lat="50.568609900" lon="6.453471200"><ele>459</ele><time>2013-07-05T14:49:17Z</time></trkpt>
 <trkpt lat="50.568633700" lon="6.453515700"><ele>458</ele><time>2013-07-05T14:49:21Z</time></trkpt>
 <trkpt lat="50.568649900" lon="6.453552400"><ele>457</ele><time>2013-07-05T14:49:25Z</time></trkpt>
 <trkpt lat="50.568669100" lon="6.453599100"><ele>457</ele><time>2013-07-05T14:49:29Z</time></trkpt>
 <trkpt lat="50.568687800" lon="6.453654500"><ele>456</ele><time>2013-07-05T14:49:33Z</time></trkpt>
 <trkpt lat="50.568703200" lon="6.453696600"><ele>455</ele><time>2013-07-05T14:49:37Z</time></trkpt>
 <trkpt lat="50.568709100" lon="6.453703300"><ele>455</ele><time>2013-07-05T14:49:41Z</time></trkpt>
 <trkpt lat="50.568703700" lon="6.453698300"><ele>454</ele><time>2013-07-05T14:49:45Z</time></trkpt>
 <trkpt lat="50.568703700" lon="6.453698300"><ele>454</ele><time>2013-07-05T14:49:49Z</time></trkpt>
 <trkpt lat="50.568703700" lon="6.453698300"><ele>453</ele><time>2013-07-05T14:49:53Z</time></trkpt>
 <trkpt lat="50.568710800" lon="6.453725800"><ele>453</ele><time>2013-07-05T14:49:57Z</time></trkpt>
 <trkpt lat="50.568729900" lon="6.453787800"><ele>453</ele><time>2013-07-05T14:50:01Z</time></trkpt>
 <trkpt lat="50.568745800" lon="6.453810800"><ele>452</ele><time>2013-07-05T14:50:05Z</time></trkpt>
 <trkpt lat="50.568745800" lon="6.453810800"><ele>452</ele><time>2013-07-05T14:50:09Z</time></trkpt>
 <trkpt lat="50.568749100" lon="6.453802400"><ele>452</ele><time>2013-07-05T14:50:13Z</time></trkpt>
 <trkpt lat="50.568752800" lon="6.453796200"><ele>451</ele><time>2013-07-05T14:50:17Z</time></trkpt>
 <trkpt lat="50.568752800" lon="6.453796200"><ele>451</ele><time>2013-07-05T14:50:21Z</time></trkpt>
 <trkpt lat="50.568756600" lon="6.453788300"><ele>451</ele><time>2013-07-05T14:50:25Z</time></trkpt>
 <trkpt lat="50.568755300" lon="6.453777000"><ele>451</ele><time>2013-07-05T14:50:29Z</time></trkpt>
 <trkpt lat="50.568751200" lon="6.453750300"><ele>451</ele><time>2013-07-05T14:50:33Z</time></trkpt>
 <trkpt lat="50.568751200" lon="6.453750300"><ele>451</ele><time>2013-07-05T14:50:37Z</time></trkpt>
 <trkpt lat="50.568751200" lon="6.453750300"><ele>451</ele><time>2013-07-05T14:50:41Z</time></trkpt>
 <trkpt lat="50.568751200" lon="6.453750300"><ele>451</ele><time>2013-07-05T14:50:45Z</time></trkpt>
 <trkpt lat="50.568751200" lon="6.453750300"><ele>451</ele><time>2013-07-05T14:50:49Z</time></trkpt>
 <trkpt lat="50.568751200" lon="6.453750300"><ele>450</ele><time>2013-07-05T14:50:53Z</time></trkpt>
 <trkpt lat="50.568751200" lon="6.453750300"><ele>450</ele><time>2013-07-05T14:50:57Z</time></trkpt>
 <trkpt lat="50.568751200" lon="6.453750300"><ele>450</ele><time>2013-07-05T14:51:01Z</time></trkpt>
 <trkpt lat="50.568756600" lon="6.453749900"><ele>450</ele><time>2013-07-05T14:51:05Z</time></trkpt>
 <trkpt lat="50.568762000" lon="6.453746600"><ele>450</ele><time>2013-07-05T14:51:09Z</time></trkpt>
 <trkpt lat="50.568762000" lon="6.453746600"><ele>450</ele><time>2013-07-05T14:51:13Z</time></trkpt>
 <trkpt lat="50.568767400" lon="6.453749100"><ele>450</ele><time>2013-07-05T14:51:17Z</time></trkpt>
 <trkpt lat="50.568772400" lon="6.453743700"><ele>450</ele><time>2013-07-05T14:51:21Z</time></trkpt>
 <trkpt lat="50.568772400" lon="6.453743700"><ele>450</ele><time>2013-07-05T14:51:25Z</time></trkpt>
 <trkpt lat="50.568772400" lon="6.453743700"><ele>450</ele><time>2013-07-05T14:51:29Z</time></trkpt>
 <trkpt lat="50.568765800" lon="6.453745300"><ele>450</ele><time>2013-07-05T14:51:33Z</time></trkpt>
 <trkpt lat="50.568765800" lon="6.453745300"><ele>449</ele><time>2013-07-05T14:51:37Z</time></trkpt>
 <trkpt lat="50.568765800" lon="6.453745300"><ele>449</ele><time>2013-07-05T14:51:41Z</time></trkpt>
 <trkpt lat="50.568767800" lon="6.453757000"><ele>449</ele><time>2013-07-05T14:51:45Z</time></trkpt>
 <trkpt lat="50.568762900" lon="6.453750400"><ele>449</ele><time>2013-07-05T14:51:49Z</time></trkpt>
 <trkpt lat="50.568763300" lon="6.453765800"><ele>448</ele><time>2013-07-05T14:51:53Z</time></trkpt>
 <trkpt lat="50.568776200" lon="6.453809900"><ele>448</ele><time>2013-07-05T14:51:57Z</time></trkpt>
 <trkpt lat="50.568790800" lon="6.453864100"><ele>448</ele><time>2013-07-05T14:52:01Z</time></trkpt>
 <trkpt lat="50.568807900" lon="6.453917400"><ele>447</ele><time>2013-07-05T14:52:05Z</time></trkpt>
 <trkpt lat="50.568826600" lon="6.453975400"><ele>447</ele><time>2013-07-05T14:52:09Z</time></trkpt>
 <trkpt lat="50.568857400" lon="6.454022000"><ele>446</ele><time>2013-07-05T14:52:13Z</time></trkpt>
 <trkpt lat="50.568896600" lon="6.454073700"><ele>446</ele><time>2013-07-05T14:52:17Z</time></trkpt>
 <trkpt lat="50.568928300" lon="6.454125800"><ele>446</ele><time>2013-07-05T14:52:21Z</time></trkpt>
 <trkpt lat="50.568946600" lon="6.454177000"><ele>445</ele><time>2013-07-05T14:52:25Z</time></trkpt>
 <trkpt lat="50.568962400" lon="6.454226600"><ele>445</ele><time>2013-07-05T14:52:29Z</time></trkpt>
 <trkpt lat="50.568979900" lon="6.454274500"><ele>445</ele><time>2013-07-05T14:52:33Z</time></trkpt>
 <trkpt lat="50.569014500" lon="6.454327000"><ele>444</ele><time>2013-07-05T14:52:37Z</time></trkpt>
 <trkpt lat="50.569036200" lon="6.454365800"><ele>444</ele><time>2013-07-05T14:52:41Z</time></trkpt>
 <trkpt lat="50.569069900" lon="6.454422000"><ele>444</ele><time>2013-07-05T14:52:45Z</time></trkpt>
 <trkpt lat="50.569087400" lon="6.454491200"><ele>444</ele><time>2013-07-05T14:52:49Z</time></trkpt>
 <trkpt lat="50.569105800" lon="6.454554100"><ele>444</ele><time>2013-07-05T14:52:53Z</time></trkpt>
 <trkpt lat="50.569126600" lon="6.454616600"><ele>443</ele><time>2013-07-05T14:52:57Z</time></trkpt>
 <trkpt lat="50.569157000" lon="6.454659900"><ele>443</ele><time>2013-07-05T14:53:01Z</time></trkpt>
 <trkpt lat="50.569174100" lon="6.454709500"><ele>443</ele><time>2013-07-05T14:53:05Z</time></trkpt>
 <trkpt lat="50.569184900" lon="6.454766200"><ele>443</ele><time>2013-07-05T14:53:09Z</time></trkpt>
 <trkpt lat="50.569197800" lon="6.454828700"><ele>443</ele><time>2013-07-05T14:53:13Z</time></trkpt>
 <trkpt lat="50.569207900" lon="6.454889900"><ele>443</ele><time>2013-07-05T14:53:17Z</time></trkpt>
 <trkpt lat="50.569207000" lon="6.454923700"><ele>443</ele><time>2013-07-05T14:53:21Z</time></trkpt>
 <trkpt lat="50.569226200" lon="6.454973300"><ele>444</ele><time>2013-07-05T14:53:25Z</time></trkpt>
 <trkpt lat="50.569241600" lon="6.455029900"><ele>444</ele><time>2013-07-05T14:53:29Z</time></trkpt>
 <trkpt lat="50.569265800" lon="6.455087500"><ele>444</ele><time>2013-07-05T14:53:33Z</time></trkpt>
 <trkpt lat="50.569290800" lon="6.455139900"><ele>444</ele><time>2013-07-05T14:53:37Z</time></trkpt>
 <trkpt lat="50.569319100" lon="6.455189900"><ele>444</ele><time>2013-07-05T14:53:41Z</time></trkpt>
 <trkpt lat="50.569323700" lon="6.455197400"><ele>444</ele><time>2013-07-05T14:53:45Z</time></trkpt>
 <trkpt lat="50.569357400" lon="6.455204500"><ele>445</ele><time>2013-07-05T14:53:49Z</time></trkpt>
 <trkpt lat="50.569389900" lon="6.455271200"><ele>445</ele><time>2013-07-05T14:53:53Z</time></trkpt>
 <trkpt lat="50.569397400" lon="6.455341600"><ele>445</ele><time>2013-07-05T14:53:57Z</time></trkpt>
 <trkpt lat="50.569394100" lon="6.455419100"><ele>445</ele><time>2013-07-05T14:54:01Z</time></trkpt>
 <trkpt lat="50.569389100" lon="6.455490300"><ele>446</ele><time>2013-07-05T14:54:05Z</time></trkpt>
 <trkpt lat="50.569394900" lon="6.455557000"><ele>446</ele><time>2013-07-05T14:54:09Z</time></trkpt>
 <trkpt lat="50.569455300" lon="6.455620400"><ele>446</ele><time>2013-07-05T14:54:13Z</time></trkpt>
 <trkpt lat="50.569520700" lon="6.455646200"><ele>446</ele><time>2013-07-05T14:54:17Z</time></trkpt>
 <trkpt lat="50.569563300" lon="6.455696200"><ele>446</ele><time>2013-07-05T14:54:21Z</time></trkpt>
 <trkpt lat="50.569589500" lon="6.455758700"><ele>447</ele><time>2013-07-05T14:54:25Z</time></trkpt>
 <trkpt lat="50.569622400" lon="6.455812400"><ele>446</ele><time>2013-07-05T14:54:29Z</time></trkpt>
 <trkpt lat="50.569666600" lon="6.455859100"><ele>446</ele><time>2013-07-05T14:54:33Z</time></trkpt>
 <trkpt lat="50.569678300" lon="6.455882400"><ele>446</ele><time>2013-07-05T14:54:37Z</time></trkpt>
 <trkpt lat="50.569684900" lon="6.455903700"><ele>446</ele><time>2013-07-05T14:54:41Z</time></trkpt>
 <trkpt lat="50.569722900" lon="6.455941600"><ele>446</ele><time>2013-07-05T14:54:45Z</time></trkpt>
 <trkpt lat="50.569762900" lon="6.455977400"><ele>446</ele><time>2013-07-05T14:54:49Z</time></trkpt>
 <trkpt lat="50.569778300" lon="6.456031600"><ele>446</ele><time>2013-07-05T14:54:53Z</time></trkpt>
 <trkpt lat="50.569809100" lon="6.456085300"><ele>446</ele><time>2013-07-05T14:54:57Z</time></trkpt>
 <trkpt lat="50.569842800" lon="6.456129900"><ele>446</ele><time>2013-07-05T14:55:01Z</time></trkpt>
 <trkpt lat="50.569882400" lon="6.456194100"><ele>445</ele><time>2013-07-05T14:55:05Z</time></trkpt>
 <trkpt lat="50.569892000" lon="6.456267000"><ele>445</ele><time>2013-07-05T14:55:09Z</time></trkpt>
 <trkpt lat="50.569886200" lon="6.456274500"><ele>445</ele><time>2013-07-05T14:55:13Z</time></trkpt>
 <trkpt lat="50.569903700" lon="6.456289500"><ele>444</ele><time>2013-07-05T14:55:17Z</time></trkpt>
 <trkpt lat="50.569939900" lon="6.456377400"><ele>444</ele><time>2013-07-05T14:55:21Z</time></trkpt>
 <trkpt lat="50.569965800" lon="6.456430300"><ele>444</ele><time>2013-07-05T14:55:25Z</time></trkpt>
 <trkpt lat="50.569989100" lon="6.456482000"><ele>444</ele><time>2013-07-05T14:55:29Z</time></trkpt>
 <trkpt lat="50.570009500" lon="6.456545400"><ele>443</ele><time>2013-07-05T14:55:33Z</time></trkpt>
 <trkpt lat="50.570033300" lon="6.456624100"><ele>443</ele><time>2013-07-05T14:55:37Z</time></trkpt>
 <trkpt lat="50.570060800" lon="6.456679900"><ele>442</ele><time>2013-07-05T14:55:41Z</time></trkpt>
 <trkpt lat="50.570076200" lon="6.456706200"><ele>442</ele><time>2013-07-05T14:55:45Z</time></trkpt>
 <trkpt lat="50.570089100" lon="6.456735800"><ele>441</ele><time>2013-07-05T14:55:49Z</time></trkpt>
 <trkpt lat="50.570098700" lon="6.456820800"><ele>441</ele><time>2013-07-05T14:55:53Z</time></trkpt>
 <trkpt lat="50.570119900" lon="6.456888700"><ele>440</ele><time>2013-07-05T14:55:57Z</time></trkpt>
 <trkpt lat="50.570134500" lon="6.456949500"><ele>440</ele><time>2013-07-05T14:56:01Z</time></trkpt>
 <trkpt lat="50.570129900" lon="6.457002400"><ele>439</ele><time>2013-07-05T14:56:05Z</time></trkpt>
 <trkpt lat="50.570126600" lon="6.457056600"><ele>438</ele><time>2013-07-05T14:56:09Z</time></trkpt>
 <trkpt lat="50.570122400" lon="6.457109100"><ele>438</ele><time>2013-07-05T14:56:13Z</time></trkpt>
 <trkpt lat="50.570138700" lon="6.457206200"><ele>437</ele><time>2013-07-05T14:56:17Z</time></trkpt>
 <trkpt lat="50.570161600" lon="6.457270300"><ele>436</ele><time>2013-07-05T14:56:21Z</time></trkpt>
 <trkpt lat="50.570165700" lon="6.457323700"><ele>436</ele><time>2013-07-05T14:56:25Z</time></trkpt>
 <trkpt lat="50.570177400" lon="6.457363300"><ele>435</ele><time>2013-07-05T14:56:29Z</time></trkpt>
 <trkpt lat="50.570177500" lon="6.457386200"><ele>435</ele><time>2013-07-05T14:56:33Z</time></trkpt>
 <trkpt lat="50.570186200" lon="6.457412900"><ele>434</ele><time>2013-07-05T14:56:37Z</time></trkpt>
 <trkpt lat="50.570226200" lon="6.457436200"><ele>434</ele><time>2013-07-05T14:56:41Z</time></trkpt>
 <trkpt lat="50.570260300" lon="6.457475400"><ele>433</ele><time>2013-07-05T14:56:45Z</time></trkpt>
 <trkpt lat="50.570252000" lon="6.457540800"><ele>433</ele><time>2013-07-05T14:56:49Z</time></trkpt>
 <trkpt lat="50.570244500" lon="6.457615800"><ele>432</ele><time>2013-07-05T14:56:53Z</time></trkpt>
 <trkpt lat="50.570249900" lon="6.457688300"><ele>432</ele><time>2013-07-05T14:56:57Z</time></trkpt>
 <trkpt lat="50.570266200" lon="6.457762800"><ele>431</ele><time>2013-07-05T14:57:01Z</time></trkpt>
 <trkpt lat="50.570296200" lon="6.457819900"><ele>431</ele><time>2013-07-05T14:57:05Z</time></trkpt>
 <trkpt lat="50.570333700" lon="6.457877000"><ele>430</ele><time>2013-07-05T14:57:09Z</time></trkpt>
 <trkpt lat="50.570354100" lon="6.457931200"><ele>430</ele><time>2013-07-05T14:57:13Z</time></trkpt>
 <trkpt lat="50.570374900" lon="6.457997400"><ele>429</ele><time>2013-07-05T14:57:17Z</time></trkpt>
 <trkpt lat="50.570388700" lon="6.458057400"><ele>428</ele><time>2013-07-05T14:57:21Z</time></trkpt>
 <trkpt lat="50.570414100" lon="6.458104500"><ele>428</ele><time>2013-07-05T14:57:25Z</time></trkpt>
 <trkpt lat="50.570440300" lon="6.458134900"><ele>427</ele><time>2013-07-05T14:57:29Z</time></trkpt>
 <trkpt lat="50.570475300" lon="6.458174500"><ele>426</ele><time>2013-07-05T14:57:33Z</time></trkpt>
 <trkpt lat="50.570479500" lon="6.458223300"><ele>426</ele><time>2013-07-05T14:57:37Z</time></trkpt>
 <trkpt lat="50.570496200" lon="6.458281600"><ele>425</ele><time>2013-07-05T14:57:41Z</time></trkpt>
 <trkpt lat="50.570520800" lon="6.458347800"><ele>424</ele><time>2013-07-05T14:57:45Z</time></trkpt>
 <trkpt lat="50.570554100" lon="6.458398700"><ele>423</ele><time>2013-07-05T14:57:49Z</time></trkpt>
 <trkpt lat="50.570584900" lon="6.458444500"><ele>423</ele><time>2013-07-05T14:57:53Z</time></trkpt>
 <trkpt lat="50.570603700" lon="6.458520300"><ele>422</ele><time>2013-07-05T14:57:57Z</time></trkpt>
 <trkpt lat="50.570625400" lon="6.458585800"><ele>421</ele><time>2013-07-05T14:58:01Z</time></trkpt>
 <trkpt lat="50.570658300" lon="6.458678200"><ele>420</ele><time>2013-07-05T14:58:05Z</time></trkpt>
 <trkpt lat="50.570679900" lon="6.458748700"><ele>420</ele><time>2013-07-05T14:58:09Z</time></trkpt>
 <trkpt lat="50.570687000" lon="6.458788300"><ele>419</ele><time>2013-07-05T14:58:13Z</time></trkpt>
 <trkpt lat="50.570694500" lon="6.458840300"><ele>418</ele><time>2013-07-05T14:58:17Z</time></trkpt>
 <trkpt lat="50.570704500" lon="6.458914500"><ele>417</ele><time>2013-07-05T14:58:21Z</time></trkpt>
 <trkpt lat="50.570713300" lon="6.459009500"><ele>416</ele><time>2013-07-05T14:58:25Z</time></trkpt>
 <trkpt lat="50.570737800" lon="6.459087000"><ele>415</ele><time>2013-07-05T14:58:29Z</time></trkpt>
 <trkpt lat="50.570759500" lon="6.459156600"><ele>414</ele><time>2013-07-05T14:58:33Z</time></trkpt>
 <trkpt lat="50.570764500" lon="6.459204500"><ele>413</ele><time>2013-07-05T14:58:37Z</time></trkpt>
 <trkpt lat="50.570801200" lon="6.459235300"><ele>412</ele><time>2013-07-05T14:58:41Z</time></trkpt>
 <trkpt lat="50.570838700" lon="6.459257000"><ele>411</ele><time>2013-07-05T14:58:45Z</time></trkpt>
 <trkpt lat="50.570867900" lon="6.459294500"><ele>409</ele><time>2013-07-05T14:58:49Z</time></trkpt>
 <trkpt lat="50.570894100" lon="6.459317900"><ele>408</ele><time>2013-07-05T14:58:53Z</time></trkpt>
 <trkpt lat="50.570901200" lon="6.459322400"><ele>407</ele><time>2013-07-05T14:58:57Z</time></trkpt>
 <trkpt lat="50.570952900" lon="6.459347000"><ele>406</ele><time>2013-07-05T14:59:01Z</time></trkpt>
 <trkpt lat="50.571003700" lon="6.459374100"><ele>404</ele><time>2013-07-05T14:59:05Z</time></trkpt>
 <trkpt lat="50.571042900" lon="6.459407000"><ele>403</ele><time>2013-07-05T14:59:09Z</time></trkpt>
 <trkpt lat="50.571067400" lon="6.459437800"><ele>402</ele><time>2013-07-05T14:59:13Z</time></trkpt>
 <trkpt lat="50.571091600" lon="6.459486600"><ele>400</ele><time>2013-07-05T14:59:17Z</time></trkpt>
 <trkpt lat="50.571110800" lon="6.459534100"><ele>399</ele><time>2013-07-05T14:59:21Z</time></trkpt>
 <trkpt lat="50.571145800" lon="6.459587000"><ele>398</ele><time>2013-07-05T14:59:25Z</time></trkpt>
 <trkpt lat="50.571172900" lon="6.459638200"><ele>396</ele><time>2013-07-05T14:59:29Z</time></trkpt>
 <trkpt lat="50.571191600" lon="6.459667800"><ele>395</ele><time>2013-07-05T14:59:33Z</time></trkpt>
 <trkpt lat="50.571223700" lon="6.459684900"><ele>394</ele><time>2013-07-05T14:59:37Z</time></trkpt>
 <trkpt lat="50.571264900" lon="6.459714100"><ele>392</ele><time>2013-07-05T14:59:41Z</time></trkpt>
 <trkpt lat="50.571321200" lon="6.459747000"><ele>390</ele><time>2013-07-05T14:59:45Z</time></trkpt>
 <trkpt lat="50.571378700" lon="6.459747400"><ele>389</ele><time>2013-07-05T14:59:49Z</time></trkpt>
 <trkpt lat="50.571426600" lon="6.459755800"><ele>387</ele><time>2013-07-05T14:59:53Z</time></trkpt>
 <trkpt lat="50.571455800" lon="6.459769500"><ele>385</ele><time>2013-07-05T14:59:57Z</time></trkpt>
 <trkpt lat="50.571475300" lon="6.459781600"><ele>383</ele><time>2013-07-05T15:00:01Z</time></trkpt>
 <trkpt lat="50.571500800" lon="6.459795800"><ele>382</ele><time>2013-07-05T15:00:05Z</time></trkpt>
 <trkpt lat="50.571531200" lon="6.459810800"><ele>380</ele><time>2013-07-05T15:00:09Z</time></trkpt>
 <trkpt lat="50.571554100" lon="6.459820800"><ele>378</ele><time>2013-07-05T15:00:13Z</time></trkpt>
 <trkpt lat="50.571594500" lon="6.459832000"><ele>375</ele><time>2013-07-05T15:00:17Z</time></trkpt>
 <trkpt lat="50.571614900" lon="6.459850300"><ele>373</ele><time>2013-07-05T15:00:21Z</time></trkpt>
 <trkpt lat="50.571652400" lon="6.459860800"><ele>371</ele><time>2013-07-05T15:00:25Z</time></trkpt>
 <trkpt lat="50.571684500" lon="6.459865800"><ele>369</ele><time>2013-07-05T15:00:29Z</time></trkpt>
 <trkpt lat="50.571725800" lon="6.459871600"><ele>366</ele><time>2013-07-05T15:00:33Z</time></trkpt>
 <trkpt lat="50.571779100" lon="6.459878700"><ele>364</ele><time>2013-07-05T15:00:37Z</time></trkpt>
 <trkpt lat="50.571818700" lon="6.459876600"><ele>362</ele><time>2013-07-05T15:00:41Z</time></trkpt>
 <trkpt lat="50.571855800" lon="6.459879900"><ele>360</ele><time>2013-07-05T15:00:45Z</time></trkpt>
 <trkpt lat="50.571885800" lon="6.459879100"><ele>358</ele><time>2013-07-05T15:00:49Z</time></trkpt>
 <trkpt lat="50.571931600" lon="6.459875300"><ele>356</ele><time>2013-07-05T15:00:53Z</time></trkpt>
 <trkpt lat="50.571978700" lon="6.459872400"><ele>354</ele><time>2013-07-05T15:00:57Z</time></trkpt>
 <trkpt lat="50.572017900" lon="6.459873300"><ele>352</ele><time>2013-07-05T15:01:01Z</time></trkpt>
 <trkpt lat="50.572052800" lon="6.459897400"><ele>350</ele><time>2013-07-05T15:01:05Z</time></trkpt>
 <trkpt lat="50.572086200" lon="6.459919500"><ele>349</ele><time>2013-07-05T15:01:09Z</time></trkpt>
 <trkpt lat="50.572124100" lon="6.459939100"><ele>347</ele><time>2013-07-05T15:01:13Z</time></trkpt>
 <trkpt lat="50.572150300" lon="6.459943300"><ele>346</ele><time>2013-07-05T15:01:17Z</time></trkpt>
 <trkpt lat="50.572180800" lon="6.459936600"><ele>344</ele><time>2013-07-05T15:01:21Z</time></trkpt>
 <trkpt lat="50.572216600" lon="6.459904500"><ele>343</ele><time>2013-07-05T15:01:25Z</time></trkpt>
 <trkpt lat="50.572239500" lon="6.459899100"><ele>342</ele><time>2013-07-05T15:01:29Z</time></trkpt>
 <trkpt lat="50.572272000" lon="6.459867000"><ele>341</ele><time>2013-07-05T15:01:33Z</time></trkpt>
 <trkpt lat="50.572299500" lon="6.459863700"><ele>340</ele><time>2013-07-05T15:01:37Z</time></trkpt>
 <trkpt lat="50.572333700" lon="6.459839100"><ele>339</ele><time>2013-07-05T15:01:41Z</time></trkpt>
 <trkpt lat="50.572367400" lon="6.459808700"><ele>338</ele><time>2013-07-05T15:01:45Z</time></trkpt>
 <trkpt lat="50.572396200" lon="6.459773300"><ele>337</ele><time>2013-07-05T15:01:49Z</time></trkpt>
 <trkpt lat="50.572412900" lon="6.459732400"><ele>336</ele><time>2013-07-05T15:01:53Z</time></trkpt>
 <trkpt lat="50.572428200" lon="6.459700300"><ele>335</ele><time>2013-07-05T15:01:57Z</time></trkpt>
 <trkpt lat="50.572444900" lon="6.459658300"><ele>334</ele><time>2013-07-05T15:02:01Z</time></trkpt>
 <trkpt lat="50.572457800" lon="6.459612000"><ele>333</ele><time>2013-07-05T15:02:05Z</time></trkpt>
 <trkpt lat="50.572493200" lon="6.459579900"><ele>333</ele><time>2013-07-05T15:02:09Z</time></trkpt>
 <trkpt lat="50.572528700" lon="6.459550800"><ele>332</ele><time>2013-07-05T15:02:13Z</time></trkpt>
 <trkpt lat="50.572562800" lon="6.459522400"><ele>331</ele><time>2013-07-05T15:02:17Z</time></trkpt>
 <trkpt lat="50.572614900" lon="6.459487400"><ele>330</ele><time>2013-07-05T15:02:21Z</time></trkpt>
 <trkpt lat="50.572639900" lon="6.459429500"><ele>329</ele><time>2013-07-05T15:02:25Z</time></trkpt>
 <trkpt lat="50.572676600" lon="6.459386200"><ele>328</ele><time>2013-07-05T15:02:29Z</time></trkpt>
 <trkpt lat="50.572714100" lon="6.459359100"><ele>327</ele><time>2013-07-05T15:02:33Z</time></trkpt>
 <trkpt lat="50.572752400" lon="6.459325300"><ele>326</ele><time>2013-07-05T15:02:37Z</time></trkpt>
 <trkpt lat="50.572793700" lon="6.459299900"><ele>325</ele><time>2013-07-05T15:02:41Z</time></trkpt>
 <trkpt lat="50.572842900" lon="6.459261200"><ele>325</ele><time>2013-07-05T15:02:45Z</time></trkpt>
 <trkpt lat="50.572892000" lon="6.459218300"><ele>324</ele><time>2013-07-05T15:02:49Z</time></trkpt>
 <trkpt lat="50.572933700" lon="6.459188300"><ele>323</ele><time>2013-07-05T15:02:53Z</time></trkpt>
 <trkpt lat="50.572967900" lon="6.459149100"><ele>322</ele><time>2013-07-05T15:02:57Z</time></trkpt>
 <trkpt lat="50.572984900" lon="6.459122000"><ele>321</ele><time>2013-07-05T15:03:01Z</time></trkpt>
 <trkpt lat="50.573013300" lon="6.459107800"><ele>320</ele><time>2013-07-05T15:03:05Z</time></trkpt>
 <trkpt lat="50.573044100" lon="6.459082000"><ele>320</ele><time>2013-07-05T15:03:09Z</time></trkpt>
 <trkpt lat="50.573081200" lon="6.459071600"><ele>319</ele><time>2013-07-05T15:03:13Z</time></trkpt>
 <trkpt lat="50.573125300" lon="6.459044900"><ele>318</ele><time>2013-07-05T15:03:17Z</time></trkpt>
 <trkpt lat="50.573173300" lon="6.459003700"><ele>317</ele><time>2013-07-05T15:03:21Z</time></trkpt>
 <trkpt lat="50.573202400" lon="6.458966200"><ele>317</ele><time>2013-07-05T15:03:25Z</time></trkpt>
 <trkpt lat="50.573225300" lon="6.458910800"><ele>316</ele><time>2013-07-05T15:03:29Z</time></trkpt>
 <trkpt lat="50.573272000" lon="6.458872800"><ele>315</ele><time>2013-07-05T15:03:33Z</time></trkpt>
 <trkpt lat="50.573308700" lon="6.458841200"><ele>315</ele><time>2013-07-05T15:03:37Z</time></trkpt>
 <trkpt lat="50.573351200" lon="6.458810800"><ele>314</ele><time>2013-07-05T15:03:41Z</time></trkpt>
 <trkpt lat="50.573395800" lon="6.458770300"><ele>313</ele><time>2013-07-05T15:03:45Z</time></trkpt>
 <trkpt lat="50.573427000" lon="6.458748700"><ele>313</ele><time>2013-07-05T15:03:49Z</time></trkpt>
 <trkpt lat="50.573461600" lon="6.458719100"><ele>312</ele><time>2013-07-05T15:03:53Z</time></trkpt>
 <trkpt lat="50.573492400" lon="6.458683200"><ele>312</ele><time>2013-07-05T15:03:57Z</time></trkpt>
 <trkpt lat="50.573530400" lon="6.458654100"><ele>311</ele><time>2013-07-05T15:04:01Z</time></trkpt>
 <trkpt lat="50.573566200" lon="6.458621200"><ele>310</ele><time>2013-07-05T15:04:05Z</time></trkpt>
 <trkpt lat="50.573579500" lon="6.458597400"><ele>310</ele><time>2013-07-05T15:04:09Z</time></trkpt>
 <trkpt lat="50.573617800" lon="6.458575300"><ele>309</ele><time>2013-07-05T15:04:13Z</time></trkpt>
 <trkpt lat="50.573651600" lon="6.458555800"><ele>309</ele><time>2013-07-05T15:04:17Z</time></trkpt>
 <trkpt lat="50.573683700" lon="6.458537500"><ele>309</ele><time>2013-07-05T15:04:21Z</time></trkpt>
 <trkpt lat="50.573693300" lon="6.458512900"><ele>308</ele><time>2013-07-05T15:04:25Z</time></trkpt>
 <trkpt lat="50.573696200" lon="6.458505400"><ele>308</ele><time>2013-07-05T15:04:29Z</time></trkpt>
 <trkpt lat="50.573694900" lon="6.458480700"><ele>308</ele><time>2013-07-05T15:04:33Z</time></trkpt>
 <trkpt lat="50.573694500" lon="6.458467800"><ele>307</ele><time>2013-07-05T15:04:37Z</time></trkpt>
 <trkpt lat="50.573698700" lon="6.458467000"><ele>307</ele><time>2013-07-05T15:04:41Z</time></trkpt>
 <trkpt lat="50.573704900" lon="6.458468300"><ele>307</ele><time>2013-07-05T15:04:45Z</time></trkpt>
 <trkpt lat="50.573713300" lon="6.458442800"><ele>307</ele><time>2013-07-05T15:04:49Z</time></trkpt>
 <trkpt lat="50.573707000" lon="6.458461200"><ele>307</ele><time>2013-07-05T15:04:53Z</time></trkpt>
 <trkpt lat="50.573699500" lon="6.458487800"><ele>307</ele><time>2013-07-05T15:04:57Z</time></trkpt>
 <trkpt lat="50.573704100" lon="6.458482000"><ele>307</ele><time>2013-07-05T15:05:01Z</time></trkpt>
 <trkpt lat="50.573710800" lon="6.458479500"><ele>307</ele><time>2013-07-05T15:05:05Z</time></trkpt>
 <trkpt lat="50.573710800" lon="6.458479500"><ele>307</ele><time>2013-07-05T15:05:09Z</time></trkpt>
 <trkpt lat="50.573710800" lon="6.458479500"><ele>307</ele><time>2013-07-05T15:05:13Z</time></trkpt>
 <trkpt lat="50.573700300" lon="6.458499100"><ele>307</ele><time>2013-07-05T15:05:17Z</time></trkpt>
 <trkpt lat="50.573606600" lon="6.458538700"><ele>307</ele><time>2013-07-05T15:05:21Z</time></trkpt>
 <trkpt lat="50.573540800" lon="6.458540400"><ele>307</ele><time>2013-07-05T15:05:25Z</time></trkpt>
 <trkpt lat="50.573533700" lon="6.458553200"><ele>307</ele><time>2013-07-05T15:05:29Z</time></trkpt>
 <trkpt lat="50.573571600" lon="6.458557400"><ele>307</ele><time>2013-07-05T15:05:33Z</time></trkpt>
 <trkpt lat="50.573572000" lon="6.458576600"><ele>307</ele><time>2013-07-05T15:05:37Z</time></trkpt>
 <trkpt lat="50.573573700" lon="6.458567400"><ele>307</ele><time>2013-07-05T15:05:41Z</time></trkpt>
 <trkpt lat="50.573602800" lon="6.458544100"><ele>307</ele><time>2013-07-05T15:05:45Z</time></trkpt>
 <trkpt lat="50.573629100" lon="6.458532400"><ele>307</ele><time>2013-07-05T15:05:49Z</time></trkpt>
 <trkpt lat="50.573664900" lon="6.458514500"><ele>307</ele><time>2013-07-05T15:05:53Z</time></trkpt>
 <trkpt lat="50.573686200" lon="6.458514100"><ele>307</ele><time>2013-07-05T15:05:57Z</time></trkpt>
 <trkpt lat="50.573718700" lon="6.458517000"><ele>307</ele><time>2013-07-05T15:06:01Z</time></trkpt>
 <trkpt lat="50.573766600" lon="6.458526600"><ele>307</ele><time>2013-07-05T15:06:05Z</time></trkpt>
 <trkpt lat="50.573844100" lon="6.458543700"><ele>307</ele><time>2013-07-05T15:06:09Z</time></trkpt>
 <trkpt lat="50.573904100" lon="6.458561200"><ele>307</ele><time>2013-07-05T15:06:13Z</time></trkpt>
 <trkpt lat="50.573961600" lon="6.458586200"><ele>307</ele><time>2013-07-05T15:06:17Z</time></trkpt>
 <trkpt lat="50.574012000" lon="6.458611200"><ele>307</ele><time>2013-07-05T15:06:21Z</time></trkpt>
 <trkpt lat="50.574050700" lon="6.458627800"><ele>307</ele><time>2013-07-05T15:06:25Z</time></trkpt>
 <trkpt lat="50.574089100" lon="6.458636200"><ele>307</ele><time>2013-07-05T15:06:29Z</time></trkpt>
 <trkpt lat="50.574129500" lon="6.458640800"><ele>307</ele><time>2013-07-05T15:06:33Z</time></trkpt>
 <trkpt lat="50.574185300" lon="6.458652800"><ele>307</ele><time>2013-07-05T15:06:37Z</time></trkpt>
 <trkpt lat="50.574217400" lon="6.458674100"><ele>307</ele><time>2013-07-05T15:06:41Z</time></trkpt>
 <trkpt lat="50.574235800" lon="6.458709500"><ele>307</ele><time>2013-07-05T15:06:45Z</time></trkpt>
 <trkpt lat="50.574284100" lon="6.458710800"><ele>308</ele><time>2013-07-05T15:06:49Z</time></trkpt>
 <trkpt lat="50.574322800" lon="6.458705800"><ele>308</ele><time>2013-07-05T15:06:53Z</time></trkpt>
 <trkpt lat="50.574357400" lon="6.458710800"><ele>308</ele><time>2013-07-05T15:06:57Z</time></trkpt>
 <trkpt lat="50.574399100" lon="6.458720700"><ele>308</ele><time>2013-07-05T15:07:01Z</time></trkpt>
 <trkpt lat="50.574451200" lon="6.458714500"><ele>309</ele><time>2013-07-05T15:07:05Z</time></trkpt>
 <trkpt lat="50.574502400" lon="6.458729900"><ele>309</ele><time>2013-07-05T15:07:09Z</time></trkpt>
 <trkpt lat="50.574547000" lon="6.458759500"><ele>310</ele><time>2013-07-05T15:07:13Z</time></trkpt>
 <trkpt lat="50.574578300" lon="6.458789100"><ele>310</ele><time>2013-07-05T15:07:17Z</time></trkpt>
 <trkpt lat="50.574602800" lon="6.458822000"><ele>311</ele><time>2013-07-05T15:07:21Z</time></trkpt>
 <trkpt lat="50.574632000" lon="6.458841600"><ele>311</ele><time>2013-07-05T15:07:25Z</time></trkpt>
 <trkpt lat="50.574678700" lon="6.458853700"><ele>312</ele><time>2013-07-05T15:07:29Z</time></trkpt>
 <trkpt lat="50.574682900" lon="6.458897400"><ele>313</ele><time>2013-07-05T15:07:33Z</time></trkpt>
 <trkpt lat="50.574692400" lon="6.458943700"><ele>313</ele><time>2013-07-05T15:07:37Z</time></trkpt>
 <trkpt lat="50.574711600" lon="6.458991600"><ele>314</ele><time>2013-07-05T15:07:41Z</time></trkpt>
 <trkpt lat="50.574729900" lon="6.459032000"><ele>315</ele><time>2013-07-05T15:07:45Z</time></trkpt>
 <trkpt lat="50.574745800" lon="6.459079500"><ele>316</ele><time>2013-07-05T15:07:49Z</time></trkpt>
 <trkpt lat="50.574759100" lon="6.459123700"><ele>316</ele><time>2013-07-05T15:07:53Z</time></trkpt>
 <trkpt lat="50.574793700" lon="6.459156200"><ele>317</ele><time>2013-07-05T15:07:57Z</time></trkpt>
 <trkpt lat="50.574826200" lon="6.459189100"><ele>318</ele><time>2013-07-05T15:08:01Z</time></trkpt>
 <trkpt lat="50.574863700" lon="6.459215300"><ele>319</ele><time>2013-07-05T15:08:05Z</time></trkpt>
 <trkpt lat="50.574925800" lon="6.459239500"><ele>320</ele><time>2013-07-05T15:08:09Z</time></trkpt>
 <trkpt lat="50.574960800" lon="6.459277800"><ele>321</ele><time>2013-07-05T15:08:13Z</time></trkpt>
 <trkpt lat="50.574965800" lon="6.459335800"><ele>322</ele><time>2013-07-05T15:08:17Z</time></trkpt>
 <trkpt lat="50.574963300" lon="6.459364100"><ele>322</ele><time>2013-07-05T15:08:21Z</time></trkpt>
 <trkpt lat="50.574967800" lon="6.459387000"><ele>323</ele><time>2013-07-05T15:08:25Z</time></trkpt>
 <trkpt lat="50.574974900" lon="6.459399900"><ele>324</ele><time>2013-07-05T15:08:29Z</time></trkpt>
 <trkpt lat="50.574987000" lon="6.459401200"><ele>325</ele><time>2013-07-05T15:08:33Z</time></trkpt>
 <trkpt lat="50.574996600" lon="6.459394100"><ele>325</ele><time>2013-07-05T15:08:37Z</time></trkpt>
 <trkpt lat="50.575002400" lon="6.459393700"><ele>326</ele><time>2013-07-05T15:08:41Z</time></trkpt>
 <trkpt lat="50.575006600" lon="6.459386600"><ele>327</ele><time>2013-07-05T15:08:45Z</time></trkpt>
 <trkpt lat="50.575004100" lon="6.459375800"><ele>327</ele><time>2013-07-05T15:08:49Z</time></trkpt>
 <trkpt lat="50.574990300" lon="6.459367000"><ele>328</ele><time>2013-07-05T15:08:53Z</time></trkpt>
 <trkpt lat="50.574987400" lon="6.459387400"><ele>329</ele><time>2013-07-05T15:08:57Z</time></trkpt>
 <trkpt lat="50.574994900" lon="6.459413200"><ele>329</ele><time>2013-07-05T15:09:01Z</time></trkpt>
 <trkpt lat="50.575005400" lon="6.459438700"><ele>330</ele><time>2013-07-05T15:09:05Z</time></trkpt>
 <trkpt lat="50.575007400" lon="6.459489100"><ele>330</ele><time>2013-07-05T15:09:09Z</time></trkpt>
 <trkpt lat="50.575005800" lon="6.459559100"><ele>331</ele><time>2013-07-05T15:09:13Z</time></trkpt>
 <trkpt lat="50.575007900" lon="6.459621600"><ele>331</ele><time>2013-07-05T15:09:17Z</time></trkpt>
 <trkpt lat="50.575005800" lon="6.459707400"><ele>332</ele><time>2013-07-05T15:09:21Z</time></trkpt>
 <trkpt lat="50.575002800" lon="6.459801600"><ele>332</ele><time>2013-07-05T15:09:25Z</time></trkpt>
 <trkpt lat="50.574992400" lon="6.459887400"><ele>333</ele><time>2013-07-05T15:09:29Z</time></trkpt>
 <trkpt lat="50.574993300" lon="6.459945300"><ele>333</ele><time>2013-07-05T15:09:33Z</time></trkpt>
 <trkpt lat="50.574987900" lon="6.460004100"><ele>334</ele><time>2013-07-05T15:09:37Z</time></trkpt>
 <trkpt lat="50.574987400" lon="6.460058300"><ele>334</ele><time>2013-07-05T15:09:41Z</time></trkpt>
 <trkpt lat="50.574991200" lon="6.460112400"><ele>335</ele><time>2013-07-05T15:09:45Z</time></trkpt>
 <trkpt lat="50.574997400" lon="6.460165800"><ele>335</ele><time>2013-07-05T15:09:49Z</time></trkpt>
 <trkpt lat="50.575010800" lon="6.460232000"><ele>336</ele><time>2013-07-05T15:09:53Z</time></trkpt>
 <trkpt lat="50.575010800" lon="6.460274500"><ele>336</ele><time>2013-07-05T15:09:57Z</time></trkpt>
 <trkpt lat="50.575016600" lon="6.460322900"><ele>336</ele><time>2013-07-05T15:10:01Z</time></trkpt>
 <trkpt lat="50.575018700" lon="6.460386600"><ele>337</ele><time>2013-07-05T15:10:05Z</time></trkpt>
 <trkpt lat="50.575022000" lon="6.460458300"><ele>337</ele><time>2013-07-05T15:10:09Z</time></trkpt>
 <trkpt lat="50.575027800" lon="6.460510800"><ele>338</ele><time>2013-07-05T15:10:13Z</time></trkpt>
 <trkpt lat="50.575032400" lon="6.460559500"><ele>338</ele><time>2013-07-05T15:10:17Z</time></trkpt>
 <trkpt lat="50.575034100" lon="6.460619500"><ele>338</ele><time>2013-07-05T15:10:21Z</time></trkpt>
 <trkpt lat="50.575039900" lon="6.460678700"><ele>339</ele><time>2013-07-05T15:10:25Z</time></trkpt>
 <trkpt lat="50.575032400" lon="6.460734100"><ele>339</ele><time>2013-07-05T15:10:29Z</time></trkpt>
 <trkpt lat="50.575033300" lon="6.460775800"><ele>339</ele><time>2013-07-05T15:10:33Z</time></trkpt>
 <trkpt lat="50.575031200" lon="6.460856600"><ele>340</ele><time>2013-07-05T15:10:37Z</time></trkpt>
 <trkpt lat="50.575028700" lon="6.460943700"><ele>340</ele><time>2013-07-05T15:10:41Z</time></trkpt>
 <trkpt lat="50.575016200" lon="6.461022500"><ele>340</ele><time>2013-07-05T15:10:45Z</time></trkpt>
 <trkpt lat="50.575039100" lon="6.461103700"><ele>341</ele><time>2013-07-05T15:10:49Z</time></trkpt>
 <trkpt lat="50.575070800" lon="6.461149900"><ele>341</ele><time>2013-07-05T15:10:53Z</time></trkpt>
 <trkpt lat="50.575099500" lon="6.461194500"><ele>341</ele><time>2013-07-05T15:10:57Z</time></trkpt>
 <trkpt lat="50.575122900" lon="6.461239100"><ele>341</ele><time>2013-07-05T15:11:01Z</time></trkpt>
 <trkpt lat="50.575149500" lon="6.461301600"><ele>342</ele><time>2013-07-05T15:11:05Z</time></trkpt>
 <trkpt lat="50.575153700" lon="6.461363700"><ele>342</ele><time>2013-07-05T15:11:09Z</time></trkpt>
 <trkpt lat="50.575155800" lon="6.461434500"><ele>342</ele><time>2013-07-05T15:11:13Z</time></trkpt>
 <trkpt lat="50.575145800" lon="6.461509100"><ele>343</ele><time>2013-07-05T15:11:17Z</time></trkpt>
 <trkpt lat="50.575127400" lon="6.461577000"><ele>343</ele><time>2013-07-05T15:11:21Z</time></trkpt>
 <trkpt lat="50.575148300" lon="6.461635800"><ele>343</ele><time>2013-07-05T15:11:25Z</time></trkpt>
 <trkpt lat="50.575177400" lon="6.461689900"><ele>343</ele><time>2013-07-05T15:11:29Z</time></trkpt>
 <trkpt lat="50.575187000" lon="6.461750800"><ele>343</ele><time>2013-07-05T15:11:33Z</time></trkpt>
 <trkpt lat="50.575203300" lon="6.461800300"><ele>343</ele><time>2013-07-05T15:11:37Z</time></trkpt>
 <trkpt lat="50.575222400" lon="6.461844500"><ele>344</ele><time>2013-07-05T15:11:41Z</time></trkpt>
 <trkpt lat="50.575234500" lon="6.461897400"><ele>344</ele><time>2013-07-05T15:11:45Z</time></trkpt>
 <trkpt lat="50.575252800" lon="6.461953700"><ele>344</ele><time>2013-07-05T15:11:49Z</time></trkpt>
 <trkpt lat="50.575262800" lon="6.461998700"><ele>344</ele><time>2013-07-05T15:11:53Z</time></trkpt>
 <trkpt lat="50.575275400" lon="6.462051600"><ele>344</ele><time>2013-07-05T15:11:57Z</time></trkpt>
 <trkpt lat="50.575287000" lon="6.462113200"><ele>344</ele><time>2013-07-05T15:12:01Z</time></trkpt>
 <trkpt lat="50.575309500" lon="6.462159900"><ele>344</ele><time>2013-07-05T15:12:05Z</time></trkpt>
 <trkpt lat="50.575330800" lon="6.462205400"><ele>344</ele><time>2013-07-05T15:12:09Z</time></trkpt>
 <trkpt lat="50.575358700" lon="6.462251600"><ele>344</ele><time>2013-07-05T15:12:13Z</time></trkpt>
 <trkpt lat="50.575378700" lon="6.462299100"><ele>344</ele><time>2013-07-05T15:12:17Z</time></trkpt>
 <trkpt lat="50.575389500" lon="6.462332900"><ele>344</ele><time>2013-07-05T15:12:21Z</time></trkpt>
 <trkpt lat="50.575409500" lon="6.462362000"><ele>344</ele><time>2013-07-05T15:12:25Z</time></trkpt>
 <trkpt lat="50.575433300" lon="6.462425800"><ele>344</ele><time>2013-07-05T15:12:29Z</time></trkpt>
 <trkpt lat="50.575448700" lon="6.462482800"><ele>344</ele><time>2013-07-05T15:12:33Z</time></trkpt>
 <trkpt lat="50.575438700" lon="6.462545800"><ele>344</ele><time>2013-07-05T15:12:37Z</time></trkpt>
 <trkpt lat="50.575424100" lon="6.462565300"><ele>344</ele><time>2013-07-05T15:12:41Z</time></trkpt>
 <trkpt lat="50.575422400" lon="6.462574900"><ele>344</ele><time>2013-07-05T15:12:45Z</time></trkpt>
 <trkpt lat="50.575412400" lon="6.462602000"><ele>344</ele><time>2013-07-05T15:12:49Z</time></trkpt>
 <trkpt lat="50.575407000" lon="6.462619900"><ele>344</ele><time>2013-07-05T15:12:53Z</time></trkpt>
 <trkpt lat="50.575407000" lon="6.462619900"><ele>344</ele><time>2013-07-05T15:12:57Z</time></trkpt>
 <trkpt lat="50.575399900" lon="6.462618700"><ele>344</ele><time>2013-07-05T15:13:01Z</time></trkpt>
 <trkpt lat="50.575387800" lon="6.462622000"><ele>343</ele><time>2013-07-05T15:13:05Z</time></trkpt>
 <trkpt lat="50.575387800" lon="6.462622000"><ele>343</ele><time>2013-07-05T15:13:09Z</time></trkpt>
 <trkpt lat="50.575407800" lon="6.462662000"><ele>343</ele><time>2013-07-05T15:13:13Z</time></trkpt>
 <trkpt lat="50.575422000" lon="6.462710300"><ele>343</ele><time>2013-07-05T15:13:17Z</time></trkpt>
 <trkpt lat="50.575439900" lon="6.462747800"><ele>343</ele><time>2013-07-05T15:13:21Z</time></trkpt>
 <trkpt lat="50.575449900" lon="6.462815400"><ele>343</ele><time>2013-07-05T15:13:25Z</time></trkpt>
 <trkpt lat="50.575446600" lon="6.462897900"><ele>342</ele><time>2013-07-05T15:13:29Z</time></trkpt>
 <trkpt lat="50.575448700" lon="6.462964100"><ele>342</ele><time>2013-07-05T15:13:33Z</time></trkpt>
 <trkpt lat="50.575454100" lon="6.463014100"><ele>342</ele><time>2013-07-05T15:13:37Z</time></trkpt>
 <trkpt lat="50.575477400" lon="6.463070800"><ele>342</ele><time>2013-07-05T15:13:41Z</time></trkpt>
 <trkpt lat="50.575482400" lon="6.463135300"><ele>342</ele><time>2013-07-05T15:13:45Z</time></trkpt>
 <trkpt lat="50.575467000" lon="6.463219900"><ele>342</ele><time>2013-07-05T15:13:49Z</time></trkpt>
 <trkpt lat="50.575467900" lon="6.463317400"><ele>342</ele><time>2013-07-05T15:13:53Z</time></trkpt>
 <trkpt lat="50.575472800" lon="6.463397000"><ele>342</ele><time>2013-07-05T15:13:57Z</time></trkpt>
 <trkpt lat="50.575482900" lon="6.463473700"><ele>342</ele><time>2013-07-05T15:14:01Z</time></trkpt>
 <trkpt lat="50.575501600" lon="6.463556600"><ele>342</ele><time>2013-07-05T15:14:05Z</time></trkpt>
 <trkpt lat="50.575495300" lon="6.463616600"><ele>342</ele><time>2013-07-05T15:14:09Z</time></trkpt>
 <trkpt lat="50.575488700" lon="6.463660700"><ele>342</ele><time>2013-07-05T15:14:13Z</time></trkpt>
 <trkpt lat="50.575474500" lon="6.463714100"><ele>342</ele><time>2013-07-05T15:14:17Z</time></trkpt>
 <trkpt lat="50.575458300" lon="6.463787400"><ele>342</ele><time>2013-07-05T15:14:21Z</time></trkpt>
 <trkpt lat="50.575440300" lon="6.463851200"><ele>342</ele><time>2013-07-05T15:14:25Z</time></trkpt>
 <trkpt lat="50.575424900" lon="6.463908700"><ele>342</ele><time>2013-07-05T15:14:29Z</time></trkpt>
 <trkpt lat="50.575401600" lon="6.463974100"><ele>342</ele><time>2013-07-05T15:14:33Z</time></trkpt>
 <trkpt lat="50.575368200" lon="6.464048300"><ele>342</ele><time>2013-07-05T15:14:37Z</time></trkpt>
 <trkpt lat="50.575381600" lon="6.464119100"><ele>343</ele><time>2013-07-05T15:14:41Z</time></trkpt>
 <trkpt lat="50.575404500" lon="6.464189100"><ele>343</ele><time>2013-07-05T15:14:45Z</time></trkpt>
 <trkpt lat="50.575406600" lon="6.464267000"><ele>343</ele><time>2013-07-05T15:14:49Z</time></trkpt>
 <trkpt lat="50.575404900" lon="6.464358300"><ele>344</ele><time>2013-07-05T15:14:53Z</time></trkpt>
 <trkpt lat="50.575395400" lon="6.464429500"><ele>344</ele><time>2013-07-05T15:14:57Z</time></trkpt>
 <trkpt lat="50.575382800" lon="6.464483300"><ele>344</ele><time>2013-07-05T15:15:01Z</time></trkpt>
 <trkpt lat="50.575389900" lon="6.464547800"><ele>345</ele><time>2013-07-05T15:15:05Z</time></trkpt>
 <trkpt lat="50.575397000" lon="6.464616600"><ele>345</ele><time>2013-07-05T15:15:09Z</time></trkpt>
 <trkpt lat="50.575382800" lon="6.464674500"><ele>345</ele><time>2013-07-05T15:15:13Z</time></trkpt>
 <trkpt lat="50.575369100" lon="6.464744100"><ele>345</ele><time>2013-07-05T15:15:17Z</time></trkpt>
 <trkpt lat="50.575336200" lon="6.464813700"><ele>345</ele><time>2013-07-05T15:15:21Z</time></trkpt>
 <trkpt lat="50.575303700" lon="6.464878200"><ele>345</ele><time>2013-07-05T15:15:25Z</time></trkpt>
 <trkpt lat="50.575287000" lon="6.464940800"><ele>345</ele><time>2013-07-05T15:15:29Z</time></trkpt>
 <trkpt lat="50.575284100" lon="6.465007000"><ele>345</ele><time>2013-07-05T15:15:33Z</time></trkpt>
 <trkpt lat="50.575284500" lon="6.465025700"><ele>345</ele><time>2013-07-05T15:15:37Z</time></trkpt>
 <trkpt lat="50.575277000" lon="6.465050400"><ele>345</ele><time>2013-07-05T15:15:41Z</time></trkpt>
 <trkpt lat="50.575235300" lon="6.465108300"><ele>345</ele><time>2013-07-05T15:15:45Z</time></trkpt>
 <trkpt lat="50.575234500" lon="6.465149900"><ele>345</ele><time>2013-07-05T15:15:49Z</time></trkpt>
 <trkpt lat="50.575230400" lon="6.465208300"><ele>345</ele><time>2013-07-05T15:15:53Z</time></trkpt>
 <trkpt lat="50.575224500" lon="6.465271600"><ele>345</ele><time>2013-07-05T15:15:57Z</time></trkpt>
 <trkpt lat="50.575199100" lon="6.465352400"><ele>344</ele><time>2013-07-05T15:16:01Z</time></trkpt>
 <trkpt lat="50.575178200" lon="6.465421200"><ele>344</ele><time>2013-07-05T15:16:05Z</time></trkpt>
 <trkpt lat="50.575155800" lon="6.465473700"><ele>344</ele><time>2013-07-05T15:16:09Z</time></trkpt>
 <trkpt lat="50.575128700" lon="6.465531600"><ele>344</ele><time>2013-07-05T15:16:13Z</time></trkpt>
 <trkpt lat="50.575104500" lon="6.465592800"><ele>344</ele><time>2013-07-05T15:16:17Z</time></trkpt>
 <trkpt lat="50.575089900" lon="6.465650300"><ele>344</ele><time>2013-07-05T15:16:21Z</time></trkpt>
 <trkpt lat="50.575059100" lon="6.465702400"><ele>344</ele><time>2013-07-05T15:16:25Z</time></trkpt>
 <trkpt lat="50.575023700" lon="6.465734900"><ele>344</ele><time>2013-07-05T15:16:29Z</time></trkpt>
 <trkpt lat="50.575012000" lon="6.465744900"><ele>344</ele><time>2013-07-05T15:16:33Z</time></trkpt>
 <trkpt lat="50.574979900" lon="6.465772000"><ele>345</ele><time>2013-07-05T15:16:37Z</time></trkpt>
 <trkpt lat="50.574930800" lon="6.465811600"><ele>345</ele><time>2013-07-05T15:16:41Z</time></trkpt>
 <trkpt lat="50.574867000" lon="6.465856200"><ele>345</ele><time>2013-07-05T15:16:45Z</time></trkpt>
 <trkpt lat="50.574822400" lon="6.465904500"><ele>346</ele><time>2013-07-05T15:16:49Z</time></trkpt>
 <trkpt lat="50.574793700" lon="6.465958700"><ele>346</ele><time>2013-07-05T15:16:53Z</time></trkpt>
 <trkpt lat="50.574748300" lon="6.466005300"><ele>346</ele><time>2013-07-05T15:16:57Z</time></trkpt>
 <trkpt lat="50.574709100" lon="6.466056600"><ele>346</ele><time>2013-07-05T15:17:01Z</time></trkpt>
 <trkpt lat="50.574672400" lon="6.466134100"><ele>346</ele><time>2013-07-05T15:17:05Z</time></trkpt>
 <trkpt lat="50.574657900" lon="6.466197400"><ele>347</ele><time>2013-07-05T15:17:09Z</time></trkpt>
 <trkpt lat="50.574677800" lon="6.466211600"><ele>347</ele><time>2013-07-05T15:17:13Z</time></trkpt>
 <trkpt lat="50.574677800" lon="6.466211600"><ele>347</ele><time>2013-07-05T15:17:17Z</time></trkpt>
 <trkpt lat="50.574653300" lon="6.466263700"><ele>347</ele><time>2013-07-05T15:17:21Z</time></trkpt>
 <trkpt lat="50.574617400" lon="6.466350400"><ele>346</ele><time>2013-07-05T15:17:25Z</time></trkpt>
 <trkpt lat="50.574587400" lon="6.466402800"><ele>346</ele><time>2013-07-05T15:17:29Z</time></trkpt>
 <trkpt lat="50.574580300" lon="6.466425800"><ele>346</ele><time>2013-07-05T15:17:33Z</time></trkpt>
 <trkpt lat="50.574592900" lon="6.466452800"><ele>346</ele><time>2013-07-05T15:17:37Z</time></trkpt>
 <trkpt lat="50.574573700" lon="6.466445800"><ele>345</ele><time>2013-07-05T15:17:41Z</time></trkpt>
 <trkpt lat="50.574534100" lon="6.466488700"><ele>345</ele><time>2013-07-05T15:17:45Z</time></trkpt>
 <trkpt lat="50.574524900" lon="6.466501600"><ele>344</ele><time>2013-07-05T15:17:49Z</time></trkpt>
 <trkpt lat="50.574520800" lon="6.466509100"><ele>344</ele><time>2013-07-05T15:17:53Z</time></trkpt>
 <trkpt lat="50.574517800" lon="6.466565700"><ele>343</ele><time>2013-07-05T15:17:57Z</time></trkpt>
 <trkpt lat="50.574509500" lon="6.466618700"><ele>343</ele><time>2013-07-05T15:18:01Z</time></trkpt>
 <trkpt lat="50.574494100" lon="6.466664100"><ele>342</ele><time>2013-07-05T15:18:05Z</time></trkpt>
 <trkpt lat="50.574454100" lon="6.466734900"><ele>342</ele><time>2013-07-05T15:18:09Z</time></trkpt>
 <trkpt lat="50.574417800" lon="6.466795800"><ele>341</ele><time>2013-07-05T15:18:13Z</time></trkpt>
 <trkpt lat="50.574391200" lon="6.466850800"><ele>341</ele><time>2013-07-05T15:18:17Z</time></trkpt>
 <trkpt lat="50.574360300" lon="6.466891200"><ele>340</ele><time>2013-07-05T15:18:21Z</time></trkpt>
 <trkpt lat="50.574327000" lon="6.466932900"><ele>340</ele><time>2013-07-05T15:18:25Z</time></trkpt>
 <trkpt lat="50.574271200" lon="6.466984900"><ele>339</ele><time>2013-07-05T15:18:29Z</time></trkpt>
 <trkpt lat="50.574261600" lon="6.467042400"><ele>339</ele><time>2013-07-05T15:18:33Z</time></trkpt>
 <trkpt lat="50.574235800" lon="6.467092800"><ele>338</ele><time>2013-07-05T15:18:37Z</time></trkpt>
 <trkpt lat="50.574213300" lon="6.467127000"><ele>338</ele><time>2013-07-05T15:18:41Z</time></trkpt>
 <trkpt lat="50.574182400" lon="6.467184900"><ele>337</ele><time>2013-07-05T15:18:45Z</time></trkpt>
 <trkpt lat="50.574142400" lon="6.467253700"><ele>337</ele><time>2013-07-05T15:18:49Z</time></trkpt>
 <trkpt lat="50.574115300" lon="6.467318700"><ele>336</ele><time>2013-07-05T15:18:53Z</time></trkpt>
 <trkpt lat="50.574082400" lon="6.467375300"><ele>336</ele><time>2013-07-05T15:18:57Z</time></trkpt>
 <trkpt lat="50.574044100" lon="6.467427400"><ele>335</ele><time>2013-07-05T15:19:01Z</time></trkpt>
 <trkpt lat="50.574002800" lon="6.467492900"><ele>335</ele><time>2013-07-05T15:19:05Z</time></trkpt>
 <trkpt lat="50.573959100" lon="6.467564900"><ele>334</ele><time>2013-07-05T15:19:09Z</time></trkpt>
 <trkpt lat="50.573939900" lon="6.467637400"><ele>334</ele><time>2013-07-05T15:19:13Z</time></trkpt>
 <trkpt lat="50.573922900" lon="6.467708700"><ele>334</ele><time>2013-07-05T15:19:17Z</time></trkpt>
 <trkpt lat="50.573900800" lon="6.467764900"><ele>333</ele><time>2013-07-05T15:19:21Z</time></trkpt>
 <trkpt lat="50.573889900" lon="6.467834500"><ele>333</ele><time>2013-07-05T15:19:25Z</time></trkpt>
 <trkpt lat="50.573875300" lon="6.467912000"><ele>333</ele><time>2013-07-05T15:19:29Z</time></trkpt>
 <trkpt lat="50.573862400" lon="6.467986200"><ele>332</ele><time>2013-07-05T15:19:33Z</time></trkpt>
 <trkpt lat="50.573846200" lon="6.468059100"><ele>332</ele><time>2013-07-05T15:19:37Z</time></trkpt>
 <trkpt lat="50.573815800" lon="6.468122400"><ele>332</ele><time>2013-07-05T15:19:41Z</time></trkpt>
 <trkpt lat="50.573805800" lon="6.468193300"><ele>332</ele><time>2013-07-05T15:19:45Z</time></trkpt>
 <trkpt lat="50.573803700" lon="6.468256600"><ele>332</ele><time>2013-07-05T15:19:49Z</time></trkpt>
 <trkpt lat="50.573789900" lon="6.468331200"><ele>332</ele><time>2013-07-05T15:19:53Z</time></trkpt>
 <trkpt lat="50.573762800" lon="6.468403300"><ele>332</ele><time>2013-07-05T15:19:57Z</time></trkpt>
 <trkpt lat="50.573758300" lon="6.468469100"><ele>332</ele><time>2013-07-05T15:20:01Z</time></trkpt>
 <trkpt lat="50.573753300" lon="6.468538300"><ele>332</ele><time>2013-07-05T15:20:05Z</time></trkpt>
 <trkpt lat="50.573778300" lon="6.468611200"><ele>332</ele><time>2013-07-05T15:20:09Z</time></trkpt>
 <trkpt lat="50.573803700" lon="6.468686600"><ele>332</ele><time>2013-07-05T15:20:13Z</time></trkpt>
 <trkpt lat="50.573814900" lon="6.468732800"><ele>332</ele><time>2013-07-05T15:20:17Z</time></trkpt>
 <trkpt lat="50.573844900" lon="6.468782900"><ele>332</ele><time>2013-07-05T15:20:21Z</time></trkpt>
 <trkpt lat="50.573850800" lon="6.468862400"><ele>332</ele><time>2013-07-05T15:20:25Z</time></trkpt>
 <trkpt lat="50.573851600" lon="6.468942000"><ele>333</ele><time>2013-07-05T15:20:29Z</time></trkpt>
 <trkpt lat="50.573860400" lon="6.469047800"><ele>333</ele><time>2013-07-05T15:20:33Z</time></trkpt>
 <trkpt lat="50.573874500" lon="6.469131200"><ele>333</ele><time>2013-07-05T15:20:37Z</time></trkpt>
 <trkpt lat="50.573877400" lon="6.469199100"><ele>333</ele><time>2013-07-05T15:20:41Z</time></trkpt>
 <trkpt lat="50.573880700" lon="6.469267000"><ele>334</ele><time>2013-07-05T15:20:45Z</time></trkpt>
 <trkpt lat="50.573882800" lon="6.469341600"><ele>334</ele><time>2013-07-05T15:20:49Z</time></trkpt>
 <trkpt lat="50.573887000" lon="6.469417400"><ele>335</ele><time>2013-07-05T15:20:53Z</time></trkpt>
 <trkpt lat="50.573881600" lon="6.469502800"><ele>336</ele><time>2013-07-05T15:20:57Z</time></trkpt>
 <trkpt lat="50.573877000" lon="6.469590400"><ele>336</ele><time>2013-07-05T15:21:01Z</time></trkpt>
 <trkpt lat="50.573874900" lon="6.469683700"><ele>337</ele><time>2013-07-05T15:21:05Z</time></trkpt>
 <trkpt lat="50.573863300" lon="6.469767000"><ele>338</ele><time>2013-07-05T15:21:09Z</time></trkpt>
 <trkpt lat="50.573861600" lon="6.469835700"><ele>339</ele><time>2013-07-05T15:21:13Z</time></trkpt>
 <trkpt lat="50.573853700" lon="6.469913700"><ele>339</ele><time>2013-07-05T15:21:17Z</time></trkpt>
 <trkpt lat="50.573843300" lon="6.469984100"><ele>340</ele><time>2013-07-05T15:21:21Z</time></trkpt>
 <trkpt lat="50.573836200" lon="6.470066200"><ele>341</ele><time>2013-07-05T15:21:25Z</time></trkpt>
 <trkpt lat="50.573833300" lon="6.470148300"><ele>342</ele><time>2013-07-05T15:21:29Z</time></trkpt>
 <trkpt lat="50.573829500" lon="6.470227400"><ele>342</ele><time>2013-07-05T15:21:33Z</time></trkpt>
 <trkpt lat="50.573801600" lon="6.470295300"><ele>343</ele><time>2013-07-05T15:21:37Z</time></trkpt>
 <trkpt lat="50.573779900" lon="6.470370400"><ele>343</ele><time>2013-07-05T15:21:41Z</time></trkpt>
 <trkpt lat="50.573759500" lon="6.470443300"><ele>344</ele><time>2013-07-05T15:21:45Z</time></trkpt>
 <trkpt lat="50.573759100" lon="6.470527000"><ele>344</ele><time>2013-07-05T15:21:49Z</time></trkpt>
 <trkpt lat="50.573750800" lon="6.470590300"><ele>344</ele><time>2013-07-05T15:21:53Z</time></trkpt>
 <trkpt lat="50.573727400" lon="6.470658700"><ele>344</ele><time>2013-07-05T15:21:57Z</time></trkpt>
 <trkpt lat="50.573701200" lon="6.470714100"><ele>344</ele><time>2013-07-05T15:22:01Z</time></trkpt>
 <trkpt lat="50.573665300" lon="6.470780800"><ele>344</ele><time>2013-07-05T15:22:05Z</time></trkpt>
 <trkpt lat="50.573646200" lon="6.470831600"><ele>344</ele><time>2013-07-05T15:22:09Z</time></trkpt>
 <trkpt lat="50.573633300" lon="6.470899900"><ele>343</ele><time>2013-07-05T15:22:13Z</time></trkpt>
 <trkpt lat="50.573616200" lon="6.470952900"><ele>343</ele><time>2013-07-05T15:22:17Z</time></trkpt>
 <trkpt lat="50.573590300" lon="6.471006600"><ele>342</ele><time>2013-07-05T15:22:21Z</time></trkpt>
 <trkpt lat="50.573561600" lon="6.471067000"><ele>341</ele><time>2013-07-05T15:22:25Z</time></trkpt>
 <trkpt lat="50.573540300" lon="6.471131200"><ele>341</ele><time>2013-07-05T15:22:29Z</time></trkpt>
 <trkpt lat="50.573507400" lon="6.471193300"><ele>340</ele><time>2013-07-05T15:22:33Z</time></trkpt>
 <trkpt lat="50.573479900" lon="6.471273700"><ele>339</ele><time>2013-07-05T15:22:37Z</time></trkpt>
 <trkpt lat="50.573483300" lon="6.471357400"><ele>339</ele><time>2013-07-05T15:22:41Z</time></trkpt>
 <trkpt lat="50.573477900" lon="6.471412900"><ele>338</ele><time>2013-07-05T15:22:45Z</time></trkpt>
 <trkpt lat="50.573460300" lon="6.471487900"><ele>337</ele><time>2013-07-05T15:22:49Z</time></trkpt>
 <trkpt lat="50.573446600" lon="6.471572400"><ele>336</ele><time>2013-07-05T15:22:53Z</time></trkpt>
 <trkpt lat="50.573439100" lon="6.471645300"><ele>336</ele><time>2013-07-05T15:22:57Z</time></trkpt>
 <trkpt lat="50.573430300" lon="6.471702000"><ele>335</ele><time>2013-07-05T15:23:01Z</time></trkpt>
 <trkpt lat="50.573422000" lon="6.471772400"><ele>334</ele><time>2013-07-05T15:23:05Z</time></trkpt>
 <trkpt lat="50.573415300" lon="6.471844500"><ele>334</ele><time>2013-07-05T15:23:09Z</time></trkpt>
 <trkpt lat="50.573417000" lon="6.471924900"><ele>333</ele><time>2013-07-05T15:23:13Z</time></trkpt>
 <trkpt lat="50.573413700" lon="6.471993700"><ele>333</ele><time>2013-07-05T15:23:17Z</time></trkpt>
 <trkpt lat="50.573403700" lon="6.472077000"><ele>332</ele><time>2013-07-05T15:23:21Z</time></trkpt>
 <trkpt lat="50.573396200" lon="6.472142400"><ele>332</ele><time>2013-07-05T15:23:25Z</time></trkpt>
 <trkpt lat="50.573374100" lon="6.472212000"><ele>331</ele><time>2013-07-05T15:23:29Z</time></trkpt>
 <trkpt lat="50.573345300" lon="6.472275800"><ele>330</ele><time>2013-07-05T15:23:33Z</time></trkpt>
 <trkpt lat="50.573319500" lon="6.472348700"><ele>330</ele><time>2013-07-05T15:23:37Z</time></trkpt>
 <trkpt lat="50.573288300" lon="6.472418300"><ele>329</ele><time>2013-07-05T15:23:41Z</time></trkpt>
 <trkpt lat="50.573258300" lon="6.472470300"><ele>329</ele><time>2013-07-05T15:23:45Z</time></trkpt>
 <trkpt lat="50.573229900" lon="6.472526600"><ele>328</ele><time>2013-07-05T15:23:49Z</time></trkpt>
 <trkpt lat="50.573207800" lon="6.472600800"><ele>328</ele><time>2013-07-05T15:23:53Z</time></trkpt>
 <trkpt lat="50.573194900" lon="6.472668700"><ele>327</ele><time>2013-07-05T15:23:57Z</time></trkpt>
 <trkpt lat="50.573184500" lon="6.472724900"><ele>327</ele><time>2013-07-05T15:24:01Z</time></trkpt>
 <trkpt lat="50.573162400" lon="6.472775300"><ele>327</ele><time>2013-07-05T15:24:05Z</time></trkpt>
 <trkpt lat="50.573155300" lon="6.472792400"><ele>326</ele><time>2013-07-05T15:24:09Z</time></trkpt>
 <trkpt lat="50.573159900" lon="6.472797000"><ele>326</ele><time>2013-07-05T15:24:13Z</time></trkpt>
 <trkpt lat="50.573169900" lon="6.472785300"><ele>326</ele><time>2013-07-05T15:24:17Z</time></trkpt>
 <trkpt lat="50.573162000" lon="6.472782800"><ele>326</ele><time>2013-07-05T15:24:21Z</time></trkpt>
 <trkpt lat="50.573150800" lon="6.472792800"><ele>325</ele><time>2013-07-05T15:24:25Z</time></trkpt>
 <trkpt lat="50.573150800" lon="6.472792800"><ele>325</ele><time>2013-07-05T15:24:29Z</time></trkpt>
 <trkpt lat="50.573150800" lon="6.472792800"><ele>325</ele><time>2013-07-05T15:24:33Z</time></trkpt>
 <trkpt lat="50.573149900" lon="6.472784100"><ele>325</ele><time>2013-07-05T15:24:37Z</time></trkpt>
 <trkpt lat="50.573144500" lon="6.472785800"><ele>325</ele><time>2013-07-05T15:24:41Z</time></trkpt>
 <trkpt lat="50.573144500" lon="6.472785800"><ele>325</ele><time>2013-07-05T15:24:45Z</time></trkpt>
 <trkpt lat="50.573144500" lon="6.472785800"><ele>325</ele><time>2013-07-05T15:24:49Z</time></trkpt>
 <trkpt lat="50.573144500" lon="6.472785800"><ele>325</ele><time>2013-07-05T15:24:53Z</time></trkpt>
 <trkpt lat="50.573149500" lon="6.472790000"><ele>325</ele><time>2013-07-05T15:24:57Z</time></trkpt>
 <trkpt lat="50.573149500" lon="6.472790000"><ele>325</ele><time>2013-07-05T15:25:01Z</time></trkpt>
 <trkpt lat="50.573155400" lon="6.472786600"><ele>326</ele><time>2013-07-05T15:25:05Z</time></trkpt>
 <trkpt lat="50.573160800" lon="6.472782400"><ele>326</ele><time>2013-07-05T15:25:09Z</time></trkpt>
 <trkpt lat="50.573167400" lon="6.472782800"><ele>326</ele><time>2013-07-05T15:25:13Z</time></trkpt>
 <trkpt lat="50.573174100" lon="6.472785000"><ele>326</ele><time>2013-07-05T15:25:17Z</time></trkpt>
 <trkpt lat="50.573180800" lon="6.472781200"><ele>325</ele><time>2013-07-05T15:25:21Z</time></trkpt>
 <trkpt lat="50.573185800" lon="6.472775300"><ele>325</ele><time>2013-07-05T15:25:25Z</time></trkpt>
 <trkpt lat="50.573190300" lon="6.472769100"><ele>325</ele><time>2013-07-05T15:25:29Z</time></trkpt>
 <trkpt lat="50.573190300" lon="6.472769100"><ele>325</ele><time>2013-07-05T15:25:33Z</time></trkpt>
 <trkpt lat="50.573196200" lon="6.472764100"><ele>325</ele><time>2013-07-05T15:25:37Z</time></trkpt>
 <trkpt lat="50.573208300" lon="6.472757000"><ele>325</ele><time>2013-07-05T15:25:41Z</time></trkpt>
 <trkpt lat="50.573214100" lon="6.472757400"><ele>325</ele><time>2013-07-05T15:25:45Z</time></trkpt>
 <trkpt lat="50.573214100" lon="6.472757400"><ele>325</ele><time>2013-07-05T15:25:49Z</time></trkpt>
 <trkpt lat="50.573219500" lon="6.472755400"><ele>325</ele><time>2013-07-05T15:25:53Z</time></trkpt>
 <trkpt lat="50.573213700" lon="6.472756200"><ele>325</ele><time>2013-07-05T15:25:57Z</time></trkpt>
 <trkpt lat="50.573219100" lon="6.472751600"><ele>325</ele><time>2013-07-05T15:26:01Z</time></trkpt>
 <trkpt lat="50.573232800" lon="6.472754500"><ele>325</ele><time>2013-07-05T15:26:05Z</time></trkpt>
 <trkpt lat="50.573236600" lon="6.472769900"><ele>325</ele><time>2013-07-05T15:26:09Z</time></trkpt>
 <trkpt lat="50.573231600" lon="6.472833700"><ele>325</ele><time>2013-07-05T15:26:13Z</time></trkpt>
 <trkpt lat="50.573240800" lon="6.472879500"><ele>324</ele><time>2013-07-05T15:26:17Z</time></trkpt>
 <trkpt lat="50.573256200" lon="6.472920400"><ele>324</ele><time>2013-07-05T15:26:21Z</time></trkpt>
 <trkpt lat="50.573270800" lon="6.472991200"><ele>324</ele><time>2013-07-05T15:26:25Z</time></trkpt>
 <trkpt lat="50.573307800" lon="6.473040800"><ele>324</ele><time>2013-07-05T15:26:29Z</time></trkpt>
 <trkpt lat="50.573344500" lon="6.473098700"><ele>324</ele><time>2013-07-05T15:26:33Z</time></trkpt>
 <trkpt lat="50.573364900" lon="6.473167800"><ele>324</ele><time>2013-07-05T15:26:37Z</time></trkpt>
 <trkpt lat="50.573382400" lon="6.473244100"><ele>324</ele><time>2013-07-05T15:26:41Z</time></trkpt>
 <trkpt lat="50.573407400" lon="6.473304500"><ele>324</ele><time>2013-07-05T15:26:45Z</time></trkpt>
 <trkpt lat="50.573431600" lon="6.473365800"><ele>324</ele><time>2013-07-05T15:26:49Z</time></trkpt>
 <trkpt lat="50.573448700" lon="6.473419100"><ele>324</ele><time>2013-07-05T15:26:53Z</time></trkpt>
 <trkpt lat="50.573462400" lon="6.473473700"><ele>324</ele><time>2013-07-05T15:26:57Z</time></trkpt>
 <trkpt lat="50.573447400" lon="6.473562400"><ele>324</ele><time>2013-07-05T15:27:01Z</time></trkpt>
 <trkpt lat="50.573442400" lon="6.473567400"><ele>324</ele><time>2013-07-05T15:27:05Z</time></trkpt>
 <trkpt lat="50.573440400" lon="6.473586600"><ele>324</ele><time>2013-07-05T15:27:09Z</time></trkpt>
 <trkpt lat="50.573460800" lon="6.473589900"><ele>324</ele><time>2013-07-05T15:27:13Z</time></trkpt>
 <trkpt lat="50.573514500" lon="6.473617000"><ele>324</ele><time>2013-07-05T15:27:17Z</time></trkpt>
 <trkpt lat="50.573545300" lon="6.473664100"><ele>324</ele><time>2013-07-05T15:27:21Z</time></trkpt>
 <trkpt lat="50.573579500" lon="6.473689500"><ele>325</ele><time>2013-07-05T15:27:25Z</time></trkpt>
 <trkpt lat="50.573610800" lon="6.473751600"><ele>325</ele><time>2013-07-05T15:27:29Z</time></trkpt>
 <trkpt lat="50.573635700" lon="6.473809100"><ele>325</ele><time>2013-07-05T15:27:33Z</time></trkpt>
 <trkpt lat="50.573649100" lon="6.473874500"><ele>326</ele><time>2013-07-05T15:27:37Z</time></trkpt>
 <trkpt lat="50.573678300" lon="6.473933300"><ele>326</ele><time>2013-07-05T15:27:41Z</time></trkpt>
 <trkpt lat="50.573708700" lon="6.474002400"><ele>327</ele><time>2013-07-05T15:27:45Z</time></trkpt>
 <trkpt lat="50.573724500" lon="6.474072400"><ele>328</ele><time>2013-07-05T15:27:49Z</time></trkpt>
 <trkpt lat="50.573745800" lon="6.474164500"><ele>328</ele><time>2013-07-05T15:27:53Z</time></trkpt>
 <trkpt lat="50.573767900" lon="6.474234900"><ele>329</ele><time>2013-07-05T15:27:57Z</time></trkpt>
 <trkpt lat="50.573793700" lon="6.474295800"><ele>330</ele><time>2013-07-05T15:28:01Z</time></trkpt>
 <trkpt lat="50.573814500" lon="6.474368700"><ele>331</ele><time>2013-07-05T15:28:05Z</time></trkpt>
 <trkpt lat="50.573837000" lon="6.474460800"><ele>332</ele><time>2013-07-05T15:28:09Z</time></trkpt>
 <trkpt lat="50.573868700" lon="6.474529900"><ele>334</ele><time>2013-07-05T15:28:13Z</time></trkpt>
 <trkpt lat="50.573894100" lon="6.474587000"><ele>335</ele><time>2013-07-05T15:28:17Z</time></trkpt>
 <trkpt lat="50.573929500" lon="6.474653300"><ele>336</ele><time>2013-07-05T15:28:21Z</time></trkpt>
 <trkpt lat="50.573960300" lon="6.474712400"><ele>338</ele><time>2013-07-05T15:28:25Z</time></trkpt>
 <trkpt lat="50.574013700" lon="6.474740800"><ele>340</ele><time>2013-07-05T15:28:29Z</time></trkpt>
 <trkpt lat="50.574061600" lon="6.474770800"><ele>341</ele><time>2013-07-05T15:28:33Z</time></trkpt>
 <trkpt lat="50.574103300" lon="6.474826600"><ele>343</ele><time>2013-07-05T15:28:37Z</time></trkpt>
 <trkpt lat="50.574139900" lon="6.474881600"><ele>344</ele><time>2013-07-05T15:28:41Z</time></trkpt>
 <trkpt lat="50.574147000" lon="6.474949500"><ele>346</ele><time>2013-07-05T15:28:45Z</time></trkpt>
 <trkpt lat="50.574134500" lon="6.475044100"><ele>347</ele><time>2013-07-05T15:28:49Z</time></trkpt>
 <trkpt lat="50.574115400" lon="6.475140300"><ele>349</ele><time>2013-07-05T15:28:53Z</time></trkpt>
 <trkpt lat="50.574091200" lon="6.475240800"><ele>350</ele><time>2013-07-05T15:28:57Z</time></trkpt>
 <trkpt lat="50.574092800" lon="6.475317800"><ele>352</ele><time>2013-07-05T15:29:01Z</time></trkpt>
 <trkpt lat="50.574113700" lon="6.475379100"><ele>353</ele><time>2013-07-05T15:29:05Z</time></trkpt>
 <trkpt lat="50.574135700" lon="6.475440800"><ele>355</ele><time>2013-07-05T15:29:09Z</time></trkpt>
 <trkpt lat="50.574168300" lon="6.475512900"><ele>357</ele><time>2013-07-05T15:29:13Z</time></trkpt>
 <trkpt lat="50.574204900" lon="6.475590300"><ele>358</ele><time>2013-07-05T15:29:17Z</time></trkpt>
 <trkpt lat="50.574265300" lon="6.475626200"><ele>360</ele><time>2013-07-05T15:29:21Z</time></trkpt>
 <trkpt lat="50.574322000" lon="6.475646600"><ele>362</ele><time>2013-07-05T15:29:25Z</time></trkpt>
 <trkpt lat="50.574365800" lon="6.475667400"><ele>363</ele><time>2013-07-05T15:29:29Z</time></trkpt>
 <trkpt lat="50.574399100" lon="6.475717000"><ele>365</ele><time>2013-07-05T15:29:33Z</time></trkpt>
 <trkpt lat="50.574434900" lon="6.475750400"><ele>367</ele><time>2013-07-05T15:29:37Z</time></trkpt>
 <trkpt lat="50.574492400" lon="6.475759900"><ele>368</ele><time>2013-07-05T15:29:41Z</time></trkpt>
 <trkpt lat="50.574552900" lon="6.475770300"><ele>370</ele><time>2013-07-05T15:29:45Z</time></trkpt>
 <trkpt lat="50.574627000" lon="6.475799500"><ele>372</ele><time>2013-07-05T15:29:49Z</time></trkpt>
 <trkpt lat="50.574697000" lon="6.475845800"><ele>374</ele><time>2013-07-05T15:29:53Z</time></trkpt>
 <trkpt lat="50.574741600" lon="6.475926200"><ele>377</ele><time>2013-07-05T15:29:57Z</time></trkpt>
 <trkpt lat="50.574779500" lon="6.476015300"><ele>379</ele><time>2013-07-05T15:30:01Z</time></trkpt>
 <trkpt lat="50.574814100" lon="6.476095300"><ele>381</ele><time>2013-07-05T15:30:05Z</time></trkpt>
 <trkpt lat="50.574834100" lon="6.476181600"><ele>383</ele><time>2013-07-05T15:30:09Z</time></trkpt>
 <trkpt lat="50.574855800" lon="6.476252800"><ele>385</ele><time>2013-07-05T15:30:13Z</time></trkpt>
 <trkpt lat="50.574886200" lon="6.476322400"><ele>387</ele><time>2013-07-05T15:30:17Z</time></trkpt>
 <trkpt lat="50.574929500" lon="6.476373700"><ele>388</ele><time>2013-07-05T15:30:21Z</time></trkpt>
 <trkpt lat="50.574968700" lon="6.476434500"><ele>390</ele><time>2013-07-05T15:30:25Z</time></trkpt>
 <trkpt lat="50.574964500" lon="6.476517000"><ele>391</ele><time>2013-07-05T15:30:29Z</time></trkpt>
 <trkpt lat="50.575002000" lon="6.476571200"><ele>392</ele><time>2013-07-05T15:30:33Z</time></trkpt>
 <trkpt lat="50.575022900" lon="6.476661600"><ele>393</ele><time>2013-07-05T15:30:37Z</time></trkpt>
 <trkpt lat="50.575027400" lon="6.476751200"><ele>394</ele><time>2013-07-05T15:30:41Z</time></trkpt>
 <trkpt lat="50.575044900" lon="6.476835800"><ele>395</ele><time>2013-07-05T15:30:45Z</time></trkpt>
 <trkpt lat="50.575045300" lon="6.476914100"><ele>395</ele><time>2013-07-05T15:30:49Z</time></trkpt>
 <trkpt lat="50.575043700" lon="6.477015400"><ele>394</ele><time>2013-07-05T15:30:53Z</time></trkpt>
 <trkpt lat="50.575023300" lon="6.477102900"><ele>394</ele><time>2013-07-05T15:30:57Z</time></trkpt>
 <trkpt lat="50.574966200" lon="6.477239500"><ele>393</ele><time>2013-07-05T15:31:01Z</time></trkpt>
 <trkpt lat="50.574883300" lon="6.477417500"><ele>392</ele><time>2013-07-05T15:31:05Z</time></trkpt>
 <trkpt lat="50.574843700" lon="6.477499900"><ele>391</ele><time>2013-07-05T15:31:09Z</time></trkpt>
 <trkpt lat="50.574822400" lon="6.477584500"><ele>390</ele><time>2013-07-05T15:31:13Z</time></trkpt>
 <trkpt lat="50.574802800" lon="6.477650400"><ele>388</ele><time>2013-07-05T15:31:17Z</time></trkpt>
 <trkpt lat="50.574802000" lon="6.477699900"><ele>387</ele><time>2013-07-05T15:31:21Z</time></trkpt>
 <trkpt lat="50.574837800" lon="6.477742400"><ele>386</ele><time>2013-07-05T15:31:25Z</time></trkpt>
 <trkpt lat="50.574871200" lon="6.477768700"><ele>385</ele><time>2013-07-05T15:31:29Z</time></trkpt>
 <trkpt lat="50.574918700" lon="6.477796200"><ele>384</ele><time>2013-07-05T15:31:33Z</time></trkpt>
 <trkpt lat="50.574954900" lon="6.477841600"><ele>383</ele><time>2013-07-05T15:31:37Z</time></trkpt>
 <trkpt lat="50.575005700" lon="6.477867800"><ele>382</ele><time>2013-07-05T15:31:41Z</time></trkpt>
 <trkpt lat="50.575047000" lon="6.477906600"><ele>382</ele><time>2013-07-05T15:31:45Z</time></trkpt>
 <trkpt lat="50.575126200" lon="6.477899100"><ele>382</ele><time>2013-07-05T15:31:49Z</time></trkpt>
 <trkpt lat="50.575172800" lon="6.477931600"><ele>382</ele><time>2013-07-05T15:31:53Z</time></trkpt>
 <trkpt lat="50.575207000" lon="6.477977000"><ele>382</ele><time>2013-07-05T15:31:57Z</time></trkpt>
 <trkpt lat="50.575262400" lon="6.478008300"><ele>383</ele><time>2013-07-05T15:32:01Z</time></trkpt>
 <trkpt lat="50.575308300" lon="6.478039900"><ele>384</ele><time>2013-07-05T15:32:05Z</time></trkpt>
 <trkpt lat="50.575332900" lon="6.478102800"><ele>384</ele><time>2013-07-05T15:32:09Z</time></trkpt>
 <trkpt lat="50.575351200" lon="6.478176600"><ele>385</ele><time>2013-07-05T15:32:13Z</time></trkpt>
 <trkpt lat="50.575374500" lon="6.478255800"><ele>385</ele><time>2013-07-05T15:32:17Z</time></trkpt>
 <trkpt lat="50.575382800" lon="6.478347000"><ele>386</ele><time>2013-07-05T15:32:21Z</time></trkpt>
 <trkpt lat="50.575343300" lon="6.478479500"><ele>387</ele><time>2013-07-05T15:32:25Z</time></trkpt>
 <trkpt lat="50.575321200" lon="6.478587000"><ele>387</ele><time>2013-07-05T15:32:29Z</time></trkpt>
 <trkpt lat="50.575370300" lon="6.478624100"><ele>387</ele><time>2013-07-05T15:32:33Z</time></trkpt>
 <trkpt lat="50.575410300" lon="6.478675700"><ele>387</ele><time>2013-07-05T15:32:37Z</time></trkpt>
 <trkpt lat="50.575437000" lon="6.478745800"><ele>386</ele><time>2013-07-05T15:32:41Z</time></trkpt>
 <trkpt lat="50.575394100" lon="6.478867400"><ele>386</ele><time>2013-07-05T15:32:45Z</time></trkpt>
 <trkpt lat="50.575402000" lon="6.478935300"><ele>385</ele><time>2013-07-05T15:32:49Z</time></trkpt>
 <trkpt lat="50.575382800" lon="6.479034500"><ele>385</ele><time>2013-07-05T15:32:53Z</time></trkpt>
 <trkpt lat="50.575380800" lon="6.479111600"><ele>384</ele><time>2013-07-05T15:32:57Z</time></trkpt>
 <trkpt lat="50.575388300" lon="6.479182000"><ele>383</ele><time>2013-07-05T15:33:01Z</time></trkpt>
 <trkpt lat="50.575419100" lon="6.479215800"><ele>383</ele><time>2013-07-05T15:33:05Z</time></trkpt>
 <trkpt lat="50.575452900" lon="6.479260800"><ele>382</ele><time>2013-07-05T15:33:09Z</time></trkpt>
 <trkpt lat="50.575487800" lon="6.479299500"><ele>381</ele><time>2013-07-05T15:33:13Z</time></trkpt>
 <trkpt lat="50.575511200" lon="6.479317000"><ele>381</ele><time>2013-07-05T15:33:17Z</time></trkpt>
 <trkpt lat="50.575537900" lon="6.479364100"><ele>380</ele><time>2013-07-05T15:33:21Z</time></trkpt>
 <trkpt lat="50.575570400" lon="6.479429500"><ele>380</ele><time>2013-07-05T15:33:25Z</time></trkpt>
 <trkpt lat="50.575608300" lon="6.479485800"><ele>379</ele><time>2013-07-05T15:33:29Z</time></trkpt>
 <trkpt lat="50.575635800" lon="6.479529500"><ele>379</ele><time>2013-07-05T15:33:33Z</time></trkpt>
 <trkpt lat="50.575657400" lon="6.479572800"><ele>379</ele><time>2013-07-05T15:33:37Z</time></trkpt>
 <trkpt lat="50.575682000" lon="6.479607800"><ele>379</ele><time>2013-07-05T15:33:41Z</time></trkpt>
 <trkpt lat="50.575707000" lon="6.479666200"><ele>378</ele><time>2013-07-05T15:33:45Z</time></trkpt>
 <trkpt lat="50.575708300" lon="6.479767400"><ele>378</ele><time>2013-07-05T15:33:49Z</time></trkpt>
 <trkpt lat="50.575692400" lon="6.479877800"><ele>378</ele><time>2013-07-05T15:33:53Z</time></trkpt>
 <trkpt lat="50.575648700" lon="6.479982800"><ele>378</ele><time>2013-07-05T15:33:57Z</time></trkpt>
 <trkpt lat="50.575621200" lon="6.480070300"><ele>377</ele><time>2013-07-05T15:34:01Z</time></trkpt>
 <trkpt lat="50.575609500" lon="6.480129900"><ele>377</ele><time>2013-07-05T15:34:05Z</time></trkpt>
 <trkpt lat="50.575580300" lon="6.480234500"><ele>377</ele><time>2013-07-05T15:34:09Z</time></trkpt>
 <trkpt lat="50.575577900" lon="6.480299900"><ele>377</ele><time>2013-07-05T15:34:13Z</time></trkpt>
 <trkpt lat="50.575586600" lon="6.480364100"><ele>377</ele><time>2013-07-05T15:34:17Z</time></trkpt>
 <trkpt lat="50.575603300" lon="6.480415300"><ele>376</ele><time>2013-07-05T15:34:21Z</time></trkpt>
 <trkpt lat="50.575620300" lon="6.480471200"><ele>376</ele><time>2013-07-05T15:34:25Z</time></trkpt>
 <trkpt lat="50.575652000" lon="6.480517800"><ele>376</ele><time>2013-07-05T15:34:29Z</time></trkpt>
 <trkpt lat="50.575678700" lon="6.480576200"><ele>376</ele><time>2013-07-05T15:34:33Z</time></trkpt>
 <trkpt lat="50.575693300" lon="6.480659100"><ele>376</ele><time>2013-07-05T15:34:37Z</time></trkpt>
 <trkpt lat="50.575713300" lon="6.480719900"><ele>376</ele><time>2013-07-05T15:34:41Z</time></trkpt>
 <trkpt lat="50.575744900" lon="6.480788700"><ele>376</ele><time>2013-07-05T15:34:45Z</time></trkpt>
 <trkpt lat="50.575759900" lon="6.480859900"><ele>377</ele><time>2013-07-05T15:34:49Z</time></trkpt>
 <trkpt lat="50.575784500" lon="6.480924500"><ele>377</ele><time>2013-07-05T15:34:53Z</time></trkpt>
 <trkpt lat="50.575809900" lon="6.480987900"><ele>377</ele><time>2013-07-05T15:34:57Z</time></trkpt>
 <trkpt lat="50.575837800" lon="6.481058300"><ele>378</ele><time>2013-07-05T15:35:01Z</time></trkpt>
 <trkpt lat="50.575849500" lon="6.481141600"><ele>378</ele><time>2013-07-05T15:35:05Z</time></trkpt>
 <trkpt lat="50.575816200" lon="6.481269100"><ele>378</ele><time>2013-07-05T15:35:09Z</time></trkpt>
 <trkpt lat="50.575855800" lon="6.481318200"><ele>377</ele><time>2013-07-05T15:35:13Z</time></trkpt>
 <trkpt lat="50.575885700" lon="6.481384500"><ele>377</ele><time>2013-07-05T15:35:17Z</time></trkpt>
 <trkpt lat="50.575922000" lon="6.481431600"><ele>376</ele><time>2013-07-05T15:35:21Z</time></trkpt>
 <trkpt lat="50.575959900" lon="6.481487400"><ele>376</ele><time>2013-07-05T15:35:25Z</time></trkpt>
 <trkpt lat="50.575923700" lon="6.481613300"><ele>375</ele><time>2013-07-05T15:35:29Z</time></trkpt>
 <trkpt lat="50.575910800" lon="6.481720400"><ele>374</ele><time>2013-07-05T15:35:33Z</time></trkpt>
 <trkpt lat="50.575893700" lon="6.481812900"><ele>372</ele><time>2013-07-05T15:35:37Z</time></trkpt>
 <trkpt lat="50.575890800" lon="6.481903700"><ele>371</ele><time>2013-07-05T15:35:41Z</time></trkpt>
 <trkpt lat="50.575877400" lon="6.481991200"><ele>370</ele><time>2013-07-05T15:35:45Z</time></trkpt>
 <trkpt lat="50.575889900" lon="6.482022400"><ele>369</ele><time>2013-07-05T15:35:49Z</time></trkpt>
 <trkpt lat="50.575916600" lon="6.482063300"><ele>367</ele><time>2013-07-05T15:35:53Z</time></trkpt>
 <trkpt lat="50.575936600" lon="6.482121200"><ele>366</ele><time>2013-07-05T15:35:57Z</time></trkpt>
 <trkpt lat="50.575947400" lon="6.482177800"><ele>364</ele><time>2013-07-05T15:36:01Z</time></trkpt>
 <trkpt lat="50.575957800" lon="6.482253300"><ele>363</ele><time>2013-07-05T15:36:05Z</time></trkpt>
 <trkpt lat="50.575954100" lon="6.482312900"><ele>361</ele><time>2013-07-05T15:36:09Z</time></trkpt>
 <trkpt lat="50.575951600" lon="6.482381600"><ele>359</ele><time>2013-07-05T15:36:13Z</time></trkpt>
 <trkpt lat="50.575928700" lon="6.482465800"><ele>358</ele><time>2013-07-05T15:36:17Z</time></trkpt>
 <trkpt lat="50.575902400" lon="6.482564900"><ele>356</ele><time>2013-07-05T15:36:21Z</time></trkpt>
 <trkpt lat="50.575900800" lon="6.482612000"><ele>354</ele><time>2013-07-05T15:36:25Z</time></trkpt>
 <trkpt lat="50.575899100" lon="6.482678700"><ele>353</ele><time>2013-07-05T15:36:29Z</time></trkpt>
 <trkpt lat="50.575876200" lon="6.482762400"><ele>351</ele><time>2013-07-05T15:36:33Z</time></trkpt>
 <trkpt lat="50.575886600" lon="6.482824900"><ele>350</ele><time>2013-07-05T15:36:37Z</time></trkpt>
 <trkpt lat="50.575917800" lon="6.482814100"><ele>349</ele><time>2013-07-05T15:36:41Z</time></trkpt>
 <trkpt lat="50.575954500" lon="6.482797000"><ele>347</ele><time>2013-07-05T15:36:45Z</time></trkpt>
 <trkpt lat="50.576002400" lon="6.482762000"><ele>346</ele><time>2013-07-05T15:36:49Z</time></trkpt>
 <trkpt lat="50.576054500" lon="6.482742900"><ele>344</ele><time>2013-07-05T15:36:53Z</time></trkpt>
 <trkpt lat="50.576110300" lon="6.482718700"><ele>343</ele><time>2013-07-05T15:36:57Z</time></trkpt>
 <trkpt lat="50.576149100" lon="6.482696600"><ele>341</ele><time>2013-07-05T15:37:01Z</time></trkpt>
 <trkpt lat="50.576191200" lon="6.482670800"><ele>339</ele><time>2013-07-05T15:37:05Z</time></trkpt>
 <trkpt lat="50.576242400" lon="6.482638200"><ele>338</ele><time>2013-07-05T15:37:09Z</time></trkpt>
 <trkpt lat="50.576285800" lon="6.482609100"><ele>336</ele><time>2013-07-05T15:37:13Z</time></trkpt>
 <trkpt lat="50.576321200" lon="6.482577400"><ele>335</ele><time>2013-07-05T15:37:17Z</time></trkpt>
 <trkpt lat="50.576353200" lon="6.482561200"><ele>333</ele><time>2013-07-05T15:37:21Z</time></trkpt>
 <trkpt lat="50.576384100" lon="6.482538300"><ele>332</ele><time>2013-07-05T15:37:25Z</time></trkpt>
 <trkpt lat="50.576411200" lon="6.482527400"><ele>330</ele><time>2013-07-05T15:37:29Z</time></trkpt>
 <trkpt lat="50.576458700" lon="6.482496200"><ele>329</ele><time>2013-07-05T15:37:33Z</time></trkpt>
 <trkpt lat="50.576491200" lon="6.482467400"><ele>327</ele><time>2013-07-05T15:37:37Z</time></trkpt>
 <trkpt lat="50.576532900" lon="6.482430800"><ele>326</ele><time>2013-07-05T15:37:41Z</time></trkpt>
 <trkpt lat="50.576569900" lon="6.482397800"><ele>324</ele><time>2013-07-05T15:37:45Z</time></trkpt>
 <trkpt lat="50.576616200" lon="6.482362400"><ele>322</ele><time>2013-07-05T15:37:49Z</time></trkpt>
 <trkpt lat="50.576655800" lon="6.482342400"><ele>320</ele><time>2013-07-05T15:37:53Z</time></trkpt>
 <trkpt lat="50.576696200" lon="6.482376600"><ele>319</ele><time>2013-07-05T15:37:57Z</time></trkpt>
 <trkpt lat="50.576750400" lon="6.482390800"><ele>317</ele><time>2013-07-05T15:38:01Z</time></trkpt>
 <trkpt lat="50.576819900" lon="6.482399900"><ele>315</ele><time>2013-07-05T15:38:05Z</time></trkpt>
 <trkpt lat="50.576850400" lon="6.482397000"><ele>313</ele><time>2013-07-05T15:38:09Z</time></trkpt>
 <trkpt lat="50.576855800" lon="6.482397900"><ele>311</ele><time>2013-07-05T15:38:13Z</time></trkpt>
 <trkpt lat="50.576893700" lon="6.482402400"><ele>309</ele><time>2013-07-05T15:38:17Z</time></trkpt>
 <trkpt lat="50.576935800" lon="6.482374900"><ele>308</ele><time>2013-07-05T15:38:21Z</time></trkpt>
 <trkpt lat="50.576963700" lon="6.482344100"><ele>306</ele><time>2013-07-05T15:38:25Z</time></trkpt>
 <trkpt lat="50.576862000" lon="6.482272900"><ele>304</ele><time>2013-07-05T15:38:29Z</time></trkpt>
 <trkpt lat="50.576820800" lon="6.482249900"><ele>303</ele><time>2013-07-05T15:38:33Z</time></trkpt>
 <trkpt lat="50.576798700" lon="6.482209900"><ele>301</ele><time>2013-07-05T15:38:37Z</time></trkpt>
 <trkpt lat="50.576849500" lon="6.482170300"><ele>300</ele><time>2013-07-05T15:38:41Z</time></trkpt>
 <trkpt lat="50.576853300" lon="6.482205300"><ele>298</ele><time>2013-07-05T15:38:45Z</time></trkpt>
 <trkpt lat="50.576872400" lon="6.482197000"><ele>297</ele><time>2013-07-05T15:38:49Z</time></trkpt>
 <trkpt lat="50.576900400" lon="6.482202000"><ele>296</ele><time>2013-07-05T15:38:53Z</time></trkpt>
 <trkpt lat="50.576942900" lon="6.482236200"><ele>294</ele><time>2013-07-05T15:38:57Z</time></trkpt>
 <trkpt lat="50.576973700" lon="6.482271600"><ele>293</ele><time>2013-07-05T15:39:01Z</time></trkpt>
 <trkpt lat="50.577011600" lon="6.482292000"><ele>292</ele><time>2013-07-05T15:39:05Z</time></trkpt>
 <trkpt lat="50.576992400" lon="6.482367000"><ele>290</ele><time>2013-07-05T15:39:09Z</time></trkpt>
 <trkpt lat="50.577051600" lon="6.482377400"><ele>289</ele><time>2013-07-05T15:39:13Z</time></trkpt>
 <trkpt lat="50.577114900" lon="6.482386200"><ele>288</ele><time>2013-07-05T15:39:17Z</time></trkpt>
 <trkpt lat="50.577128300" lon="6.482440800"><ele>287</ele><time>2013-07-05T15:39:21Z</time></trkpt>
 <trkpt lat="50.577139100" lon="6.482496200"><ele>286</ele><time>2013-07-05T15:39:25Z</time></trkpt>
 <trkpt lat="50.577167900" lon="6.482508300"><ele>285</ele><time>2013-07-05T15:39:29Z</time></trkpt>
 <trkpt lat="50.577187400" lon="6.482563300"><ele>285</ele><time>2013-07-05T15:39:33Z</time></trkpt>
 <trkpt lat="50.577217800" lon="6.482589900"><ele>284</ele><time>2013-07-05T15:39:37Z</time></trkpt>
 <trkpt lat="50.577274500" lon="6.482589100"><ele>283</ele><time>2013-07-05T15:39:41Z</time></trkpt>
 <trkpt lat="50.577380800" lon="6.482534100"><ele>283</ele><time>2013-07-05T15:39:45Z</time></trkpt>
 <trkpt lat="50.577440800" lon="6.482512000"><ele>282</ele><time>2013-07-05T15:39:49Z</time></trkpt>
 <trkpt lat="50.577464100" lon="6.482512800"><ele>282</ele><time>2013-07-05T15:39:53Z</time></trkpt>
 <trkpt lat="50.577457400" lon="6.482529100"><ele>282</ele><time>2013-07-05T15:39:57Z</time></trkpt>
 <trkpt lat="50.577449500" lon="6.482505800"><ele>282</ele><time>2013-07-05T15:40:01Z</time></trkpt>
 <trkpt lat="50.577465400" lon="6.482467900"><ele>282</ele><time>2013-07-05T15:40:05Z</time></trkpt>
 <trkpt lat="50.577479900" lon="6.482402400"><ele>283</ele><time>2013-07-05T15:40:09Z</time></trkpt>
 <trkpt lat="50.577489500" lon="6.482327800"><ele>283</ele><time>2013-07-05T15:40:13Z</time></trkpt>
 <trkpt lat="50.577502900" lon="6.482245700"><ele>284</ele><time>2013-07-05T15:40:17Z</time></trkpt>
 <trkpt lat="50.577518700" lon="6.482161600"><ele>285</ele><time>2013-07-05T15:40:21Z</time></trkpt>
 <trkpt lat="50.577562400" lon="6.482076600"><ele>286</ele><time>2013-07-05T15:40:25Z</time></trkpt>
 <trkpt lat="50.577612400" lon="6.481993700"><ele>287</ele><time>2013-07-05T15:40:29Z</time></trkpt>
 <trkpt lat="50.577673700" lon="6.481913300"><ele>287</ele><time>2013-07-05T15:40:33Z</time></trkpt>
 <trkpt lat="50.577724900" lon="6.481849900"><ele>288</ele><time>2013-07-05T15:40:37Z</time></trkpt>
 <trkpt lat="50.577772800" lon="6.481791600"><ele>289</ele><time>2013-07-05T15:40:41Z</time></trkpt>
 <trkpt lat="50.577818300" lon="6.481744900"><ele>290</ele><time>2013-07-05T15:40:45Z</time></trkpt>
 <trkpt lat="50.577831600" lon="6.481718700"><ele>291</ele><time>2013-07-05T15:40:49Z</time></trkpt>
 <trkpt lat="50.577858700" lon="6.481679100"><ele>292</ele><time>2013-07-05T15:40:53Z</time></trkpt>
 <trkpt lat="50.577904900" lon="6.481647000"><ele>293</ele><time>2013-07-05T15:40:57Z</time></trkpt>
 <trkpt lat="50.577927000" lon="6.481604500"><ele>295</ele><time>2013-07-05T15:41:01Z</time></trkpt>
 <trkpt lat="50.577929100" lon="6.481582400"><ele>296</ele><time>2013-07-05T15:41:05Z</time></trkpt>
 <trkpt lat="50.577924500" lon="6.481587800"><ele>297</ele><time>2013-07-05T15:41:09Z</time></trkpt>
 <trkpt lat="50.577939500" lon="6.481597900"><ele>298</ele><time>2013-07-05T15:41:13Z</time></trkpt>
 <trkpt lat="50.577957000" lon="6.481607400"><ele>299</ele><time>2013-07-05T15:41:17Z</time></trkpt>
 <trkpt lat="50.577957000" lon="6.481607400"><ele>300</ele><time>2013-07-05T15:41:21Z</time></trkpt>
 <trkpt lat="50.577957000" lon="6.481607400"><ele>300</ele><time>2013-07-05T15:41:25Z</time></trkpt>
 <trkpt lat="50.578015800" lon="6.481615300"><ele>301</ele><time>2013-07-05T15:41:29Z</time></trkpt>
 <trkpt lat="50.578018700" lon="6.481592000"><ele>302</ele><time>2013-07-05T15:41:33Z</time></trkpt>
 <trkpt lat="50.578023700" lon="6.481553700"><ele>303</ele><time>2013-07-05T15:41:37Z</time></trkpt>
 <trkpt lat="50.578047000" lon="6.481502000"><ele>303</ele><time>2013-07-05T15:41:41Z</time></trkpt>
 <trkpt lat="50.578084100" lon="6.481424500"><ele>303</ele><time>2013-07-05T15:41:45Z</time></trkpt>
 <trkpt lat="50.578114900" lon="6.481360300"><ele>304</ele><time>2013-07-05T15:41:49Z</time></trkpt>
 <trkpt lat="50.578155300" lon="6.481343300"><ele>304</ele><time>2013-07-05T15:41:53Z</time></trkpt>
 <trkpt lat="50.578192400" lon="6.481348300"><ele>304</ele><time>2013-07-05T15:41:57Z</time></trkpt>
 <trkpt lat="50.578219900" lon="6.481398300"><ele>304</ele><time>2013-07-05T15:42:01Z</time></trkpt>
 <trkpt lat="50.578245300" lon="6.481449500"><ele>305</ele><time>2013-07-05T15:42:05Z</time></trkpt>
 <trkpt lat="50.578280800" lon="6.481505300"><ele>305</ele><time>2013-07-05T15:42:09Z</time></trkpt>
 <trkpt lat="50.578314100" lon="6.481554500"><ele>305</ele><time>2013-07-05T15:42:13Z</time></trkpt>
 <trkpt lat="50.578337800" lon="6.481642400"><ele>305</ele><time>2013-07-05T15:42:17Z</time></trkpt>
 <trkpt lat="50.578366200" lon="6.481732400"><ele>306</ele><time>2013-07-05T15:42:21Z</time></trkpt>
 <trkpt lat="50.578390300" lon="6.481803300"><ele>306</ele><time>2013-07-05T15:42:25Z</time></trkpt>
 <trkpt lat="50.578409100" lon="6.481884100"><ele>306</ele><time>2013-07-05T15:42:29Z</time></trkpt>
 <trkpt lat="50.578419500" lon="6.481969100"><ele>307</ele><time>2013-07-05T15:42:33Z</time></trkpt>
 <trkpt lat="50.578412400" lon="6.482050800"><ele>308</ele><time>2013-07-05T15:42:37Z</time></trkpt>
 <trkpt lat="50.578407400" lon="6.482133300"><ele>308</ele><time>2013-07-05T15:42:41Z</time></trkpt>
 <trkpt lat="50.578419100" lon="6.482213200"><ele>309</ele><time>2013-07-05T15:42:45Z</time></trkpt>
 <trkpt lat="50.578435800" lon="6.482286200"><ele>310</ele><time>2013-07-05T15:42:49Z</time></trkpt>
 <trkpt lat="50.578454500" lon="6.482364500"><ele>311</ele><time>2013-07-05T15:42:53Z</time></trkpt>
 <trkpt lat="50.578447400" lon="6.482449900"><ele>312</ele><time>2013-07-05T15:42:57Z</time></trkpt>
 <trkpt lat="50.578450800" lon="6.482544500"><ele>313</ele><time>2013-07-05T15:43:01Z</time></trkpt>
 <trkpt lat="50.578471200" lon="6.482636600"><ele>314</ele><time>2013-07-05T15:43:05Z</time></trkpt>
 <trkpt lat="50.578492000" lon="6.482725800"><ele>315</ele><time>2013-07-05T15:43:09Z</time></trkpt>
 <trkpt lat="50.578524900" lon="6.482807400"><ele>316</ele><time>2013-07-05T15:43:13Z</time></trkpt>
 <trkpt lat="50.578564500" lon="6.482874100"><ele>318</ele><time>2013-07-05T15:43:17Z</time></trkpt>
 <trkpt lat="50.578615400" lon="6.482929100"><ele>319</ele><time>2013-07-05T15:43:21Z</time></trkpt>
 <trkpt lat="50.578659900" lon="6.482978700"><ele>320</ele><time>2013-07-05T15:43:25Z</time></trkpt>
 <trkpt lat="50.578696600" lon="6.483028300"><ele>322</ele><time>2013-07-05T15:43:29Z</time></trkpt>
 <trkpt lat="50.578740800" lon="6.483088300"><ele>323</ele><time>2013-07-05T15:43:33Z</time></trkpt>
 <trkpt lat="50.578784500" lon="6.483142000"><ele>325</ele><time>2013-07-05T15:43:37Z</time></trkpt>
 <trkpt lat="50.578837800" lon="6.483182000"><ele>326</ele><time>2013-07-05T15:43:41Z</time></trkpt>
 <trkpt lat="50.578870800" lon="6.483240400"><ele>328</ele><time>2013-07-05T15:43:45Z</time></trkpt>
 <trkpt lat="50.578883300" lon="6.483288300"><ele>329</ele><time>2013-07-05T15:43:49Z</time></trkpt>
 <trkpt lat="50.578869500" lon="6.483340300"><ele>331</ele><time>2013-07-05T15:43:53Z</time></trkpt>
 <trkpt lat="50.578841200" lon="6.483402400"><ele>333</ele><time>2013-07-05T15:43:57Z</time></trkpt>
 <trkpt lat="50.578832000" lon="6.483461200"><ele>334</ele><time>2013-07-05T15:44:01Z</time></trkpt>
 <trkpt lat="50.578841200" lon="6.483526200"><ele>336</ele><time>2013-07-05T15:44:05Z</time></trkpt>
 <trkpt lat="50.578830700" lon="6.483586600"><ele>338</ele><time>2013-07-05T15:44:09Z</time></trkpt>
 <trkpt lat="50.578799500" lon="6.483654500"><ele>340</ele><time>2013-07-05T15:44:13Z</time></trkpt>
 <trkpt lat="50.578769100" lon="6.483722800"><ele>342</ele><time>2013-07-05T15:44:17Z</time></trkpt>
 <trkpt lat="50.578731200" lon="6.483787900"><ele>343</ele><time>2013-07-05T15:44:21Z</time></trkpt>
 <trkpt lat="50.578717900" lon="6.483837000"><ele>345</ele><time>2013-07-05T15:44:25Z</time></trkpt>
 <trkpt lat="50.578727000" lon="6.483930800"><ele>347</ele><time>2013-07-05T15:44:29Z</time></trkpt>
 <trkpt lat="50.578663300" lon="6.483998300"><ele>349</ele><time>2013-07-05T15:44:33Z</time></trkpt>
 <trkpt lat="50.578602000" lon="6.484052000"><ele>351</ele><time>2013-07-05T15:44:37Z</time></trkpt>
 <trkpt lat="50.578568700" lon="6.484094500"><ele>353</ele><time>2013-07-05T15:44:41Z</time></trkpt>
 <trkpt lat="50.578560300" lon="6.484147900"><ele>355</ele><time>2013-07-05T15:44:45Z</time></trkpt>
 <trkpt lat="50.578538300" lon="6.484204100"><ele>357</ele><time>2013-07-05T15:44:49Z</time></trkpt>
 <trkpt lat="50.578530300" lon="6.484239900"><ele>359</ele><time>2013-07-05T15:44:53Z</time></trkpt>
 <trkpt lat="50.578552400" lon="6.484262400"><ele>361</ele><time>2013-07-05T15:44:57Z</time></trkpt>
 <trkpt lat="50.578559100" lon="6.484270300"><ele>363</ele><time>2013-07-05T15:45:01Z</time></trkpt>
 <trkpt lat="50.578567900" lon="6.484299900"><ele>364</ele><time>2013-07-05T15:45:05Z</time></trkpt>
 <trkpt lat="50.578632000" lon="6.484326600"><ele>365</ele><time>2013-07-05T15:45:09Z</time></trkpt>
 <trkpt lat="50.578684900" lon="6.484338700"><ele>366</ele><time>2013-07-05T15:45:13Z</time></trkpt>
 <trkpt lat="50.578724100" lon="6.484332400"><ele>367</ele><time>2013-07-05T15:45:17Z</time></trkpt>
 <trkpt lat="50.578729500" lon="6.484354100"><ele>367</ele><time>2013-07-05T15:45:21Z</time></trkpt>
 <trkpt lat="50.578772400" lon="6.484414900"><ele>367</ele><time>2013-07-05T15:45:25Z</time></trkpt>
 <trkpt lat="50.578903200" lon="6.484550800"><ele>367</ele><time>2013-07-05T15:45:29Z</time></trkpt>
 <trkpt lat="50.578999500" lon="6.484632000"><ele>367</ele><time>2013-07-05T15:45:33Z</time></trkpt>
 <trkpt lat="50.579056200" lon="6.484705300"><ele>366</ele><time>2013-07-05T15:45:37Z</time></trkpt>
 <trkpt lat="50.579099100" lon="6.484794900"><ele>365</ele><time>2013-07-05T15:45:41Z</time></trkpt>
 <trkpt lat="50.579144500" lon="6.484862400"><ele>364</ele><time>2013-07-05T15:45:45Z</time></trkpt>
 <trkpt lat="50.579157400" lon="6.484919500"><ele>363</ele><time>2013-07-05T15:45:49Z</time></trkpt>
 <trkpt lat="50.579168300" lon="6.485008300"><ele>362</ele><time>2013-07-05T15:45:53Z</time></trkpt>
 <trkpt lat="50.579179900" lon="6.485089900"><ele>360</ele><time>2013-07-05T15:45:57Z</time></trkpt>
 <trkpt lat="50.579197800" lon="6.485152800"><ele>358</ele><time>2013-07-05T15:46:01Z</time></trkpt>
 <trkpt lat="50.579208300" lon="6.485217000"><ele>357</ele><time>2013-07-05T15:46:05Z</time></trkpt>
 <trkpt lat="50.579229100" lon="6.485212000"><ele>355</ele><time>2013-07-05T15:46:09Z</time></trkpt>
 <trkpt lat="50.579237800" lon="6.485139100"><ele>354</ele><time>2013-07-05T15:46:13Z</time></trkpt>
 <trkpt lat="50.579233300" lon="6.485098300"><ele>352</ele><time>2013-07-05T15:46:17Z</time></trkpt>
 <trkpt lat="50.579250300" lon="6.485105300"><ele>351</ele><time>2013-07-05T15:46:21Z</time></trkpt>
 <trkpt lat="50.579258300" lon="6.485147000"><ele>350</ele><time>2013-07-05T15:46:25Z</time></trkpt>
 <trkpt lat="50.579280300" lon="6.485199500"><ele>349</ele><time>2013-07-05T15:46:29Z</time></trkpt>
 <trkpt lat="50.579296200" lon="6.485267500"><ele>348</ele><time>2013-07-05T15:46:33Z</time></trkpt>
 <trkpt lat="50.579318300" lon="6.485333700"><ele>347</ele><time>2013-07-05T15:46:37Z</time></trkpt>
 <trkpt lat="50.579335800" lon="6.485414900"><ele>346</ele><time>2013-07-05T15:46:41Z</time></trkpt>
 <trkpt lat="50.579349500" lon="6.485477800"><ele>345</ele><time>2013-07-05T15:46:45Z</time></trkpt>
 <trkpt lat="50.579348700" lon="6.485500300"><ele>344</ele><time>2013-07-05T15:46:49Z</time></trkpt>
 <trkpt lat="50.579365300" lon="6.485536600"><ele>344</ele><time>2013-07-05T15:46:53Z</time></trkpt>
 <trkpt lat="50.579364900" lon="6.485617400"><ele>343</ele><time>2013-07-05T15:46:57Z</time></trkpt>
 <trkpt lat="50.579357400" lon="6.485714500"><ele>342</ele><time>2013-07-05T15:47:01Z</time></trkpt>
 <trkpt lat="50.579368300" lon="6.485806600"><ele>342</ele><time>2013-07-05T15:47:05Z</time></trkpt>
 <trkpt lat="50.579366200" lon="6.485880300"><ele>341</ele><time>2013-07-05T15:47:09Z</time></trkpt>
 <trkpt lat="50.579359500" lon="6.485962000"><ele>340</ele><time>2013-07-05T15:47:13Z</time></trkpt>
 <trkpt lat="50.579364500" lon="6.486044900"><ele>340</ele><time>2013-07-05T15:47:17Z</time></trkpt>
 <trkpt lat="50.579360800" lon="6.486106200"><ele>340</ele><time>2013-07-05T15:47:21Z</time></trkpt>
 <trkpt lat="50.579359100" lon="6.486163200"><ele>339</ele><time>2013-07-05T15:47:25Z</time></trkpt>
 <trkpt lat="50.579362900" lon="6.486195300"><ele>339</ele><time>2013-07-05T15:47:29Z</time></trkpt>
 <trkpt lat="50.579371200" lon="6.486214500"><ele>339</ele><time>2013-07-05T15:47:33Z</time></trkpt>
 <trkpt lat="50.579371200" lon="6.486214500"><ele>338</ele><time>2013-07-05T15:47:37Z</time></trkpt>
 <trkpt lat="50.579371200" lon="6.486214500"><ele>338</ele><time>2013-07-05T15:47:41Z</time></trkpt>
 <trkpt lat="50.579366200" lon="6.486210800"><ele>338</ele><time>2013-07-05T15:47:45Z</time></trkpt>
 <trkpt lat="50.579360400" lon="6.486265800"><ele>337</ele><time>2013-07-05T15:47:49Z</time></trkpt>
 <trkpt lat="50.579349100" lon="6.486310800"><ele>337</ele><time>2013-07-05T15:47:53Z</time></trkpt>
 <trkpt lat="50.579349100" lon="6.486310800"><ele>337</ele><time>2013-07-05T15:47:57Z</time></trkpt>
 <trkpt lat="50.579355300" lon="6.486337900"><ele>336</ele><time>2013-07-05T15:48:01Z</time></trkpt>
 <trkpt lat="50.579360700" lon="6.486404500"><ele>336</ele><time>2013-07-05T15:48:05Z</time></trkpt>
 <trkpt lat="50.579352800" lon="6.486466600"><ele>336</ele><time>2013-07-05T15:48:09Z</time></trkpt>
 <trkpt lat="50.579343300" lon="6.486534500"><ele>336</ele><time>2013-07-05T15:48:13Z</time></trkpt>
 <trkpt lat="50.579341600" lon="6.486594900"><ele>335</ele><time>2013-07-05T15:48:17Z</time></trkpt>
 <trkpt lat="50.579339900" lon="6.486662400"><ele>335</ele><time>2013-07-05T15:48:21Z</time></trkpt>
 <trkpt lat="50.579332400" lon="6.486738700"><ele>335</ele><time>2013-07-05T15:48:25Z</time></trkpt>
 <trkpt lat="50.579322800" lon="6.486812400"><ele>335</ele><time>2013-07-05T15:48:29Z</time></trkpt>
 <trkpt lat="50.579305800" lon="6.486898700"><ele>335</ele><time>2013-07-05T15:48:33Z</time></trkpt>
 <trkpt lat="50.579285700" lon="6.486983700"><ele>335</ele><time>2013-07-05T15:48:37Z</time></trkpt>
 <trkpt lat="50.579277900" lon="6.487044500"><ele>335</ele><time>2013-07-05T15:48:41Z</time></trkpt>
 <trkpt lat="50.579262900" lon="6.487123700"><ele>335</ele><time>2013-07-05T15:48:45Z</time></trkpt>
 <trkpt lat="50.579249500" lon="6.487200800"><ele>336</ele><time>2013-07-05T15:48:49Z</time></trkpt>
 <trkpt lat="50.579229900" lon="6.487273200"><ele>336</ele><time>2013-07-05T15:48:53Z</time></trkpt>
 <trkpt lat="50.579217000" lon="6.487338200"><ele>336</ele><time>2013-07-05T15:48:57Z</time></trkpt>
 <trkpt lat="50.579212800" lon="6.487359900"><ele>336</ele><time>2013-07-05T15:49:01Z</time></trkpt>
 <trkpt lat="50.579225800" lon="6.487358700"><ele>337</ele><time>2013-07-05T15:49:05Z</time></trkpt>
 <trkpt lat="50.579231200" lon="6.487352900"><ele>337</ele><time>2013-07-05T15:49:09Z</time></trkpt>
 <trkpt lat="50.579219100" lon="6.487356200"><ele>337</ele><time>2013-07-05T15:49:13Z</time></trkpt>
 <trkpt lat="50.579215700" lon="6.487347000"><ele>337</ele><time>2013-07-05T15:49:17Z</time></trkpt>
 <trkpt lat="50.579217800" lon="6.487338300"><ele>337</ele><time>2013-07-05T15:49:21Z</time></trkpt>
 <trkpt lat="50.579217800" lon="6.487338300"><ele>338</ele><time>2013-07-05T15:49:25Z</time></trkpt>
 <trkpt lat="50.579217800" lon="6.487338300"><ele>338</ele><time>2013-07-05T15:49:29Z</time></trkpt>
 <trkpt lat="50.579223200" lon="6.487336600"><ele>338</ele><time>2013-07-05T15:49:33Z</time></trkpt>
 <trkpt lat="50.579238700" lon="6.487328700"><ele>338</ele><time>2013-07-05T15:49:37Z</time></trkpt>
 <trkpt lat="50.579260300" lon="6.487337000"><ele>338</ele><time>2013-07-05T15:49:41Z</time></trkpt>
 <trkpt lat="50.579286200" lon="6.487352000"><ele>337</ele><time>2013-07-05T15:49:45Z</time></trkpt>
 <trkpt lat="50.579307800" lon="6.487375300"><ele>337</ele><time>2013-07-05T15:49:49Z</time></trkpt>
 <trkpt lat="50.579337400" lon="6.487397000"><ele>337</ele><time>2013-07-05T15:49:53Z</time></trkpt>
 <trkpt lat="50.579385300" lon="6.487422500"><ele>337</ele><time>2013-07-05T15:49:57Z</time></trkpt>
 <trkpt lat="50.579422800" lon="6.487450400"><ele>337</ele><time>2013-07-05T15:50:01Z</time></trkpt>
 <trkpt lat="50.579455800" lon="6.487470300"><ele>337</ele><time>2013-07-05T15:50:05Z</time></trkpt>
 <trkpt lat="50.579492000" lon="6.487495800"><ele>337</ele><time>2013-07-05T15:50:09Z</time></trkpt>
 <trkpt lat="50.579541600" lon="6.487522400"><ele>337</ele><time>2013-07-05T15:50:13Z</time></trkpt>
 <trkpt lat="50.579578300" lon="6.487553300"><ele>337</ele><time>2013-07-05T15:50:17Z</time></trkpt>
 <trkpt lat="50.579612800" lon="6.487588300"><ele>337</ele><time>2013-07-05T15:50:21Z</time></trkpt>
 <trkpt lat="50.579657000" lon="6.487616200"><ele>337</ele><time>2013-07-05T15:50:25Z</time></trkpt>
 <trkpt lat="50.579687000" lon="6.487647800"><ele>337</ele><time>2013-07-05T15:50:29Z</time></trkpt>
 <trkpt lat="50.579715800" lon="6.487684900"><ele>337</ele><time>2013-07-05T15:50:33Z</time></trkpt>
 <trkpt lat="50.579765800" lon="6.487743700"><ele>337</ele><time>2013-07-05T15:50:37Z</time></trkpt>
 <trkpt lat="50.579789500" lon="6.487779100"><ele>337</ele><time>2013-07-05T15:50:41Z</time></trkpt>
 <trkpt lat="50.579766200" lon="6.487805300"><ele>337</ele><time>2013-07-05T15:50:45Z</time></trkpt>
 <trkpt lat="50.579746200" lon="6.487814500"><ele>337</ele><time>2013-07-05T15:50:49Z</time></trkpt>
 <trkpt lat="50.579712400" lon="6.487819500"><ele>337</ele><time>2013-07-05T15:50:53Z</time></trkpt>
 <trkpt lat="50.579665800" lon="6.487854900"><ele>337</ele><time>2013-07-05T15:50:57Z</time></trkpt>
 <trkpt lat="50.579618300" lon="6.487886200"><ele>337</ele><time>2013-07-05T15:51:01Z</time></trkpt>
 <trkpt lat="50.579567000" lon="6.487933300"><ele>337</ele><time>2013-07-05T15:51:05Z</time></trkpt>
 <trkpt lat="50.579532400" lon="6.487978700"><ele>337</ele><time>2013-07-05T15:51:09Z</time></trkpt>
 <trkpt lat="50.579508700" lon="6.488034900"><ele>337</ele><time>2013-07-05T15:51:13Z</time></trkpt>
 <trkpt lat="50.579507000" lon="6.488108300"><ele>337</ele><time>2013-07-05T15:51:17Z</time></trkpt>
 <trkpt lat="50.579508300" lon="6.488190400"><ele>337</ele><time>2013-07-05T15:51:21Z</time></trkpt>
 <trkpt lat="50.579502800" lon="6.488258300"><ele>337</ele><time>2013-07-05T15:51:25Z</time></trkpt>
 <trkpt lat="50.579493700" lon="6.488338300"><ele>338</ele><time>2013-07-05T15:51:29Z</time></trkpt>
 <trkpt lat="50.579488300" lon="6.488433700"><ele>338</ele><time>2013-07-05T15:51:33Z</time></trkpt>
 <trkpt lat="50.579482800" lon="6.488522400"><ele>339</ele><time>2013-07-05T15:51:37Z</time></trkpt>
 <trkpt lat="50.579482000" lon="6.488602400"><ele>339</ele><time>2013-07-05T15:51:41Z</time></trkpt>
 <trkpt lat="50.579471600" lon="6.488672000"><ele>340</ele><time>2013-07-05T15:51:45Z</time></trkpt>
 <trkpt lat="50.579445800" lon="6.488733300"><ele>340</ele><time>2013-07-05T15:51:49Z</time></trkpt>
 <trkpt lat="50.579427500" lon="6.488804500"><ele>341</ele><time>2013-07-05T15:51:53Z</time></trkpt>
 <trkpt lat="50.579394900" lon="6.488877000"><ele>342</ele><time>2013-07-05T15:51:57Z</time></trkpt>
 <trkpt lat="50.579370800" lon="6.488950800"><ele>343</ele><time>2013-07-05T15:52:01Z</time></trkpt>
 <trkpt lat="50.579355800" lon="6.489029900"><ele>344</ele><time>2013-07-05T15:52:05Z</time></trkpt>
 <trkpt lat="50.579331200" lon="6.489112400"><ele>345</ele><time>2013-07-05T15:52:09Z</time></trkpt>
 <trkpt lat="50.579319900" lon="6.489189100"><ele>347</ele><time>2013-07-05T15:52:13Z</time></trkpt>
 <trkpt lat="50.579292400" lon="6.489251200"><ele>348</ele><time>2013-07-05T15:52:17Z</time></trkpt>
 <trkpt lat="50.579280800" lon="6.489329100"><ele>350</ele><time>2013-07-05T15:52:21Z</time></trkpt>
 <trkpt lat="50.579268700" lon="6.489398700"><ele>352</ele><time>2013-07-05T15:52:25Z</time></trkpt>
 <trkpt lat="50.579263300" lon="6.489456600"><ele>354</ele><time>2013-07-05T15:52:29Z</time></trkpt>
 <trkpt lat="50.579248300" lon="6.489525700"><ele>356</ele><time>2013-07-05T15:52:33Z</time></trkpt>
 <trkpt lat="50.579202800" lon="6.489586600"><ele>359</ele><time>2013-07-05T15:52:37Z</time></trkpt>
 <trkpt lat="50.579156600" lon="6.489666600"><ele>361</ele><time>2013-07-05T15:52:41Z</time></trkpt>
 <trkpt lat="50.579125300" lon="6.489742800"><ele>364</ele><time>2013-07-05T15:52:45Z</time></trkpt>
 <trkpt lat="50.579086600" lon="6.489821200"><ele>366</ele><time>2013-07-05T15:52:49Z</time></trkpt>
 <trkpt lat="50.579043300" lon="6.489882800"><ele>369</ele><time>2013-07-05T15:52:53Z</time></trkpt>
 <trkpt lat="50.579000800" lon="6.489934500"><ele>372</ele><time>2013-07-05T15:52:57Z</time></trkpt>
 <trkpt lat="50.578964900" lon="6.489994500"><ele>376</ele><time>2013-07-05T15:53:01Z</time></trkpt>
 <trkpt lat="50.578917400" lon="6.490060700"><ele>379</ele><time>2013-07-05T15:53:05Z</time></trkpt>
 <trkpt lat="50.578885300" lon="6.490132800"><ele>382</ele><time>2013-07-05T15:53:09Z</time></trkpt>
 <trkpt lat="50.578846200" lon="6.490187400"><ele>385</ele><time>2013-07-05T15:53:13Z</time></trkpt>
 <trkpt lat="50.578804500" lon="6.490261600"><ele>389</ele><time>2013-07-05T15:53:17Z</time></trkpt>
 <trkpt lat="50.578774100" lon="6.490353200"><ele>392</ele><time>2013-07-05T15:53:21Z</time></trkpt>
 <trkpt lat="50.578737400" lon="6.490449100"><ele>395</ele><time>2013-07-05T15:53:25Z</time></trkpt>
 <trkpt lat="50.578685800" lon="6.490521600"><ele>398</ele><time>2013-07-05T15:53:29Z</time></trkpt>
 <trkpt lat="50.578637000" lon="6.490589500"><ele>402</ele><time>2013-07-05T15:53:33Z</time></trkpt>
 <trkpt lat="50.578596200" lon="6.490680300"><ele>405</ele><time>2013-07-05T15:53:37Z</time></trkpt>
 <trkpt lat="50.578567800" lon="6.490732800"><ele>408</ele><time>2013-07-05T15:53:41Z</time></trkpt>
 <trkpt lat="50.578543300" lon="6.490785800"><ele>411</ele><time>2013-07-05T15:53:45Z</time></trkpt>
 <trkpt lat="50.578507000" lon="6.490862000"><ele>414</ele><time>2013-07-05T15:53:49Z</time></trkpt>
 <trkpt lat="50.578474500" lon="6.490922800"><ele>417</ele><time>2013-07-05T15:53:53Z</time></trkpt>
 <trkpt lat="50.578447400" lon="6.491018700"><ele>419</ele><time>2013-07-05T15:53:57Z</time></trkpt>
 <trkpt lat="50.578416200" lon="6.491115300"><ele>421</ele><time>2013-07-05T15:54:01Z</time></trkpt>
 <trkpt lat="50.578391600" lon="6.491221200"><ele>424</ele><time>2013-07-05T15:54:05Z</time></trkpt>
 <trkpt lat="50.578367400" lon="6.491327000"><ele>426</ele><time>2013-07-05T15:54:09Z</time></trkpt>
 <trkpt lat="50.578353300" lon="6.491422800"><ele>428</ele><time>2013-07-05T15:54:13Z</time></trkpt>
 <trkpt lat="50.578328300" lon="6.491502400"><ele>430</ele><time>2013-07-05T15:54:17Z</time></trkpt>
 <trkpt lat="50.578309100" lon="6.491554100"><ele>431</ele><time>2013-07-05T15:54:21Z</time></trkpt>
 <trkpt lat="50.578295700" lon="6.491620300"><ele>433</ele><time>2013-07-05T15:54:25Z</time></trkpt>
 <trkpt lat="50.578271600" lon="6.491690000"><ele>434</ele><time>2013-07-05T15:54:29Z</time></trkpt>
 <trkpt lat="50.578240800" lon="6.491772400"><ele>435</ele><time>2013-07-05T15:54:33Z</time></trkpt>
 <trkpt lat="50.578211200" lon="6.491838200"><ele>436</ele><time>2013-07-05T15:54:37Z</time></trkpt>
 <trkpt lat="50.578191600" lon="6.491902900"><ele>437</ele><time>2013-07-05T15:54:41Z</time></trkpt>
 <trkpt lat="50.578184100" lon="6.491986200"><ele>438</ele><time>2013-07-05T15:54:45Z</time></trkpt>
 <trkpt lat="50.578161600" lon="6.492089900"><ele>438</ele><time>2013-07-05T15:54:49Z</time></trkpt>
 <trkpt lat="50.578136600" lon="6.492202400"><ele>438</ele><time>2013-07-05T15:54:53Z</time></trkpt>
 <trkpt lat="50.578132400" lon="6.492295700"><ele>438</ele><time>2013-07-05T15:54:57Z</time></trkpt>
 <trkpt lat="50.578122000" lon="6.492365300"><ele>438</ele><time>2013-07-05T15:55:01Z</time></trkpt>
 <trkpt lat="50.578144900" lon="6.492468700"><ele>438</ele><time>2013-07-05T15:55:05Z</time></trkpt>
 <trkpt lat="50.578155000" lon="6.492565300"><ele>438</ele><time>2013-07-05T15:55:09Z</time></trkpt>
 <trkpt lat="50.578141600" lon="6.492649900"><ele>437</ele><time>2013-07-05T15:55:13Z</time></trkpt>
 <trkpt lat="50.578122400" lon="6.492701200"><ele>437</ele><time>2013-07-05T15:55:17Z</time></trkpt>
 <trkpt lat="50.578102900" lon="6.492777900"><ele>437</ele><time>2013-07-05T15:55:21Z</time></trkpt>
 <trkpt lat="50.578090800" lon="6.492848700"><ele>436</ele><time>2013-07-05T15:55:25Z</time></trkpt>
 <trkpt lat="50.578087400" lon="6.492915300"><ele>436</ele><time>2013-07-05T15:55:29Z</time></trkpt>
 <trkpt lat="50.578097800" lon="6.493010300"><ele>436</ele><time>2013-07-05T15:55:33Z</time></trkpt>
 <trkpt lat="50.578122900" lon="6.493078700"><ele>436</ele><time>2013-07-05T15:55:37Z</time></trkpt>
 <trkpt lat="50.578129100" lon="6.493085800"><ele>436</ele><time>2013-07-05T15:55:41Z</time></trkpt>
 <trkpt lat="50.578110400" lon="6.493131600"><ele>436</ele><time>2013-07-05T15:55:45Z</time></trkpt>
 <trkpt lat="50.578099900" lon="6.493195800"><ele>437</ele><time>2013-07-05T15:55:49Z</time></trkpt>
 <trkpt lat="50.578102800" lon="6.493241600"><ele>437</ele><time>2013-07-05T15:55:53Z</time></trkpt>
 <trkpt lat="50.578099100" lon="6.493289900"><ele>438</ele><time>2013-07-05T15:55:57Z</time></trkpt>
 <trkpt lat="50.578091600" lon="6.493288300"><ele>439</ele><time>2013-07-05T15:56:01Z</time></trkpt>
 <trkpt lat="50.578080800" lon="6.493295800"><ele>439</ele><time>2013-07-05T15:56:05Z</time></trkpt>
 <trkpt lat="50.578082800" lon="6.493315300"><ele>440</ele><time>2013-07-05T15:56:09Z</time></trkpt>
 <trkpt lat="50.578079100" lon="6.493340800"><ele>441</ele><time>2013-07-05T15:56:13Z</time></trkpt>
 <trkpt lat="50.578068700" lon="6.493350800"><ele>441</ele><time>2013-07-05T15:56:17Z</time></trkpt>
 <trkpt lat="50.578064900" lon="6.493380800"><ele>442</ele><time>2013-07-05T15:56:21Z</time></trkpt>
 <trkpt lat="50.578051600" lon="6.493365800"><ele>442</ele><time>2013-07-05T15:56:25Z</time></trkpt>
 <trkpt lat="50.578070800" lon="6.493319900"><ele>442</ele><time>2013-07-05T15:56:29Z</time></trkpt>
 <trkpt lat="50.578070800" lon="6.493319900"><ele>442</ele><time>2013-07-05T15:56:33Z</time></trkpt>
 <trkpt lat="50.578070800" lon="6.493319900"><ele>441</ele><time>2013-07-05T15:56:37Z</time></trkpt>
 <trkpt lat="50.578082000" lon="6.493320700"><ele>441</ele><time>2013-07-05T15:56:41Z</time></trkpt>
 <trkpt lat="50.578092900" lon="6.493311600"><ele>440</ele><time>2013-07-05T15:56:45Z</time></trkpt>
 <trkpt lat="50.578117800" lon="6.493309900"><ele>439</ele><time>2013-07-05T15:56:49Z</time></trkpt>
 <trkpt lat="50.578128300" lon="6.493322400"><ele>438</ele><time>2013-07-05T15:56:53Z</time></trkpt>
 <trkpt lat="50.578117000" lon="6.493345800"><ele>437</ele><time>2013-07-05T15:56:57Z</time></trkpt>
 <trkpt lat="50.578106200" lon="6.493392000"><ele>436</ele><time>2013-07-05T15:57:01Z</time></trkpt>
 <trkpt lat="50.578104100" lon="6.493447800"><ele>434</ele><time>2013-07-05T15:57:05Z</time></trkpt>
 <trkpt lat="50.578107900" lon="6.493499100"><ele>433</ele><time>2013-07-05T15:57:09Z</time></trkpt>
 <trkpt lat="50.578113300" lon="6.493545000"><ele>432</ele><time>2013-07-05T15:57:13Z</time></trkpt>
 <trkpt lat="50.578113300" lon="6.493621200"><ele>431</ele><time>2013-07-05T15:57:17Z</time></trkpt>
 <trkpt lat="50.578121600" lon="6.493703700"><ele>429</ele><time>2013-07-05T15:57:21Z</time></trkpt>
 <trkpt lat="50.578124500" lon="6.493789900"><ele>428</ele><time>2013-07-05T15:57:25Z</time></trkpt>
 <trkpt lat="50.578123300" lon="6.493867000"><ele>427</ele><time>2013-07-05T15:57:29Z</time></trkpt>
 <trkpt lat="50.578114900" lon="6.493938700"><ele>426</ele><time>2013-07-05T15:57:33Z</time></trkpt>
 <trkpt lat="50.578102400" lon="6.494006600"><ele>425</ele><time>2013-07-05T15:57:37Z</time></trkpt>
 <trkpt lat="50.578102400" lon="6.494073700"><ele>424</ele><time>2013-07-05T15:57:41Z</time></trkpt>
 <trkpt lat="50.578099500" lon="6.494114900"><ele>423</ele><time>2013-07-05T15:57:45Z</time></trkpt>
 <trkpt lat="50.578081200" lon="6.494154100"><ele>422</ele><time>2013-07-05T15:57:49Z</time></trkpt>
 <trkpt lat="50.578079900" lon="6.494203200"><ele>421</ele><time>2013-07-05T15:57:53Z</time></trkpt>
 <trkpt lat="50.578074900" lon="6.494259900"><ele>421</ele><time>2013-07-05T15:57:57Z</time></trkpt>
 <trkpt lat="50.578061200" lon="6.494317000"><ele>420</ele><time>2013-07-05T15:58:01Z</time></trkpt>
 <trkpt lat="50.578048300" lon="6.494382900"><ele>420</ele><time>2013-07-05T15:58:05Z</time></trkpt>
 <trkpt lat="50.578019100" lon="6.494429100"><ele>420</ele><time>2013-07-05T15:58:09Z</time></trkpt>
 <trkpt lat="50.577973700" lon="6.494502400"><ele>420</ele><time>2013-07-05T15:58:13Z</time></trkpt>
 <trkpt lat="50.577934900" lon="6.494564100"><ele>421</ele><time>2013-07-05T15:58:17Z</time></trkpt>
 <trkpt lat="50.577894500" lon="6.494627400"><ele>421</ele><time>2013-07-05T15:58:21Z</time></trkpt>
 <trkpt lat="50.577862800" lon="6.494689100"><ele>422</ele><time>2013-07-05T15:58:25Z</time></trkpt>
 <trkpt lat="50.577835700" lon="6.494767800"><ele>422</ele><time>2013-07-05T15:58:29Z</time></trkpt>
 <trkpt lat="50.577799500" lon="6.494828300"><ele>423</ele><time>2013-07-05T15:58:33Z</time></trkpt>
 <trkpt lat="50.577761600" lon="6.494875000"><ele>424</ele><time>2013-07-05T15:58:37Z</time></trkpt>
 <trkpt lat="50.577737000" lon="6.494925400"><ele>426</ele><time>2013-07-05T15:58:41Z</time></trkpt>
 <trkpt lat="50.577720400" lon="6.494967000"><ele>427</ele><time>2013-07-05T15:58:45Z</time></trkpt>
 <trkpt lat="50.577695300" lon="6.495019900"><ele>428</ele><time>2013-07-05T15:58:49Z</time></trkpt>
 <trkpt lat="50.577669100" lon="6.495087400"><ele>430</ele><time>2013-07-05T15:58:53Z</time></trkpt>
 <trkpt lat="50.577628700" lon="6.495154100"><ele>432</ele><time>2013-07-05T15:58:57Z</time></trkpt>
 <trkpt lat="50.577582800" lon="6.495233200"><ele>434</ele><time>2013-07-05T15:59:01Z</time></trkpt>
 <trkpt lat="50.577542400" lon="6.495309100"><ele>436</ele><time>2013-07-05T15:59:05Z</time></trkpt>
 <trkpt lat="50.577493700" lon="6.495375700"><ele>438</ele><time>2013-07-05T15:59:09Z</time></trkpt>
 <trkpt lat="50.577433300" lon="6.495445300"><ele>440</ele><time>2013-07-05T15:59:13Z</time></trkpt>
 <trkpt lat="50.577398700" lon="6.495494100"><ele>442</ele><time>2013-07-05T15:59:18Z</time></trkpt>
 <trkpt lat="50.577365800" lon="6.495530800"><ele>445</ele><time>2013-07-05T15:59:22Z</time></trkpt>
 <trkpt lat="50.577347400" lon="6.495612900"><ele>447</ele><time>2013-07-05T15:59:25Z</time></trkpt>
 <trkpt lat="50.577324900" lon="6.495649500"><ele>449</ele><time>2013-07-05T15:59:29Z</time></trkpt>
 <trkpt lat="50.577304900" lon="6.495679500"><ele>452</ele><time>2013-07-05T15:59:33Z</time></trkpt>
 <trkpt lat="50.577282800" lon="6.495739100"><ele>455</ele><time>2013-07-05T15:59:37Z</time></trkpt>
 <trkpt lat="50.577239500" lon="6.495797000"><ele>457</ele><time>2013-07-05T15:59:41Z</time></trkpt>
 <trkpt lat="50.577199900" lon="6.495834100"><ele>460</ele><time>2013-07-05T15:59:45Z</time></trkpt>
 <trkpt lat="50.577156200" lon="6.495875700"><ele>463</ele><time>2013-07-05T15:59:50Z</time></trkpt>
 <trkpt lat="50.577090000" lon="6.495928300"><ele>466</ele><time>2013-07-05T15:59:53Z</time></trkpt>
 <trkpt lat="50.577050300" lon="6.495971600"><ele>469</ele><time>2013-07-05T15:59:57Z</time></trkpt>
 <trkpt lat="50.576982800" lon="6.495969900"><ele>472</ele><time>2013-07-05T16:00:01Z</time></trkpt>
 <trkpt lat="50.576927000" lon="6.496002400"><ele>474</ele><time>2013-07-05T16:00:05Z</time></trkpt>
 <trkpt lat="50.576883700" lon="6.496059900"><ele>477</ele><time>2013-07-05T16:00:09Z</time></trkpt>
 <trkpt lat="50.576844500" lon="6.496121200"><ele>480</ele><time>2013-07-05T16:00:13Z</time></trkpt>
 <trkpt lat="50.576793700" lon="6.496174500"><ele>483</ele><time>2013-07-05T16:00:17Z</time></trkpt>
 <trkpt lat="50.576744500" lon="6.496202500"><ele>486</ele><time>2013-07-05T16:00:21Z</time></trkpt>
 <trkpt lat="50.576692800" lon="6.496234500"><ele>490</ele><time>2013-07-05T16:00:25Z</time></trkpt>
 <trkpt lat="50.576652800" lon="6.496287000"><ele>493</ele><time>2013-07-05T16:00:29Z</time></trkpt>
 <trkpt lat="50.576616200" lon="6.496342800"><ele>496</ele><time>2013-07-05T16:00:33Z</time></trkpt>
 <trkpt lat="50.576549900" lon="6.496378300"><ele>499</ele><time>2013-07-05T16:00:37Z</time></trkpt>
 <trkpt lat="50.576462000" lon="6.496417400"><ele>502</ele><time>2013-07-05T16:00:41Z</time></trkpt>
 <trkpt lat="50.576395800" lon="6.496439500"><ele>506</ele><time>2013-07-05T16:00:45Z</time></trkpt>
 <trkpt lat="50.576336600" lon="6.496454100"><ele>509</ele><time>2013-07-05T16:00:49Z</time></trkpt>
 <trkpt lat="50.576301200" lon="6.496493300"><ele>512</ele><time>2013-07-05T16:00:53Z</time></trkpt>
 <trkpt lat="50.576268200" lon="6.496565800"><ele>516</ele><time>2013-07-05T16:00:57Z</time></trkpt>
 <trkpt lat="50.576209100" lon="6.496616200"><ele>519</ele><time>2013-07-05T16:01:01Z</time></trkpt>
 <trkpt lat="50.576164100" lon="6.496665800"><ele>522</ele><time>2013-07-05T16:01:05Z</time></trkpt>
 <trkpt lat="50.576088700" lon="6.496730800"><ele>525</ele><time>2013-07-05T16:01:09Z</time></trkpt>
 <trkpt lat="50.576031600" lon="6.496790300"><ele>529</ele><time>2013-07-05T16:01:13Z</time></trkpt>
 <trkpt lat="50.575979100" lon="6.496812000"><ele>532</ele><time>2013-07-05T16:01:17Z</time></trkpt>
 <trkpt lat="50.575940800" lon="6.496792000"><ele>535</ele><time>2013-07-05T16:01:21Z</time></trkpt>
 <trkpt lat="50.575892900" lon="6.496781200"><ele>539</ele><time>2013-07-05T16:01:25Z</time></trkpt>
 <trkpt lat="50.575857400" lon="6.496749900"><ele>542</ele><time>2013-07-05T16:01:29Z</time></trkpt>
 <trkpt lat="50.575809100" lon="6.496698700"><ele>545</ele><time>2013-07-05T16:01:33Z</time></trkpt>
 <trkpt lat="50.575758300" lon="6.496674100"><ele>548</ele><time>2013-07-05T16:01:37Z</time></trkpt>
 <trkpt lat="50.575695800" lon="6.496657800"><ele>550</ele><time>2013-07-05T16:01:41Z</time></trkpt>
 <trkpt lat="50.575632400" lon="6.496648700"><ele>553</ele><time>2013-07-05T16:01:45Z</time></trkpt>
 <trkpt lat="50.575580800" lon="6.496634900"><ele>555</ele><time>2013-07-05T16:01:49Z</time></trkpt>
 <trkpt lat="50.575581600" lon="6.496624900"><ele>557</ele><time>2013-07-05T16:01:53Z</time></trkpt>
 <trkpt lat="50.575577000" lon="6.496613300"><ele>559</ele><time>2013-07-05T16:01:57Z</time></trkpt>
 <trkpt lat="50.575560800" lon="6.496619100"><ele>561</ele><time>2013-07-05T16:02:01Z</time></trkpt>
 <trkpt lat="50.575554900" lon="6.496620800"><ele>563</ele><time>2013-07-05T16:02:05Z</time></trkpt>
 <trkpt lat="50.575530800" lon="6.496608700"><ele>564</ele><time>2013-07-05T16:02:09Z</time></trkpt>
 <trkpt lat="50.575491200" lon="6.496595800"><ele>565</ele><time>2013-07-05T16:02:13Z</time></trkpt>
 <trkpt lat="50.575453300" lon="6.496567900"><ele>566</ele><time>2013-07-05T16:02:17Z</time></trkpt>
 <trkpt lat="50.575414900" lon="6.496551200"><ele>567</ele><time>2013-07-05T16:02:21Z</time></trkpt>
 <trkpt lat="50.575360800" lon="6.496553300"><ele>568</ele><time>2013-07-05T16:02:25Z</time></trkpt>
 <trkpt lat="50.575304100" lon="6.496532400"><ele>568</ele><time>2013-07-05T16:02:29Z</time></trkpt>
 <trkpt lat="50.575262000" lon="6.496552800"><ele>568</ele><time>2013-07-05T16:02:34Z</time></trkpt>
 <trkpt lat="50.575218300" lon="6.496596600"><ele>568</ele><time>2013-07-05T16:02:37Z</time></trkpt>
 <trkpt lat="50.575177800" lon="6.496594500"><ele>568</ele><time>2013-07-05T16:02:42Z</time></trkpt>
 <trkpt lat="50.575141600" lon="6.496569900"><ele>568</ele><time>2013-07-05T16:02:45Z</time></trkpt>
 <trkpt lat="50.575103700" lon="6.496584500"><ele>568</ele><time>2013-07-05T16:02:50Z</time></trkpt>
 <trkpt lat="50.575076600" lon="6.496644100"><ele>567</ele><time>2013-07-05T16:02:53Z</time></trkpt>
 <trkpt lat="50.575052000" lon="6.496711600"><ele>565</ele><time>2013-07-05T16:02:57Z</time></trkpt>
 <trkpt lat="50.575013700" lon="6.496769100"><ele>563</ele><time>2013-07-05T16:03:01Z</time></trkpt>
 <trkpt lat="50.574972000" lon="6.496794500"><ele>560</ele><time>2013-07-05T16:03:05Z</time></trkpt>
 <trkpt lat="50.574963300" lon="6.496822400"><ele>557</ele><time>2013-07-05T16:03:10Z</time></trkpt>
 <trkpt lat="50.574958700" lon="6.496834500"><ele>554</ele><time>2013-07-05T16:03:13Z</time></trkpt>
 <trkpt lat="50.575110300" lon="6.496862000"><ele>552</ele><time>2013-07-05T16:03:17Z</time></trkpt>
 <trkpt lat="50.575119900" lon="6.496877800"><ele>549</ele><time>2013-07-05T16:03:21Z</time></trkpt>
 <trkpt lat="50.575081600" lon="6.496903300"><ele>546</ele><time>2013-07-05T16:03:25Z</time></trkpt>
 <trkpt lat="50.575047400" lon="6.496939100"><ele>543</ele><time>2013-07-05T16:03:30Z</time></trkpt>
 <trkpt lat="50.575014100" lon="6.496982400"><ele>540</ele><time>2013-07-05T16:03:33Z</time></trkpt>
 <trkpt lat="50.574995300" lon="6.497010800"><ele>537</ele><time>2013-07-05T16:03:38Z</time></trkpt>
 <trkpt lat="50.574979900" lon="6.497021200"><ele>534</ele><time>2013-07-05T16:03:41Z</time></trkpt>
 <trkpt lat="50.574970800" lon="6.497041200"><ele>530</ele><time>2013-07-05T16:03:45Z</time></trkpt>
 <trkpt lat="50.574980400" lon="6.497057800"><ele>527</ele><time>2013-07-05T16:03:49Z</time></trkpt>
 <trkpt lat="50.575000800" lon="6.497068700"><ele>525</ele><time>2013-07-05T16:03:53Z</time></trkpt>
 <trkpt lat="50.575053700" lon="6.497066600"><ele>523</ele><time>2013-07-05T16:03:57Z</time></trkpt>
 <trkpt lat="50.575099900" lon="6.497029100"><ele>521</ele><time>2013-07-05T16:04:01Z</time></trkpt>
 <trkpt lat="50.575112400" lon="6.496974900"><ele>520</ele><time>2013-07-05T16:04:05Z</time></trkpt>
 <trkpt lat="50.575105800" lon="6.496953300"><ele>519</ele><time>2013-07-05T16:04:09Z</time></trkpt>
 <trkpt lat="50.575105800" lon="6.496953300"><ele>518</ele><time>2013-07-05T16:04:13Z</time></trkpt>
 <trkpt lat="50.575110800" lon="6.496946200"><ele>517</ele><time>2013-07-05T16:04:17Z</time></trkpt>
 <trkpt lat="50.575111600" lon="6.496932400"><ele>516</ele><time>2013-07-05T16:04:21Z</time></trkpt>
 <trkpt lat="50.575135400" lon="6.496911200"><ele>516</ele><time>2013-07-05T16:04:25Z</time></trkpt>
 <trkpt lat="50.575179100" lon="6.496878700"><ele>515</ele><time>2013-07-05T16:04:29Z</time></trkpt>
 <trkpt lat="50.575219900" lon="6.496849100"><ele>513</ele><time>2013-07-05T16:04:33Z</time></trkpt>
 <trkpt lat="50.575228700" lon="6.496795300"><ele>511</ele><time>2013-07-05T16:04:37Z</time></trkpt>
 <trkpt lat="50.575200800" lon="6.496774900"><ele>509</ele><time>2013-07-05T16:04:41Z</time></trkpt>
 <trkpt lat="50.575189900" lon="6.496759100"><ele>506</ele><time>2013-07-05T16:04:45Z</time></trkpt>
 <trkpt lat="50.575192900" lon="6.496749500"><ele>503</ele><time>2013-07-05T16:04:49Z</time></trkpt>
 <trkpt lat="50.575214100" lon="6.496731200"><ele>500</ele><time>2013-07-05T16:04:53Z</time></trkpt>
 <trkpt lat="50.575350800" lon="6.496728300"><ele>498</ele><time>2013-07-05T16:04:57Z</time></trkpt>
 <trkpt lat="50.575567000" lon="6.496712000"><ele>495</ele><time>2013-07-05T16:05:01Z</time></trkpt>
 <trkpt lat="50.575567400" lon="6.496662400"><ele>492</ele><time>2013-07-05T16:05:05Z</time></trkpt>
 <trkpt lat="50.575562000" lon="6.496625400"><ele>489</ele><time>2013-07-05T16:05:09Z</time></trkpt>
 <trkpt lat="50.575574900" lon="6.496578700"><ele>486</ele><time>2013-07-05T16:05:13Z</time></trkpt>
 <trkpt lat="50.575581200" lon="6.496555800"><ele>483</ele><time>2013-07-05T16:05:17Z</time></trkpt>
 <trkpt lat="50.575569900" lon="6.496554100"><ele>480</ele><time>2013-07-05T16:05:21Z</time></trkpt>
 <trkpt lat="50.575574900" lon="6.496537000"><ele>477</ele><time>2013-07-05T16:05:25Z</time></trkpt>
 <trkpt lat="50.575574900" lon="6.496537000"><ele>475</ele><time>2013-07-05T16:05:29Z</time></trkpt>
 <trkpt lat="50.575579500" lon="6.496543300"><ele>472</ele><time>2013-07-05T16:05:33Z</time></trkpt>
 <trkpt lat="50.575599500" lon="6.496549100"><ele>470</ele><time>2013-07-05T16:05:38Z</time></trkpt>
 <trkpt lat="50.575613700" lon="6.496550300"><ele>468</ele><time>2013-07-05T16:05:41Z</time></trkpt>
 <trkpt lat="50.575604500" lon="6.496522400"><ele>467</ele><time>2013-07-05T16:05:46Z</time></trkpt>
 <trkpt lat="50.575598300" lon="6.496511200"><ele>466</ele><time>2013-07-05T16:05:49Z</time></trkpt>
 <trkpt lat="50.575592800" lon="6.496515800"><ele>465</ele><time>2013-07-05T16:05:53Z</time></trkpt>
 <trkpt lat="50.575592800" lon="6.496515800"><ele>464</ele><time>2013-07-05T16:05:58Z</time></trkpt>
 <trkpt lat="50.575598700" lon="6.496517400"><ele>463</ele><time>2013-07-05T16:06:01Z</time></trkpt>
 <trkpt lat="50.575600000" lon="6.496525800"><ele>463</ele><time>2013-07-05T16:06:05Z</time></trkpt>
 <trkpt lat="50.575600000" lon="6.496525800"><ele>462</ele><time>2013-07-05T16:06:09Z</time></trkpt>
 <trkpt lat="50.575626600" lon="6.496528300"><ele>461</ele><time>2013-07-05T16:06:14Z</time></trkpt>
 <trkpt lat="50.575648700" lon="6.496528700"><ele>460</ele><time>2013-07-05T16:06:18Z</time></trkpt>
 <trkpt lat="50.575654100" lon="6.496528700"><ele>459</ele><time>2013-07-05T16:06:21Z</time></trkpt>
 <trkpt lat="50.575660300" lon="6.496530000"><ele>459</ele><time>2013-07-05T16:06:25Z</time></trkpt>
 <trkpt lat="50.575660300" lon="6.496530000"><ele>458</ele><time>2013-07-05T16:06:29Z</time></trkpt>
 <trkpt lat="50.575661200" lon="6.496538300"><ele>457</ele><time>2013-07-05T16:06:34Z</time></trkpt>
 <trkpt lat="50.575627000" lon="6.496572400"><ele>457</ele><time>2013-07-05T16:06:37Z</time></trkpt>
 <trkpt lat="50.575605800" lon="6.496612000"><ele>456</ele><time>2013-07-05T16:06:42Z</time></trkpt>
 <trkpt lat="50.575591600" lon="6.496644500"><ele>455</ele><time>2013-07-05T16:06:45Z</time></trkpt>
 <trkpt lat="50.575584900" lon="6.496662400"><ele>455</ele><time>2013-07-05T16:06:50Z</time></trkpt>
 <trkpt lat="50.575581200" lon="6.496669500"><ele>454</ele><time>2013-07-05T16:06:53Z</time></trkpt>
 <trkpt lat="50.575554100" lon="6.496701200"><ele>454</ele><time>2013-07-05T16:06:58Z</time></trkpt>
 <trkpt lat="50.575512000" lon="6.496735800"><ele>453</ele><time>2013-07-05T16:07:02Z</time></trkpt>
 <trkpt lat="50.575482000" lon="6.496758300"><ele>453</ele><time>2013-07-05T16:07:05Z</time></trkpt>
 <trkpt lat="50.575442800" lon="6.496764900"><ele>452</ele><time>2013-07-05T16:07:09Z</time></trkpt>
 <trkpt lat="50.575394900" lon="6.496763300"><ele>452</ele><time>2013-07-05T16:07:13Z</time></trkpt>
 <trkpt lat="50.575361600" lon="6.496749100"><ele>452</ele><time>2013-07-05T16:07:17Z</time></trkpt>
 <trkpt lat="50.575319100" lon="6.496739900"><ele>451</ele><time>2013-07-05T16:07:21Z</time></trkpt>
 <trkpt lat="50.575285300" lon="6.496712000"><ele>451</ele><time>2013-07-05T16:07:26Z</time></trkpt>
 <trkpt lat="50.575247400" lon="6.496677400"><ele>450</ele><time>2013-07-05T16:07:30Z</time></trkpt>
 <trkpt lat="50.575215800" lon="6.496653300"><ele>450</ele><time>2013-07-05T16:07:33Z</time></trkpt>
 <trkpt lat="50.575201600" lon="6.496629900"><ele>449</ele><time>2013-07-05T16:07:38Z</time></trkpt>
 <trkpt lat="50.575188200" lon="6.496607000"><ele>448</ele><time>2013-07-05T16:07:41Z</time></trkpt>
 <trkpt lat="50.575169500" lon="6.496644500"><ele>448</ele><time>2013-07-05T16:07:46Z</time></trkpt>
 <trkpt lat="50.575140800" lon="6.496685800"><ele>447</ele><time>2013-07-05T16:07:50Z</time></trkpt>
 <trkpt lat="50.575099500" lon="6.496727400"><ele>447</ele><time>2013-07-05T16:07:53Z</time></trkpt>
 <trkpt lat="50.575066200" lon="6.496750300"><ele>446</ele><time>2013-07-05T16:07:58Z</time></trkpt>
 <trkpt lat="50.575025400" lon="6.496785800"><ele>445</ele><time>2013-07-05T16:08:01Z</time></trkpt>
 <trkpt lat="50.574992900" lon="6.496832900"><ele>445</ele><time>2013-07-05T16:08:05Z</time></trkpt>
 <trkpt lat="50.574955800" lon="6.496884100"><ele>444</ele><time>2013-07-05T16:08:09Z</time></trkpt>
 <trkpt lat="50.574927000" lon="6.496933700"><ele>444</ele><time>2013-07-05T16:08:13Z</time></trkpt>
 <trkpt lat="50.574888300" lon="6.496989900"><ele>443</ele><time>2013-07-05T16:08:17Z</time></trkpt>
 <trkpt lat="50.574853300" lon="6.497048700"><ele>443</ele><time>2013-07-05T16:08:21Z</time></trkpt>
 <trkpt lat="50.574807400" lon="6.497082000"><ele>442</ele><time>2013-07-05T16:08:26Z</time></trkpt>
 <trkpt lat="50.574802400" lon="6.497099100"><ele>442</ele><time>2013-07-05T16:08:29Z</time></trkpt>
 <trkpt lat="50.574800300" lon="6.497107000"><ele>442</ele><time>2013-07-05T16:08:33Z</time></trkpt>
 <trkpt lat="50.574782400" lon="6.497124100"><ele>441</ele><time>2013-07-05T16:08:37Z</time></trkpt>
 <trkpt lat="50.574745800" lon="6.497169900"><ele>441</ele><time>2013-07-05T16:08:42Z</time></trkpt>
 <trkpt lat="50.574706600" lon="6.497223700"><ele>441</ele><time>2013-07-05T16:08:46Z</time></trkpt>
 <trkpt lat="50.574671200" lon="6.497278300"><ele>440</ele><time>2013-07-05T16:08:50Z</time></trkpt>
 <trkpt lat="50.574640800" lon="6.497337000"><ele>440</ele><time>2013-07-05T16:08:54Z</time></trkpt>
 <trkpt lat="50.574598700" lon="6.497381200"><ele>440</ele><time>2013-07-05T16:08:57Z</time></trkpt>
 <trkpt lat="50.574554900" lon="6.497422000"><ele>440</ele><time>2013-07-05T16:09:02Z</time></trkpt>
 <trkpt lat="50.574520300" lon="6.497464100"><ele>439</ele><time>2013-07-05T16:09:05Z</time></trkpt>
 <trkpt lat="50.574497000" lon="6.497512400"><ele>439</ele><time>2013-07-05T16:09:09Z</time></trkpt>
 <trkpt lat="50.574457800" lon="6.497544500"><ele>439</ele><time>2013-07-05T16:09:14Z</time></trkpt>
 <trkpt lat="50.574419900" lon="6.497569100"><ele>439</ele><time>2013-07-05T16:09:17Z</time></trkpt>
 <trkpt lat="50.574402800" lon="6.497564100"><ele>439</ele><time>2013-07-05T16:09:22Z</time></trkpt>
 <trkpt lat="50.574406600" lon="6.497557000"><ele>438</ele><time>2013-07-05T16:09:26Z</time></trkpt>
 <trkpt lat="50.574378700" lon="6.497541600"><ele>438</ele><time>2013-07-05T16:09:30Z</time></trkpt>
 <trkpt lat="50.574334500" lon="6.497540300"><ele>438</ele><time>2013-07-05T16:09:34Z</time></trkpt>
 <trkpt lat="50.574311600" lon="6.497539100"><ele>438</ele><time>2013-07-05T16:09:38Z</time></trkpt>
 <trkpt lat="50.574304900" lon="6.497534500"><ele>438</ele><time>2013-07-05T16:09:41Z</time></trkpt>
 <trkpt lat="50.574282800" lon="6.497503700"><ele>437</ele><time>2013-07-05T16:09:45Z</time></trkpt>
 <trkpt lat="50.574259900" lon="6.497463700"><ele>437</ele><time>2013-07-05T16:09:50Z</time></trkpt>
 <trkpt lat="50.574242400" lon="6.497431200"><ele>437</ele><time>2013-07-05T16:09:53Z</time></trkpt>
 <trkpt lat="50.574206200" lon="6.497384500"><ele>437</ele><time>2013-07-05T16:09:58Z</time></trkpt>
 <trkpt lat="50.574157400" lon="6.497341200"><ele>437</ele><time>2013-07-05T16:10:02Z</time></trkpt>
 <trkpt lat="50.574121200" lon="6.497311600"><ele>437</ele><time>2013-07-05T16:10:06Z</time></trkpt>
 <trkpt lat="50.574114900" lon="6.497303700"><ele>436</ele><time>2013-07-05T16:10:10Z</time></trkpt>
 <trkpt lat="50.574114900" lon="6.497303700"><ele>436</ele><time>2013-07-05T16:10:14Z</time></trkpt>
 <trkpt lat="50.574118300" lon="6.497313300"><ele>436</ele><time>2013-07-05T16:10:14Z</time></trkpt>
</trkseg>
</trk>
<extensions>
</extensions>
</gpx>